GFSWCAN_sfc_wetblb_000.txt.gz
Wetbulb
49.86 49.86 49.79 49.72 49.72 49.87 49.85 50.27 50.17 50.38 50.50 50.48 50.56 50.41 50.44 49.84 49.67 48.46 46.91 49.47 44.19 39.42 40.33 44.22 44.57 40.17 39.78 41.91 39.60 43.03 41.13 43.69 44.25 45.24 46.23 46.80 47.32 49.40 48.97 52.48 52.34 51.29 50.11 49.34 50.84 48.49 46.52 57.87 58.37 54.90 59.46 62.60 62.86 63.36
49.64 49.82 49.92 49.87 49.73 49.73 49.68 49.33 50.06 50.28 50.27 50.29 50.18 50.07 49.67 49.39 48.59 49.00 44.57 51.14 51.45 42.64 40.66 47.28 47.38 47.98 46.58 45.42 42.77 43.28 41.43 41.37 43.28 44.13 48.10 49.67 49.67 52.82 50.65 46.91 56.01 50.42 53.76 51.63 52.46 52.13 57.05 58.45 57.54 61.06 63.23 62.54 63.17 64.02
49.51 49.64 49.77 49.91 49.58 49.80 49.59 49.20 49.64 49.94 50.14 50.09 49.73 49.67 49.39 48.86 48.80 48.95 46.70 49.08 47.19 42.25 42.11 44.01 44.20 48.63 50.04 48.61 50.04 41.54 43.32 44.64 46.16 48.17 44.79 47.35 46.84 53.54 49.51 51.32 53.49 55.63 58.22 54.58 54.53 55.36 56.60 57.25 59.13 60.84 61.88 62.09 63.41 64.32
49.52 49.38 50.00 50.38 50.16 49.94 49.79 49.79 49.66 49.66 50.02 49.22 49.07 49.24 49.27 48.89 48.76 48.70 46.81 49.03 46.64 42.58 36.81 41.84 49.47 47.08 49.98 50.57 48.23 48.46 46.82 47.78 47.36 47.37 46.36 45.55 47.24 54.52 52.91 54.49 54.81 54.80 56.41 55.26 54.52 55.41 56.51 57.11 57.31 58.60 59.11 61.23 62.39 63.28
49.36 49.64 49.79 49.55 49.49 49.49 49.51 49.61 49.52 49.44 48.72 48.53 48.57 49.17 48.98 49.09 49.06 50.42 50.07 49.46 49.32 42.90 37.50 39.61 45.13 49.69 50.48 48.42 48.21 48.04 46.62 43.54 43.21 42.59 46.01 45.19 50.20 51.11 55.39 54.12 48.33 49.85 52.24 54.22 52.18 55.55 54.35 51.24 54.47 56.44 56.71 58.27 60.13 60.54
49.73 49.61 49.74 49.41 49.15 49.33 49.49 49.57 49.69 49.09 48.70 48.99 49.09 49.39 48.72 49.13 49.03 48.05 42.86 47.34 49.43 47.82 39.78 37.34 46.90 47.31 50.13 49.73 47.53 46.91 47.53 45.43 45.13 45.37 47.22 46.33 50.97 51.29 48.09 44.98 47.59 51.18 54.93 56.41 55.90 55.87 52.46 52.04 52.91 55.09 54.45 55.89 57.02 57.37
49.42 49.05 49.34 49.22 49.57 49.37 49.48 49.62 49.38 48.86 48.69 49.10 49.17 49.27 49.10 49.25 48.77 44.60 41.68 46.55 47.47 49.05 39.37 36.79 42.58 49.34 50.24 49.75 49.12 48.05 48.99 48.09 47.48 47.67 45.79 47.20 50.27 51.41 45.66 42.72 48.23 51.63 54.02 55.11 55.50 53.48 50.31 52.33 50.52 53.47 55.04 55.98 55.85 57.24
48.99 49.10 48.93 49.43 49.29 49.17 48.96 49.12 49.26 48.96 48.66 48.60 48.91 49.20 49.51 49.79 49.29 45.97 49.84 48.76 48.95 44.40 42.13 36.52 40.29 45.20 50.59 47.61 45.99 49.34 46.38 46.22 48.50 48.62 46.50 47.74 50.23 49.35 43.14 47.38 49.61 50.84 51.64 50.62 51.31 52.73 52.62 52.84 53.17 54.07 55.49 55.88 54.27 53.81
49.65 49.39 49.40 49.85 49.71 49.37 48.92 49.02 49.25 49.19 49.24 49.41 49.41 48.78 49.45 47.53 44.09 47.39 49.27 50.33 49.06 42.69 38.00 39.30 37.87 39.32 51.43 48.83 49.23 47.82 47.91 42.77 49.81 46.89 49.52 49.54 45.28 42.74 45.87 47.46 48.77 50.43 50.05 50.52 51.23 51.30 51.92 52.41 53.11 52.48 53.20 55.05 55.48 55.74
50.04 50.23 50.06 49.79 49.63 49.41 49.56 49.61 49.51 49.76 49.82 49.39 48.93 46.73 43.33 48.38 50.52 50.89 47.72 44.10 43.55 42.72 42.33 39.85 45.54 41.61 46.65 49.25 46.57 46.58 47.96 43.61 41.66 48.09 51.31 45.21 43.69 47.86 49.20 50.38 50.54 50.10 51.93 51.99 48.36 47.52 49.27 50.86 51.70 52.35 53.01 54.25 54.85 55.85
49.96 49.82 49.94 49.90 49.64 49.79 49.67 49.80 49.40 49.50 50.31 47.79 44.48 43.91 49.72 51.31 49.68 47.17 42.27 40.49 42.21 39.95 44.15 45.10 45.53 43.30 50.40 45.13 46.84 50.95 47.00 46.59 40.09 46.11 44.72 42.56 40.02 46.61 50.23 50.34 51.95 52.71 52.79 53.40 53.98 53.63 53.12 53.72 53.40 54.31 53.95 55.43 56.54 57.32
50.10 49.88 49.80 49.71 49.46 49.84 49.97 49.77 49.70 49.27 48.18 47.28 46.61 48.14 49.29 47.53 45.15 39.79 39.80 42.17 40.02 40.43 46.85 44.87 44.99 46.09 46.64 49.67 47.76 50.16 46.53 47.78 41.35 50.23 45.92 37.57 42.97 48.38 50.11 51.30 52.80 53.93 53.57 54.06 53.94 53.07 53.76 54.24 55.07 54.49 54.52 54.46 55.95 57.60
49.71 49.55 49.65 49.88 50.05 49.99 50.03 49.79 49.73 49.61 49.61 50.68 46.37 43.26 43.12 43.61 36.32 36.65 35.37 39.01 40.44 44.39 47.59 47.29 45.51 46.88 48.99 50.07 48.75 49.24 44.06 44.15 49.37 44.56 42.61 43.41 48.05 50.07 51.46 51.83 52.85 54.07 53.78 53.54 53.16 53.62 54.16 54.79 55.81 55.65 54.87 56.09 56.35 55.86
49.50 49.43 49.21 49.50 49.57 49.92 50.28 50.42 50.34 49.26 48.63 43.36 40.22 34.47 34.74 35.28 38.23 39.76 40.78 42.44 47.01 47.81 47.77 48.33 47.71 45.92 49.94 47.39 48.41 43.59 47.84 49.84 42.66 39.44 40.22 46.32 49.40 51.31 52.03 52.30 52.38 52.21 52.61 52.90 53.56 53.81 53.75 54.62 55.37 56.54 57.18 56.96 56.88 57.24
49.43 49.23 48.98 49.22 49.04 49.86 50.53 49.30 48.56 51.30 47.41 40.16 37.58 32.48 36.46 40.78 43.88 45.87 47.49 47.78 49.20 50.02 49.39 49.37 48.17 48.32 46.89 46.11 47.29 46.63 42.84 39.81 39.88 38.95 45.08 50.85 51.89 53.16 53.05 53.35 53.51 53.84 54.13 53.66 54.33 54.43 54.53 54.97 55.06 55.82 57.64 58.75 58.59 58.69
49.40 48.87 50.40 48.84 49.62 50.29 50.06 50.45 52.21 52.23 46.82 45.02 42.83 40.50 43.99 43.23 43.45 45.36 46.01 47.09 50.51 49.61 51.42 49.20 44.99 43.65 43.71 45.15 42.23 41.44 39.48 36.19 41.11 45.11 49.15 52.35 53.72 53.97 54.92 55.10 55.19 55.69 55.73 55.39 55.57 55.65 55.71 55.88 55.95 56.23 57.31 57.90 58.69 59.15
49.67 49.48 49.69 50.12 50.09 50.39 49.22 51.37 51.64 47.25 46.41 44.04 43.59 47.16 46.11 45.52 44.37 45.04 46.94 47.54 50.98 49.71 45.90 46.87 42.18 41.19 46.77 41.13 38.36 41.06 36.56 39.01 47.16 50.05 53.33 54.23 54.55 55.27 56.24 56.35 56.22 56.58 56.62 56.34 56.54 56.78 57.10 57.24 57.14 56.61 56.00 57.41 57.76 58.59
49.85 51.23 50.52 49.96 50.72 51.90 53.38 51.88 49.41 47.12 42.90 45.71 43.14 44.42 46.57 47.57 46.28 46.84 47.37 49.24 49.11 48.54 48.67 44.95 47.07 41.46 39.66 37.33 39.13 44.45 46.48 49.55 52.11 53.43 54.47 54.89 55.51 56.22 56.50 56.55 56.98 57.19 57.01 57.18 57.32 57.12 57.24 57.11 55.23 54.91 56.50 57.64 57.66 56.11
49.69 50.59 50.23 50.26 50.54 49.84 47.70 48.52 49.61 43.13 44.25 45.62 45.73 47.03 47.14 47.41 49.04 49.47 49.48 50.03 50.37 51.59 50.62 47.33 43.64 41.27 42.37 46.10 46.47 48.77 50.17 51.54 51.76 52.65 53.82 56.00 57.02 56.83 57.06 57.69 57.34 56.87 56.24 55.24 54.26 54.74 55.59 56.25 55.63 55.34 55.12 55.49 54.62 55.32
50.02 50.26 50.25 50.69 50.88 49.99 44.93 47.01 51.11 45.47 42.70 44.38 46.63 46.05 47.12 46.90 48.79 49.38 49.56 50.02 50.05 48.48 45.83 43.49 43.87 45.80 46.54 48.13 49.94 50.46 51.54 53.05 53.88 52.85 52.89 55.99 55.30 55.92 55.01 54.58 53.66 53.73 53.63 53.81 52.75 48.45 53.30 53.29 53.72 54.25 54.20 54.47 54.35 54.31
50.73 51.82 50.84 51.42 51.32 49.90 47.89 46.12 46.28 46.71 46.03 45.16 46.65 46.82 46.61 48.56 47.40 47.40 47.35 49.79 47.12 45.75 44.42 47.13 48.14 49.80 52.48 52.83 52.85 52.69 53.58 53.83 53.61 53.64 53.25 49.49 50.31 51.81 51.27 51.47 51.92 51.55 50.69 50.45 50.45 50.43 49.17 50.24 50.91 51.47 52.12 52.15 52.32 52.97
51.69 50.07 50.84 51.36 48.26 47.30 47.64 48.15 45.64 47.28 46.26 46.39 46.17 47.13 45.55 45.06 45.97 47.14 49.48 46.99 46.78 47.72 48.79 49.96 51.46 52.47 53.19 53.82 54.14 54.83 55.51 55.58 55.48 55.26 48.68 50.65 50.36 50.42 49.72 50.02 50.10 49.32 49.18 48.99 49.07 48.72 48.99 49.22 49.16 49.15 49.73 49.65 49.45 51.60
49.84 49.95 50.06 48.18 42.97 41.46 42.18 48.71 44.21 43.94 41.36 43.45 46.52 44.22 42.33 43.84 45.65 48.63 43.54 46.14 46.41 51.05 49.96 52.77 52.71 55.05 54.86 55.41 55.86 55.31 55.55 55.14 55.25 55.87 55.69 52.79 49.89 49.37 48.92 48.55 48.91 48.66 48.30 48.52 49.43 48.79 48.42 44.72 47.70 48.08 49.05 49.37 50.17 50.79
48.55 46.25 43.81 43.07 44.04 42.05 47.94 45.63 48.00 46.29 46.83 44.62 39.52 38.40 41.71 44.76 48.22 45.18 43.92 46.77 50.73 54.20 54.14 53.41 55.25 53.15 53.60 53.34 49.80 49.71 50.63 51.74 51.68 53.24 53.39 52.58 50.48 49.95 51.42 50.69 50.33 49.33 48.91 49.28 48.95 48.41 48.27 48.06 44.60 47.82 47.87 47.67 48.93 48.78
41.43 40.68 43.61 38.78 45.40 44.59 44.18 44.54 44.57 45.84 42.76 44.62 43.27 44.56 46.63 48.61 44.54 44.57 44.08 48.22 51.65 51.95 52.56 50.97 50.35 49.77 48.65 49.05 49.34 49.56 51.23 50.04 49.18 49.36 51.16 51.78 51.34 52.02 51.81 51.82 50.47 48.95 48.81 47.57 46.80 46.72 46.59 47.27 47.27 47.31 46.92 46.80 46.20 45.99
37.40 44.95 42.04 46.44 47.55 45.33 45.76 44.49 45.44 45.09 45.43 44.43 45.68 49.69 50.56 47.25 42.79 41.96 45.85 49.58 50.69 49.96 49.41 48.63 48.09 47.57 47.26 48.13 46.96 46.69 47.36 49.13 49.25 48.17 49.28 49.86 49.40 48.52 47.80 47.05 46.81 46.88 47.65 47.33 46.46 45.71 45.68 46.30 46.36 46.06 45.98 45.57 42.29 45.23
42.43 47.51 50.27 50.39 48.18 47.18 47.83 49.31 49.14 47.61 44.60 44.28 47.19 46.88 46.70 40.79 40.93 45.57 48.52 48.87 47.77 48.76 49.84 49.98 49.19 48.01 47.12 47.01 47.54 47.84 48.00 48.35 49.29 48.70 49.39 48.80 47.83 47.46 46.48 44.69 43.74 44.34 47.03 46.68 46.52 46.15 45.24 45.35 45.31 45.22 44.96 45.67 45.59 44.90
49.90 49.67 47.28 50.10 48.98 49.60 46.09 47.37 45.36 44.21 46.09 50.02 48.42 43.86 42.71 42.72 41.22 46.08 47.23 49.72 50.45 50.27 49.93 49.71 49.68 48.91 48.15 47.43 47.00 46.64 46.48 46.93 47.68 48.18 48.90 49.09 48.42 47.30 46.62 46.63 46.50 40.01 45.70 44.60 44.32 44.20 43.12 43.04 42.80 42.59 42.41 42.13 42.43 41.94
49.99 53.30 51.29 48.69 48.63 48.97 49.14 47.95 47.28 48.80 50.00 49.91 47.13 44.91 43.31 45.63 46.91 45.59 46.77 48.10 48.72 47.87 46.33 46.21 46.60 48.35 47.57 47.22 47.37 46.87 46.17 45.10 43.11 41.33 40.94 41.21 42.05 42.75 44.60 44.44 44.05 43.81 43.67 43.07 36.33 38.70 39.63 39.25 40.31 39.85 39.98 40.21 40.54 40.72
51.04 53.96 49.94 48.70 47.68 47.26 50.62 52.53 50.17 50.83 50.22 49.33 48.68 46.36 45.83 46.66 48.32 50.34 49.10 48.45 47.77 47.18 46.72 46.13 45.83 45.51 44.35 43.74 43.09 43.71 45.32 44.77 44.06 41.89 40.26 39.65 40.44 42.14 42.08 41.50 41.01 41.14 41.09 40.76 40.12 40.12 37.62 38.70 38.88 39.73 38.49 38.26 38.24 37.02
54.20 53.56 50.90 50.76 49.39 51.44 52.54 52.52 52.22 52.09 50.72 47.21 47.23 45.53 44.80 46.75 48.29 50.68 49.61 49.10 47.10 46.59 46.25 45.62 45.40 44.79 42.87 41.92 41.56 40.74 40.45 43.04 42.91 42.28 41.10 41.49 41.14 40.49 40.15 40.03 40.34 40.18 39.73 39.05 38.57 38.05 37.33 37.16 37.32 36.67 36.40 35.65 35.25 34.93
52.95 51.29 50.39 47.84 49.62 53.92 54.29 52.47 51.21 46.50 46.29 44.36 45.21 49.26 48.52 48.02 45.73 48.81 47.63 48.52 47.16 45.72 42.92 44.20 42.97 41.80 42.63 43.02 42.95 42.47 37.89 40.79 39.70 39.40 37.74 38.14 38.06 38.25 38.98 39.06 39.16 38.87 38.34 37.80 37.60 37.31 36.73 36.08 35.66 34.75 34.08 33.42 34.59 34.50
51.91 51.34 50.94 49.62 48.87 48.44 52.03 52.03 49.83 47.33 46.78 47.27 48.86 49.82 50.02 47.56 44.34 48.94 48.77 47.52 45.56 44.50 43.85 43.84 43.36 42.89 42.43 41.93 41.59 41.41 39.92 41.54 36.86 33.65 33.74 32.88 32.61 33.36 36.96 37.42 37.57 37.69 37.21 37.12 36.89 36.75 35.91 35.29 34.58 33.83 33.66 34.20 34.32 34.38

GFSWCAN_sfc_wetblb_003.txt.gz
Wetbulb
50.69 50.43 50.32 50.53 50.55 50.40 50.22 50.20 50.16 50.02 50.70 51.04 51.06 50.89 51.04 50.94 50.49 50.28 49.67 52.41 44.97 40.13 40.75 44.79 45.52 42.99 41.23 43.66 38.22 42.06 44.73 44.09 44.19 41.00 41.74 42.18 42.42 45.57 45.78 49.10 48.90 47.28 48.45 48.27 50.09 48.19 46.37 60.18 59.48 55.09 60.46 63.45 64.15 64.51
50.47 50.29 49.92 50.00 50.60 50.73 50.49 50.34 50.09 49.55 50.43 50.58 50.71 50.47 50.43 50.07 49.94 49.74 46.09 51.14 50.15 42.96 42.50 48.40 48.80 49.05 48.03 47.61 44.91 44.49 42.51 41.44 45.19 43.98 44.85 43.90 44.63 48.21 47.91 44.41 52.92 48.93 52.40 50.51 51.96 51.95 60.52 62.08 61.58 62.91 63.73 63.59 64.52 64.88
50.24 49.76 49.95 50.12 50.39 50.80 50.24 50.25 50.12 50.30 50.19 50.32 50.21 49.94 49.98 49.94 49.57 49.83 47.50 49.82 48.10 42.98 42.84 45.23 45.61 50.65 52.07 50.30 50.56 42.35 45.32 46.78 47.46 47.86 44.07 44.51 43.50 49.91 47.02 47.93 52.09 54.10 57.94 54.65 55.81 58.01 59.16 60.83 62.15 62.97 63.34 63.02 64.40 66.19
49.72 49.65 49.93 50.24 49.98 50.05 50.01 50.03 50.12 50.16 50.13 49.85 49.92 49.81 49.94 49.58 49.38 49.35 48.51 50.22 47.37 43.90 38.89 42.28 50.73 48.65 51.53 52.22 50.34 49.43 46.98 50.20 46.88 47.85 43.44 44.90 44.51 50.25 48.04 50.62 53.56 52.24 56.82 55.56 56.09 58.12 58.61 59.06 60.19 60.99 61.70 63.26 63.29 64.08
49.70 49.69 49.68 49.71 49.84 50.12 50.15 50.24 50.22 50.00 49.59 49.49 49.64 49.83 50.04 49.75 50.13 50.26 50.58 52.09 51.99 43.39 38.71 41.85 47.39 50.75 50.97 50.06 49.92 49.45 48.20 46.36 44.00 43.03 42.66 44.28 48.28 47.84 52.13 53.07 46.35 49.57 50.54 54.50 53.38 59.07 57.79 56.32 58.44 59.70 58.78 58.83 60.06 60.81
49.87 49.39 49.56 50.04 50.14 49.72 49.75 50.15 50.00 49.89 49.60 49.53 49.86 49.83 49.77 49.83 50.53 49.26 44.42 50.49 51.35 51.19 42.24 37.49 48.76 49.58 51.81 49.91 50.07 49.10 48.73 48.45 47.32 43.51 42.60 48.62 51.42 48.71 45.82 44.01 49.14 52.91 56.86 58.54 55.16 58.95 56.02 56.22 56.92 56.66 56.13 55.96 57.93 58.55
49.79 49.74 49.63 50.09 50.37 49.99 49.67 49.60 49.79 49.74 49.59 49.31 49.19 49.43 49.88 49.99 49.53 46.25 43.19 46.95 48.70 50.48 40.59 37.03 40.13 48.70 52.16 50.75 49.65 49.57 50.41 47.83 46.74 43.80 43.98 49.15 49.28 49.53 44.82 42.39 49.75 51.77 54.84 55.70 58.45 57.83 55.23 56.01 52.27 54.33 56.08 56.07 56.61 57.77
50.38 50.57 50.36 50.26 50.18 49.61 49.77 49.64 49.88 50.18 50.00 49.81 49.73 49.88 50.07 50.40 49.57 46.37 50.31 49.23 49.47 45.53 42.72 36.67 39.77 47.39 52.52 47.96 47.28 51.10 46.51 46.41 47.71 45.16 49.70 46.95 48.91 48.12 42.46 47.15 49.28 50.93 52.79 54.17 54.57 57.36 56.39 56.36 54.97 54.09 54.70 54.51 54.32 54.17
50.23 50.19 50.42 50.27 50.20 49.97 50.20 49.78 49.84 50.32 50.64 50.66 50.51 50.30 50.43 48.25 45.81 50.27 50.49 49.91 48.35 44.13 38.05 38.89 37.25 37.95 51.96 46.94 47.11 48.09 48.82 43.99 48.21 45.80 47.94 48.30 44.81 41.21 45.26 46.28 48.83 49.87 49.33 51.81 53.77 54.91 54.57 53.02 51.96 52.88 53.60 53.69 53.70 54.93
50.28 50.29 50.26 50.30 50.25 50.30 50.35 50.45 50.53 50.38 49.99 50.96 50.55 46.43 46.26 50.01 50.19 52.74 49.53 45.17 42.79 44.16 41.93 39.44 46.02 42.37 47.59 47.18 46.13 46.29 47.35 44.64 42.27 45.97 48.30 44.25 41.06 46.74 49.08 49.66 51.08 50.95 50.67 51.02 48.45 49.01 51.26 51.49 51.55 52.12 52.05 52.78 53.53 54.86
50.07 50.07 50.03 49.94 50.35 50.48 50.39 50.56 50.41 50.31 51.37 49.32 46.23 45.77 51.18 53.27 50.75 48.54 42.64 41.84 42.87 40.58 44.70 46.75 48.53 46.40 51.51 45.76 46.47 49.15 46.21 46.29 40.41 44.52 43.67 40.81 40.29 45.22 49.19 49.86 52.41 52.96 53.99 51.59 51.07 52.04 53.21 52.46 53.34 53.67 53.16 54.49 55.49 57.26
49.92 49.89 49.94 49.99 49.99 50.42 50.29 50.39 50.62 50.67 49.50 48.23 47.52 48.95 50.45 47.85 45.22 40.98 40.72 42.95 42.02 40.19 47.56 45.10 47.53 49.02 50.47 51.52 49.03 49.68 45.16 45.01 41.05 47.31 40.92 38.02 44.35 48.55 49.96 49.87 51.05 53.17 53.24 52.68 53.66 54.11 55.21 55.68 56.01 55.83 55.74 55.71 57.12 58.64
49.75 49.87 49.81 49.77 49.80 49.81 50.25 50.76 50.85 50.60 50.33 51.31 47.92 44.82 43.39 44.73 37.37 36.20 35.98 37.91 39.69 45.83 48.04 48.06 46.97 50.38 52.02 50.72 46.22 47.00 43.49 42.89 49.34 42.73 38.56 41.23 46.90 50.12 51.55 51.97 52.18 54.57 53.93 53.50 53.30 53.71 54.43 54.88 56.39 56.56 56.64 57.60 58.42 58.35
50.27 50.22 49.95 49.77 49.80 50.36 50.75 50.99 50.44 50.69 50.13 45.80 42.20 35.52 36.19 37.78 40.22 43.58 42.96 43.73 48.01 49.67 50.05 50.07 48.25 48.04 49.99 48.17 48.63 44.05 46.53 46.44 40.79 37.46 37.98 44.87 48.15 50.40 53.48 53.89 53.68 53.03 53.99 54.32 54.41 54.45 54.43 55.43 56.26 57.40 57.76 58.23 57.34 57.53
49.63 49.70 50.24 50.55 50.39 50.43 50.54 51.07 50.25 53.56 50.21 42.54 41.69 34.81 39.31 43.34 45.77 45.96 49.20 49.09 49.98 51.47 49.91 48.68 49.61 49.05 47.93 46.74 47.42 45.81 43.08 37.04 38.37 40.21 45.65 48.11 50.70 52.18 52.90 53.42 53.40 54.11 54.62 54.86 55.09 54.90 54.88 55.72 56.31 56.45 57.87 58.31 59.54 59.08
49.66 49.92 52.00 50.32 50.28 50.07 50.24 52.60 55.23 53.80 51.62 48.64 44.90 42.41 45.74 44.99 45.36 46.55 47.99 48.86 52.49 52.38 52.01 49.70 47.24 44.71 43.59 44.21 41.30 39.98 38.43 34.47 38.31 46.23 50.70 52.42 52.19 53.35 53.91 54.76 55.60 55.90 55.86 55.31 55.54 55.53 55.82 55.76 56.53 57.19 57.61 57.71 58.30 59.37
49.40 52.15 50.39 50.36 49.93 50.09 52.01 53.55 54.95 49.35 48.55 45.44 44.02 47.82 46.83 45.69 46.48 48.38 50.10 50.29 53.75 51.38 47.64 47.44 42.45 41.06 45.37 40.44 38.83 39.51 36.74 39.83 46.00 49.14 52.10 52.27 54.03 55.13 55.29 55.55 56.56 56.32 56.69 56.61 56.40 56.80 57.20 57.27 57.79 56.14 56.66 57.01 57.83 58.46
51.30 52.99 50.93 50.25 50.72 53.03 56.44 54.39 51.34 48.39 43.69 46.38 44.54 46.29 47.96 49.02 48.63 49.79 51.06 52.74 51.91 50.70 49.93 46.31 48.07 43.21 40.52 38.46 39.70 45.02 47.42 49.67 51.90 53.44 55.05 56.03 56.33 56.62 57.22 56.51 56.34 57.05 56.81 57.44 57.17 57.81 57.46 57.07 57.51 56.63 57.43 57.40 58.33 57.55
50.74 51.21 50.42 50.53 51.12 51.02 50.20 50.68 51.63 45.06 46.28 47.68 48.43 49.34 49.08 49.67 51.77 52.28 52.14 52.70 53.47 53.34 51.85 48.40 43.99 41.37 42.85 47.14 47.24 49.87 52.03 53.15 53.42 55.13 56.42 57.05 57.32 57.27 57.55 57.55 57.34 57.06 55.72 56.20 56.76 54.86 55.90 57.09 55.79 55.20 55.07 55.71 54.55 55.02
49.81 50.46 50.55 50.87 51.86 52.62 47.23 49.78 53.31 47.96 45.31 47.31 49.04 48.15 49.25 48.80 51.09 51.74 51.35 51.49 51.03 49.70 47.05 43.86 45.07 46.96 46.99 49.99 51.82 51.96 53.64 55.50 55.45 53.42 53.74 54.52 55.40 55.30 55.22 55.41 54.99 56.29 54.33 55.45 53.94 49.73 53.49 53.13 54.04 53.94 54.13 53.91 54.02 53.62
52.15 54.04 51.94 53.86 55.30 53.15 51.31 49.39 48.74 49.00 48.90 47.57 49.64 49.07 47.74 50.35 49.63 49.63 50.07 52.27 49.32 47.82 46.54 49.84 50.89 52.63 54.62 55.14 56.09 56.36 55.10 55.02 54.71 54.73 52.59 50.55 52.55 53.36 53.52 53.87 54.57 53.71 53.00 52.56 51.85 51.84 50.62 51.38 51.72 51.93 52.30 52.26 52.16 52.67
53.90 51.26 54.49 55.80 52.39 51.61 50.77 51.02 49.07 49.78 46.98 48.28 48.97 49.38 46.39 45.77 46.63 47.84 51.31 48.04 46.75 48.76 50.58 52.22 53.59 54.79 54.66 54.06 54.62 55.42 56.39 56.51 56.71 55.87 51.82 53.33 51.21 51.09 50.36 50.98 51.40 50.66 51.51 50.72 50.52 50.40 50.49 50.62 50.40 50.30 50.55 50.25 49.93 52.09
51.04 51.52 53.90 52.98 48.67 46.10 47.30 54.97 47.47 47.83 44.94 46.88 49.27 45.77 45.93 47.84 48.15 51.39 45.16 46.96 49.23 51.55 55.00 54.74 54.14 55.11 53.98 53.17 53.57 52.59 54.67 54.92 53.40 53.56 54.25 53.65 53.18 53.08 52.65 52.58 51.66 50.35 49.76 50.14 50.98 50.33 49.62 46.18 48.53 48.90 49.84 49.69 49.79 50.71
48.28 49.62 47.69 48.04 49.82 45.89 53.17 49.74 52.92 50.97 50.04 48.46 47.13 43.99 46.65 48.92 52.78 48.55 44.85 48.24 51.94 54.48 52.92 53.97 51.85 50.63 51.68 52.87 49.79 49.64 50.23 51.39 51.46 52.50 52.86 52.00 51.16 51.54 52.47 51.49 51.32 50.69 49.80 49.94 49.72 49.30 49.12 48.46 45.59 48.76 48.90 48.44 48.64 48.43
44.90 43.61 48.78 41.41 52.19 48.69 46.31 46.86 47.56 49.19 44.43 47.16 45.22 46.34 48.34 52.69 45.48 43.85 43.67 47.76 50.17 49.19 50.45 51.47 51.19 50.29 48.58 48.76 48.96 48.82 50.64 49.76 49.60 49.94 50.81 51.28 51.06 51.20 50.48 50.76 49.77 49.25 49.74 48.20 47.83 47.48 47.47 47.77 47.85 47.84 47.75 47.69 46.97 46.59
41.71 49.60 44.16 49.64 50.42 48.67 48.43 44.70 45.45 45.64 46.99 45.76 46.59 50.71 52.40 49.44 44.14 42.10 45.86 47.84 47.39 48.93 49.70 49.70 48.79 48.54 48.40 48.57 47.30 46.77 47.30 49.31 50.01 48.71 49.17 49.45 48.49 47.67 47.05 46.86 46.78 46.77 47.98 47.79 46.41 45.59 45.67 46.08 45.94 46.19 46.11 45.85 42.50 44.82
43.80 48.70 54.06 56.23 52.96 52.02 50.44 52.76 52.57 49.88 45.37 45.22 48.39 48.07 45.95 41.71 39.70 42.07 46.62 48.15 47.28 48.85 50.29 50.12 49.32 48.54 47.96 48.36 48.87 48.72 48.67 48.72 48.68 48.38 50.59 50.23 49.07 47.91 46.57 44.79 43.55 43.55 46.59 46.02 44.95 44.39 43.03 42.50 42.64 43.19 43.22 43.82 43.88 43.48
52.66 52.95 49.20 52.47 52.98 54.28 49.22 48.55 47.26 46.08 47.33 50.53 48.66 44.49 42.64 41.67 39.69 43.84 46.88 49.77 50.54 50.56 49.83 50.50 50.00 49.27 49.02 48.94 48.51 47.93 48.10 48.07 48.20 48.39 48.33 49.11 48.14 46.91 46.10 45.64 45.04 39.82 44.04 43.37 42.49 42.55 41.56 40.39 40.00 40.61 40.67 40.64 41.20 42.24
52.57 54.62 54.27 50.95 50.75 50.31 50.03 47.99 47.42 50.38 51.91 50.24 47.86 44.52 43.01 46.05 46.33 45.75 47.11 49.18 50.01 48.70 48.25 47.17 47.59 49.22 48.69 48.05 47.67 47.22 47.26 45.93 43.69 41.81 41.83 41.74 42.18 42.43 43.99 43.50 43.25 43.12 43.02 42.67 35.56 38.27 39.51 39.12 39.67 39.85 40.09 40.43 40.64 40.71
51.35 55.24 51.85 50.12 49.82 48.59 51.47 52.59 51.35 52.53 51.94 50.43 47.58 44.96 44.11 45.55 47.65 51.63 51.91 52.44 50.14 48.45 48.91 48.79 48.30 46.70 44.50 44.03 43.92 44.55 45.75 45.06 43.58 41.05 38.82 38.88 39.97 41.94 41.91 41.89 41.63 41.78 41.95 41.43 40.98 40.91 37.75 39.75 39.98 40.74 39.34 38.76 38.01 37.19
53.59 52.32 50.33 50.38 50.32 52.69 52.28 53.34 53.20 52.70 51.16 48.55 47.84 44.96 44.02 47.66 50.45 52.54 51.27 50.56 49.90 49.19 47.69 46.00 45.47 45.13 43.30 43.15 42.55 41.14 40.95 42.84 42.04 41.01 39.46 39.99 40.55 40.39 40.76 40.93 41.11 41.17 40.76 40.50 39.92 39.70 39.12 38.61 38.46 37.54 36.91 36.19 36.11 35.88
52.57 50.20 49.66 47.05 49.80 54.15 54.32 51.62 51.72 49.89 50.82 48.37 47.56 48.84 47.76 46.81 44.83 49.25 49.50 48.98 47.35 45.90 44.07 44.98 43.57 42.78 44.05 44.11 44.10 43.64 37.83 43.15 41.46 40.16 38.70 37.77 38.05 39.14 40.16 40.14 40.31 40.42 39.90 39.91 39.62 39.38 38.60 37.34 36.79 36.21 35.65 35.33 35.05 34.80
52.54 51.92 51.39 50.05 50.43 47.93 53.01 51.94 49.89 48.31 47.98 49.27 49.38 51.49 50.08 48.53 44.21 48.14 51.05 49.69 46.98 45.45 44.86 44.97 44.78 44.62 44.34 43.35 42.95 42.57 41.75 42.55 36.51 32.97 33.15 32.36 31.59 33.79 38.05 39.52 39.76 40.09 39.57 39.26 38.96 38.27 37.12 36.04 35.58 35.90 35.70 34.86 34.36 34.82

GFSWCAN_sfc_wetblb_006.txt.gz
Wetbulb
50.99 50.89 50.72 51.03 50.99 51.24 51.28 51.10 50.96 50.66 50.34 50.61 51.40 51.22 51.20 51.27 51.23 50.19 49.34 52.63 44.92 39.70 40.95 44.32 45.28 42.17 41.72 40.92 36.87 40.74 38.88 44.33 43.58 37.85 36.58 37.73 37.75 41.81 42.60 46.67 47.09 45.57 44.68 46.31 50.00 48.49 46.11 60.21 58.43 54.40 60.18 62.99 62.97 63.09
50.70 50.43 50.26 50.64 50.69 50.95 50.96 50.96 50.74 50.72 50.68 50.87 50.81 50.79 50.76 50.54 50.35 50.17 47.23 52.86 51.79 44.26 41.66 46.64 47.99 49.37 47.69 46.62 43.76 43.43 40.32 39.93 44.23 42.32 43.38 43.12 40.50 44.81 44.49 40.58 49.18 44.40 49.14 47.60 49.82 50.70 58.81 62.62 62.51 63.58 63.81 62.99 64.05 65.13
51.15 50.91 50.94 50.89 50.93 51.16 51.40 51.02 50.80 50.80 50.87 50.68 50.59 50.42 50.33 50.54 50.45 49.51 49.88 51.42 48.62 42.87 42.63 44.83 44.53 49.67 51.64 50.56 50.05 41.99 43.34 45.49 46.08 47.34 44.13 43.23 41.71 46.69 43.22 45.52 47.72 51.30 53.79 50.21 51.79 56.12 59.85 61.55 62.48 63.11 63.92 63.84 64.53 64.84
50.83 50.07 50.11 50.66 50.96 51.01 50.98 51.07 50.81 50.80 50.64 50.39 50.41 50.19 50.17 50.37 50.13 49.68 47.61 50.63 48.49 43.71 37.80 40.39 49.47 48.55 52.10 52.28 50.72 49.32 47.19 49.04 48.65 47.90 43.31 42.89 41.81 48.01 43.96 46.66 49.58 51.18 52.03 52.86 53.12 59.95 60.15 60.93 62.06 62.77 62.66 63.65 63.33 62.62
50.74 50.26 50.18 50.55 50.94 50.73 50.41 50.34 50.98 50.47 50.23 50.30 50.38 50.42 50.55 50.29 50.81 50.11 50.64 52.36 51.51 42.78 37.43 40.68 47.08 49.32 51.35 50.69 50.10 49.92 47.73 46.22 44.34 41.98 43.42 40.94 47.66 46.15 48.60 48.34 45.68 50.98 50.21 49.93 52.79 59.41 58.79 58.47 60.93 60.74 60.06 60.55 61.28 60.75
50.81 51.08 51.04 50.85 50.81 50.95 50.41 50.41 50.53 50.51 50.34 50.12 50.10 49.87 49.83 50.25 51.02 48.63 44.34 51.33 52.84 50.50 41.51 37.60 47.78 47.98 51.31 50.19 48.46 48.64 47.72 47.35 46.01 44.43 43.75 43.82 48.60 47.09 44.40 43.07 48.96 52.72 55.80 56.91 51.23 56.03 54.56 56.96 57.24 58.22 57.72 57.65 58.72 59.17
50.74 50.54 50.78 50.95 50.90 50.82 50.78 50.86 50.75 50.77 50.91 50.95 50.96 50.53 50.17 50.50 49.47 46.42 44.17 47.55 49.10 50.45 41.86 37.28 39.66 50.03 51.54 49.13 48.49 48.65 49.07 47.22 47.54 45.14 43.39 44.04 47.63 48.81 46.09 42.12 49.08 52.06 53.97 54.24 54.95 54.40 52.79 55.05 54.21 56.71 56.80 57.92 58.25 59.18
50.54 50.56 50.50 50.66 50.73 50.38 50.56 50.48 50.71 50.88 51.04 51.34 51.37 51.26 51.18 50.94 49.68 46.73 50.54 49.89 48.96 45.24 42.39 36.20 38.66 44.04 50.45 45.82 45.19 50.43 46.71 47.25 46.86 45.04 44.51 46.61 47.81 46.84 43.05 47.99 50.40 51.32 53.59 54.15 55.17 55.81 54.47 56.24 56.40 55.36 56.82 57.17 56.54 55.72
50.29 50.48 50.50 50.46 50.65 50.91 50.86 51.02 51.28 51.37 51.39 51.31 51.49 51.89 51.24 48.43 45.59 50.88 50.77 50.43 49.11 44.41 37.86 38.86 36.37 37.56 47.24 45.87 47.61 47.50 47.51 40.76 47.70 43.02 44.86 47.47 43.10 40.53 44.94 47.68 48.48 50.77 51.33 52.00 54.01 54.01 54.77 53.85 53.26 54.11 54.83 54.39 54.68 55.35
50.42 50.31 50.41 50.49 50.34 50.40 50.28 50.69 50.84 51.16 51.00 51.25 51.27 48.40 46.16 51.46 51.87 52.11 48.30 44.61 43.10 43.13 42.54 38.36 44.53 41.15 43.67 43.38 44.54 45.33 46.25 43.05 40.19 44.08 48.24 42.95 40.87 46.84 48.35 50.21 50.63 51.08 51.48 53.77 51.52 50.40 51.51 52.44 53.34 52.94 52.75 53.56 53.56 51.96
50.21 50.19 50.31 50.40 50.46 50.35 50.23 50.22 50.68 51.01 51.33 50.52 47.09 45.92 51.06 54.16 51.01 47.21 42.60 40.78 41.98 39.42 42.88 45.27 46.67 45.58 48.48 43.91 45.79 50.40 46.71 46.98 40.22 41.14 42.75 39.99 39.35 44.90 49.07 50.34 52.46 51.48 51.65 51.80 53.52 54.54 53.63 51.88 50.85 50.47 51.91 52.90 53.56 54.57
50.62 50.51 50.63 50.59 50.72 50.52 50.38 50.34 50.90 51.47 50.58 47.98 46.69 49.61 50.29 48.63 45.67 39.96 37.77 40.95 40.23 36.32 44.49 45.99 47.57 49.26 49.97 51.57 45.74 47.55 44.27 44.80 39.29 46.96 41.12 37.47 42.79 47.96 48.76 49.47 51.28 52.36 52.10 52.95 53.87 54.18 54.67 54.94 56.34 55.33 54.71 55.30 55.36 57.33
50.29 50.21 50.18 50.23 50.77 50.69 50.84 50.76 51.26 51.01 50.67 52.32 49.56 46.82 44.67 45.01 37.84 37.73 35.45 35.19 39.55 43.88 48.70 48.59 46.91 48.02 49.88 51.13 46.18 44.69 41.52 41.53 47.43 40.92 38.03 40.50 46.10 48.77 49.84 51.62 51.31 52.80 53.20 53.46 53.65 54.35 54.57 55.93 56.54 56.42 56.26 57.58 58.45 57.78
49.94 49.97 49.88 50.21 51.10 50.79 50.68 50.80 51.47 51.85 49.68 46.82 43.21 38.46 39.96 38.31 39.49 40.97 42.39 43.42 48.06 48.35 49.06 49.15 47.72 44.88 45.74 45.13 46.02 41.16 45.07 45.22 40.02 38.11 38.21 43.80 46.91 49.53 51.68 53.14 53.49 52.39 52.63 53.69 53.91 54.61 55.52 56.35 55.31 56.43 56.71 57.91 58.01 56.89
49.89 49.77 49.83 51.10 50.95 50.58 50.40 50.81 51.30 54.08 50.90 46.17 46.44 39.17 42.39 46.28 48.38 48.67 49.47 49.26 50.54 51.03 50.44 49.65 49.65 49.33 46.60 45.28 46.33 44.62 40.49 37.25 37.73 40.07 44.04 48.63 50.80 52.81 53.40 52.99 53.41 53.46 54.38 54.40 55.27 55.36 55.08 56.21 56.73 56.19 57.18 57.06 57.40 57.56
49.96 49.98 52.67 50.79 50.61 50.23 50.04 52.93 55.35 56.22 53.80 49.65 47.96 43.90 46.33 45.75 45.96 47.97 49.30 48.49 53.36 50.94 52.36 52.03 47.23 44.21 42.38 42.98 39.60 37.41 37.37 34.94 38.32 45.27 48.98 51.46 52.36 51.47 51.98 53.78 53.89 55.33 55.68 55.90 55.75 56.55 57.32 56.09 55.48 57.30 57.31 58.26 57.66 58.75
49.46 53.16 50.84 50.73 50.50 50.18 52.21 53.99 55.54 50.08 48.44 46.21 44.76 48.59 48.23 47.37 46.08 48.37 49.78 50.72 53.59 51.73 46.52 47.22 42.52 41.66 45.13 39.68 36.33 39.42 38.09 41.39 45.91 48.53 50.41 51.42 51.42 51.66 54.87 54.66 55.11 54.19 55.56 55.54 57.11 55.77 53.88 57.99 57.65 58.21 57.68 58.64 56.39 59.00
52.06 54.07 51.46 50.56 51.03 53.29 56.10 54.95 52.01 48.96 44.73 47.37 45.69 47.66 49.87 50.46 49.81 50.30 51.76 52.40 51.38 50.74 50.08 45.45 47.67 41.90 39.47 38.13 40.42 44.69 47.61 49.64 50.99 51.43 52.36 54.38 55.36 56.35 57.75 55.68 56.55 56.56 55.73 53.21 53.42 56.04 56.24 56.66 54.10 52.64 54.55 54.85 54.83 55.46
50.80 51.15 50.32 50.39 51.37 50.92 51.54 51.20 52.31 45.08 46.85 48.18 49.56 50.65 49.87 50.95 51.73 53.39 52.75 53.06 53.95 53.41 51.02 48.75 43.23 42.15 44.33 47.90 48.12 49.61 51.75 52.54 52.56 55.03 56.23 56.87 56.65 57.15 57.47 57.15 56.91 56.47 56.92 55.83 54.58 53.04 54.54 56.94 54.74 53.44 53.91 54.20 53.52 53.92
49.84 50.59 51.32 51.42 51.40 53.51 49.09 50.77 53.86 48.42 45.36 47.56 49.94 49.47 50.20 50.27 52.45 52.67 52.41 53.63 52.23 50.66 47.88 46.23 47.19 49.54 50.00 52.13 54.01 53.89 55.03 56.24 54.78 52.59 53.21 55.83 54.40 56.67 56.06 53.83 53.39 55.75 53.95 55.30 54.04 49.40 53.17 52.50 52.44 51.98 52.10 52.28 52.28 51.38
52.09 55.23 52.93 54.72 55.46 54.76 52.05 49.81 49.15 49.45 48.77 47.72 51.12 50.46 49.33 50.50 49.61 49.26 49.51 52.21 48.38 46.82 46.39 51.11 51.75 53.87 54.99 55.67 56.31 54.98 55.48 54.87 54.35 53.80 52.64 50.95 52.83 52.30 52.68 53.44 53.17 52.42 51.83 51.44 50.94 50.86 49.48 49.85 50.05 50.20 50.45 50.42 50.42 51.53
55.63 52.07 55.95 57.60 53.54 53.00 51.70 53.62 50.57 51.20 48.94 50.48 49.92 50.35 48.23 47.42 47.35 46.91 49.55 47.76 47.45 50.25 51.93 52.16 53.47 51.57 51.14 52.10 52.12 53.36 56.21 56.59 56.07 56.06 51.37 52.67 50.95 51.44 51.78 52.61 52.11 51.05 50.64 50.38 50.35 49.80 49.53 49.24 48.76 49.24 49.75 49.34 49.14 51.08
52.74 53.06 55.85 55.46 50.71 47.63 47.01 54.59 49.37 50.22 46.26 47.41 49.65 47.47 47.73 48.41 49.97 52.16 47.08 48.98 50.01 55.94 55.85 54.95 55.73 55.81 54.05 54.59 53.03 51.49 52.86 54.02 52.29 52.27 52.36 52.34 52.61 52.71 51.95 51.75 51.33 49.93 49.15 49.12 50.11 49.35 48.90 45.96 48.05 48.17 49.47 49.53 49.32 49.33
49.07 52.76 50.67 51.03 51.88 46.26 53.52 50.18 51.72 49.77 50.04 49.08 47.87 45.14 47.55 49.72 51.86 47.85 43.82 48.41 51.52 51.54 51.36 53.71 52.11 50.46 50.86 51.97 48.65 48.81 50.25 51.08 50.76 51.14 50.97 50.38 50.01 50.62 50.30 50.56 50.45 49.37 49.15 49.39 49.04 48.37 48.07 47.61 45.57 48.11 48.29 48.03 48.24 47.81
46.54 46.33 49.10 40.90 53.77 49.64 46.86 47.45 48.03 47.40 45.65 47.42 45.86 46.49 49.03 52.02 46.00 43.38 43.13 45.81 47.58 47.56 49.42 50.89 50.46 50.33 47.97 48.39 48.82 48.59 51.15 48.65 48.33 48.56 49.29 49.26 48.58 48.86 48.65 48.92 48.40 47.50 47.48 46.88 45.62 45.43 45.74 46.12 45.92 45.99 46.32 46.14 45.21 45.33
40.55 51.64 44.67 49.80 49.94 48.37 48.33 45.92 46.68 46.49 46.85 45.71 47.24 49.62 48.14 46.29 43.17 41.35 43.26 45.86 47.51 48.86 49.22 49.17 48.75 48.35 48.13 48.61 47.57 47.01 47.83 49.05 48.55 47.13 48.65 49.37 47.70 46.10 45.01 44.36 43.45 42.95 45.44 46.03 43.96 42.54 42.96 42.73 41.90 41.89 42.47 43.09 41.00 42.75
43.91 48.78 54.01 57.71 54.27 53.32 51.00 51.47 50.96 48.66 46.18 44.62 48.23 48.10 47.07 41.67 39.19 41.79 46.39 47.40 47.35 50.16 51.29 51.16 49.93 48.39 47.51 47.58 48.33 48.42 48.95 48.74 48.00 47.29 48.96 49.14 47.32 46.59 45.04 42.80 41.14 41.34 44.12 43.86 42.75 42.23 40.96 40.22 39.80 40.36 40.96 41.75 42.16 41.95
51.33 52.92 43.16 45.31 49.62 51.90 46.91 49.50 48.23 46.35 47.35 50.21 49.88 44.24 42.86 41.68 39.68 44.64 45.36 48.43 50.52 51.33 51.19 51.22 51.33 50.10 48.64 47.50 47.65 47.51 47.41 47.30 46.97 47.19 47.98 47.47 46.38 45.23 44.94 44.44 44.07 40.08 43.38 42.38 42.19 42.03 40.57 39.97 39.88 40.01 40.26 40.06 40.51 41.15
51.81 51.68 52.46 50.68 50.90 51.06 50.47 47.97 47.53 50.09 51.22 50.81 47.83 44.81 43.08 46.31 48.70 49.14 50.57 51.15 52.01 51.33 49.76 47.78 48.06 48.67 47.45 46.89 47.06 46.75 46.05 44.30 41.58 39.39 39.20 39.55 40.33 41.05 43.08 43.15 43.05 42.87 42.94 42.42 37.03 39.07 40.17 39.97 40.17 40.04 40.01 39.69 39.74 39.67
51.59 55.00 51.65 49.51 48.77 48.47 50.13 51.61 51.00 52.09 51.78 50.22 48.95 47.51 47.86 48.71 51.20 53.37 52.33 51.09 49.12 48.06 48.33 47.66 47.07 45.57 43.86 43.50 43.48 43.91 44.72 43.59 41.60 38.95 36.22 36.52 38.27 40.94 41.66 41.62 41.51 41.79 41.86 41.73 41.23 41.31 38.99 40.47 40.30 40.51 39.25 38.85 38.46 37.55
54.35 53.24 50.75 51.24 48.84 51.28 52.95 54.46 53.27 52.48 51.61 50.30 50.56 48.36 47.34 48.57 52.31 51.16 50.24 49.61 48.76 47.73 46.26 44.97 44.96 44.80 43.48 42.82 42.42 41.40 40.34 43.27 42.10 40.86 39.14 39.31 39.94 40.46 40.84 40.87 41.20 41.54 41.31 41.31 40.99 40.47 39.80 39.06 38.71 38.01 37.49 36.91 36.82 36.56
53.73 51.49 49.85 48.16 50.98 54.26 55.03 53.84 52.17 50.76 49.90 49.86 49.02 48.50 48.49 48.88 46.93 47.89 50.48 49.35 47.24 45.20 43.98 44.56 43.62 43.38 44.45 44.20 43.99 43.61 40.17 42.53 40.82 39.61 38.64 38.58 38.97 39.73 40.34 40.83 41.02 41.03 40.47 40.43 40.18 39.50 38.52 37.62 37.24 36.82 36.62 36.24 36.55 36.70
52.26 52.01 52.11 50.65 50.62 50.36 53.71 53.17 51.95 49.40 50.16 48.04 49.68 50.46 49.63 48.24 44.10 46.85 51.49 50.09 47.10 45.35 44.17 44.47 45.02 45.36 45.24 44.28 43.45 43.14 42.64 41.08 37.03 33.91 33.41 32.90 32.03 34.31 38.12 39.69 39.72 39.70 39.13 39.20 38.66 38.26 37.22 36.96 36.91 36.81 36.72 36.52 36.45 36.41

GFSWCAN_sfc_wetblb_009.txt.gz
Wetbulb
51.25 51.17 51.07 51.05 51.05 51.43 51.58 51.91 51.95 51.34 51.27 51.36 51.32 51.35 51.40 51.42 51.11 49.31 47.35 50.78 45.62 38.47 39.34 41.16 41.83 39.43 39.94 39.77 35.77 39.73 38.26 39.14 37.93 36.81 34.45 35.36 34.67 37.54 38.44 41.24 40.72 39.20 39.12 41.59 44.42 42.81 41.04 58.13 56.96 52.91 55.25 58.81 61.15 61.40
51.54 51.15 50.74 50.70 51.14 51.75 51.87 51.79 51.81 51.72 51.72 51.32 51.03 51.10 50.95 50.82 50.90 50.51 45.37 51.41 51.19 43.24 40.63 45.22 45.14 45.68 44.61 44.32 41.67 41.22 39.22 38.07 38.15 39.13 40.36 40.99 36.91 41.24 40.41 36.43 46.33 39.17 44.07 42.05 43.81 46.01 55.55 58.31 55.95 58.69 59.48 60.31 61.41 61.51
51.51 51.48 51.16 51.18 51.32 51.52 51.68 51.60 51.55 51.72 51.36 51.00 51.13 51.01 50.75 50.79 50.73 50.09 47.42 49.21 47.87 42.31 41.02 41.67 41.51 46.78 48.61 47.53 48.39 39.17 41.20 42.62 42.42 46.51 42.22 42.41 38.92 44.18 39.28 40.19 45.01 47.88 51.41 46.44 49.72 50.65 54.56 56.34 58.56 62.01 61.22 60.24 60.29 61.97
51.40 51.37 51.47 51.54 51.39 51.30 51.62 51.41 51.43 51.43 51.34 50.83 50.92 50.94 50.98 51.00 51.06 50.22 46.49 49.60 47.39 42.90 35.93 38.29 47.61 45.37 49.67 49.75 48.98 47.03 45.32 45.34 46.43 45.91 42.37 40.89 39.29 46.49 42.70 43.73 44.42 49.84 49.65 49.41 49.65 54.17 56.44 57.83 59.45 60.45 60.53 60.27 59.25 59.60
51.09 51.10 51.16 51.14 51.35 51.42 51.24 51.16 51.41 51.45 51.59 51.06 51.11 51.06 50.68 50.43 50.98 49.90 48.42 49.20 49.58 42.46 36.16 37.14 43.58 46.65 48.46 47.85 46.86 48.21 46.47 43.63 42.83 40.49 41.66 40.84 44.93 44.73 46.26 46.45 43.72 48.78 49.59 47.77 47.75 52.35 52.69 54.35 55.86 58.30 57.64 57.61 57.70 57.30
50.69 50.94 50.90 50.85 51.02 51.24 51.38 51.29 51.22 51.37 51.39 51.51 51.49 51.42 51.44 51.32 50.86 46.91 43.82 50.46 52.48 48.79 39.72 35.61 44.42 44.98 48.93 50.19 48.87 47.07 46.34 44.32 43.45 43.36 43.36 45.13 46.45 44.54 41.60 40.78 47.34 49.94 52.63 54.49 52.38 53.40 53.42 54.04 54.75 56.62 55.46 55.99 57.01 57.13
50.73 50.75 50.66 50.85 50.91 51.03 51.11 51.26 51.33 51.33 51.57 51.88 51.89 51.97 51.80 51.55 48.66 43.73 43.48 47.96 49.52 47.49 41.17 36.68 36.91 46.64 48.27 48.87 45.82 45.38 46.29 44.50 44.42 45.05 43.22 44.18 44.13 45.33 44.32 39.65 47.27 50.90 53.65 53.93 55.12 54.40 51.98 52.82 51.45 54.49 54.86 55.28 55.50 56.71
50.86 50.71 50.64 50.60 50.78 50.92 50.85 50.97 51.11 51.18 51.45 51.76 51.93 51.71 51.98 51.77 50.21 46.05 48.97 49.62 48.89 44.44 42.82 35.39 36.39 41.81 47.61 43.90 42.00 46.94 43.78 45.25 45.79 45.06 44.73 41.84 44.76 45.43 41.93 46.47 50.07 51.32 53.96 54.11 54.30 54.75 53.96 55.03 54.19 53.99 55.40 55.28 54.19 54.08
50.82 50.75 50.60 50.56 50.65 50.71 50.94 50.96 51.16 51.12 51.20 51.63 51.82 51.80 50.24 47.81 45.52 49.22 51.08 50.18 49.40 44.65 37.97 38.17 35.39 35.06 46.83 45.11 46.42 46.15 46.18 40.33 46.69 41.50 41.38 43.40 42.19 39.77 44.26 45.96 48.57 51.27 51.53 52.44 54.17 53.73 52.90 51.93 52.67 53.99 53.50 53.48 52.63 52.95
50.75 50.67 50.56 50.56 50.59 50.79 51.01 51.30 51.23 51.14 51.22 51.45 50.84 48.38 45.77 49.79 52.90 52.26 48.66 44.32 42.76 42.73 41.38 36.80 41.38 38.43 44.92 43.02 43.41 44.13 44.52 40.51 37.12 40.24 46.74 41.15 40.54 45.99 48.34 49.92 50.66 50.80 52.48 52.81 50.46 50.16 51.60 51.00 50.94 51.53 52.70 52.41 51.73 52.57
50.55 50.58 50.46 50.60 50.69 50.70 50.81 51.05 51.05 50.91 50.94 51.03 46.36 45.09 48.72 53.33 49.77 46.36 41.26 39.36 40.63 37.67 40.95 41.72 44.48 42.10 48.72 42.19 42.29 46.21 43.31 43.31 37.24 40.98 41.44 39.37 38.21 44.22 48.73 49.77 50.85 51.87 52.88 52.95 52.88 52.22 52.01 52.01 51.72 51.69 52.20 54.03 54.87 53.93
50.54 50.45 50.33 50.37 50.58 50.54 50.86 50.95 50.86 50.32 49.57 47.09 46.01 49.10 49.29 48.87 45.25 39.51 37.10 38.72 37.00 35.86 41.11 42.89 45.49 46.54 47.73 47.73 44.83 45.58 43.07 42.25 37.62 46.39 40.80 35.51 41.54 46.85 48.48 49.32 50.61 51.95 52.33 53.05 54.26 54.04 54.19 52.38 51.03 51.22 53.04 54.73 55.31 56.35
50.38 50.23 50.17 50.12 50.29 50.41 51.03 50.89 50.92 51.48 50.96 52.45 47.68 47.00 44.04 44.02 36.66 36.70 33.19 33.63 36.43 43.95 46.78 46.74 44.78 45.47 47.54 47.89 45.63 43.35 37.90 39.93 46.44 39.99 36.73 39.82 45.46 48.21 49.31 50.29 50.38 52.08 53.23 53.27 53.04 54.19 53.99 54.92 55.66 55.32 54.81 55.95 56.30 56.33
50.33 50.20 50.01 49.94 50.29 51.15 51.17 50.88 51.27 51.80 50.75 47.33 44.73 36.22 41.85 39.52 39.65 40.95 42.18 41.01 45.01 47.13 46.46 47.86 45.56 44.62 45.92 44.24 43.12 41.20 44.49 45.05 39.26 35.90 35.75 42.18 45.32 47.69 49.44 51.45 51.76 51.50 52.56 52.52 53.49 53.98 54.12 54.88 55.40 55.95 56.85 56.68 56.84 55.03
50.19 50.08 49.93 50.84 51.23 51.20 51.11 50.81 51.17 52.66 51.20 47.57 46.32 35.34 42.53 45.87 47.15 47.63 48.36 47.67 47.99 51.49 49.59 48.22 47.81 47.29 44.87 43.93 44.17 42.83 38.94 35.56 37.07 38.60 43.10 46.75 48.72 50.56 51.07 51.70 51.79 51.55 52.68 52.87 53.71 53.27 54.36 55.18 54.71 54.51 55.54 55.95 56.01 56.25
50.19 49.98 51.83 50.89 51.06 50.87 50.52 52.01 54.94 54.71 54.27 49.87 48.08 44.49 47.03 45.37 45.50 47.24 48.29 47.00 50.86 50.37 50.44 48.48 45.53 42.86 41.04 40.61 38.20 36.41 36.47 33.86 38.29 44.08 48.13 49.80 49.84 50.69 51.38 52.11 52.70 53.62 54.25 53.10 52.94 54.13 54.29 53.53 54.71 54.81 55.70 55.41 54.90 56.11
49.70 48.71 51.59 51.02 50.75 50.41 52.55 53.64 56.27 52.25 48.55 46.41 45.47 49.61 47.22 47.37 46.63 48.10 49.60 49.19 52.59 48.68 43.84 45.60 40.81 40.32 42.70 36.62 35.69 40.24 38.19 41.97 46.28 48.09 49.14 50.05 50.43 50.77 51.65 51.99 52.48 53.30 52.12 51.48 52.02 52.50 52.76 52.50 53.35 52.75 51.65 52.50 52.85 54.36
49.73 52.80 51.78 50.56 50.24 51.97 56.79 54.27 52.48 49.08 45.48 46.92 45.11 48.11 49.67 49.62 49.06 49.45 50.43 51.67 50.25 48.19 47.40 44.28 46.72 41.14 39.46 38.54 40.92 45.03 46.70 48.04 49.29 50.38 50.43 51.40 52.71 53.00 53.15 52.62 53.73 53.49 51.39 51.95 52.40 51.96 51.69 50.73 50.23 50.99 51.42 53.09 52.15 52.06
49.38 50.26 50.03 50.19 50.52 49.51 51.70 52.28 53.79 46.32 46.86 48.64 49.49 50.77 50.61 50.22 51.44 51.86 51.94 52.31 52.08 51.56 48.61 46.82 43.02 41.67 42.75 46.00 46.97 48.23 48.17 48.72 48.36 49.77 51.07 52.49 52.27 52.19 52.68 53.51 54.17 54.09 53.21 51.75 51.05 49.73 49.39 48.44 47.81 48.76 49.55 49.38 48.29 49.55
49.94 50.89 51.68 51.82 51.80 52.02 50.17 51.68 55.96 50.07 46.18 47.61 49.71 49.34 49.40 49.31 50.92 50.55 50.50 50.32 49.51 47.84 44.54 43.06 43.25 45.59 46.71 48.34 50.12 50.03 50.46 51.35 50.52 49.13 48.70 50.20 51.63 52.06 52.42 50.86 51.13 52.00 50.55 50.21 48.78 47.27 47.54 46.94 47.39 47.59 47.86 47.13 46.63 47.74
53.21 54.83 53.43 55.10 55.01 54.24 51.38 49.91 49.51 49.19 49.08 49.83 51.42 49.73 49.37 49.75 48.25 47.46 47.48 50.01 46.76 45.93 44.69 47.95 46.58 47.96 49.74 48.70 49.31 51.13 51.89 52.54 51.53 50.86 50.13 49.07 50.81 51.13 51.04 51.34 50.66 49.96 48.92 48.34 47.35 46.25 45.64 45.32 45.74 46.84 47.13 47.09 47.48 48.90
55.45 53.23 55.03 58.31 54.73 54.00 52.70 55.21 51.44 53.45 51.02 50.84 51.19 51.11 49.43 47.22 46.44 47.32 50.18 46.64 45.99 48.80 50.29 50.22 49.75 49.53 47.49 47.01 47.23 47.58 48.27 52.87 53.80 50.95 48.74 48.88 49.21 48.72 49.68 50.17 49.15 47.41 46.92 46.88 46.76 46.11 45.69 46.23 45.40 46.60 46.90 46.96 46.84 47.20
53.04 52.94 54.65 55.86 51.25 46.03 46.38 56.24 50.61 51.70 47.47 48.46 50.51 47.45 48.42 48.60 50.35 51.40 46.36 47.41 47.96 51.88 51.70 51.39 52.94 52.37 50.48 51.19 48.86 47.43 47.98 49.38 48.07 47.64 47.70 49.76 49.64 49.71 47.93 46.73 46.05 45.02 45.37 45.77 46.48 45.67 45.28 43.98 45.11 45.54 46.61 46.60 46.69 46.17
49.97 52.50 50.87 51.10 51.33 45.82 54.15 50.91 52.06 50.77 51.62 48.79 47.91 45.48 47.15 49.23 50.93 46.58 43.03 45.04 47.50 49.13 49.54 49.91 49.72 48.09 48.78 49.34 46.19 45.99 46.62 47.23 47.39 48.12 48.17 47.19 47.19 47.12 46.73 44.83 43.97 43.89 44.89 44.72 43.85 43.50 43.74 43.02 41.72 42.28 43.26 42.89 42.54 42.46
45.89 46.16 48.11 39.29 52.55 50.61 48.88 48.23 48.66 48.47 46.12 48.67 46.47 45.98 45.45 47.69 43.95 42.71 41.74 44.35 45.81 47.20 48.36 49.12 48.88 48.41 46.24 46.44 46.49 46.94 48.38 46.63 45.22 45.36 47.53 46.97 45.88 45.59 45.13 43.94 41.90 41.62 43.69 42.16 40.53 40.67 40.87 40.66 40.00 39.84 40.60 40.83 40.17 40.82
39.70 51.38 45.75 49.23 49.34 48.44 48.04 45.71 47.49 46.91 47.48 46.52 46.87 47.88 48.45 45.49 41.97 39.97 42.46 45.06 46.56 47.49 47.86 47.62 46.98 46.87 46.42 45.93 45.10 45.22 45.59 46.88 45.64 44.03 45.82 45.45 44.16 42.15 40.93 39.40 38.16 38.59 42.63 41.59 40.16 39.44 38.88 38.65 38.69 39.42 39.53 40.09 38.89 39.69
43.66 45.29 49.47 50.76 49.74 49.41 50.31 49.84 51.64 48.44 46.09 45.55 47.43 47.14 46.27 39.41 38.59 42.14 47.04 48.21 47.75 49.60 50.74 50.58 49.27 47.31 45.39 44.87 46.14 46.61 46.07 45.41 44.00 43.67 46.28 44.59 43.69 43.11 41.61 39.24 37.81 39.45 42.20 41.47 40.83 39.63 38.13 38.22 38.46 38.75 38.80 39.22 38.85 38.28
49.85 48.61 46.03 50.30 50.77 52.33 48.32 47.95 46.88 45.28 45.48 48.59 48.79 43.73 41.51 40.05 39.95 45.39 47.24 49.97 50.88 51.27 51.20 50.96 49.33 47.24 45.63 45.40 45.61 44.85 43.80 43.42 43.05 42.80 43.13 43.27 42.73 42.11 42.30 42.28 41.94 39.80 40.95 40.64 40.59 40.11 39.28 38.67 38.44 38.46 38.06 37.33 37.29 37.92
52.15 53.97 51.99 48.90 49.77 49.59 49.13 47.68 46.58 47.62 48.74 48.36 46.49 43.63 43.55 46.78 48.57 48.50 49.92 51.39 52.22 50.24 46.61 45.87 45.74 45.96 45.10 45.42 45.39 44.30 42.78 40.93 38.05 35.20 34.46 35.12 36.63 38.16 41.12 40.98 40.94 40.98 40.91 40.75 37.83 38.87 39.47 39.02 39.43 38.40 38.53 37.82 37.72 37.50
52.65 54.75 51.29 50.38 48.25 46.98 49.31 51.17 49.14 50.36 50.11 48.51 47.89 47.20 47.45 48.19 50.07 52.28 50.28 48.69 46.93 45.44 45.17 45.05 45.17 43.98 42.33 41.85 41.37 41.78 41.79 40.81 39.14 35.95 33.59 33.63 35.78 38.98 39.87 39.64 39.74 40.36 40.43 40.39 40.17 40.06 38.96 39.30 38.70 38.68 37.56 36.94 36.36 35.87
54.07 52.57 50.87 51.25 49.42 51.08 52.28 52.90 52.42 51.81 51.01 49.54 50.03 47.72 46.73 48.48 50.34 50.99 50.29 49.69 47.55 46.06 44.21 42.97 43.15 43.50 42.00 40.98 40.26 39.40 38.40 39.93 39.03 38.45 37.86 38.01 38.30 38.80 39.16 39.49 39.77 39.88 39.69 39.53 39.28 38.30 37.37 36.90 36.72 36.21 36.17 35.78 35.99 35.58
52.98 51.45 50.00 48.34 50.70 53.66 54.57 52.30 50.78 50.30 49.90 49.53 48.00 49.44 48.67 48.80 46.70 49.37 50.54 49.09 45.83 43.48 42.57 42.77 41.97 41.86 43.19 42.86 42.74 42.30 40.02 39.32 38.36 38.37 37.83 37.44 37.54 38.26 38.89 38.96 39.10 39.11 38.72 38.76 38.26 37.40 36.95 36.57 36.26 35.92 35.61 35.59 35.63 35.54
52.08 51.90 51.69 50.11 50.80 51.36 53.01 52.59 51.14 49.73 49.30 47.70 49.36 49.00 48.35 46.83 43.71 47.51 50.94 48.95 45.96 43.84 43.01 43.23 43.89 44.18 44.19 42.98 42.15 41.96 40.39 39.79 37.54 34.74 34.37 34.12 33.71 34.72 36.94 38.12 38.22 38.26 37.80 37.83 37.87 37.67 36.95 36.42 35.92 35.86 35.50 35.47 35.41 35.97

GFSWCAN_sfc_wetblb_012.txt.gz
Wetbulb
51.43 51.29 51.27 51.09 51.26 51.51 51.70 51.91 51.84 51.44 51.55 51.78 51.72 51.60 51.56 51.44 51.09 46.00 42.93 45.31 43.06 38.22 38.71 39.84 39.83 37.37 36.46 34.94 33.07 35.09 36.04 36.68 33.34 33.58 32.75 32.15 30.73 33.66 33.09 38.25 39.37 39.13 39.24 40.53 41.02 40.32 39.34 51.26 53.83 48.93 51.26 58.28 60.07 60.80
51.35 51.57 51.44 51.63 51.92 51.76 51.71 51.87 51.83 51.78 51.29 51.38 51.30 51.28 51.32 51.02 51.11 49.59 40.72 45.00 46.60 42.27 40.74 43.36 43.60 43.93 42.23 41.36 35.94 35.88 37.35 35.55 38.13 35.52 36.12 36.37 32.99 35.71 34.25 33.37 44.36 39.37 42.37 41.30 42.02 43.36 48.17 50.26 53.74 59.42 58.69 57.61 58.81 59.30
51.38 51.52 51.41 51.47 51.45 51.74 51.67 51.62 51.70 51.34 51.08 51.15 51.44 51.32 51.26 51.31 51.25 49.84 42.62 43.47 42.50 41.47 38.58 38.70 38.26 43.43 45.03 44.20 45.32 36.83 37.20 40.87 39.89 41.50 38.65 37.44 36.47 39.97 35.41 37.23 42.37 45.53 48.83 43.84 45.73 48.52 50.43 56.88 58.98 58.59 57.86 58.26 59.13 59.23
51.02 51.31 51.28 51.29 51.28 51.41 51.48 51.60 51.66 51.39 51.45 51.23 51.48 51.29 51.25 51.38 51.13 50.57 42.90 43.85 43.97 42.56 35.34 36.56 44.74 41.16 45.52 44.34 44.56 44.22 42.70 42.90 43.94 42.42 38.61 35.23 36.03 43.54 39.29 43.01 41.51 46.43 48.18 47.07 45.64 49.16 51.30 54.47 57.36 57.86 57.42 58.26 58.25 58.42
50.73 50.94 51.08 51.02 51.14 51.26 51.39 51.50 51.48 51.48 51.62 51.47 51.38 51.61 51.86 51.53 51.54 49.24 46.53 45.71 46.89 42.26 35.88 37.48 40.87 42.13 42.40 42.38 43.25 44.49 42.97 41.15 39.07 36.87 38.29 37.78 42.47 41.13 44.16 43.64 42.09 47.88 47.43 46.67 46.58 50.60 50.99 51.07 56.37 57.53 55.59 55.47 56.14 55.95
50.38 50.72 50.80 50.84 50.91 51.00 51.22 51.24 51.37 51.39 51.36 51.53 51.72 51.64 51.70 51.87 51.86 44.02 39.01 44.81 47.84 47.43 39.35 32.88 37.81 39.99 43.73 46.18 43.97 42.51 42.95 42.21 39.68 36.09 39.07 43.11 45.80 42.31 38.17 38.58 46.04 48.31 50.08 51.35 51.06 52.22 51.74 53.98 54.19 55.22 54.02 54.82 56.30 55.75
50.77 50.77 50.82 50.96 51.01 51.08 51.08 51.08 51.67 51.84 51.88 51.87 51.89 51.76 52.05 51.84 48.71 40.89 38.25 43.76 48.29 46.32 40.03 35.92 33.21 41.52 46.42 43.97 41.12 39.85 40.88 39.62 40.73 40.64 41.59 42.55 43.62 41.17 40.24 39.14 45.65 48.94 51.34 53.97 53.75 53.41 51.63 52.41 51.96 54.58 54.79 55.38 55.74 56.38
50.61 50.62 50.61 50.64 50.82 51.02 51.14 51.44 51.91 52.05 52.25 52.12 52.01 51.96 51.86 51.75 50.58 46.22 47.97 49.15 48.72 43.19 42.49 35.47 34.78 38.69 45.21 41.58 39.68 45.25 39.78 41.92 43.08 42.50 42.99 41.43 42.62 41.42 39.71 44.39 45.93 48.77 51.78 53.60 53.28 53.97 53.07 54.32 54.14 53.25 54.10 53.84 53.67 53.71
50.56 50.46 50.55 50.59 50.69 50.77 51.10 51.33 51.75 51.91 51.90 51.79 51.94 52.28 49.32 46.51 43.47 46.75 51.09 50.25 48.29 43.65 37.61 37.40 34.81 33.90 45.50 43.75 44.20 44.05 45.27 39.32 44.66 40.16 40.89 41.49 41.64 38.22 43.27 44.94 47.50 50.34 51.88 51.93 52.60 52.52 53.03 52.83 53.16 52.55 52.57 51.84 51.78 52.57
50.44 50.44 50.56 50.46 50.60 50.62 50.78 50.93 51.45 51.53 51.30 51.69 49.10 45.23 42.19 47.25 52.93 51.89 47.97 43.41 41.68 42.18 41.16 35.45 40.40 36.66 41.69 42.68 40.70 41.77 43.71 39.22 35.00 39.13 44.37 39.30 39.35 44.52 46.84 49.37 50.07 51.53 52.30 52.94 50.01 49.58 49.26 50.21 50.90 51.86 52.01 52.94 52.49 51.86
50.41 50.59 50.65 50.61 50.60 50.52 50.56 50.79 51.17 51.12 50.64 44.88 41.42 41.48 45.76 52.54 48.58 45.77 40.55 38.30 39.55 37.14 39.63 39.71 40.51 37.75 46.36 41.08 40.17 44.96 40.50 40.17 33.57 39.14 39.65 37.60 36.45 43.65 48.87 50.14 51.95 52.17 52.53 51.87 51.82 51.65 52.33 52.38 51.65 52.26 52.90 54.06 54.07 54.44
50.45 50.43 50.49 50.47 50.49 50.60 50.66 50.78 51.00 47.07 45.17 45.12 45.11 46.80 46.25 44.20 43.03 38.99 33.04 36.25 35.27 34.70 41.01 40.40 44.23 45.63 45.90 47.32 41.31 44.17 40.32 41.25 36.48 45.18 38.52 34.26 40.99 46.91 48.71 49.83 50.85 52.03 52.59 52.78 53.84 53.35 53.64 51.83 51.77 52.62 53.17 53.88 54.56 55.36
50.27 50.39 50.12 50.12 50.22 50.46 50.65 51.08 51.23 51.02 49.89 46.94 44.14 43.57 40.56 40.30 36.46 33.96 31.97 34.76 36.67 41.64 44.55 45.84 43.27 45.10 45.95 46.91 43.88 41.66 38.51 38.78 46.08 37.96 33.53 37.73 44.69 47.09 48.38 50.06 51.23 52.61 52.84 52.95 53.55 54.23 54.33 54.35 54.62 53.21 54.21 54.99 56.16 54.94
50.17 50.11 50.02 50.08 50.10 50.85 51.32 51.28 51.39 49.88 46.89 43.17 40.21 35.37 37.64 36.40 40.05 40.81 42.40 43.11 44.05 45.20 45.31 46.20 45.57 43.53 45.62 44.15 43.30 40.97 42.94 41.78 36.95 33.78 33.53 41.47 44.74 46.44 48.16 50.06 51.10 51.09 52.45 52.60 53.37 54.14 53.90 53.66 54.10 55.34 55.89 54.68 54.04 53.62
50.27 50.28 50.10 49.68 51.40 51.56 51.09 50.91 51.26 48.24 46.25 42.69 41.74 35.97 40.04 42.43 44.72 46.49 47.63 46.74 47.59 47.15 46.62 45.14 45.40 44.83 42.82 41.28 41.47 41.20 38.13 34.23 35.27 37.38 41.95 47.07 48.82 49.81 50.39 51.24 51.63 51.64 51.89 52.65 53.07 52.87 53.80 53.16 53.24 53.20 53.98 53.79 54.79 54.06
50.61 49.68 49.42 51.26 51.03 50.80 50.30 50.41 50.59 49.30 47.64 44.83 44.53 42.97 44.38 43.33 43.86 46.31 46.45 46.22 49.13 47.65 45.24 44.31 42.44 40.38 39.55 39.04 37.87 36.41 35.39 34.34 39.30 44.65 47.07 47.92 48.83 49.41 50.04 51.33 50.79 51.37 51.34 51.03 51.51 51.25 50.13 51.00 51.04 50.83 51.68 52.03 52.01 50.73
49.96 45.95 50.41 50.88 50.60 50.24 51.28 48.90 50.17 48.61 45.39 44.59 42.55 45.00 44.65 44.03 43.67 45.74 46.27 46.46 50.07 47.03 42.73 42.73 40.33 39.30 41.49 36.97 36.27 40.47 38.86 42.92 46.13 47.32 49.22 49.76 48.75 48.35 50.29 49.97 50.05 50.77 50.70 50.39 49.27 47.08 47.03 48.11 48.95 50.19 48.30 49.09 51.38 50.63
46.17 48.51 50.69 50.36 49.81 49.55 49.87 50.07 47.26 45.53 43.24 44.70 41.26 44.01 44.88 45.31 44.59 45.46 46.90 47.31 46.13 44.82 44.70 43.26 45.93 41.17 38.50 36.14 38.66 44.09 46.06 47.79 48.71 48.79 49.78 50.84 51.06 51.42 51.51 49.43 49.53 50.70 49.23 48.30 46.84 45.08 45.63 45.71 45.15 45.35 45.39 47.62 47.75 47.36
47.54 48.57 50.07 50.49 49.89 47.14 47.21 47.35 47.57 43.11 43.25 43.09 44.85 44.80 44.78 44.74 46.40 47.29 47.51 47.94 47.37 44.94 44.21 43.85 41.33 39.23 39.94 44.86 44.85 45.94 46.75 47.03 47.00 48.62 49.53 50.89 51.49 51.08 50.57 51.44 51.63 49.11 46.48 44.80 43.94 43.22 43.28 43.18 43.33 43.81 43.72 43.83 44.12 45.23
50.43 51.18 51.89 52.24 51.59 47.33 46.07 44.09 48.50 43.99 43.33 45.79 46.16 45.41 43.67 43.44 44.53 45.75 46.65 46.38 44.97 43.06 39.96 39.01 40.17 42.29 41.61 42.94 45.13 47.21 48.44 49.53 48.48 46.73 46.53 47.64 48.49 48.17 47.93 47.14 46.17 45.20 43.72 43.14 43.23 42.54 42.67 43.03 43.86 43.83 43.44 44.61 43.84 42.61
51.11 51.95 52.65 51.73 50.61 48.77 46.06 43.90 44.18 44.19 43.76 43.55 45.25 45.05 44.07 44.93 43.89 43.53 44.13 44.11 43.46 41.71 41.34 41.57 40.52 41.29 42.78 43.97 44.28 46.16 46.93 46.73 44.13 43.35 43.21 41.15 43.27 44.74 45.81 44.49 44.90 44.77 43.03 42.01 41.02 41.09 41.10 40.39 41.69 43.54 43.40 42.75 43.78 43.25
50.48 53.05 50.58 53.58 49.61 48.99 46.72 48.00 45.08 46.51 44.49 43.97 44.29 44.80 42.69 41.92 42.05 42.56 43.24 43.02 42.36 43.39 45.89 42.89 42.67 42.69 42.34 41.88 41.68 43.70 43.42 45.29 43.45 44.87 46.19 44.46 41.35 40.53 41.13 41.52 41.84 40.06 40.16 39.99 40.34 39.27 38.77 39.40 40.25 41.40 41.37 41.59 42.36 41.79
51.09 50.73 49.98 51.29 47.23 41.49 42.28 48.94 45.40 45.72 43.88 43.41 46.78 44.23 43.12 42.02 42.79 44.60 39.87 42.68 43.79 45.57 44.78 44.21 43.80 43.90 43.21 42.52 41.42 41.61 41.87 42.25 41.39 41.64 43.75 42.75 41.84 41.87 40.74 40.23 40.79 39.82 38.58 38.64 39.43 38.73 37.34 37.97 37.94 38.07 38.49 38.63 38.62 39.17
51.16 48.40 46.87 46.91 46.45 41.78 48.63 46.11 47.30 45.20 46.99 45.86 43.63 41.98 42.93 44.39 47.52 40.65 39.01 41.93 42.89 44.85 44.63 43.76 43.71 43.45 42.69 40.74 39.81 40.94 40.84 41.90 41.83 42.36 41.15 41.89 38.93 37.12 37.22 36.92 37.54 38.38 38.32 38.60 37.87 36.74 36.36 35.93 36.74 36.38 36.47 36.85 37.10 36.57
43.36 42.89 45.78 37.75 46.84 44.89 44.62 44.03 44.75 43.57 41.88 43.73 41.84 41.49 42.28 44.36 42.18 40.50 40.40 40.59 44.35 43.88 43.04 44.09 44.31 42.93 38.97 37.61 38.13 39.34 40.06 39.22 38.50 38.40 38.98 39.14 37.17 36.39 35.01 34.75 34.76 34.72 35.57 35.25 34.32 34.18 33.65 34.03 34.32 35.26 36.36 35.99 35.63 35.64
39.45 45.90 41.40 44.93 44.26 43.09 44.12 42.19 43.27 44.52 43.20 42.34 42.98 44.26 45.87 42.78 39.55 36.34 38.03 40.74 41.53 42.63 42.85 42.96 43.75 40.61 37.56 38.30 37.11 36.86 36.58 37.98 39.12 36.81 35.93 37.49 35.60 34.05 32.35 31.85 31.61 32.79 34.75 34.51 33.66 33.73 34.03 34.46 34.88 35.42 35.14 35.20 35.33 34.67
38.90 42.11 45.17 47.62 46.01 46.48 45.29 45.77 45.54 42.44 41.21 41.43 42.80 43.16 42.49 38.02 35.68 38.21 41.70 43.27 42.57 44.21 45.21 45.31 44.26 37.49 36.59 36.54 36.75 36.34 37.10 37.56 34.98 35.05 35.61 35.51 35.33 34.96 34.37 32.36 31.23 32.89 35.12 36.29 35.02 34.74 33.96 34.07 34.07 34.11 33.67 33.48 33.20 33.66
46.15 45.95 43.08 46.38 46.75 48.17 44.68 42.89 42.20 39.93 40.36 42.40 43.33 40.01 38.54 37.72 35.62 40.37 42.42 44.60 45.81 48.12 44.90 41.86 40.06 38.98 38.28 36.83 36.15 35.22 34.79 35.14 35.83 35.26 34.53 34.27 34.48 34.69 34.76 34.77 35.18 37.88 35.07 34.56 35.05 34.79 34.34 33.81 33.90 34.02 33.75 32.31 32.11 33.21
47.79 49.98 48.37 45.69 46.55 45.44 44.53 43.08 41.47 41.94 42.60 42.10 41.35 38.95 39.51 42.36 43.55 43.35 44.11 44.83 40.70 39.26 37.48 36.93 36.84 37.56 37.38 38.35 36.95 35.47 35.04 33.19 31.36 29.63 28.83 27.85 29.20 31.22 33.80 34.09 34.29 34.31 34.39 34.39 36.83 36.20 36.24 34.68 34.06 33.66 33.80 32.44 32.08 32.24
49.06 50.87 47.59 46.84 44.69 43.13 44.76 45.36 43.52 44.38 43.43 42.98 43.14 42.67 42.61 43.14 45.50 46.44 42.66 41.14 38.48 36.56 36.15 36.61 36.17 35.96 34.33 34.12 32.79 32.65 33.08 32.56 31.40 29.50 27.32 27.33 28.69 31.45 33.00 33.29 33.30 33.45 33.45 33.83 33.48 33.33 36.31 34.43 34.19 32.91 32.86 31.66 30.66 30.61
50.91 49.41 47.87 46.70 45.24 46.27 46.77 47.17 46.78 46.40 45.38 43.92 44.15 42.51 41.86 43.22 45.04 44.34 43.13 40.63 38.53 37.54 36.90 35.58 35.54 35.69 34.86 33.97 32.96 31.40 29.28 31.59 32.66 32.45 32.00 31.00 31.36 32.02 32.55 32.63 32.86 32.90 33.13 33.57 32.56 32.21 32.09 31.59 31.23 31.36 31.65 31.53 32.18 31.67
48.56 46.72 45.07 45.23 45.38 48.01 48.47 46.43 45.65 46.17 45.62 45.41 45.54 44.68 44.31 44.05 42.46 44.03 43.45 40.97 38.25 36.44 38.52 36.79 35.09 34.37 34.95 35.08 35.14 34.57 35.20 32.60 32.34 32.39 32.08 31.77 31.46 32.25 32.10 32.06 32.42 33.28 33.42 33.79 33.31 32.82 33.28 32.37 31.41 31.46 31.19 31.62 31.79 32.22
47.28 47.98 47.54 46.26 46.63 47.47 48.77 47.88 46.74 46.14 44.94 44.78 45.80 45.98 45.77 43.33 39.69 41.45 41.97 41.01 38.66 37.03 36.30 36.71 37.11 37.12 36.40 36.38 36.15 35.34 35.73 33.62 34.10 35.05 34.74 34.45 34.21 32.86 31.03 31.24 32.42 33.43 33.42 32.86 33.09 33.16 32.74 32.56 31.66 32.11 31.88 31.94 32.15 32.59

GFSWCAN_sfc_wetblb_015.txt.gz
Wetbulb
51.15 51.06 51.03 51.24 51.49 51.34 51.32 51.28 51.38 51.34 51.29 51.42 51.59 51.63 51.64 51.51 51.28 45.09 42.31 44.25 41.07 38.53 37.87 40.19 40.15 36.52 36.31 35.52 31.95 32.55 33.27 35.19 31.69 32.11 31.53 29.32 29.19 32.35 30.98 34.01 34.55 35.87 36.36 36.65 36.18 35.82 34.55 53.07 53.76 49.65 52.53 56.18 58.58 58.41
51.05 51.17 51.21 51.64 51.79 51.65 51.67 51.79 51.70 52.04 51.42 51.46 51.48 51.61 51.45 51.53 51.40 49.61 43.77 44.29 45.57 42.05 38.13 41.50 42.14 42.81 41.33 40.36 37.30 36.06 33.82 33.49 35.52 31.91 32.54 33.27 31.36 33.83 31.33 29.89 38.66 34.89 40.41 39.79 40.56 41.23 47.21 51.55 53.19 57.70 57.19 56.36 58.12 58.13
50.72 50.74 51.01 51.22 51.28 51.46 51.61 51.79 51.87 51.99 51.78 51.33 51.29 51.38 51.94 51.65 51.42 50.13 45.37 43.86 42.83 40.61 39.23 39.36 38.04 42.12 43.83 43.75 44.37 36.26 38.46 38.30 37.34 41.17 38.46 35.79 32.96 37.54 30.45 33.32 36.26 41.03 45.06 43.01 43.77 47.35 50.65 53.72 55.24 56.37 56.93 56.37 57.19 57.86
50.62 50.78 50.97 51.06 51.26 51.36 51.48 51.66 51.76 51.68 51.90 52.03 51.61 51.50 51.61 51.59 51.92 51.09 45.51 43.19 43.97 41.48 35.48 35.86 43.51 39.66 42.90 42.71 42.86 42.81 41.20 41.34 43.75 42.94 38.15 35.52 34.06 39.87 36.04 38.02 36.23 39.63 44.20 43.53 45.14 48.35 51.73 54.05 54.69 55.67 56.10 56.26 56.49 57.49
50.58 50.95 51.07 51.02 51.10 51.30 51.52 51.58 51.62 51.64 52.03 52.33 52.41 52.09 51.84 51.80 52.08 50.34 46.11 45.52 45.44 40.00 36.09 36.68 39.85 40.59 40.75 40.94 41.38 41.84 41.00 39.37 38.62 38.56 37.82 36.08 39.33 39.23 41.31 38.61 37.96 45.15 45.28 42.28 41.64 49.69 50.08 51.59 54.23 55.32 54.36 54.43 54.06 56.02
50.54 50.66 50.76 50.80 50.85 51.05 51.36 51.36 51.54 51.79 52.05 52.44 52.77 52.49 52.16 52.14 51.76 45.28 39.59 44.48 45.97 46.54 39.64 33.28 35.73 37.76 39.95 41.80 41.55 40.01 40.40 39.59 39.64 37.85 34.64 37.27 42.96 40.33 37.22 32.66 44.96 48.01 49.54 50.34 49.96 51.58 52.46 53.30 54.07 54.77 54.22 54.47 57.06 56.33
50.49 50.63 50.61 50.73 50.91 51.08 51.22 51.45 51.53 51.70 51.99 52.38 52.46 52.38 52.30 51.81 49.38 42.71 39.28 44.85 48.86 47.10 39.82 35.57 34.85 38.26 42.94 42.35 40.66 40.37 41.45 38.53 39.74 36.98 36.84 37.97 40.32 41.25 37.82 35.46 44.91 47.37 48.63 51.02 53.30 52.38 50.96 53.11 51.96 54.17 55.48 55.74 55.93 56.21
50.41 50.57 50.55 50.88 51.09 51.13 51.29 51.50 51.68 51.87 52.16 52.18 52.26 52.47 52.15 51.65 50.49 46.74 49.25 49.32 48.72 43.52 41.55 35.13 35.08 37.48 45.03 40.44 39.45 44.61 37.93 40.38 42.31 41.64 42.36 41.03 41.98 40.82 35.40 41.10 45.54 46.85 49.96 50.57 53.31 52.50 52.48 53.19 53.57 53.57 54.12 55.35 53.73 53.56
50.44 50.59 50.58 50.61 50.79 50.95 51.07 51.23 51.46 51.69 51.75 51.96 52.17 52.26 49.25 46.49 44.12 45.32 51.14 50.62 48.33 43.26 36.11 36.29 33.53 33.80 45.28 42.55 43.65 43.14 44.15 38.55 43.97 40.26 40.46 41.00 37.58 35.28 41.00 43.06 44.24 47.69 49.26 51.87 52.80 52.30 52.55 51.77 52.00 52.15 52.26 52.26 53.13 53.72
50.44 50.46 50.51 50.47 50.69 50.61 50.66 50.85 51.31 51.41 51.25 51.35 47.72 44.65 40.98 45.67 52.11 51.88 47.55 43.12 41.63 41.87 40.91 34.77 38.74 34.74 41.00 42.00 40.85 40.99 42.65 38.82 34.26 37.36 43.36 36.56 34.78 41.63 44.21 47.23 49.52 51.77 52.10 51.87 50.00 49.59 50.16 49.91 50.59 51.01 51.35 52.23 53.09 53.27
50.28 50.33 50.49 50.53 50.69 50.61 50.56 50.83 51.00 51.10 49.16 43.99 41.02 40.39 44.47 49.96 48.69 45.66 38.86 37.80 38.64 35.07 38.23 38.50 38.40 35.52 44.20 39.58 40.05 43.17 36.37 38.48 32.67 36.80 37.57 33.70 33.89 43.62 48.76 49.52 51.44 52.35 52.59 51.88 51.86 51.47 51.82 51.58 50.61 49.98 51.11 52.36 53.87 54.56
50.33 50.41 50.45 50.50 50.46 50.55 50.49 50.78 50.98 46.99 44.11 44.86 46.13 47.96 44.54 42.73 42.61 38.34 35.91 36.98 34.39 33.76 39.56 39.56 42.41 42.28 44.78 46.69 41.50 42.23 37.82 38.39 35.27 43.84 37.12 32.81 37.87 46.13 48.60 50.11 51.39 52.61 52.84 52.98 53.40 52.74 52.62 52.61 52.31 52.20 52.34 52.71 53.85 54.89
50.40 50.53 50.43 50.39 50.61 50.54 50.88 51.16 51.23 51.19 49.34 46.31 43.21 42.53 39.25 39.80 38.10 34.78 32.13 37.26 39.87 41.90 43.24 44.34 44.01 44.80 45.91 46.42 42.90 40.74 39.71 39.28 44.83 35.79 32.29 35.25 42.54 46.81 47.93 49.63 51.52 52.90 53.67 53.99 54.12 53.97 53.66 53.87 54.34 53.74 54.64 55.54 55.00 54.47
50.33 50.41 50.49 50.52 50.36 50.91 51.44 51.15 51.31 49.49 45.90 42.78 39.37 36.73 38.42 38.08 40.80 41.44 42.28 43.31 45.85 44.61 45.25 45.84 45.46 42.88 45.15 42.06 43.74 39.87 41.08 40.53 35.98 32.66 33.92 42.36 47.48 49.38 50.73 51.83 50.75 50.64 51.07 51.75 53.07 53.70 53.60 53.32 53.32 54.02 53.32 53.22 52.43 51.09
50.33 50.48 50.52 49.94 51.19 51.31 51.12 51.02 51.48 47.28 45.63 42.72 41.98 34.44 39.94 43.47 44.58 45.16 45.47 45.32 46.69 47.76 46.27 44.43 44.58 43.09 40.33 39.94 41.19 39.74 37.49 33.55 35.48 37.50 42.69 46.65 48.53 49.23 49.11 49.32 49.40 48.80 48.71 49.35 50.18 50.60 51.19 51.27 50.46 50.23 50.85 50.87 50.33 51.01
50.57 49.83 48.39 50.49 50.80 50.85 50.40 50.10 49.76 48.17 44.74 45.46 44.68 42.12 43.44 41.80 42.45 43.51 43.33 43.22 46.86 47.12 45.24 44.70 41.20 39.26 39.25 39.46 38.02 36.11 34.35 33.58 39.21 44.69 47.39 48.47 48.26 48.58 48.65 47.82 46.97 45.83 45.10 44.94 45.38 45.98 46.48 47.61 47.85 48.19 48.78 48.11 48.49 49.22
50.22 45.28 50.01 50.26 50.51 50.49 50.42 48.78 48.22 45.55 44.31 45.49 44.06 45.39 42.41 42.05 41.13 43.17 43.55 43.60 46.69 45.71 42.39 42.48 39.07 39.25 41.71 38.34 37.61 41.39 39.77 43.25 46.09 47.08 48.58 49.08 48.70 48.38 48.41 47.11 46.57 45.63 44.12 44.17 44.11 44.29 44.34 45.45 45.80 45.24 44.93 46.08 47.94 48.86
45.21 46.55 49.80 50.12 49.96 48.21 48.31 48.40 45.65 46.88 42.97 42.24 40.48 42.02 42.96 43.13 43.12 43.74 44.53 45.06 42.23 41.40 42.82 42.45 44.47 39.77 38.58 38.20 39.22 43.49 45.48 46.92 47.61 47.82 48.84 49.20 48.43 48.55 48.82 46.79 45.70 43.75 42.32 41.81 42.42 42.70 42.34 42.70 42.14 41.86 42.89 44.73 46.10 45.47
47.08 48.35 50.14 50.66 50.04 47.03 47.01 46.66 47.62 43.58 43.73 42.91 45.42 44.13 42.61 43.07 44.84 45.07 45.22 45.95 45.41 42.89 40.36 39.27 38.39 36.91 37.71 41.25 42.36 44.51 45.95 46.67 46.24 47.34 47.32 46.76 47.96 45.40 44.00 43.60 42.57 41.84 41.15 40.37 40.51 40.64 41.55 41.60 41.47 41.79 42.72 43.43 42.03 42.50
50.28 51.27 51.88 52.31 50.78 46.25 43.93 42.97 45.55 42.61 40.64 43.73 44.09 43.08 42.22 41.82 42.72 43.34 44.78 44.24 41.90 39.86 37.95 37.20 37.38 39.30 40.71 41.05 43.55 43.67 44.65 45.31 45.07 43.43 40.16 42.05 43.77 42.41 41.19 40.76 40.27 39.97 39.79 39.30 39.22 39.87 39.87 40.22 41.52 41.81 41.84 41.10 40.14 39.29
49.35 51.45 52.33 50.93 49.58 47.74 44.55 42.54 42.32 42.36 42.50 42.74 43.12 42.91 42.14 43.35 41.94 41.34 42.16 42.87 41.70 39.57 38.09 39.72 41.00 40.74 41.08 42.18 42.68 41.74 41.38 41.28 40.13 38.72 36.60 36.77 39.76 41.60 40.02 38.86 38.83 38.65 37.70 36.67 35.33 35.67 36.71 35.73 37.29 38.45 40.84 40.82 40.37 39.23
47.89 52.05 48.76 51.47 48.25 47.07 45.18 45.46 43.64 44.49 44.59 45.09 44.33 43.25 41.49 40.57 39.32 40.01 40.61 39.56 40.19 42.71 43.02 40.26 40.47 40.36 38.62 38.42 38.65 41.01 42.54 43.13 41.50 40.49 40.15 39.53 37.63 37.99 38.28 39.00 36.57 35.71 35.80 35.06 34.55 33.43 33.56 33.66 35.27 36.02 36.82 38.56 38.98 36.94
49.87 49.89 49.12 49.56 45.84 41.09 41.85 47.30 44.49 46.03 44.05 45.32 45.61 42.31 43.11 42.80 41.75 41.94 38.88 40.43 42.67 43.44 42.19 41.75 41.75 40.83 38.87 39.00 39.29 38.33 38.10 39.56 38.37 37.61 36.34 35.01 34.40 34.98 36.35 37.51 38.06 36.91 35.33 34.92 34.03 32.99 32.55 35.19 35.03 34.74 35.61 36.35 36.54 34.68
50.40 47.05 45.61 44.42 44.48 39.92 46.71 44.17 45.43 43.90 45.07 42.08 39.51 36.62 42.46 44.41 43.98 38.53 36.21 38.55 41.83 43.31 42.09 41.45 40.82 38.50 36.79 36.40 34.87 34.77 35.77 36.09 36.28 35.60 35.67 33.71 33.14 31.65 32.19 32.56 32.71 32.62 32.56 31.99 31.88 31.63 32.25 32.94 34.93 34.73 35.06 34.75 34.01 32.97
41.54 42.04 42.98 36.52 43.28 42.40 42.86 42.23 42.72 41.94 40.07 40.95 38.25 38.10 39.38 43.72 37.73 36.30 34.40 37.73 39.71 40.33 40.96 41.62 40.21 36.08 34.10 32.94 32.70 33.08 34.29 34.06 33.03 32.51 32.66 32.96 31.80 31.33 31.40 31.48 31.38 31.28 31.88 31.60 30.73 31.64 31.73 32.49 32.97 33.49 33.43 32.86 32.65 31.91
36.84 42.92 39.77 42.23 41.88 41.78 41.82 41.07 41.27 40.96 40.99 40.84 41.39 44.67 43.51 38.61 36.42 33.83 36.01 38.84 39.89 40.68 41.32 40.84 39.64 34.16 32.90 32.30 31.07 31.33 31.68 32.68 32.61 32.23 31.38 31.54 31.82 30.70 29.64 29.31 29.57 30.72 32.06 31.20 31.81 32.16 32.57 32.55 32.80 32.57 32.06 32.62 34.09 32.26
37.12 40.64 42.87 45.13 43.81 44.10 43.04 43.02 42.53 39.46 38.59 38.96 42.20 41.38 38.25 34.48 32.37 35.74 39.59 40.68 41.12 44.65 44.19 37.49 35.87 34.37 32.63 31.20 31.77 31.61 31.12 31.41 32.28 31.79 30.88 30.84 31.14 31.46 31.31 30.39 29.77 31.20 31.94 33.88 33.03 32.92 32.16 32.14 31.88 31.73 31.11 30.96 31.01 31.59
43.95 43.93 41.98 43.55 44.17 45.33 42.98 40.66 39.90 38.25 38.48 39.81 40.97 38.11 36.52 35.36 33.00 38.03 40.59 42.13 41.90 38.67 35.94 34.72 34.55 34.45 33.07 32.27 31.50 31.23 31.29 30.81 31.71 31.22 30.83 31.13 30.93 30.99 31.31 31.64 32.17 35.69 32.55 33.08 32.92 32.83 32.60 32.16 32.12 32.13 31.74 30.58 30.08 31.06
45.08 46.60 45.76 43.25 45.11 44.17 42.58 41.31 40.18 40.36 40.92 41.16 39.53 37.80 38.28 40.60 41.22 41.71 42.15 41.49 35.52 35.30 34.79 33.82 32.73 33.13 32.40 31.75 31.34 30.45 30.08 29.36 28.87 27.05 26.05 25.71 27.46 29.28 30.72 31.35 31.50 31.97 31.43 32.21 36.01 35.43 34.43 33.01 32.43 31.72 31.72 30.36 29.88 30.29
47.24 48.61 45.13 45.45 43.22 41.74 43.39 43.25 42.05 42.29 41.04 41.98 41.58 40.67 40.69 41.39 43.23 43.84 39.50 36.08 34.90 35.84 37.04 34.01 32.74 32.02 30.34 29.71 28.85 28.96 29.55 28.82 28.40 27.67 25.88 25.87 27.26 28.98 29.65 30.64 30.72 30.24 30.63 31.30 31.23 31.44 34.85 32.53 32.57 31.65 31.48 30.37 29.51 29.31
48.76 47.66 45.82 44.36 43.26 44.17 45.11 44.61 45.57 45.99 44.70 41.84 42.13 41.19 40.99 41.90 42.57 40.79 36.95 35.49 34.78 35.04 34.32 33.16 32.27 31.63 31.46 30.31 28.97 28.20 27.60 29.77 29.45 29.95 29.02 28.53 28.40 29.39 30.17 30.33 30.32 30.41 30.64 31.11 30.41 30.28 30.33 30.11 29.89 30.07 30.35 30.32 31.00 31.07
44.82 43.63 43.54 43.14 42.86 44.39 45.05 43.81 43.55 44.39 44.27 42.45 41.90 42.41 43.54 42.00 40.51 41.92 38.59 36.05 34.94 34.04 35.83 34.04 32.56 31.88 32.72 32.79 32.45 31.93 33.89 30.81 30.56 30.89 30.65 30.17 29.86 30.08 29.78 29.47 30.27 31.50 31.70 32.19 31.78 31.40 31.71 31.12 30.50 30.49 30.27 30.70 31.10 31.17
43.97 44.03 43.74 44.89 43.53 43.50 44.73 44.69 43.52 45.06 42.33 41.57 42.88 44.87 43.39 42.65 40.17 40.09 38.92 37.86 36.61 34.85 34.25 34.14 33.93 33.54 33.79 34.12 33.17 32.20 33.48 31.84 32.74 34.14 34.55 34.31 33.95 32.48 29.66 29.35 30.19 31.67 31.67 31.71 32.31 32.30 32.25 31.72 31.38 31.78 31.56 31.47 31.10 31.02

GFSWCAN_sfc_wetblb_018.txt.gz
Wetbulb
51.30 50.90 50.91 51.08 51.29 51.71 51.65 52.03 52.07 52.02 51.74 51.89 52.00 51.98 51.84 51.87 51.93 46.42 43.34 43.59 43.40 38.52 37.23 38.00 39.66 36.57 35.98 35.34 30.93 33.98 32.34 32.99 32.45 31.22 31.18 29.15 27.20 29.80 28.33 31.77 30.72 30.13 29.94 30.01 31.15 30.59 29.59 48.96 51.94 49.60 52.17 55.65 56.32 57.64
51.10 51.08 51.11 51.04 51.47 51.66 51.70 51.90 51.92 52.09 52.23 52.04 52.00 52.14 52.27 52.33 52.00 50.37 43.72 43.84 45.61 40.97 39.70 42.48 42.01 42.41 40.87 39.48 37.21 37.59 35.87 31.60 32.81 29.93 32.86 30.68 30.68 32.44 32.58 26.96 35.30 29.69 36.50 35.24 36.26 36.03 43.49 50.43 50.04 55.15 56.47 55.14 56.06 55.83
50.78 50.84 51.15 51.27 51.40 51.39 51.57 51.70 51.80 51.96 52.17 52.37 52.20 52.37 52.50 52.54 52.37 51.15 45.92 46.36 43.87 40.38 37.52 36.68 36.72 41.33 42.49 42.69 43.41 35.33 37.39 38.62 38.06 41.16 37.87 35.55 32.41 35.75 28.64 30.94 34.89 37.84 41.31 38.15 39.02 42.85 46.09 51.41 54.43 54.61 55.35 55.26 55.69 57.03
50.83 50.95 51.09 51.21 51.15 51.25 51.28 51.57 51.78 51.88 52.17 52.48 52.08 52.58 53.10 52.97 52.50 51.93 46.88 46.34 44.59 40.90 34.37 33.69 42.23 38.95 42.69 42.58 42.20 41.98 39.67 38.55 39.99 42.57 37.43 34.30 33.72 38.59 34.94 36.50 34.00 36.72 38.76 37.51 38.79 43.14 48.29 52.76 53.74 53.59 54.98 55.84 55.82 57.13
50.63 50.75 51.03 50.88 51.02 51.39 51.68 51.60 51.76 52.03 52.06 52.55 52.52 52.44 52.95 53.01 52.63 51.12 48.88 47.04 47.27 40.75 32.92 34.24 40.05 39.71 39.68 39.78 41.00 41.30 40.12 38.03 38.13 37.55 37.07 35.56 38.14 37.26 38.64 38.03 35.76 39.28 36.74 36.60 36.62 44.06 46.77 49.03 52.92 54.47 54.12 55.38 55.67 55.67
50.34 50.48 50.64 50.85 50.91 51.30 51.40 51.56 51.77 51.79 51.85 52.16 52.51 52.75 52.75 52.84 52.43 45.71 39.47 44.69 47.67 46.43 38.75 34.46 37.65 38.27 41.08 39.26 38.84 38.72 39.32 38.12 38.65 36.09 35.85 39.56 40.24 38.76 34.99 34.46 39.49 42.91 44.81 44.99 45.60 49.99 51.07 52.81 54.08 55.18 54.84 56.61 57.64 56.93
50.61 50.67 50.76 50.94 51.04 51.14 51.14 51.51 51.51 51.65 51.88 52.21 52.35 52.45 52.60 52.30 48.88 42.85 40.37 45.21 47.52 47.00 39.62 34.56 35.91 39.12 40.40 41.45 40.30 38.38 39.15 38.15 36.97 37.79 36.41 34.84 38.84 41.08 37.56 32.85 39.44 43.37 44.72 46.97 49.96 50.76 51.01 53.01 52.40 54.89 56.03 56.05 56.49 57.69
50.46 50.62 50.62 50.76 50.92 51.13 51.15 51.51 51.63 51.75 52.17 52.35 52.14 52.45 52.58 51.94 50.26 46.64 49.08 49.42 48.82 43.93 40.82 33.72 35.29 37.71 43.07 37.79 37.60 39.69 36.39 37.08 39.80 38.51 40.45 38.50 41.60 40.67 34.75 39.52 41.98 43.76 45.16 46.91 49.07 51.50 52.77 53.98 54.66 54.43 55.18 56.01 54.78 54.15
50.41 50.57 50.59 50.62 50.74 50.81 51.13 51.28 51.50 51.70 51.93 51.95 51.94 51.99 49.11 46.58 45.00 45.58 51.32 51.46 49.03 42.50 34.27 34.25 32.83 33.51 43.95 41.92 43.00 42.62 42.79 37.87 43.12 39.44 40.24 40.83 37.83 33.66 37.27 39.07 42.34 44.81 45.65 47.93 51.45 51.87 52.54 52.98 53.53 54.12 54.27 54.35 53.90 53.94
50.28 50.21 50.29 50.54 50.69 50.76 50.92 51.10 51.41 51.39 51.35 51.10 45.40 42.23 40.14 44.47 51.09 52.03 45.72 42.09 41.10 41.63 40.46 33.38 37.16 33.69 39.55 40.55 41.50 40.48 42.20 37.77 34.66 37.33 41.49 36.89 34.63 39.70 41.87 43.24 46.72 46.92 49.62 50.78 49.97 49.61 51.49 51.39 52.40 52.85 52.94 53.72 54.11 54.57
50.09 50.24 50.57 50.68 50.70 50.81 50.93 51.03 51.22 51.33 48.73 43.23 40.76 39.00 44.81 49.34 48.57 45.09 38.87 37.86 37.68 33.94 35.16 35.54 36.50 34.93 42.47 37.20 39.31 42.37 36.09 36.13 32.14 35.85 34.76 32.68 32.98 41.12 46.81 47.40 51.20 52.29 52.17 51.94 52.03 51.82 51.89 51.63 52.24 52.55 52.53 53.24 54.25 54.68
50.34 49.93 49.67 49.95 50.56 50.76 51.00 51.00 51.23 49.29 44.37 46.33 46.57 48.41 45.38 43.14 42.84 39.18 37.05 38.36 35.44 34.71 40.11 38.52 41.30 40.09 42.05 45.12 41.31 41.36 36.13 34.25 33.03 42.55 34.55 32.14 37.73 44.87 49.37 50.52 52.46 52.96 52.87 52.94 53.46 52.92 53.00 52.91 52.21 53.16 54.33 54.64 54.76 55.01
49.42 49.29 49.47 49.98 50.63 51.09 51.12 51.19 51.25 51.22 49.59 46.50 42.01 40.41 41.32 42.55 38.30 36.72 34.31 37.60 40.09 44.00 43.92 44.98 43.57 45.08 46.05 46.37 43.12 40.98 38.41 36.79 42.47 34.13 31.20 39.82 45.04 45.98 46.81 49.50 50.53 52.89 53.39 53.23 53.24 54.23 53.96 53.02 52.76 52.46 52.31 53.69 55.26 54.46
48.92 49.29 50.32 50.54 50.79 51.44 51.28 51.24 51.52 49.07 45.77 41.54 39.75 35.39 39.11 38.37 39.88 40.85 40.46 41.00 45.22 45.38 44.06 43.50 43.89 42.64 43.35 39.64 42.78 38.92 40.86 40.03 34.74 31.58 35.04 42.43 44.10 44.32 44.39 45.33 45.69 46.93 50.51 49.80 50.17 50.32 50.06 49.48 49.11 49.87 50.69 52.47 52.16 51.89
49.34 50.18 50.34 49.98 50.75 51.08 51.22 51.14 51.38 46.75 44.89 41.04 41.75 35.35 37.08 42.61 43.64 43.78 44.49 44.06 45.08 46.00 43.26 43.01 41.65 41.81 40.83 41.29 41.39 38.74 37.35 33.57 35.17 35.98 41.00 44.60 45.67 44.85 43.58 43.60 43.90 44.52 44.60 45.65 46.17 46.38 47.14 47.90 47.31 47.50 48.35 49.00 48.11 47.23
50.22 49.91 47.86 50.28 50.70 50.91 50.53 49.61 49.52 46.89 45.41 44.43 42.92 39.30 41.75 40.41 40.21 41.26 40.97 40.30 44.46 45.86 44.85 43.87 40.78 39.35 39.60 39.93 38.24 37.32 33.53 33.77 39.55 43.64 45.96 46.06 44.78 44.03 42.95 42.75 42.64 43.41 43.91 43.89 44.63 45.33 45.34 46.02 46.50 46.26 46.90 46.50 45.98 45.17
49.95 45.56 49.90 50.11 50.70 50.54 50.22 47.77 46.24 45.14 44.03 43.24 40.94 41.79 40.63 40.18 39.26 40.89 41.76 40.89 42.87 42.98 40.93 42.38 39.56 39.11 42.02 37.97 38.11 40.68 38.63 41.97 44.35 44.72 45.92 46.11 45.27 43.34 41.85 41.09 41.15 41.12 41.21 41.81 42.29 42.67 43.66 45.33 45.30 44.98 43.25 43.84 44.04 43.99
44.85 46.10 49.86 50.32 50.29 48.10 48.48 46.31 45.74 44.88 41.14 40.98 39.31 41.12 41.17 40.64 39.88 41.68 42.54 43.88 39.87 37.30 40.82 41.01 42.18 37.62 36.04 35.45 37.44 42.46 44.78 46.37 44.88 42.54 42.32 42.75 42.25 42.32 41.72 40.01 39.80 39.49 39.34 40.09 40.99 41.67 41.88 42.08 41.86 41.92 42.47 42.90 42.42 42.11
47.02 48.63 50.15 50.76 50.74 45.95 45.15 45.47 45.84 40.99 41.00 41.22 42.10 41.85 40.97 41.20 42.57 42.34 43.72 43.94 43.40 40.19 39.41 39.12 36.84 35.09 36.57 39.21 40.19 41.55 42.40 44.45 43.12 41.96 41.10 41.47 40.28 39.81 39.70 39.17 38.36 37.80 37.30 37.21 37.89 38.97 40.83 41.23 40.93 41.34 41.90 41.49 39.68 39.83
50.25 50.65 51.63 52.20 50.39 44.78 43.06 42.62 44.59 42.11 40.17 42.33 44.33 41.88 40.78 40.40 41.08 42.55 43.61 42.82 40.25 38.79 36.76 34.69 36.48 38.33 38.81 39.89 41.81 42.32 42.29 41.14 42.87 37.24 36.01 38.87 39.53 38.98 37.76 36.64 36.17 35.82 36.22 36.53 37.05 37.53 37.67 38.82 39.43 40.79 39.90 39.03 37.85 37.15
48.90 50.65 51.82 50.37 49.05 45.52 43.47 41.50 41.61 41.37 41.23 41.97 42.95 42.60 40.81 41.71 39.94 39.59 39.89 41.35 39.56 37.50 36.25 37.38 37.37 37.16 37.35 39.66 39.19 39.59 39.65 38.45 36.56 36.05 35.31 34.10 38.71 39.13 38.23 37.91 37.50 36.13 34.60 34.09 33.92 34.52 35.03 34.14 35.09 38.30 38.06 36.47 36.43 36.44
46.72 51.18 48.15 50.37 47.33 45.76 44.03 44.26 42.42 43.19 43.33 42.70 42.63 41.63 39.51 39.19 37.82 38.60 39.18 39.00 38.23 39.21 39.44 38.62 38.69 38.85 37.24 36.86 36.52 36.91 38.73 38.73 37.44 35.82 36.14 35.14 33.90 34.35 34.82 36.23 35.92 34.81 33.89 33.37 33.54 33.01 33.45 33.75 36.00 37.31 36.86 35.57 36.45 35.97
49.49 48.84 48.13 48.39 44.60 40.06 40.87 45.70 42.99 43.01 40.46 40.27 41.52 39.51 39.60 40.67 40.28 40.85 38.45 39.47 40.41 41.23 42.15 39.54 39.72 38.24 35.62 36.21 36.68 36.36 36.48 36.38 34.28 33.16 33.21 32.56 32.62 32.88 33.40 33.75 34.20 33.43 32.17 31.87 32.32 32.50 32.87 34.95 36.07 36.28 36.41 35.72 34.97 34.16
49.85 46.24 44.67 43.42 42.99 39.17 44.77 42.71 43.85 42.68 42.36 39.67 38.05 35.75 38.57 40.09 41.45 37.26 35.11 37.01 39.56 42.09 40.16 40.07 37.73 35.31 34.86 34.86 32.66 32.53 33.30 33.89 33.72 33.53 33.15 32.50 31.97 31.52 32.10 32.76 33.12 32.96 32.46 32.43 32.70 32.98 33.49 34.30 35.14 34.92 34.86 34.18 33.66 32.91
40.96 41.70 41.65 34.57 41.72 41.47 41.60 41.40 40.73 40.27 38.90 39.36 37.11 37.53 38.55 40.01 36.35 34.97 34.17 36.70 38.81 39.64 40.27 39.75 35.62 34.41 32.64 32.08 32.04 32.28 32.94 32.85 32.46 31.98 31.65 32.21 31.93 32.14 32.32 32.49 32.50 32.27 32.56 33.09 32.68 33.46 33.32 33.96 34.16 34.36 34.48 33.87 33.04 32.60
34.95 41.30 38.89 40.33 40.37 40.72 40.52 39.64 40.02 39.62 39.86 39.49 42.36 42.79 40.09 37.30 34.39 32.11 35.04 37.75 39.02 40.12 41.13 39.85 35.92 32.48 31.82 31.46 31.14 31.59 31.64 31.55 32.00 31.52 31.25 30.63 31.71 31.43 31.03 30.97 30.77 32.16 33.45 32.83 33.70 33.80 33.91 33.84 33.70 33.58 33.21 33.81 34.18 33.48
35.73 39.80 41.64 43.29 42.31 42.63 41.42 41.30 40.84 37.77 37.52 37.70 39.09 39.72 37.16 32.64 31.29 34.06 38.36 39.64 40.30 41.56 42.25 38.15 36.80 33.44 31.93 30.45 30.75 31.15 30.76 31.41 32.43 31.91 31.20 30.91 30.95 31.22 31.77 31.70 31.64 32.65 33.52 34.91 34.71 34.94 34.12 33.74 33.24 33.10 32.69 32.91 32.93 33.29
42.92 42.67 41.12 42.44 42.96 43.91 41.85 39.66 39.06 37.14 37.43 38.84 40.10 37.52 35.83 34.88 32.54 36.77 39.78 41.34 40.87 35.79 33.99 33.26 33.79 33.34 31.88 31.63 31.39 31.74 31.89 31.15 31.76 31.23 30.91 31.91 31.60 31.58 31.89 32.62 32.85 34.92 34.17 34.83 34.83 34.99 34.75 34.34 33.97 33.55 32.96 32.39 32.42 33.36
43.99 45.07 44.39 42.19 44.11 43.63 42.81 40.82 39.63 39.67 40.20 40.85 39.99 37.75 38.13 39.73 39.95 40.86 42.01 39.38 35.12 37.89 36.26 33.44 32.19 31.99 31.35 30.98 30.88 30.28 30.37 30.36 30.71 29.33 28.25 27.77 28.82 30.88 31.53 32.21 32.57 32.76 32.97 34.06 35.38 35.90 35.74 34.46 34.23 33.87 33.66 33.06 32.85 33.34
45.72 46.61 43.75 44.09 42.66 41.24 42.85 42.83 42.32 41.44 41.61 42.39 41.68 40.65 41.11 42.36 43.56 43.83 38.12 35.42 35.06 37.93 37.82 35.16 32.74 32.21 31.32 30.99 30.45 31.27 31.04 30.29 29.95 29.54 28.18 28.60 29.68 30.87 31.20 31.85 32.19 32.18 32.16 33.50 33.14 33.67 34.92 34.76 34.21 34.44 34.07 33.63 33.62 33.59
47.25 47.06 45.26 44.20 43.02 43.32 44.52 43.61 44.14 46.06 45.68 43.86 42.28 40.61 41.09 42.22 43.82 41.02 38.44 35.93 35.38 35.16 34.47 33.07 32.50 32.33 31.94 31.00 30.32 30.10 29.80 31.56 31.97 32.83 32.03 31.20 30.91 31.35 32.05 32.04 32.29 32.71 33.12 33.48 33.29 33.26 33.31 32.88 32.68 32.69 32.81 32.98 33.34 33.45
44.93 45.66 44.47 42.13 42.24 43.43 43.77 42.70 42.23 42.84 44.03 42.78 42.37 42.67 43.35 43.11 41.30 42.18 38.70 36.02 35.79 35.02 35.81 34.48 33.39 33.27 33.80 33.72 33.39 32.69 33.95 32.43 32.32 32.92 33.90 32.33 32.37 32.57 32.17 31.70 32.50 33.95 34.19 34.16 33.83 33.74 33.74 33.48 33.17 33.15 32.95 33.05 33.22 33.11
42.43 42.27 42.84 43.66 41.80 42.04 43.24 43.47 41.94 42.18 41.95 40.36 41.55 42.88 43.78 43.68 42.23 43.35 39.88 38.64 38.12 36.63 35.02 35.06 35.01 35.15 35.68 36.53 35.08 34.14 34.02 33.71 34.15 33.70 33.75 34.01 33.76 33.32 32.95 32.04 32.87 33.91 34.07 33.94 34.35 34.50 34.29 34.31 34.07 34.59 34.64 34.01 33.32 33.48

GFSWCAN_sfc_wetblb_021.txt.gz
Wetbulb
50.85 50.71 50.71 51.15 51.59 51.70 51.93 52.03 52.24 52.32 51.96 51.84 52.26 52.32 52.58 52.66 52.54 50.39 47.16 47.87 45.42 39.37 39.44 40.69 40.99 37.27 38.08 36.47 31.98 35.74 35.73 37.08 36.62 32.82 31.55 30.71 30.66 35.42 33.77 35.57 34.74 34.97 34.11 33.34 34.13 31.65 29.81 47.24 49.60 46.51 55.11 58.56 59.48 60.18
50.90 50.79 50.72 51.01 51.48 51.82 51.91 51.99 52.06 52.10 52.43 52.46 52.36 52.30 52.51 53.07 52.88 52.29 44.78 46.58 47.33 42.31 39.98 44.81 44.56 45.06 43.42 42.05 37.89 38.16 36.54 36.39 38.11 34.87 35.05 33.92 33.28 35.30 34.19 29.97 40.04 33.13 37.45 38.33 37.63 37.58 45.72 49.16 50.52 56.35 58.68 58.07 59.35 59.63
50.89 51.04 51.09 51.39 51.44 51.44 51.73 51.89 52.06 52.25 52.57 52.66 52.07 52.59 52.96 53.27 52.94 52.38 47.22 46.41 44.34 40.92 40.19 40.75 40.02 44.54 46.86 45.93 46.40 35.58 38.28 40.50 39.13 42.92 38.60 37.23 32.71 37.17 31.64 33.90 36.51 40.62 44.07 39.81 40.16 42.67 45.20 48.34 51.86 55.34 58.17 58.31 59.39 60.39
50.83 50.83 50.93 51.22 51.35 51.41 51.66 51.86 52.09 52.27 52.29 52.52 51.97 52.67 52.74 53.19 53.17 52.91 48.31 47.53 45.25 41.91 35.19 37.97 45.07 43.20 47.07 46.74 45.42 44.72 42.61 43.06 42.79 42.55 37.21 35.66 34.13 40.31 35.23 37.69 36.82 39.86 40.67 39.65 40.88 44.11 46.71 48.14 50.38 54.30 57.23 58.91 59.94 59.06
50.44 50.83 51.12 51.21 51.19 51.58 51.55 51.78 51.80 51.99 52.17 52.48 52.27 52.74 52.92 53.01 53.12 52.90 51.09 48.38 47.83 41.75 35.98 36.98 42.95 44.74 45.57 45.28 44.08 44.43 42.87 40.92 38.71 38.17 36.82 35.23 38.45 37.58 38.84 38.47 36.15 41.35 39.84 38.51 38.37 45.95 46.28 47.44 52.59 56.11 56.47 58.41 58.86 58.20
50.64 50.95 50.95 51.09 51.15 51.36 51.68 51.68 51.70 51.91 51.97 52.21 52.44 52.72 52.74 52.66 51.97 48.10 42.74 47.47 49.63 47.40 39.40 34.72 43.58 42.66 44.72 43.69 43.00 41.85 41.88 40.18 38.79 37.11 35.99 38.92 41.64 39.57 36.14 34.52 40.67 43.75 45.54 46.55 44.87 47.97 48.47 50.88 52.49 54.87 56.66 59.43 58.84 59.59
50.84 50.88 50.84 50.93 51.15 51.29 51.36 51.53 51.73 51.89 51.63 51.80 52.47 52.49 52.51 52.29 50.70 45.19 42.21 46.47 48.62 47.78 39.25 35.77 35.91 43.64 44.38 44.95 42.00 40.33 41.75 40.05 38.96 38.02 37.33 37.72 39.54 40.73 36.98 33.14 40.56 44.10 45.87 46.42 48.13 46.79 45.25 49.68 50.14 56.15 57.97 59.61 57.80 59.99
50.56 50.68 50.76 50.72 50.91 51.10 51.07 51.43 51.73 52.04 52.06 52.07 52.14 52.68 52.37 52.01 50.21 47.13 50.08 49.05 48.53 44.15 40.88 34.50 35.85 38.87 45.68 42.37 40.90 41.73 38.81 38.87 38.77 38.65 40.39 39.81 42.06 39.34 34.44 39.67 42.75 44.18 44.07 44.09 45.35 46.97 47.40 51.41 53.32 54.95 56.96 58.95 56.69 56.81
50.38 50.35 50.52 50.59 50.33 50.30 50.38 50.94 51.34 51.64 51.47 51.76 51.14 51.66 50.85 48.92 45.82 46.99 51.31 50.47 49.12 42.94 34.72 34.53 33.31 34.74 43.56 41.94 43.99 43.31 40.48 35.43 41.90 36.31 39.40 40.33 38.27 35.02 38.81 40.36 41.36 42.95 43.04 44.61 47.80 49.73 50.25 50.41 53.02 53.88 55.54 55.64 54.83 55.68
50.26 50.11 50.30 49.92 49.91 49.89 49.96 50.54 51.26 51.88 51.80 50.01 50.08 46.53 45.40 47.93 51.53 50.31 46.21 42.03 41.61 41.73 39.47 32.94 35.54 33.28 38.97 39.86 40.50 40.56 42.34 37.76 34.39 37.05 39.71 36.35 34.71 39.94 41.69 42.54 43.50 44.48 45.41 47.22 44.96 45.64 49.46 50.75 52.88 54.05 54.68 55.70 56.65 57.07
50.07 50.34 49.78 49.47 49.78 49.92 50.63 51.31 51.56 51.53 50.32 48.98 45.66 44.54 48.48 50.24 49.53 45.74 39.89 38.01 37.91 33.65 35.37 35.95 35.92 34.81 41.72 36.62 38.57 42.07 36.11 34.89 32.43 35.57 33.65 32.97 32.94 39.53 46.33 51.24 52.05 52.14 51.45 52.34 52.30 52.78 50.46 50.27 53.15 54.02 54.61 55.73 56.87 57.35
49.88 49.72 49.28 49.40 50.41 51.04 51.46 51.39 51.31 50.48 48.71 47.97 47.42 48.95 47.62 47.56 44.98 41.81 39.30 40.20 37.76 36.20 40.92 38.86 41.33 39.76 41.17 43.67 41.17 40.84 34.95 34.77 32.97 41.41 35.34 32.05 36.11 42.92 46.77 47.40 48.55 50.02 50.38 52.93 53.44 52.68 52.03 53.74 55.21 55.59 55.62 55.31 55.62 55.66
49.64 49.43 49.55 50.12 50.80 51.29 51.37 51.51 51.63 51.10 50.34 49.81 46.98 45.25 45.07 44.85 35.71 35.80 32.61 35.57 38.57 44.88 47.01 45.40 44.27 47.17 47.35 47.79 44.31 42.39 38.90 37.40 43.61 35.75 31.70 33.70 41.04 42.75 44.74 46.40 46.26 47.74 47.72 47.84 48.70 50.67 52.03 52.21 53.17 52.69 52.23 52.66 52.85 52.94
49.28 49.41 49.81 50.74 51.08 51.18 51.69 51.51 51.65 50.76 50.74 47.06 43.36 36.50 40.95 37.98 38.65 38.21 38.70 40.07 44.67 46.12 44.85 45.74 46.27 43.93 45.44 43.69 43.79 38.65 41.52 40.79 36.53 32.25 31.87 38.55 40.53 41.99 44.26 45.81 45.53 45.45 46.97 46.42 47.08 47.89 48.19 48.14 47.89 47.31 47.23 49.13 48.32 47.31
49.29 49.90 50.49 50.73 50.72 51.57 51.54 51.18 51.27 53.23 50.81 46.74 44.94 37.03 40.71 44.03 44.20 44.06 45.14 44.43 45.59 45.97 47.13 46.58 45.47 45.43 43.45 42.40 41.62 39.91 38.80 34.59 33.11 32.94 37.23 41.59 42.06 41.64 42.15 43.41 43.42 43.21 43.86 44.93 46.26 46.37 46.19 46.33 46.19 45.18 45.49 46.01 46.97 47.33
49.77 50.42 51.00 50.27 50.97 51.27 50.72 51.82 53.50 52.97 51.77 48.90 46.03 42.36 44.03 42.17 41.79 42.30 42.24 42.04 45.87 45.23 49.51 47.82 43.78 42.23 41.12 41.49 38.28 36.31 34.15 34.06 37.95 41.39 42.89 43.82 41.92 41.75 41.23 41.81 42.64 43.57 44.70 44.62 45.04 45.57 45.66 45.28 45.05 44.42 44.82 45.41 46.04 45.97
50.08 50.81 50.05 50.36 51.03 51.07 50.71 53.87 54.08 49.42 47.83 45.96 44.20 46.95 44.97 44.12 42.43 43.12 44.26 44.36 46.74 46.14 43.31 44.35 38.21 38.23 43.12 38.63 36.27 40.45 36.35 38.69 41.10 41.50 43.19 43.61 42.49 41.65 41.80 41.10 41.33 42.00 42.72 44.39 45.33 45.49 46.24 46.39 46.20 44.84 42.94 43.86 43.96 44.26
49.33 50.41 50.38 50.83 51.19 51.60 53.92 52.69 51.37 48.84 44.57 46.30 43.79 44.50 45.79 46.30 44.16 44.45 45.43 46.77 45.13 43.63 44.06 40.92 43.62 37.65 35.17 34.18 36.08 39.63 43.37 45.39 44.01 42.36 40.57 41.81 42.09 42.34 42.14 41.27 42.33 42.64 42.68 43.81 45.00 45.14 45.54 45.56 44.92 43.98 44.28 44.10 44.01 43.86
49.83 50.36 50.61 51.04 51.75 51.64 50.26 50.30 51.10 45.60 46.49 47.72 47.94 47.38 46.82 46.82 47.89 48.04 47.54 48.10 46.98 46.05 44.78 42.35 39.20 37.10 37.62 40.46 40.70 42.60 44.61 45.93 43.23 41.83 41.82 42.21 41.97 41.35 41.99 42.25 42.40 42.00 41.86 42.29 43.19 43.56 43.65 43.61 43.72 44.93 44.53 44.25 42.24 42.96
50.31 50.58 51.44 52.08 51.95 51.14 48.51 48.87 50.79 48.50 46.09 48.01 48.46 47.21 46.97 46.22 46.98 47.03 46.84 46.72 45.80 43.71 40.80 39.12 39.00 40.69 41.68 42.82 44.01 43.98 43.84 44.67 44.91 42.28 41.38 41.57 42.14 41.72 40.93 40.51 39.90 41.32 41.63 42.12 42.00 41.01 44.19 43.59 42.98 41.87 41.75 42.21 41.35 40.66
51.29 53.23 52.39 53.82 53.75 51.36 49.47 48.34 48.18 47.93 47.89 48.38 48.51 48.36 47.64 48.58 46.61 45.04 44.51 47.13 43.59 42.11 40.17 43.30 42.43 43.42 43.95 44.34 44.35 44.93 43.78 43.44 41.78 42.09 41.11 41.08 42.34 41.76 41.34 41.19 41.29 40.58 39.61 39.52 39.64 40.06 40.67 40.81 41.37 41.59 41.16 40.44 40.65 40.13
52.18 51.59 53.77 54.72 52.19 50.25 49.98 50.07 49.31 49.49 49.53 49.27 49.22 48.13 46.60 45.72 45.37 45.09 46.10 43.68 42.89 44.88 45.73 44.73 44.02 43.74 43.94 43.48 43.21 43.09 43.34 43.10 42.81 41.98 40.42 40.39 40.15 40.06 39.71 39.93 39.75 38.89 38.96 39.06 39.32 39.29 40.12 41.27 41.54 40.95 40.33 39.90 39.80 39.41
51.48 52.07 53.15 52.40 49.75 45.23 45.96 51.91 48.54 48.70 46.08 46.00 48.01 45.82 46.05 46.30 46.84 47.46 43.26 44.96 45.68 47.46 46.73 45.90 45.72 44.22 42.63 42.64 43.43 42.63 42.67 42.21 40.91 40.43 40.39 40.11 40.09 40.38 40.02 39.38 39.26 38.42 38.23 38.97 40.21 40.59 40.38 38.48 39.77 40.86 40.69 40.49 40.17 39.43
50.64 51.27 49.35 48.11 47.42 43.09 49.31 47.87 49.58 48.61 48.02 45.69 44.56 42.56 45.09 47.24 47.79 44.42 41.18 43.65 46.26 47.57 47.14 46.26 44.40 43.70 43.76 43.35 41.29 40.46 40.52 41.89 41.69 41.04 40.03 40.08 39.73 39.22 39.77 39.33 39.35 39.29 39.25 40.05 40.40 40.48 40.84 39.94 38.47 40.10 39.86 39.26 38.79 38.19
45.13 45.00 45.98 39.33 47.75 46.86 46.05 45.56 45.20 45.60 43.56 44.39 42.87 43.57 45.40 47.01 43.02 41.04 39.67 43.22 45.94 46.51 46.89 46.58 43.81 42.44 41.11 41.67 41.67 40.64 40.36 40.06 39.60 38.82 38.86 39.24 39.37 40.17 40.72 40.89 40.30 39.80 40.53 40.01 38.94 38.92 38.94 39.47 39.30 38.93 38.44 38.05 37.03 36.65
39.46 46.55 43.85 45.85 46.49 46.04 45.98 43.86 44.20 43.65 44.27 44.05 45.04 47.11 46.04 42.97 37.27 36.22 41.41 44.97 46.38 46.83 46.43 45.73 43.94 42.26 41.33 40.80 40.54 40.31 39.22 39.80 39.97 38.80 38.31 38.17 38.36 38.21 38.01 37.50 37.42 38.77 40.86 40.45 39.95 39.76 39.12 39.36 38.61 37.44 37.68 36.98 34.85 36.77
41.74 45.72 48.22 49.30 48.70 48.27 47.44 47.22 46.71 43.77 41.88 42.62 45.05 44.73 42.56 37.22 36.12 41.18 45.94 46.79 46.62 48.06 47.91 45.57 45.24 43.35 42.15 40.32 39.53 39.80 39.84 39.78 38.95 38.33 39.00 38.87 38.53 38.57 38.08 36.85 36.52 38.31 39.92 40.13 40.22 39.86 39.43 39.01 38.48 37.57 37.23 37.81 37.74 37.45
49.19 48.57 46.76 48.78 48.93 49.49 46.54 45.31 43.59 42.28 42.83 45.42 45.72 41.88 39.76 39.49 39.91 44.87 46.91 48.12 47.57 43.80 41.60 41.83 42.40 42.51 41.01 40.14 40.28 40.76 40.26 40.16 39.30 38.94 39.00 39.66 39.60 39.16 39.13 39.63 39.59 35.53 39.57 40.05 40.64 41.01 40.52 39.67 38.82 38.01 37.44 37.20 37.73 38.58
49.10 50.18 49.02 47.29 47.95 48.16 48.49 47.14 46.14 46.53 47.38 46.33 45.24 43.28 43.86 46.81 47.54 46.80 47.73 46.07 42.98 42.67 41.82 40.61 39.39 40.52 39.89 39.59 39.62 39.84 39.81 38.81 37.14 34.87 33.32 33.77 35.12 36.63 38.55 38.93 39.38 39.70 39.99 40.25 35.75 37.50 39.10 39.31 38.99 38.72 38.00 38.56 39.00 40.11
50.15 50.96 48.67 47.76 47.08 46.85 49.72 50.05 49.90 48.78 48.16 49.33 48.40 46.71 46.62 47.70 48.77 49.53 44.75 41.99 41.77 42.09 43.17 41.78 41.39 40.60 40.73 40.02 39.74 38.76 39.84 39.56 38.51 36.78 34.68 34.25 35.23 37.61 38.17 38.31 38.73 38.99 39.54 40.23 40.29 39.06 35.97 39.63 38.13 39.99 38.59 38.77 38.76 38.47
51.70 50.93 49.54 49.52 48.95 50.40 50.33 49.78 49.14 49.38 48.45 47.71 47.44 45.66 46.39 47.37 47.37 46.81 46.36 44.10 42.97 42.67 41.47 41.60 41.22 41.42 41.06 40.61 39.94 38.88 38.64 39.61 39.13 38.75 39.18 39.53 39.20 38.67 38.60 38.66 39.03 39.81 39.87 39.77 39.67 39.56 39.03 38.31 37.80 37.02 36.57 36.31 36.35 36.43
50.50 50.47 50.04 47.67 48.76 49.21 48.99 48.49 48.18 47.59 47.84 46.58 46.33 46.80 46.92 46.67 45.38 48.17 43.88 41.89 40.66 40.90 40.62 42.11 41.87 41.62 42.11 42.39 41.98 41.46 35.80 41.09 40.21 40.40 38.89 39.87 39.87 39.43 39.37 39.51 39.62 39.91 39.63 39.44 39.49 39.26 38.12 37.18 37.24 36.78 36.47 35.88 36.01 36.21
48.38 47.98 48.06 48.47 48.07 46.70 48.38 48.19 47.03 46.57 46.85 46.33 46.58 47.20 47.20 46.89 44.60 46.64 44.23 43.37 43.35 44.35 43.87 43.07 42.82 42.47 42.33 41.74 41.36 41.40 37.62 41.41 38.62 34.62 34.25 34.07 34.06 35.49 38.09 39.76 39.51 40.04 39.02 38.74 38.38 37.88 36.83 36.45 36.57 36.36 36.60 36.36 36.07 36.25

GFSWCAN_sfc_wetblb_024.txt.gz
Wetbulb
51.60 51.78 51.77 51.69 51.81 51.89 52.04 52.18 52.43 52.54 52.58 52.45 52.64 52.60 52.93 53.11 53.30 51.67 48.37 48.67 44.81 39.66 41.69 44.63 44.04 40.66 39.51 38.40 35.11 38.65 38.26 39.93 39.94 35.20 35.03 37.18 35.08 38.78 37.04 39.27 38.19 37.73 36.56 36.86 38.36 36.78 35.10 48.98 48.95 47.43 54.61 59.06 59.43 60.59
51.28 51.36 51.53 51.61 51.65 51.73 52.02 52.11 52.36 52.31 52.62 52.60 52.37 52.61 52.80 53.21 53.56 52.84 47.70 48.62 48.67 42.79 41.48 47.36 47.77 47.25 45.65 44.13 39.80 39.61 38.91 39.45 43.27 38.67 40.48 39.17 36.50 38.70 37.24 33.93 42.79 36.14 40.29 39.47 41.38 41.06 48.40 50.43 50.50 53.37 54.42 54.98 58.35 58.61
50.91 50.89 51.15 51.40 51.51 51.78 52.03 52.09 52.25 52.44 52.60 52.24 52.22 52.61 52.95 53.52 53.34 52.63 49.13 46.74 45.31 41.52 41.04 42.50 45.08 49.07 50.87 49.56 48.86 37.85 39.70 41.89 41.52 44.47 39.37 39.82 35.13 40.49 34.98 36.36 39.06 42.66 45.38 41.02 41.63 44.25 47.12 49.10 51.15 52.70 54.49 54.83 56.85 59.19
50.89 51.18 51.41 51.49 51.54 51.76 51.76 51.95 52.25 52.26 52.46 51.97 52.31 52.74 53.07 53.50 53.49 53.13 50.50 47.37 46.70 43.17 37.24 42.00 49.26 47.10 50.55 50.14 48.86 48.05 45.63 45.25 44.03 43.61 40.54 37.10 35.21 41.67 38.90 40.90 39.86 42.86 43.89 42.45 42.66 45.92 47.22 48.80 50.71 52.31 53.48 56.56 58.16 59.39
50.89 51.30 51.48 51.37 51.40 51.67 52.01 52.01 52.05 52.22 51.52 52.13 52.27 52.75 53.20 53.11 53.22 53.95 54.02 49.67 49.55 43.06 37.69 40.08 46.34 48.88 49.49 49.40 47.73 47.78 45.53 42.97 40.48 38.78 37.20 35.60 38.96 38.45 41.65 40.24 38.60 43.59 42.35 40.68 40.27 46.84 46.83 48.06 51.75 53.85 53.89 54.74 57.11 58.59
50.85 50.95 50.98 51.03 51.30 51.32 51.50 51.71 51.88 51.93 51.95 52.01 52.69 52.67 52.73 52.50 52.10 52.18 46.28 49.83 50.28 48.31 40.71 36.23 46.52 46.02 47.63 47.10 46.44 45.50 44.50 43.09 41.42 38.49 36.88 39.00 41.85 39.50 37.55 36.14 44.03 46.44 48.21 48.20 46.38 50.18 50.16 51.59 52.46 53.26 53.59 54.59 56.54 59.14
50.92 50.78 50.93 50.99 51.28 51.03 51.32 51.44 51.75 51.34 51.88 52.44 52.68 52.49 52.92 52.45 51.73 48.53 44.99 47.94 49.88 49.41 39.97 36.54 38.36 46.01 46.21 46.04 44.74 43.29 44.18 42.11 40.53 38.89 37.23 37.67 39.83 40.60 37.36 34.69 42.16 46.26 47.43 47.76 48.36 48.19 47.09 49.94 49.87 52.74 54.92 56.79 57.87 60.92
50.51 50.62 50.53 50.86 50.51 50.96 51.17 51.17 51.41 51.35 52.04 52.50 52.31 52.62 52.53 51.69 50.79 47.98 50.25 49.34 50.00 45.12 41.69 35.48 36.81 40.03 45.79 42.20 41.56 43.78 39.56 39.87 39.07 37.49 38.50 37.48 39.82 38.87 34.41 39.60 43.24 44.74 46.14 46.22 45.92 46.58 47.23 49.78 51.39 51.10 54.11 58.15 57.80 57.62
50.52 50.26 50.51 50.03 50.42 50.61 50.94 50.99 51.47 51.99 52.41 52.38 51.60 52.42 53.02 51.41 47.72 48.16 51.95 50.40 50.18 44.40 35.84 34.83 33.43 34.99 43.85 41.38 43.49 40.94 39.89 34.65 40.00 35.89 37.30 39.61 36.54 32.87 37.13 39.24 39.84 42.32 43.29 42.92 45.49 45.93 47.14 49.43 51.12 51.29 53.82 55.20 51.67 56.21
50.30 50.22 50.16 49.81 50.40 50.41 50.69 51.34 52.15 52.14 51.82 50.74 52.46 51.71 49.99 50.88 52.22 51.13 46.42 43.06 42.44 42.62 39.86 33.79 36.64 33.26 39.12 39.53 40.20 40.30 41.51 36.37 34.34 36.79 37.94 33.61 33.25 37.78 40.68 45.70 49.63 44.27 43.87 45.69 43.84 43.63 46.63 49.75 52.24 53.30 52.74 52.12 54.38 56.17
50.11 49.87 50.18 50.02 50.43 50.57 51.15 51.63 51.64 51.73 51.22 54.67 53.40 51.09 53.53 51.62 49.10 48.41 44.63 39.53 39.55 36.55 37.95 37.77 37.46 36.26 42.42 37.10 38.61 41.28 37.48 36.06 33.43 37.03 34.62 32.71 33.02 38.26 44.05 45.90 48.04 50.31 47.93 47.40 48.29 49.11 51.47 53.42 52.62 52.56 53.57 56.64 57.08 56.49
49.94 49.80 50.02 50.34 50.56 50.98 51.63 51.49 51.52 55.03 53.97 51.37 51.15 50.42 53.03 51.30 48.85 43.99 40.98 42.41 41.54 40.75 46.37 42.48 44.65 41.19 42.72 43.89 41.37 41.84 37.64 39.04 35.66 44.45 37.33 32.15 34.65 41.60 43.10 44.65 46.35 48.09 51.16 51.74 51.21 50.61 52.76 52.82 52.20 53.10 52.38 52.17 53.34 53.84
50.11 49.61 50.06 50.16 51.03 51.60 51.74 51.82 51.72 51.28 51.62 55.11 51.17 48.20 48.50 46.39 37.19 36.09 32.89 37.89 39.45 45.83 47.50 47.31 45.51 48.58 49.82 48.22 47.98 46.73 41.15 39.76 47.07 38.77 32.34 33.61 39.73 42.26 42.72 43.74 45.87 46.98 47.45 48.32 48.83 49.12 47.71 47.53 47.90 48.82 48.64 50.40 51.68 51.78
49.60 49.58 49.85 50.80 51.20 51.52 51.97 51.77 51.99 52.49 55.25 51.59 47.13 37.84 42.99 41.40 40.30 39.71 40.74 42.50 46.24 47.44 48.71 50.18 48.26 47.20 49.14 45.30 45.10 40.94 44.65 43.78 37.30 33.07 32.34 38.69 42.80 43.59 43.91 44.50 45.68 45.13 46.03 46.48 46.83 47.58 46.82 46.46 46.57 47.97 48.65 51.13 51.43 50.23
50.07 50.31 50.83 52.11 51.21 51.78 51.95 51.55 52.02 59.28 54.21 48.61 47.92 39.71 42.41 45.28 47.07 47.90 48.54 47.69 49.51 50.45 51.14 50.91 50.83 49.86 46.96 44.63 44.87 42.19 39.77 35.06 34.31 34.13 39.47 43.80 44.95 44.51 44.56 44.51 45.84 45.93 46.41 45.93 46.16 46.57 46.74 46.25 45.70 45.02 45.68 46.12 47.50 49.80
50.83 51.15 54.81 50.84 51.41 51.65 51.47 55.65 58.47 57.55 53.98 49.74 47.93 44.99 46.95 45.60 45.55 47.51 48.01 47.78 50.76 51.98 54.51 52.27 47.11 44.10 44.12 43.88 38.26 36.79 35.43 32.69 36.02 41.14 43.72 44.48 44.05 45.02 45.23 46.34 46.87 47.36 47.92 47.28 47.77 47.56 48.37 49.14 47.54 46.06 46.39 46.36 45.41 46.75
50.52 57.00 50.95 51.16 51.18 51.64 52.41 58.22 56.69 51.93 49.56 47.46 46.54 49.43 48.32 47.56 46.54 47.46 48.12 48.00 51.86 49.81 46.84 47.23 40.35 38.36 43.73 38.55 36.62 38.14 35.68 38.01 40.84 41.57 42.19 43.92 45.01 46.58 47.62 46.83 46.88 48.28 48.52 48.43 48.95 48.67 47.57 48.15 48.92 48.63 47.40 47.97 47.95 47.39
56.20 56.58 52.47 51.27 52.07 56.43 59.38 57.24 53.66 50.60 46.03 50.23 47.10 48.15 49.52 49.05 47.65 48.21 48.87 49.40 48.94 47.83 47.38 43.89 46.31 39.96 37.55 35.54 37.73 43.08 45.26 46.99 44.32 41.69 41.82 44.31 45.10 45.94 47.15 46.99 47.39 46.98 47.17 48.11 48.86 49.60 49.67 48.92 48.60 47.75 47.77 47.57 47.39 46.92
53.62 52.99 51.24 51.12 53.05 55.78 54.75 54.10 55.26 48.73 49.49 51.65 52.43 52.34 51.11 49.54 49.71 50.30 50.19 50.19 50.05 50.38 49.47 46.10 41.27 38.84 39.78 43.48 42.92 43.94 45.11 46.46 45.88 44.95 43.90 44.70 46.17 46.90 46.25 46.24 46.42 46.15 46.32 46.71 46.75 47.63 48.22 48.02 47.55 48.31 48.30 47.54 45.75 46.02
50.75 50.81 51.33 52.29 53.37 56.51 51.33 53.31 56.67 52.25 50.21 51.05 52.89 51.76 51.44 49.82 49.20 49.16 49.22 49.01 47.96 46.97 44.31 41.50 41.26 42.97 43.57 45.01 46.09 45.57 45.60 46.34 46.16 45.08 45.51 46.61 46.74 46.56 45.88 45.22 44.50 45.10 44.70 44.97 45.32 43.12 46.98 46.97 46.86 46.21 46.00 45.65 45.03 44.01
53.06 56.35 54.13 56.51 59.84 57.73 55.51 54.81 53.25 53.38 53.73 51.97 53.79 52.72 51.65 53.05 48.63 47.00 46.72 48.88 45.72 44.05 42.51 45.20 45.40 46.55 48.82 48.91 48.41 47.50 46.56 46.49 44.60 44.41 43.51 43.15 45.27 45.42 44.95 44.72 44.99 44.52 43.49 42.96 42.79 43.43 43.63 44.48 45.26 45.73 45.20 44.38 44.61 44.20
58.29 52.29 58.87 59.58 57.30 55.17 55.75 56.45 54.54 55.73 53.94 53.09 53.65 53.12 50.99 49.11 48.03 47.06 49.20 46.05 44.74 45.99 46.76 46.45 46.82 47.01 47.83 46.88 47.26 47.79 47.58 47.52 46.76 45.35 43.11 43.25 42.81 42.76 42.68 42.93 42.68 42.34 42.63 42.75 43.37 43.57 43.95 44.59 45.17 45.14 44.71 44.11 43.37 42.50
53.68 55.70 58.65 57.29 53.37 49.39 48.74 57.65 52.31 53.45 49.40 50.89 52.53 48.98 49.65 49.82 50.54 51.52 46.23 47.66 47.57 49.80 49.54 48.47 49.20 49.49 47.48 48.36 48.80 47.41 47.15 45.87 44.16 43.75 43.37 43.45 45.13 44.24 43.61 43.13 42.72 41.60 41.32 42.26 44.08 44.27 43.55 40.73 43.15 44.12 44.41 44.01 43.56 42.97
50.82 55.70 52.59 52.10 52.15 46.76 54.47 52.10 54.80 53.54 53.09 50.63 48.98 45.57 47.65 49.74 52.58 48.38 43.27 46.34 47.89 51.08 49.21 48.56 46.95 45.82 47.49 47.32 45.52 44.53 44.63 44.92 43.98 43.87 43.75 42.64 42.24 42.86 43.65 43.28 43.28 42.91 42.85 43.41 43.31 43.26 43.23 42.93 40.33 42.67 42.18 41.95 41.69 41.08
47.88 47.00 50.06 40.38 53.20 49.90 47.14 47.80 48.68 49.28 44.86 48.14 46.06 46.58 49.35 51.37 46.67 43.75 41.94 45.81 48.29 48.09 48.32 48.59 47.25 45.99 43.66 44.06 45.78 44.99 45.71 43.84 42.46 41.91 43.01 42.35 42.06 42.53 43.23 44.49 45.03 43.67 43.54 42.48 42.15 42.12 42.04 42.64 42.28 41.88 41.46 40.92 40.13 39.92
41.62 49.92 45.86 49.99 51.45 49.04 49.41 44.57 45.19 45.02 45.52 46.22 47.77 51.76 51.80 47.91 40.56 39.04 44.98 47.83 49.04 49.57 48.91 47.63 46.23 45.10 44.74 44.75 43.20 43.03 43.10 44.45 43.55 41.79 41.89 42.02 41.69 40.78 40.42 40.42 40.46 41.76 43.49 43.20 42.28 41.76 41.93 41.80 41.44 40.52 40.40 39.17 35.46 39.21
44.14 48.39 53.61 55.95 54.42 53.14 51.69 52.06 51.85 48.11 43.65 44.31 48.63 47.87 47.16 40.59 39.82 44.95 48.45 49.70 49.49 50.05 50.38 49.19 48.54 46.34 45.15 44.69 45.43 45.62 45.21 44.33 42.74 41.76 42.79 42.84 42.85 42.70 41.50 39.76 39.05 40.85 42.99 43.12 43.13 42.28 41.31 41.20 40.86 40.42 40.27 41.57 41.28 40.62
53.42 53.02 49.52 52.73 52.70 54.00 49.52 49.95 47.54 45.10 46.74 50.33 49.53 44.03 42.79 42.98 44.38 49.21 50.92 51.67 53.16 50.62 48.63 47.55 47.92 47.79 46.62 45.42 46.00 45.92 45.24 45.12 44.95 44.23 43.89 43.04 44.49 43.58 42.30 42.52 43.03 36.45 41.85 42.39 42.14 42.86 42.06 41.62 40.87 40.66 40.17 40.16 40.93 41.83
53.15 55.37 53.95 51.08 52.05 52.23 51.52 50.43 50.17 52.32 53.43 50.72 48.17 47.82 48.09 52.03 52.51 51.69 51.64 50.76 49.74 48.78 45.75 44.81 45.68 46.85 46.17 45.63 46.05 45.80 44.49 43.01 40.67 38.26 37.14 38.31 39.09 39.91 42.24 42.35 42.50 42.96 43.11 43.17 33.46 37.26 40.37 40.60 40.81 40.70 40.75 40.88 41.28 41.50
53.60 56.13 52.43 51.08 49.56 49.71 53.64 55.04 53.79 55.81 54.49 53.49 53.92 52.57 52.26 53.29 53.71 53.79 51.08 47.72 46.99 45.57 44.66 46.74 45.40 44.83 45.60 44.72 44.26 44.13 45.48 44.40 42.82 40.55 38.40 37.92 38.88 41.53 42.07 41.78 41.99 42.48 43.27 43.05 42.04 41.28 35.96 39.25 39.30 40.09 39.66 39.23 39.46 39.09
57.70 55.70 52.76 53.18 51.37 54.28 55.55 56.77 55.98 54.97 53.91 52.64 53.40 50.53 50.97 53.55 52.83 53.25 51.85 50.00 49.74 47.48 44.97 44.45 45.02 47.56 46.38 45.01 43.11 41.76 42.51 43.49 42.94 42.44 42.09 42.87 42.96 42.34 42.01 42.20 42.60 42.55 42.03 41.07 40.45 40.01 39.63 38.54 38.66 38.27 37.88 37.80 37.90 37.96
55.43 53.41 52.91 49.90 51.20 56.19 55.32 54.14 54.27 52.99 53.77 52.02 52.31 53.41 53.23 52.44 49.51 50.16 48.90 50.20 49.40 47.81 42.27 45.84 47.51 44.77 45.58 45.55 44.85 44.72 33.44 44.67 44.02 44.64 42.47 43.91 42.91 42.46 42.31 42.36 42.34 41.50 40.79 40.31 39.97 39.74 38.56 38.37 38.19 38.17 38.16 37.84 37.84 37.83
53.18 53.50 52.94 51.69 51.91 50.86 53.99 52.47 51.90 50.85 51.73 51.34 51.92 52.81 52.93 51.06 47.90 48.75 49.02 48.96 48.35 48.40 48.10 47.26 46.73 46.33 45.72 44.67 44.22 43.91 39.28 45.94 40.47 35.43 36.38 34.39 33.15 35.77 39.90 41.87 42.33 41.69 39.95 39.48 39.91 39.81 38.65 38.15 38.19 38.16 38.05 38.11 37.82 37.59

GFSWCAN_sfc_wetblb_027.txt.gz
Wetbulb
51.85 51.89 51.93 51.85 51.93 52.10 52.23 52.56 52.64 52.83 52.78 52.64 52.60 52.93 53.44 53.44 53.57 52.36 50.36 50.71 45.63 40.43 41.30 45.66 46.58 41.24 42.74 40.65 36.62 41.49 41.24 42.74 40.56 37.33 37.16 37.42 36.54 41.14 39.53 41.76 41.12 40.31 39.32 39.79 41.44 39.77 39.07 52.51 52.00 50.17 53.84 57.21 57.81 59.68
51.56 51.64 51.64 51.91 51.92 52.08 52.29 52.50 52.56 52.58 52.79 52.55 52.41 52.92 53.17 53.67 53.79 53.47 48.63 50.20 49.81 43.54 42.67 49.28 49.59 50.11 48.75 46.51 41.99 42.47 41.74 41.70 41.41 40.06 41.12 40.70 38.11 39.99 39.62 35.88 44.72 38.71 43.23 41.36 42.91 43.85 51.13 53.14 52.40 54.39 54.62 54.68 56.34 57.89
51.32 51.42 51.59 51.92 51.98 52.00 52.19 52.27 52.44 52.45 52.74 52.59 52.59 53.17 53.42 53.73 53.57 53.17 51.05 48.41 46.80 42.11 41.86 43.03 45.78 49.97 52.46 50.01 49.96 39.17 42.53 44.64 43.28 45.33 41.25 40.81 37.14 41.99 36.58 38.53 41.03 44.87 47.54 43.24 44.03 47.24 48.58 50.67 52.74 53.51 53.86 54.08 55.62 56.66
51.20 51.57 51.72 51.78 51.76 51.82 51.95 52.11 52.29 52.44 52.61 52.49 52.76 52.90 53.32 53.75 53.59 53.59 51.17 48.16 47.63 43.96 37.31 42.79 51.52 48.43 50.99 50.97 49.77 48.46 46.60 46.03 45.17 45.88 41.20 40.26 37.22 44.26 39.89 40.96 41.45 44.57 45.79 44.13 44.13 47.03 48.63 49.92 51.42 52.20 53.12 54.27 54.98 57.64
51.13 51.39 51.47 51.45 51.53 51.68 52.05 52.22 52.23 52.30 52.44 52.33 52.74 52.93 53.48 53.46 53.38 53.82 54.76 50.27 50.24 44.73 39.12 40.86 47.79 49.97 51.04 50.34 48.62 47.72 45.83 44.25 41.68 39.34 39.44 38.20 41.87 41.14 43.23 42.48 40.68 45.39 43.71 41.58 41.75 48.47 48.58 49.49 52.24 53.12 52.14 53.39 55.99 56.77
51.09 51.02 51.18 51.31 50.87 51.59 51.94 52.12 51.97 51.96 52.42 52.32 52.81 53.03 53.07 52.99 52.10 52.92 47.99 51.64 51.98 49.33 41.50 37.52 47.38 46.20 48.51 48.90 46.86 46.17 45.91 44.61 43.23 40.84 38.96 40.33 43.40 40.02 37.43 38.43 45.20 46.74 47.96 48.23 46.43 49.79 49.89 52.00 52.79 53.79 52.70 54.48 55.16 55.67
50.95 50.87 51.03 51.15 51.41 51.63 51.58 51.66 51.66 51.91 52.45 52.76 53.13 53.00 52.93 52.78 54.96 49.05 46.62 50.02 50.91 50.24 41.00 37.20 39.30 45.95 47.18 46.67 46.18 45.40 45.99 43.95 42.31 39.10 37.20 38.53 39.63 39.82 36.80 35.05 43.07 45.16 46.56 48.28 49.16 48.57 48.62 50.59 49.71 54.00 53.90 54.18 54.42 55.24
50.65 50.71 50.86 51.17 51.00 51.20 51.37 51.36 51.36 52.23 52.74 52.88 52.67 52.61 52.30 51.62 50.71 50.81 52.10 50.28 50.95 45.71 42.55 35.94 37.01 40.68 45.68 41.68 41.24 43.75 39.90 40.59 38.48 36.49 37.46 36.58 38.50 37.61 33.50 39.19 42.61 43.32 44.13 46.20 48.89 49.78 49.03 51.29 51.78 52.65 53.25 54.14 54.43 55.61
50.54 50.74 50.35 50.38 50.90 50.98 51.04 51.39 51.94 52.61 52.67 52.21 52.47 52.79 54.38 51.13 49.43 49.65 51.29 50.62 50.64 45.41 36.78 35.82 33.69 34.37 43.24 41.26 43.57 41.51 39.31 35.31 39.63 35.25 35.20 36.47 35.44 32.97 36.58 35.95 36.34 39.37 40.45 41.79 48.02 47.79 48.19 49.37 50.28 50.83 51.57 53.15 52.46 53.67
50.66 50.93 50.48 50.77 50.81 50.99 51.25 51.76 52.25 52.59 52.23 51.24 52.36 51.58 48.91 52.89 52.72 50.75 47.02 44.97 43.10 43.10 40.84 36.05 38.71 34.73 40.18 40.28 40.29 40.98 39.77 37.39 35.51 37.92 38.20 33.87 32.97 37.49 39.66 44.69 48.96 47.50 43.60 43.45 43.28 43.18 43.98 45.12 49.05 49.88 50.86 53.75 53.48 57.19
50.61 50.20 50.25 50.59 50.56 50.99 51.38 52.03 52.17 52.05 51.94 54.70 55.26 53.09 55.19 53.44 49.85 49.67 48.20 46.68 46.81 44.06 43.34 43.17 40.56 38.95 43.36 38.48 39.49 42.04 38.82 38.12 34.78 40.26 38.43 33.69 32.95 38.05 43.02 45.41 48.51 50.30 48.52 46.89 46.41 46.85 47.90 48.79 49.86 51.45 53.65 56.10 56.75 55.49
50.44 50.05 50.47 50.18 50.44 51.26 51.87 52.04 52.02 56.09 57.27 53.23 54.33 55.09 58.06 52.03 50.73 47.38 44.73 47.18 46.27 45.80 49.34 48.02 49.77 45.08 45.72 44.57 41.86 45.69 43.81 43.92 38.50 46.12 38.78 32.61 36.68 42.61 43.77 45.30 46.59 47.59 48.20 48.35 49.97 49.15 50.79 52.06 54.20 54.23 52.53 53.60 52.54 51.80
50.35 50.55 50.34 50.61 51.22 51.85 51.99 52.24 52.17 51.16 51.59 58.26 54.24 49.91 49.92 49.85 41.70 39.11 34.78 39.76 40.33 46.85 49.13 49.44 50.31 52.40 51.49 49.12 49.31 48.00 41.58 40.52 47.02 40.05 32.61 36.49 43.04 44.27 44.88 46.49 46.72 48.09 47.86 47.72 47.50 47.70 47.59 48.41 50.26 50.47 50.31 51.04 51.39 50.52
50.63 50.67 51.10 51.20 51.69 52.10 52.39 52.27 52.23 53.39 54.94 53.74 48.91 40.71 45.00 43.81 44.47 43.94 44.80 45.71 50.32 50.66 50.86 50.82 51.63 53.14 52.09 49.63 48.49 41.93 45.91 44.18 37.38 32.79 33.32 41.98 44.22 46.49 47.51 48.54 48.13 47.04 47.85 48.23 47.36 46.81 46.56 46.63 46.37 47.93 49.39 49.65 49.60 47.99
50.69 51.01 51.16 52.68 52.17 52.17 52.24 52.58 52.81 58.06 56.20 50.64 49.94 42.56 45.02 48.09 49.74 50.00 51.44 51.32 52.61 54.11 53.78 51.02 50.70 51.22 48.23 45.53 45.14 44.04 40.77 36.74 36.21 34.58 40.01 43.17 46.49 47.69 47.60 48.08 48.44 48.65 49.57 48.74 50.04 48.37 47.22 46.72 45.94 46.01 48.09 48.50 49.55 50.38
50.77 50.89 56.59 52.08 51.93 51.84 51.84 56.88 60.38 59.84 55.85 52.46 50.34 47.44 49.35 47.98 47.74 48.92 49.56 49.41 53.14 53.28 55.15 51.64 48.39 46.08 44.07 44.20 38.74 37.07 36.18 33.30 36.88 41.86 44.77 47.26 47.31 48.27 48.61 48.07 48.15 48.66 49.08 49.18 49.36 49.38 49.83 48.06 47.80 47.88 47.78 48.63 48.13 47.16
49.72 60.06 52.30 51.97 51.43 51.72 53.03 59.53 59.20 53.56 52.27 49.55 49.18 51.86 50.35 48.78 47.90 48.85 50.09 50.06 53.52 51.59 48.54 48.99 42.49 41.17 45.33 41.28 38.10 39.68 36.68 38.55 45.26 45.39 45.45 47.83 47.99 48.74 48.62 48.53 47.74 47.79 48.53 48.64 49.00 50.47 49.93 50.39 50.08 48.60 47.82 48.30 48.46 49.26
59.28 59.95 53.45 51.71 52.43 58.01 61.77 59.16 56.03 53.90 48.73 52.34 49.81 50.76 51.38 50.35 48.92 49.74 50.86 51.68 50.90 50.21 49.69 46.28 48.07 41.50 39.04 36.69 38.42 41.94 44.87 48.10 47.41 48.09 49.02 48.59 49.72 48.96 48.51 48.17 48.37 48.02 47.49 47.48 48.47 49.39 49.85 49.38 48.49 48.21 49.59 49.07 48.16 48.42
55.93 54.43 51.76 51.23 53.19 56.45 56.46 56.52 57.39 50.94 51.46 53.89 54.68 53.39 52.48 51.14 51.58 51.82 51.46 51.76 52.37 52.41 50.50 47.88 41.53 38.67 39.62 42.49 42.36 45.07 45.93 45.66 45.49 47.33 48.64 49.70 49.01 48.54 48.20 48.00 47.83 47.55 47.44 47.34 46.41 47.21 47.93 48.85 48.20 48.31 48.82 48.62 46.88 47.39
50.97 51.40 51.69 52.41 54.06 58.72 53.66 55.89 58.95 54.22 51.06 52.43 55.19 52.89 52.09 51.55 51.49 51.30 50.88 50.78 49.89 48.80 46.07 44.08 43.88 45.28 45.51 46.64 47.60 46.97 47.06 46.74 46.40 45.32 45.78 46.94 47.65 48.27 47.65 46.66 45.79 47.10 46.57 47.03 47.09 43.97 47.74 47.50 47.74 47.32 46.89 46.30 45.82 44.94
52.72 57.89 55.32 57.82 62.30 60.18 57.39 55.79 55.14 54.48 55.06 52.21 54.11 53.90 52.32 53.68 50.97 49.08 49.45 51.01 48.36 46.43 45.02 47.13 47.50 48.62 49.79 49.55 49.54 48.35 47.69 46.88 46.04 45.62 44.26 43.94 45.81 46.54 46.16 45.97 46.11 45.82 44.95 45.14 45.65 45.88 45.62 45.95 46.70 47.02 46.36 46.10 45.99 45.74
60.92 53.24 60.80 60.34 59.27 57.76 58.17 59.41 55.33 56.93 54.71 54.42 53.74 53.54 51.51 49.89 49.66 48.96 50.99 49.27 47.71 47.94 48.16 47.90 47.88 48.56 48.57 49.00 48.39 48.96 48.50 48.28 48.55 46.69 44.87 44.56 44.88 44.99 44.96 45.10 44.53 43.97 44.53 44.73 45.79 45.24 45.26 45.61 45.87 46.58 45.91 46.11 46.29 44.82
54.84 57.27 60.78 59.51 55.28 51.24 50.95 59.87 53.05 53.72 49.92 51.05 53.07 49.87 50.33 50.50 51.71 53.27 49.14 49.96 50.03 52.39 52.01 49.91 49.65 50.61 49.33 49.89 49.69 49.62 48.40 47.06 45.92 45.80 45.81 45.08 45.67 47.45 45.90 45.44 45.29 43.85 43.60 44.26 45.79 45.49 45.14 41.89 44.57 44.72 45.44 45.25 44.83 44.45
50.36 58.48 55.44 53.96 54.26 48.18 56.18 53.09 56.23 53.62 54.08 51.12 50.30 46.56 48.53 50.02 53.20 50.10 46.26 49.01 50.28 52.51 50.60 50.55 50.17 47.70 48.76 49.63 47.66 47.36 47.28 46.56 45.69 45.70 46.51 44.60 43.59 44.51 45.69 46.40 46.00 45.44 44.67 45.60 45.23 44.90 44.64 44.54 42.12 44.55 44.16 43.73 43.60 43.14
49.76 49.50 51.40 41.86 54.76 50.81 48.10 48.57 49.41 50.58 46.24 48.47 47.43 48.51 50.49 53.46 48.00 46.50 45.58 49.05 50.94 51.06 51.57 52.20 49.59 48.62 46.99 46.69 46.09 46.80 48.35 45.92 44.23 43.87 45.41 44.54 43.90 44.07 44.51 45.45 46.46 45.52 45.54 44.30 43.90 44.00 43.80 44.25 44.11 43.62 43.49 42.38 41.49 42.50
40.92 52.23 47.83 51.30 52.79 50.45 50.24 46.99 47.34 47.90 48.51 47.13 48.63 52.60 53.04 49.55 44.41 42.01 48.00 49.77 51.52 50.17 50.50 50.20 48.39 47.45 47.10 47.34 45.51 44.82 45.04 46.11 45.32 43.41 43.96 44.28 43.75 42.71 42.24 42.16 42.48 42.67 45.06 44.75 44.06 43.24 43.05 43.39 43.03 42.52 42.53 41.35 36.63 41.43
43.90 49.60 54.87 58.45 55.21 54.16 52.43 53.55 54.78 51.29 46.73 45.92 48.67 48.05 47.73 42.85 43.08 47.39 51.14 52.67 51.68 51.35 51.13 50.98 48.47 47.41 47.56 47.66 47.90 47.48 47.14 47.29 45.35 44.30 45.96 45.16 44.92 44.72 43.31 41.77 41.19 42.45 44.16 44.74 44.49 43.75 42.51 42.34 42.06 42.11 41.86 42.95 43.03 42.44
54.67 55.01 51.00 53.96 53.88 54.57 50.44 50.65 49.16 47.53 48.38 52.55 50.22 45.22 44.50 44.45 45.37 52.18 52.60 53.43 53.63 50.89 50.79 49.52 47.90 49.45 47.21 47.11 47.49 46.64 46.29 46.39 47.79 46.25 46.28 45.30 45.81 45.26 44.75 44.96 44.75 36.72 43.58 44.10 43.29 43.47 43.35 42.65 42.10 41.88 41.93 41.64 42.09 42.94
54.62 55.91 55.45 51.75 52.99 52.26 52.10 50.61 51.15 51.99 54.56 51.66 48.49 47.52 49.25 53.39 54.55 54.94 54.29 54.72 53.06 53.80 50.80 48.97 49.09 50.21 48.06 48.49 47.70 48.59 46.41 45.17 42.91 40.76 39.78 41.16 41.51 42.52 44.89 44.79 44.62 44.97 44.60 43.84 35.80 39.19 41.37 41.38 41.89 41.99 42.05 42.39 41.76 43.82
54.24 58.20 52.88 52.06 50.67 49.81 51.88 55.03 53.32 54.60 55.48 55.22 54.91 54.41 53.85 54.49 55.92 56.59 54.11 52.72 54.33 53.60 52.90 50.28 50.88 48.80 47.26 47.11 45.76 46.09 47.96 46.59 45.11 42.68 40.78 40.42 41.42 43.78 43.81 43.67 43.50 43.54 43.62 43.87 42.56 42.46 37.57 41.23 41.03 42.48 42.01 41.89 41.03 41.28
57.72 56.33 53.61 52.79 51.27 53.18 54.87 55.32 55.94 57.69 57.58 54.97 55.39 53.48 52.18 54.84 54.62 54.88 54.74 55.56 55.52 54.75 51.87 50.39 50.64 50.04 47.33 45.66 44.39 43.47 43.30 45.87 45.33 44.57 43.81 44.44 43.85 43.47 43.30 43.48 43.92 43.32 42.67 42.15 42.36 41.48 41.45 40.57 40.80 39.72 39.60 39.17 39.28 39.00
54.82 53.67 52.54 50.74 51.85 55.11 57.17 55.00 53.45 53.01 54.13 54.15 52.56 54.88 54.61 54.31 50.71 53.27 53.57 54.57 53.44 51.64 42.64 47.00 48.24 47.03 47.48 46.88 46.36 45.84 36.29 45.80 47.07 45.89 44.17 44.36 43.54 43.95 43.76 43.85 44.03 43.39 43.08 42.53 42.75 41.79 41.00 40.50 41.01 39.41 38.82 38.97 39.26 38.97
54.50 53.51 53.35 52.45 52.34 51.76 54.17 53.07 51.99 51.50 52.37 52.64 52.56 53.60 53.60 52.09 49.31 51.53 53.69 52.95 51.33 50.40 49.34 48.90 48.51 47.98 46.95 46.15 45.84 46.20 40.40 46.53 41.38 36.50 36.85 35.48 33.96 36.77 41.28 43.36 43.36 42.64 42.08 42.10 41.66 40.62 40.37 39.86 39.87 39.51 39.47 39.78 39.84 39.61

GFSWCAN_sfc_wetblb_030.txt.gz
Wetbulb
52.31 52.39 52.32 52.13 52.34 52.55 52.71 52.76 52.84 53.07 52.59 52.36 52.96 53.23 53.46 53.71 53.66 53.28 50.69 50.76 45.51 40.72 41.20 44.47 45.27 41.88 42.60 42.90 37.99 42.46 41.18 42.39 41.13 36.94 37.07 36.92 35.80 39.84 39.89 41.66 40.24 40.16 38.38 38.96 41.81 40.72 39.13 52.16 53.43 50.54 54.92 56.33 56.91 58.27
52.35 52.20 52.14 52.07 52.36 52.45 52.59 52.61 52.70 52.61 52.70 52.69 52.98 53.31 53.44 53.64 53.85 53.48 48.64 51.36 49.91 44.00 42.72 47.83 47.13 48.49 47.96 47.32 43.43 43.70 41.05 41.69 42.10 38.38 40.01 39.20 37.06 39.17 38.65 35.39 45.11 39.69 43.97 41.38 43.18 44.11 54.18 53.18 52.59 54.42 55.21 54.80 54.89 56.15
51.92 51.92 51.98 52.18 52.18 52.31 52.28 52.39 52.60 52.74 52.90 52.88 53.17 53.42 53.39 53.78 53.76 53.26 51.18 49.74 47.80 42.53 42.35 42.43 44.23 50.10 51.57 50.51 51.07 40.39 43.63 44.79 43.58 45.36 40.81 40.03 37.36 41.51 36.45 38.61 39.11 42.96 47.27 43.23 44.18 47.41 48.83 50.48 52.36 53.37 54.17 53.59 54.54 54.99
51.60 51.71 51.98 52.00 51.93 52.00 52.15 52.38 52.54 52.91 52.95 52.76 53.02 53.31 53.48 53.76 53.91 53.50 51.81 49.13 47.93 44.03 37.58 41.85 51.14 48.38 52.09 51.25 49.99 49.32 46.86 47.10 46.69 45.23 40.78 40.06 36.92 43.70 39.28 40.78 40.34 43.67 44.87 44.00 44.02 47.20 48.97 49.81 51.50 52.26 52.63 53.46 53.48 54.76
51.46 51.59 51.67 51.63 51.59 51.56 52.23 52.32 52.35 52.50 52.47 52.66 53.11 53.46 53.62 53.48 53.58 53.59 54.07 49.96 50.66 44.95 39.34 41.18 47.31 49.91 49.89 50.37 48.90 49.65 47.53 45.38 43.02 40.38 38.71 36.76 41.02 40.78 42.85 42.29 40.18 44.66 42.98 40.52 40.57 47.74 49.06 50.58 52.11 53.20 52.15 52.25 53.51 53.64
51.26 51.21 51.26 51.37 51.66 51.85 51.83 51.98 52.19 52.17 52.48 52.62 53.13 53.58 53.44 53.17 52.43 53.78 48.59 52.33 52.21 49.75 41.67 37.05 46.10 46.78 47.84 48.89 48.26 46.50 46.51 46.05 45.51 41.38 40.07 41.07 43.44 39.67 36.62 37.56 44.38 46.62 47.64 47.05 43.75 47.57 48.73 50.81 51.75 52.85 52.61 53.69 53.95 54.23
51.09 50.95 51.06 51.46 51.67 51.67 51.39 51.39 51.85 52.48 52.90 53.25 53.55 53.30 52.86 53.06 53.72 50.23 47.08 50.28 51.23 50.70 41.55 37.04 37.99 45.87 46.83 46.47 46.57 45.56 46.46 44.16 41.90 38.68 36.71 37.98 39.21 39.77 35.83 33.44 40.74 43.26 45.26 46.56 47.20 47.48 46.59 49.14 49.25 52.56 53.15 54.37 55.00 55.13
50.83 51.07 51.18 51.37 51.62 51.55 51.77 51.51 52.01 52.61 53.16 53.03 52.87 52.75 52.80 50.28 49.95 50.92 51.73 51.11 51.65 45.94 43.32 36.56 37.27 40.47 45.35 41.74 41.38 44.17 40.42 40.40 38.93 36.88 37.21 36.48 38.60 37.29 32.63 37.41 39.40 40.90 41.49 41.64 43.24 45.57 46.70 49.62 50.86 52.24 53.64 54.00 53.00 52.88
50.84 51.02 51.30 51.25 51.10 51.17 51.16 51.55 52.33 53.05 53.09 52.55 52.30 52.55 54.86 51.74 49.78 50.73 51.30 50.88 51.11 46.87 39.90 38.49 35.53 37.85 44.75 42.53 43.63 41.86 40.24 36.60 40.36 35.32 35.12 35.08 33.90 31.91 33.69 34.08 43.03 44.92 42.98 42.97 43.27 43.78 46.12 46.41 49.16 51.17 51.77 51.92 51.51 51.89
50.81 51.05 50.71 50.81 50.61 50.98 50.98 51.63 52.61 52.87 52.57 51.86 52.75 53.43 50.42 53.89 52.79 51.86 48.69 45.64 45.31 45.46 44.14 40.61 42.16 41.88 41.97 42.09 40.89 41.20 39.82 38.75 35.53 39.90 37.75 32.99 32.27 40.71 44.21 45.40 45.65 46.90 46.26 45.48 42.43 43.81 44.71 47.68 48.73 50.43 50.94 52.02 52.01 51.96
50.95 51.16 50.83 51.01 51.06 51.32 51.61 52.08 52.45 52.37 52.04 54.67 54.88 53.85 54.82 53.38 52.50 49.88 50.34 48.43 50.13 48.82 48.64 48.45 45.42 45.52 46.24 41.68 41.53 43.56 40.94 39.83 37.16 42.06 40.10 34.08 33.54 40.60 45.36 45.73 47.06 48.12 47.54 47.60 49.09 48.80 49.18 49.41 49.11 49.81 50.56 52.08 52.65 54.05
50.99 50.97 51.12 51.33 51.60 51.80 52.10 52.18 52.37 53.94 57.39 53.36 55.65 56.44 56.22 53.30 51.52 48.23 46.51 48.45 47.17 45.56 50.02 48.55 48.48 50.28 50.22 47.05 42.76 45.42 44.40 44.60 37.55 44.55 38.69 32.63 38.80 44.52 44.94 45.91 47.22 46.97 47.16 47.03 47.17 48.97 49.58 49.73 51.16 51.05 51.73 50.77 51.23 51.40
50.74 51.00 50.76 51.05 51.79 52.13 52.24 52.52 52.79 52.90 51.34 59.33 54.75 52.38 51.89 51.00 41.98 42.33 36.24 42.94 44.92 48.68 51.34 51.61 50.40 51.24 53.52 50.38 49.61 49.19 42.30 40.28 46.07 39.40 32.63 36.89 44.13 46.19 46.25 46.62 46.93 48.24 47.51 47.04 46.97 46.80 47.42 47.47 48.38 49.43 49.36 49.94 50.07 49.06
50.14 50.23 50.40 51.24 51.86 52.45 52.73 52.94 53.32 53.90 54.92 54.39 50.13 39.00 46.52 44.86 46.09 46.92 47.24 46.87 50.59 51.12 51.58 51.41 50.71 50.08 51.33 49.26 47.69 42.88 44.91 43.73 36.88 33.18 34.61 41.24 46.00 46.68 47.90 46.97 47.18 47.07 48.25 47.70 46.94 46.89 46.24 46.17 46.35 46.53 48.39 48.82 48.33 46.60
50.28 50.46 51.08 52.53 52.44 52.60 52.58 52.69 53.48 57.46 57.21 51.53 51.18 41.65 46.15 49.36 49.87 50.03 50.96 50.62 51.96 53.25 53.28 50.50 51.29 50.56 48.30 45.73 46.12 43.89 40.57 35.99 37.66 36.34 40.34 45.04 48.11 48.57 47.79 46.57 46.96 47.17 47.85 47.92 48.99 48.12 47.17 46.89 46.78 45.92 46.67 46.12 47.89 48.33
50.64 51.21 57.42 52.13 52.11 52.10 51.97 56.44 58.87 60.20 56.14 53.13 51.14 48.30 49.59 47.91 48.05 49.21 49.72 49.17 52.58 52.91 54.16 52.16 47.41 45.13 43.19 44.49 40.60 37.91 36.68 34.90 39.12 42.26 44.43 46.62 48.75 48.42 47.92 48.03 47.73 47.84 47.28 48.47 49.00 48.90 48.29 48.06 46.77 47.08 46.72 46.42 46.16 45.95
50.23 60.78 52.48 52.35 51.59 51.84 53.51 59.37 59.88 53.85 53.51 51.17 50.61 52.51 50.57 49.22 48.48 49.26 50.35 50.08 53.35 51.24 47.59 48.78 42.69 41.59 45.15 40.26 37.97 42.71 38.18 42.89 45.49 45.88 46.97 49.10 48.32 47.82 48.73 47.88 47.88 48.45 48.25 47.79 49.54 48.77 50.02 49.30 48.26 47.17 46.21 46.99 47.84 48.09
57.58 60.23 53.72 52.13 52.39 57.65 62.07 60.08 57.05 54.60 49.77 52.47 50.38 51.26 52.08 51.35 50.05 50.30 51.16 51.84 51.23 49.83 49.62 46.07 46.87 41.17 38.95 36.93 39.59 42.76 44.75 46.97 48.44 48.24 48.36 49.75 50.50 50.08 48.43 47.67 48.75 48.49 48.04 48.49 48.53 49.44 49.21 48.53 48.10 47.54 48.31 48.88 47.77 46.79
55.21 54.30 52.03 51.44 52.94 55.69 57.00 57.02 58.17 52.31 53.08 53.67 53.48 54.04 53.61 52.33 52.92 53.04 52.25 52.65 52.65 52.34 50.14 47.57 43.21 41.53 41.72 44.92 43.77 44.89 45.95 45.55 44.71 46.89 49.19 50.61 50.81 50.72 49.14 48.05 47.83 47.62 47.38 48.05 47.22 46.71 47.76 49.07 47.07 46.52 46.98 46.92 44.94 44.94
51.09 51.42 51.99 52.63 53.66 59.72 54.39 56.12 59.96 54.51 52.13 52.63 54.19 53.07 52.44 53.20 53.16 52.11 52.02 51.81 51.03 49.48 46.54 45.07 44.78 45.88 45.62 47.12 48.20 46.69 47.18 46.87 46.02 45.10 45.80 46.12 47.02 49.20 48.25 46.85 45.50 47.85 46.61 47.75 47.08 44.79 46.99 46.70 46.78 46.25 45.78 45.35 44.40 43.23
55.82 59.01 55.85 58.95 62.70 60.73 56.68 54.57 55.80 54.70 54.35 52.38 54.11 53.10 52.06 53.71 52.00 50.59 50.21 52.44 49.26 46.87 45.71 47.41 47.28 48.88 50.92 50.25 50.07 48.96 48.31 47.06 45.93 46.08 45.08 44.18 45.47 46.97 46.92 46.82 46.67 45.73 45.52 45.45 45.89 45.75 45.10 45.01 45.78 46.46 46.01 45.52 45.00 44.45
61.83 54.76 61.11 61.52 59.18 57.97 56.83 57.54 54.65 56.82 54.55 53.54 52.85 53.36 50.92 49.16 49.94 50.33 51.83 49.20 48.63 48.94 49.42 49.15 48.65 49.13 49.25 49.29 48.80 49.67 49.44 48.77 49.40 47.58 44.05 45.60 44.69 44.94 45.60 45.78 45.41 44.32 44.81 44.77 45.57 45.29 44.92 45.03 44.38 45.78 45.38 45.24 45.44 44.47
56.53 58.48 61.04 60.05 55.29 51.22 49.41 58.85 53.91 53.77 50.41 50.89 52.48 49.30 49.26 50.08 52.23 54.56 49.04 50.36 49.99 52.32 51.91 51.04 51.17 51.87 50.61 51.12 50.93 50.67 49.65 48.26 45.99 46.16 46.20 46.26 45.90 46.06 46.07 46.06 45.99 44.58 43.67 44.90 45.81 45.27 44.77 42.34 44.43 44.92 45.32 45.12 44.82 44.63
52.46 59.31 56.58 54.35 53.50 47.43 55.55 53.45 54.96 52.64 52.72 50.91 49.76 47.47 49.23 50.81 52.98 49.52 46.91 48.92 50.19 52.67 51.20 51.86 50.93 49.37 49.83 51.31 47.77 47.79 48.24 47.52 46.09 46.12 46.72 45.54 43.84 44.35 45.47 45.89 46.20 45.86 45.24 45.45 45.51 45.06 44.90 44.84 42.89 44.53 44.23 43.09 43.17 43.59
50.02 48.60 50.98 41.02 54.44 52.03 49.56 49.55 49.81 49.90 47.77 49.29 47.25 48.03 49.51 52.23 48.11 47.39 45.95 48.91 50.35 50.79 50.91 50.96 49.25 49.37 47.18 47.26 47.65 47.31 49.02 46.45 44.66 43.94 45.59 45.20 44.32 44.17 44.52 45.43 45.72 45.88 45.79 44.10 43.80 44.12 44.39 44.47 44.28 43.80 43.43 42.40 42.10 42.89
40.44 52.53 46.04 51.36 51.70 50.27 50.26 47.71 49.20 49.05 49.20 47.15 48.02 50.82 51.97 49.41 45.78 43.06 46.47 50.03 50.83 51.05 50.11 49.49 49.53 47.59 47.50 48.73 47.20 46.21 46.14 46.91 45.91 43.93 44.48 44.83 44.17 43.10 42.25 42.16 42.40 42.72 45.17 45.05 44.31 43.54 43.63 43.81 43.42 43.03 42.64 41.73 38.16 42.27
42.81 51.22 54.80 56.69 54.13 53.44 52.05 53.01 53.40 49.75 46.18 46.94 48.64 49.00 47.92 41.22 43.89 48.71 53.37 54.51 52.64 52.31 53.12 53.75 52.21 49.77 48.67 48.62 48.30 47.85 47.91 47.90 46.91 45.50 46.54 46.36 45.98 45.36 43.74 41.97 41.30 42.09 43.82 44.61 44.46 43.64 42.90 42.91 42.91 42.71 42.54 43.13 43.13 42.79
54.75 54.82 51.14 53.70 54.32 54.80 51.28 49.61 48.14 48.56 48.97 51.34 51.02 47.10 45.44 46.11 46.62 51.80 53.08 54.66 53.93 53.88 54.50 52.55 52.45 51.03 50.03 49.10 48.54 47.72 46.95 46.74 47.02 47.42 46.67 46.39 46.54 45.80 45.62 45.45 45.21 37.89 44.38 43.96 43.08 43.51 42.89 42.89 42.41 42.27 42.18 41.91 42.30 42.81
52.37 52.83 54.49 52.54 52.72 53.85 53.04 51.36 51.73 53.22 54.40 52.53 49.45 48.23 49.20 51.76 51.47 53.86 54.37 54.86 54.76 54.72 51.65 49.84 51.75 50.93 50.54 49.90 49.62 48.82 48.06 46.43 43.76 41.66 41.19 41.33 42.01 42.87 45.14 44.90 44.90 44.80 44.52 43.61 36.35 39.67 41.54 41.86 42.07 41.93 42.35 42.47 42.70 43.55
54.28 55.06 53.86 52.88 51.22 51.26 53.40 55.67 54.35 55.04 55.23 54.47 54.14 53.74 53.57 54.83 55.33 55.48 54.13 54.30 54.22 51.74 51.41 51.80 50.52 49.61 48.19 47.15 46.00 46.11 46.78 46.95 45.62 43.54 41.31 40.70 41.77 44.03 44.38 43.94 43.54 43.82 44.20 43.85 43.19 43.04 38.51 41.20 41.13 42.93 42.16 41.70 41.50 41.39
57.18 56.22 53.44 53.64 52.59 53.30 55.63 56.58 56.17 55.52 55.44 54.56 55.15 53.00 52.66 53.28 55.23 55.71 55.55 55.26 54.00 54.28 52.25 50.02 49.30 49.30 47.40 45.83 44.76 43.82 43.16 46.10 46.36 45.42 44.54 44.79 44.51 44.43 43.96 44.26 44.19 44.28 44.03 43.21 42.79 42.55 41.87 41.21 41.56 41.13 40.77 40.21 40.10 39.95
55.65 54.46 53.53 51.55 51.91 54.77 56.38 55.92 54.19 52.96 53.32 53.29 53.14 54.04 54.30 53.01 51.28 53.79 54.46 53.59 51.58 50.10 46.11 48.62 47.88 46.87 47.65 46.99 46.79 46.10 37.34 46.12 45.83 45.62 44.89 43.97 43.58 43.81 43.76 44.15 44.42 43.77 43.45 42.87 42.29 42.05 41.62 40.95 40.85 40.61 40.16 40.18 40.23 40.27
54.95 54.27 54.20 52.93 52.79 52.94 53.72 53.61 52.32 51.87 52.82 51.34 50.28 53.04 52.76 51.83 49.01 51.99 54.15 53.11 51.28 49.63 48.80 48.67 48.45 48.03 47.71 47.19 46.58 46.61 41.49 44.21 39.28 36.28 36.80 36.47 35.34 37.34 41.32 43.09 42.86 42.95 42.72 42.07 41.82 41.54 40.75 40.36 40.12 40.23 40.23 40.08 40.15 40.22

GFSWCAN_sfc_wetblb_033.txt.gz
Wetbulb
51.86 52.58 52.78 52.77 52.69 52.63 52.77 52.81 52.81 52.60 52.48 52.79 53.28 53.55 53.55 53.67 53.74 52.70 50.42 50.51 45.37 39.88 41.03 43.16 43.59 41.54 41.43 40.71 37.32 40.57 38.81 39.79 39.13 34.64 34.39 33.85 33.86 35.90 35.21 38.27 33.82 36.39 35.79 35.01 38.27 37.81 36.12 48.80 49.30 45.91 49.75 50.83 51.75 52.26
52.34 52.54 52.49 52.32 52.44 52.46 52.50 52.52 52.23 52.88 52.69 53.06 53.14 53.39 53.55 53.61 53.67 53.39 48.68 51.37 50.39 43.97 42.70 46.65 46.44 47.04 46.03 45.31 42.06 42.65 39.88 39.35 40.47 36.55 36.64 36.22 33.43 37.14 35.56 32.26 40.02 34.94 38.18 36.49 39.26 40.39 46.49 48.67 47.87 50.87 51.48 50.61 50.06 49.94
52.06 52.05 52.18 52.18 52.20 52.30 52.22 52.20 52.53 52.54 52.67 52.91 53.06 53.67 53.78 53.78 53.86 53.15 50.68 49.93 47.94 43.04 42.44 43.07 43.85 48.75 49.94 49.03 50.01 41.01 42.46 43.60 42.23 43.46 39.14 37.39 34.67 37.52 32.37 35.20 36.83 40.33 43.27 37.71 39.98 43.58 44.97 47.42 50.38 50.61 51.29 50.52 50.33 50.54
51.75 51.92 52.04 51.99 51.89 51.95 51.51 52.30 52.44 52.38 52.38 52.79 53.35 53.61 53.92 53.92 53.96 53.73 51.46 49.50 47.45 43.64 37.78 41.05 49.56 47.42 51.04 51.01 49.82 48.65 46.51 46.10 44.87 43.09 38.12 38.21 35.81 40.10 35.10 36.90 36.11 38.83 40.45 39.51 38.76 43.99 45.16 46.70 48.66 49.71 49.91 51.68 52.43 51.58
51.50 51.76 51.71 51.52 51.57 51.85 51.99 52.13 52.15 52.36 52.34 52.84 53.45 53.82 53.84 53.53 53.55 53.12 51.30 49.39 50.65 44.81 39.22 40.48 45.68 48.54 49.24 49.08 48.07 48.51 46.86 45.02 42.55 39.31 37.77 35.33 38.34 37.42 38.24 38.00 36.25 40.92 38.32 35.88 34.59 41.14 41.94 43.14 46.96 49.08 49.04 49.77 51.51 52.22
51.29 51.36 51.31 51.45 51.55 51.75 51.87 51.80 51.96 52.37 52.74 53.19 53.50 53.72 53.61 53.53 52.35 52.96 47.21 50.12 51.56 49.80 42.07 36.98 45.05 45.53 47.34 47.72 46.57 46.20 46.37 45.49 43.97 40.56 39.50 40.62 42.91 39.17 34.43 32.75 39.29 41.03 41.36 41.14 38.70 42.86 43.05 44.52 46.38 48.89 49.48 50.45 51.75 51.89
51.19 51.00 51.29 51.14 51.14 51.56 51.65 51.63 52.29 52.79 53.32 53.75 53.44 53.43 53.55 53.37 52.27 48.84 46.41 50.14 51.48 51.03 42.24 37.73 40.30 45.90 46.64 46.95 46.44 45.00 45.39 42.53 41.16 38.22 36.07 36.71 37.83 39.46 35.08 32.09 38.34 40.18 41.15 41.48 42.15 41.92 40.23 42.91 43.24 48.68 49.82 50.51 52.47 52.81
50.70 51.06 51.04 51.11 50.99 51.20 51.07 51.55 52.29 52.81 53.28 53.23 53.06 52.89 51.75 51.37 49.93 49.82 50.22 50.95 51.60 45.71 43.77 39.65 40.18 42.92 45.80 43.06 41.54 44.57 40.70 40.67 38.96 37.48 37.47 35.62 37.45 35.57 31.48 37.07 40.35 43.76 45.15 46.34 45.32 44.16 42.68 43.65 44.76 46.24 48.66 49.69 50.22 50.15
50.73 51.05 51.19 51.52 51.45 51.57 51.51 51.65 52.03 52.71 53.04 52.78 52.77 52.91 52.81 51.75 50.14 50.14 51.89 51.14 51.73 46.87 41.24 41.06 38.76 39.67 45.83 43.24 43.78 41.77 41.19 37.12 40.18 36.21 35.48 34.91 32.96 31.87 36.22 38.58 41.12 43.06 44.49 44.43 44.53 45.92 44.41 42.56 43.53 45.56 47.49 48.14 48.48 48.49
50.95 51.10 51.40 51.40 51.59 51.90 52.00 52.20 52.15 52.83 52.65 52.54 51.88 51.98 50.38 51.92 52.97 52.06 48.13 45.37 45.16 45.25 44.72 41.48 44.76 41.78 44.22 42.65 41.91 41.23 40.49 39.08 35.86 39.85 37.21 33.32 32.06 41.66 43.20 43.49 43.60 44.20 45.84 46.60 44.71 41.05 41.98 42.40 43.14 45.37 46.84 49.27 49.72 49.37
51.02 50.68 50.60 50.82 51.02 51.64 52.01 52.31 52.67 52.32 51.98 51.85 53.33 53.26 52.53 53.45 51.20 49.05 48.85 47.53 49.16 46.10 46.32 45.83 44.04 46.10 47.35 42.11 41.91 43.83 40.87 40.44 35.14 38.79 38.37 33.87 32.78 41.18 44.52 45.40 45.02 45.25 45.26 45.91 46.99 47.70 47.50 48.46 48.17 47.84 48.55 50.10 51.05 51.31
50.68 50.39 50.20 50.37 50.70 51.34 52.03 52.40 52.60 52.17 57.31 52.24 51.45 57.69 54.05 51.45 50.35 48.27 46.07 47.62 47.78 44.88 49.71 47.13 48.38 48.04 47.61 47.30 42.72 43.94 41.75 41.49 35.90 42.48 35.89 32.06 38.93 43.97 44.48 45.44 45.91 46.05 44.81 44.29 45.58 45.88 46.02 46.14 48.68 50.69 50.07 50.42 49.99 49.30
50.46 50.36 50.17 50.43 51.04 51.67 52.25 52.66 53.14 53.07 52.50 57.94 55.23 53.57 49.78 49.45 42.15 41.95 34.05 40.42 44.92 49.13 50.14 48.49 48.87 51.41 50.39 48.43 46.46 46.39 41.52 38.21 44.77 37.46 32.59 36.69 42.56 44.77 44.53 45.35 46.35 47.23 46.42 44.79 44.46 45.19 45.49 45.61 46.03 46.98 47.30 48.39 47.79 46.66
50.58 50.37 50.29 51.10 51.46 52.15 52.73 53.05 53.96 53.47 54.55 53.70 51.13 39.00 45.64 45.01 46.40 45.86 45.22 45.94 49.13 49.25 49.72 51.66 51.77 49.91 50.69 47.68 46.56 42.01 43.11 41.90 35.04 31.71 33.23 40.22 43.32 44.45 45.54 45.15 44.54 45.00 47.38 46.06 45.26 44.86 44.21 44.07 44.99 45.73 45.72 47.10 46.64 45.72
50.58 50.70 51.11 53.12 52.71 52.76 52.68 52.99 53.94 55.13 55.12 52.95 51.80 39.40 46.67 48.64 49.16 49.13 49.90 49.32 50.17 51.20 50.95 49.67 50.29 49.07 46.71 44.77 44.52 41.24 37.82 34.44 36.35 35.41 39.75 42.93 45.04 44.93 44.78 45.33 44.47 44.17 44.71 47.32 46.55 45.40 45.01 44.65 44.21 44.39 45.40 45.44 45.17 44.98
51.13 51.48 56.08 52.77 52.25 52.10 51.92 54.86 54.76 58.58 57.99 54.38 52.85 48.03 49.12 46.82 46.98 48.22 48.49 47.75 51.14 51.07 51.82 50.83 46.77 44.22 41.85 42.69 39.50 36.44 34.10 32.74 38.02 42.48 44.77 45.95 45.88 45.85 45.45 45.20 45.66 46.03 45.23 44.67 47.42 47.14 46.36 45.18 44.51 44.57 45.28 44.82 44.64 44.83
50.93 58.36 52.62 52.29 51.86 51.87 53.65 60.23 61.55 56.35 53.65 53.04 50.76 52.26 50.52 49.17 48.03 48.68 49.55 49.24 52.81 49.82 45.33 47.16 41.17 39.91 45.22 39.40 37.78 41.42 38.65 41.87 43.94 45.39 46.75 47.35 46.57 46.53 46.35 45.68 46.50 46.48 45.76 45.58 45.98 47.24 46.51 46.90 46.53 44.56 43.33 45.26 45.37 45.08
54.50 59.11 54.12 52.28 51.82 55.78 63.36 60.62 57.55 54.30 50.33 53.07 50.69 52.78 52.24 52.00 50.88 50.73 51.77 52.19 50.64 48.74 47.80 44.15 47.06 40.45 38.76 36.24 38.31 42.62 43.95 44.41 44.66 45.15 47.40 48.88 48.66 48.91 46.92 46.19 46.61 46.61 46.07 45.76 46.19 46.53 45.46 44.83 44.63 45.21 44.14 44.01 43.48 44.29
52.63 52.60 51.87 51.56 51.97 52.75 57.92 58.16 59.54 51.96 52.85 54.31 54.69 53.31 54.36 53.08 54.76 54.97 53.42 53.98 54.87 53.50 50.82 48.10 43.95 40.66 41.28 44.09 43.07 43.60 44.23 43.62 42.53 44.33 48.63 49.19 48.69 47.25 47.58 46.54 45.28 45.35 47.10 45.21 45.53 45.44 45.17 44.67 43.52 43.44 43.25 42.10 40.30 40.97
51.00 51.46 52.12 52.62 53.26 58.35 56.98 57.17 62.13 55.91 51.39 54.45 55.72 53.97 54.55 52.80 53.71 54.15 53.26 52.19 51.49 49.30 46.77 44.01 43.13 44.96 44.97 45.98 47.48 46.20 46.11 45.96 44.55 43.55 44.14 44.88 44.73 45.51 48.55 45.29 44.32 44.85 44.33 46.92 44.73 43.53 43.80 43.40 44.36 43.40 42.94 41.78 40.97 39.96
56.18 59.29 56.23 55.86 60.67 58.03 58.25 56.20 54.73 56.41 55.63 53.73 55.28 54.42 53.62 55.78 50.84 51.30 51.42 54.08 49.45 47.39 45.69 47.18 46.85 49.19 51.48 51.21 50.58 49.75 48.16 46.85 44.96 44.85 43.92 42.90 45.09 45.14 45.95 45.58 45.11 44.07 43.31 43.01 43.90 42.39 41.94 40.88 41.44 43.40 43.20 41.66 41.64 41.90
60.47 56.36 60.77 62.27 58.85 58.98 57.31 60.25 55.63 57.71 56.27 54.52 53.72 55.40 52.84 50.92 51.93 51.80 53.77 50.53 48.54 49.71 50.36 49.06 49.85 50.14 50.35 49.91 49.13 49.96 49.06 48.90 48.74 47.18 44.39 45.03 43.53 42.97 43.79 44.36 44.16 42.51 42.99 42.87 43.20 41.87 41.58 41.77 41.55 43.60 42.45 42.39 41.98 41.39
56.90 58.10 60.42 60.44 54.97 48.26 47.55 59.95 55.08 55.58 51.39 52.68 54.52 50.83 51.01 50.53 52.02 54.95 49.92 51.04 50.87 53.13 51.86 52.16 52.09 52.45 50.98 51.98 53.31 51.58 50.39 49.05 46.48 45.58 45.47 44.91 44.30 44.60 43.91 44.22 44.48 42.98 41.92 43.03 44.38 43.29 42.01 42.12 42.85 42.58 42.41 41.91 41.88 42.39
53.96 58.42 56.31 54.92 52.99 46.13 56.14 54.10 55.82 53.74 53.68 51.30 49.26 47.98 50.03 51.45 53.77 49.71 47.54 46.86 50.86 51.78 52.30 53.08 52.09 50.27 51.41 52.12 49.33 47.93 48.33 46.48 44.76 44.65 44.60 43.32 42.09 42.61 43.97 44.47 44.14 43.73 43.39 43.59 43.53 43.82 43.72 42.75 42.22 42.01 41.44 40.75 41.81 41.95
48.24 47.56 49.63 38.67 53.42 52.45 50.08 51.12 51.58 45.64 44.00 45.65 45.50 49.25 50.54 51.98 43.12 44.77 46.80 48.70 50.67 50.68 51.53 52.18 51.60 49.78 47.83 48.08 47.48 46.52 47.68 45.24 43.55 42.86 43.49 43.77 42.97 42.54 42.56 43.88 43.24 42.94 43.60 42.52 42.03 42.38 42.69 43.08 42.88 41.96 41.45 40.76 41.14 41.66
39.30 51.54 46.22 51.60 52.84 50.97 49.80 48.45 48.50 45.76 46.59 45.35 47.89 52.23 52.08 45.88 42.23 43.27 46.57 49.33 50.42 51.22 51.01 50.77 49.57 48.05 48.49 49.58 46.25 45.48 46.38 47.00 46.10 43.64 43.90 44.34 43.29 41.35 40.46 40.11 39.67 40.01 42.76 42.70 42.41 41.45 41.98 42.28 42.16 42.18 41.73 41.41 39.22 41.04
41.25 50.25 55.19 58.10 55.58 54.10 49.21 49.87 50.95 49.76 48.18 46.06 48.29 49.46 48.37 43.69 41.76 42.85 49.50 51.19 50.47 52.85 54.26 53.41 50.51 49.15 48.59 49.39 49.09 48.02 47.81 48.01 46.65 45.86 46.38 45.82 45.09 44.42 43.23 40.85 39.17 40.68 43.14 42.63 42.03 41.65 41.12 41.41 41.28 41.32 41.38 41.67 41.28 40.77
54.73 53.74 50.88 53.91 53.06 54.48 49.73 49.27 47.97 47.53 49.20 51.86 50.93 46.86 45.61 45.90 44.21 48.74 51.70 54.32 54.29 54.85 52.19 51.78 53.00 51.07 50.21 49.57 49.52 48.86 48.11 47.58 47.59 47.13 46.01 45.71 45.30 44.96 45.10 44.16 43.37 40.36 40.97 40.58 41.19 41.47 40.92 41.34 40.53 41.10 41.18 40.82 40.96 41.60
54.04 56.91 53.22 50.51 51.82 53.15 51.23 50.82 50.63 52.85 54.64 53.08 50.13 48.18 49.13 50.99 52.05 52.86 53.45 54.93 55.12 53.00 51.37 50.60 51.36 51.62 50.38 50.51 49.92 49.16 47.97 45.80 43.58 41.40 40.64 40.12 40.71 41.51 43.88 43.78 43.52 43.72 43.62 42.39 37.96 39.39 40.36 40.58 40.75 40.43 41.58 41.35 41.85 42.09
53.91 55.50 52.58 52.88 51.59 50.55 53.19 54.79 54.24 56.24 56.27 55.32 54.26 52.31 51.55 52.88 53.90 56.17 54.06 55.45 52.79 51.92 52.00 51.68 50.57 49.53 47.05 45.07 44.39 44.95 45.86 45.71 44.51 42.18 40.09 39.49 40.57 42.77 43.35 43.14 43.12 43.10 43.10 42.97 42.49 42.40 39.64 39.49 41.24 41.75 41.07 40.23 39.90 39.91
57.32 56.27 54.13 53.80 52.21 54.52 55.37 56.73 56.32 56.71 54.23 50.94 52.89 50.97 51.16 52.12 54.82 56.18 54.87 54.55 53.60 52.61 51.12 48.13 46.78 46.89 45.37 44.09 43.24 42.15 42.06 44.95 44.83 44.07 43.54 43.22 42.84 42.78 42.69 43.54 43.76 43.72 43.46 42.94 42.16 41.74 41.13 40.75 40.90 40.50 40.40 39.92 39.96 39.14
55.32 54.29 53.59 52.16 52.26 55.42 58.06 54.59 54.06 53.84 53.46 52.40 50.04 53.07 52.09 51.55 49.45 53.37 53.40 52.20 50.25 48.30 45.92 46.87 45.34 44.47 45.89 45.94 46.26 45.13 41.37 42.72 42.27 42.54 42.12 41.48 41.12 41.37 41.73 42.74 43.16 43.04 42.88 42.22 41.86 41.35 41.14 40.30 40.01 39.98 40.02 39.67 39.98 39.71
55.90 55.24 55.48 54.16 52.71 53.85 55.27 54.31 52.93 52.31 52.58 51.73 51.10 51.36 50.86 50.88 47.10 50.81 55.01 53.26 50.25 48.14 47.61 47.30 47.14 47.23 48.00 47.05 44.15 42.30 41.49 41.10 38.33 36.47 36.45 35.97 35.96 37.84 40.87 40.88 41.14 41.88 41.87 41.68 40.87 40.81 40.22 39.95 39.50 39.93 39.54 39.78 39.84 39.48

GFSWCAN_sfc_wetblb_036.txt.gz
Wetbulb
51.80 52.02 52.08 52.89 52.90 52.74 52.84 52.73 52.36 52.23 52.50 52.91 53.24 53.39 53.76 53.84 53.86 52.11 49.59 49.90 45.04 39.57 40.99 43.62 43.71 40.97 41.24 40.20 36.20 39.57 38.71 36.19 34.80 32.95 32.81 32.48 32.48 34.27 33.95 36.29 35.19 34.82 33.92 33.03 36.97 35.19 34.69 47.33 46.48 40.01 44.58 48.40 48.69 50.58
51.72 51.84 52.13 52.54 52.58 52.53 52.63 52.24 52.03 52.40 52.63 52.75 53.16 53.45 53.78 53.96 53.94 53.15 47.77 51.02 50.28 43.77 42.66 46.67 46.50 47.38 46.00 45.04 41.69 41.29 36.46 34.53 38.80 32.68 34.41 34.80 32.75 35.32 33.55 31.07 39.59 33.38 37.00 35.50 37.06 38.12 44.63 48.40 46.28 47.97 48.21 47.65 49.51 48.99
51.75 52.02 52.13 52.19 52.20 52.18 51.93 51.97 52.05 52.23 52.57 52.90 53.20 53.72 54.02 54.09 53.88 53.04 50.03 49.92 47.71 43.21 42.65 42.28 43.62 48.40 49.68 48.10 48.82 40.47 41.47 41.60 37.13 38.43 35.86 36.04 33.03 35.87 30.92 33.17 35.17 38.36 41.24 37.73 36.75 41.24 41.56 46.65 47.76 47.26 47.68 47.95 51.01 51.01
51.69 51.93 52.08 51.98 52.00 51.58 51.59 52.13 52.13 52.18 52.51 53.02 53.49 53.94 54.09 53.86 53.53 53.55 49.87 49.39 47.15 43.32 38.04 40.38 49.20 46.84 50.32 49.65 48.48 47.89 43.45 44.30 41.43 37.93 33.57 33.38 31.00 35.71 32.76 34.15 33.17 36.98 38.35 35.82 35.05 37.74 41.77 45.13 45.17 45.52 45.93 48.39 50.62 51.70
51.59 51.68 51.74 51.69 51.59 51.41 51.46 51.99 51.99 52.22 52.84 53.21 53.76 53.88 53.51 53.41 53.21 52.30 50.14 48.43 48.15 43.77 38.76 39.91 42.70 46.14 48.49 48.31 46.94 46.84 43.34 41.53 39.34 36.26 37.06 34.97 37.09 36.20 33.84 33.34 33.10 39.14 37.02 34.32 32.55 37.82 36.88 38.81 44.00 45.45 44.94 45.75 50.12 49.89
51.37 51.32 51.30 51.47 51.34 51.01 51.28 51.65 51.90 52.68 53.34 53.52 53.60 53.56 53.76 53.37 53.29 51.33 46.07 48.88 48.96 45.68 39.76 36.33 42.71 42.81 44.55 44.93 44.49 43.18 43.21 41.37 43.06 39.88 37.91 39.11 40.91 36.15 31.89 28.45 35.23 40.39 41.22 41.21 39.36 42.23 41.69 41.84 43.34 44.73 44.44 46.79 50.15 49.75
51.17 51.13 51.27 51.59 51.50 51.26 51.39 51.40 52.01 52.70 53.45 53.59 53.36 53.18 52.94 52.94 48.29 45.26 42.92 47.28 50.00 47.01 38.96 36.21 38.62 42.38 43.34 41.86 42.02 41.34 42.50 41.19 40.45 37.91 36.10 36.39 36.64 38.19 35.04 31.99 37.90 41.23 43.38 44.90 46.07 44.21 42.23 43.07 41.46 44.68 46.19 49.13 50.09 50.50
50.74 50.98 51.19 51.62 51.28 51.51 51.41 51.57 52.15 52.68 53.13 52.99 52.94 53.12 51.61 51.17 49.28 46.33 46.60 50.15 48.38 41.85 41.27 37.12 38.12 39.83 44.96 41.04 39.57 42.66 39.14 39.53 38.48 37.58 37.89 36.14 37.31 34.71 31.48 37.93 40.64 42.14 43.64 44.68 46.09 46.37 44.56 44.92 45.62 44.41 45.00 46.26 48.24 49.46
50.71 51.08 51.02 50.75 50.73 50.89 51.20 51.76 52.20 52.51 52.89 52.68 52.88 53.18 50.15 47.19 45.91 45.33 51.87 50.68 47.08 43.53 40.01 40.00 37.13 37.94 42.91 39.57 39.07 39.73 39.24 37.10 39.96 36.57 35.66 35.42 32.78 32.23 37.67 39.21 40.70 41.85 41.53 43.30 45.74 46.08 44.04 44.32 44.94 43.90 43.34 44.33 44.86 46.01
50.98 50.98 50.47 50.37 50.34 50.35 50.47 52.03 52.57 52.63 52.44 52.58 49.44 48.02 47.10 48.18 53.02 51.34 47.03 44.46 44.14 43.10 40.08 39.49 44.17 38.99 41.93 41.82 41.58 40.11 40.63 38.47 35.12 38.15 37.76 33.50 32.42 41.09 43.52 44.56 43.94 43.29 43.53 43.77 42.33 41.75 43.86 43.08 42.59 42.80 43.65 44.73 45.70 47.14
50.94 50.74 50.72 50.61 50.43 50.37 50.16 51.90 52.45 52.08 51.44 47.32 47.14 47.44 48.06 53.41 47.12 47.73 43.21 40.62 40.94 37.32 40.14 40.58 41.37 40.55 44.58 41.15 40.92 42.12 38.63 39.17 33.70 32.90 33.77 32.96 33.14 40.06 43.63 44.46 45.88 44.80 44.51 44.03 43.98 44.51 45.07 46.44 48.40 44.88 46.77 48.81 48.24 48.20
51.03 50.78 50.35 50.48 50.44 50.51 51.44 51.82 52.02 48.16 50.47 48.55 46.83 51.05 48.52 45.69 45.36 41.45 38.68 41.03 39.51 38.81 43.99 44.84 44.11 44.12 43.56 42.87 40.85 42.10 39.50 37.91 30.01 37.70 34.32 32.17 37.58 41.86 42.82 43.26 45.86 46.55 45.03 44.08 44.17 43.67 44.19 44.34 45.97 47.10 46.55 46.19 45.91 46.71
50.95 50.53 50.52 50.56 50.76 51.57 51.96 52.01 52.68 52.50 51.20 50.46 49.55 46.19 44.25 43.00 36.18 37.19 31.89 34.46 38.29 41.60 46.08 45.43 43.52 45.35 43.73 42.24 40.54 42.25 37.46 33.06 38.66 32.26 31.71 35.49 39.36 40.62 41.38 43.15 44.01 47.22 46.25 44.89 43.82 44.06 44.13 43.60 44.03 43.95 44.10 45.51 45.75 45.32
50.87 50.92 50.86 51.11 51.41 52.07 52.51 52.73 53.20 52.21 48.96 49.02 46.92 35.21 39.15 38.09 39.78 38.76 37.98 38.43 42.22 42.21 43.05 44.70 44.95 44.09 45.20 42.76 39.48 36.88 37.56 36.84 32.13 30.87 32.93 38.00 37.62 39.76 40.67 41.74 41.38 44.03 45.45 45.02 43.97 43.93 43.29 43.07 42.93 43.45 44.06 44.55 44.50 43.49
50.82 51.26 51.36 51.20 52.36 52.61 52.37 52.30 53.36 50.46 50.80 48.38 44.11 35.09 38.59 41.69 41.61 42.29 42.89 41.90 43.36 44.16 43.43 42.65 42.23 41.95 38.92 38.24 37.75 35.48 33.93 29.03 29.14 31.04 35.48 38.92 39.70 39.75 39.73 40.09 40.37 41.02 44.69 44.28 44.65 44.08 43.76 43.47 42.36 42.63 43.58 43.45 43.50 43.40
50.97 51.16 52.96 52.75 52.16 52.09 51.60 51.98 51.15 52.26 52.69 48.44 44.58 40.87 41.61 40.21 40.22 41.20 41.61 40.88 43.71 44.08 43.17 42.32 39.33 37.48 37.95 36.92 34.53 32.17 31.21 29.25 36.75 38.89 39.63 41.65 40.96 40.21 40.09 39.04 39.74 41.39 41.89 45.39 44.75 44.46 44.27 43.91 43.23 43.27 44.45 44.12 43.01 42.14
50.72 51.11 52.58 52.01 51.75 51.68 53.07 53.99 55.56 53.22 48.17 47.91 45.66 44.84 42.62 41.64 40.98 41.72 41.99 42.41 44.18 42.24 38.21 38.76 35.27 34.46 37.81 33.97 32.56 35.87 32.48 34.57 37.39 39.12 40.45 40.58 40.66 40.61 40.61 39.29 39.62 39.95 40.79 40.29 44.50 44.59 44.74 45.27 45.16 44.20 42.73 43.67 44.15 43.98
49.40 53.00 52.83 51.56 50.95 51.89 56.11 54.70 53.18 49.78 48.77 45.87 44.02 45.04 43.97 43.65 42.14 42.99 43.80 44.43 43.02 41.12 39.85 37.97 39.07 34.19 32.14 31.52 32.19 35.21 35.84 36.48 36.40 37.13 41.24 41.58 41.93 42.22 40.86 38.44 38.43 38.97 40.20 40.02 42.35 42.02 42.94 42.81 41.57 41.09 41.02 39.57 39.46 40.40
49.54 50.11 50.81 51.33 50.70 48.72 52.79 52.72 52.46 49.86 49.45 47.82 46.36 46.39 45.38 45.74 46.38 45.56 44.55 44.14 45.39 43.74 42.25 39.59 37.09 34.36 34.39 36.57 36.21 36.84 37.13 36.38 35.65 37.47 40.72 41.17 38.54 38.34 41.58 39.42 38.29 38.97 38.59 38.77 40.12 40.42 39.25 38.61 38.29 38.84 38.23 38.42 37.66 39.36
50.33 51.13 51.55 52.09 52.13 52.55 53.75 50.60 53.43 50.21 46.05 46.38 46.91 46.75 48.78 46.17 45.28 44.96 44.27 43.34 42.69 40.94 38.96 37.12 37.09 38.20 37.99 38.73 39.83 39.34 38.41 38.44 38.31 37.36 37.06 38.82 38.17 38.60 40.17 38.03 36.41 36.52 37.25 37.87 37.91 39.79 38.71 37.55 38.04 38.25 38.22 38.45 37.77 37.61
53.03 56.21 54.29 52.48 52.47 51.67 53.33 49.59 47.60 48.63 47.28 46.04 48.51 48.22 46.87 49.11 45.54 43.80 43.23 44.48 41.26 39.01 38.25 39.80 39.52 42.46 42.39 42.58 42.13 41.86 39.98 39.47 38.63 38.14 37.36 37.05 38.11 36.79 38.09 38.81 37.12 36.66 35.60 36.00 35.79 35.97 36.35 34.61 35.67 37.63 37.72 37.00 38.13 38.22
52.61 56.04 54.55 55.48 54.52 55.48 50.61 51.99 47.50 49.04 48.29 48.24 48.38 48.99 45.91 44.06 43.71 45.04 45.76 41.95 40.49 41.21 43.46 41.76 41.19 43.04 43.23 42.65 42.17 42.71 42.28 41.91 40.35 40.67 40.34 38.79 35.82 35.94 36.04 37.30 38.32 37.50 36.97 35.95 35.74 35.30 35.21 35.03 35.90 36.81 36.95 37.00 37.90 38.32
53.68 54.33 55.07 57.12 52.66 44.12 43.91 50.98 48.22 49.78 46.94 45.52 46.70 45.46 44.32 43.86 47.31 47.76 43.19 43.94 43.24 45.20 44.10 43.21 43.31 43.66 42.68 43.37 45.28 43.61 43.02 41.47 37.64 36.80 37.05 35.68 35.37 36.29 36.72 37.92 38.16 37.84 38.08 37.13 37.03 36.19 35.71 38.25 37.37 36.33 37.96 40.30 39.00 38.19
54.11 54.05 52.61 51.21 47.68 41.86 49.92 48.53 52.30 49.56 46.61 45.28 44.41 42.84 43.76 47.03 49.31 45.00 44.17 44.04 45.02 46.59 46.14 45.51 43.63 42.40 43.06 42.96 41.17 40.94 39.31 38.98 38.89 36.53 35.82 35.61 34.51 35.11 37.33 37.36 37.07 37.50 36.76 37.11 37.87 38.15 37.07 36.97 37.59 35.80 36.76 37.67 38.83 37.97
45.69 44.83 45.67 38.25 47.15 47.59 47.71 47.83 44.22 44.25 43.01 44.31 43.14 42.14 45.50 47.78 40.69 40.97 39.16 45.32 46.98 46.31 47.45 45.42 43.07 42.16 40.63 39.63 40.64 39.06 38.66 38.05 36.43 34.98 35.18 35.82 34.49 34.58 35.42 35.05 35.06 35.03 37.02 37.52 37.03 37.41 36.38 37.56 37.66 36.13 36.11 36.54 36.62 36.66
39.39 47.15 42.99 47.61 47.12 46.73 46.53 44.43 45.03 44.77 44.73 44.22 44.10 45.76 45.88 43.13 40.68 38.64 40.61 44.82 46.28 46.44 45.16 43.98 42.78 40.97 40.80 42.43 38.76 37.21 37.89 38.23 37.47 35.46 35.30 36.07 35.56 34.47 33.19 32.63 31.69 33.17 35.54 35.38 35.45 37.04 37.74 38.44 38.41 38.23 37.42 37.97 37.82 37.19
40.34 44.99 48.88 50.94 50.19 49.45 47.17 47.74 48.91 45.81 45.41 44.22 44.78 47.43 45.20 42.11 40.86 41.75 44.75 47.39 47.19 46.81 46.66 45.25 44.02 42.07 41.50 40.68 39.53 39.19 39.24 39.37 38.13 37.74 38.03 37.11 36.73 36.81 36.00 33.52 32.66 33.51 35.38 37.35 36.56 36.50 36.75 37.68 38.14 37.65 36.87 36.53 36.56 37.15
51.06 50.06 46.93 48.62 48.46 51.37 47.69 48.28 46.52 44.58 45.29 49.61 48.36 43.28 44.16 43.52 42.75 45.40 47.69 49.81 49.23 49.35 46.45 45.07 44.63 44.34 43.72 42.57 43.49 42.15 39.53 40.18 41.47 41.70 39.74 39.93 39.01 38.57 37.01 35.86 35.71 37.46 35.64 36.69 37.53 37.70 37.41 37.15 36.86 37.91 38.02 36.38 36.39 37.15
50.01 51.77 49.55 46.45 48.25 49.55 48.43 49.20 47.84 48.45 51.20 48.23 44.14 44.00 45.65 47.71 49.05 48.64 49.49 49.07 48.71 46.50 44.05 44.72 45.68 44.83 43.54 42.16 40.40 41.78 42.82 40.95 38.75 37.19 36.93 34.73 34.48 36.22 37.40 37.29 37.62 36.81 35.89 36.07 37.67 37.67 37.98 37.19 37.26 37.22 38.31 38.14 37.26 36.99
49.92 51.27 48.35 49.34 48.32 47.68 48.59 51.07 49.89 49.59 48.45 48.47 49.11 48.31 48.71 48.05 49.66 51.85 50.10 49.18 47.28 47.44 45.20 43.62 40.70 40.50 38.38 40.33 39.89 38.26 37.92 38.14 36.43 35.39 33.41 32.91 33.21 36.05 38.55 38.86 37.01 36.81 37.37 38.04 37.85 37.76 39.87 39.11 39.00 38.51 37.93 36.48 36.20 35.48
53.24 51.22 49.80 50.15 48.82 50.04 50.77 52.12 51.18 50.44 50.16 49.17 50.69 49.06 48.32 48.77 49.67 51.27 47.06 45.23 44.11 43.06 41.21 38.99 38.21 38.09 37.41 36.44 35.67 35.64 34.85 36.59 36.98 37.69 37.99 37.25 37.34 37.40 38.12 37.94 37.05 38.22 39.68 40.04 37.50 36.36 37.31 37.70 37.15 37.18 36.90 35.95 36.19 35.36
51.07 50.16 49.47 47.87 48.55 50.76 50.88 49.93 48.99 48.34 48.73 47.60 47.62 50.70 50.51 48.55 45.14 46.48 45.73 43.85 41.44 39.50 41.07 39.20 37.68 36.98 39.07 38.28 38.11 37.45 37.14 35.60 36.54 37.01 35.13 34.31 34.43 35.10 34.98 35.27 37.30 39.21 38.90 39.99 39.06 36.76 38.39 37.91 35.37 35.93 35.88 37.44 36.24 35.21
50.53 50.42 50.56 49.52 47.58 48.40 49.78 49.24 48.59 47.38 47.55 46.92 47.24 48.99 48.96 47.17 42.56 44.31 46.53 44.87 42.13 40.33 39.43 39.39 40.53 40.28 38.37 38.26 37.53 36.79 36.19 34.77 35.04 35.97 36.14 36.13 36.10 34.95 33.40 33.55 35.19 36.88 37.32 36.46 35.96 35.87 35.73 36.01 35.63 36.70 36.11 35.63 35.51 34.73

GFSWCAN_sfc_wetblb_039.txt.gz
Wetbulb
51.25 51.47 52.13 52.33 52.62 52.79 52.72 52.16 52.30 52.26 52.59 52.82 53.15 53.41 53.76 53.89 53.91 51.67 48.84 49.73 45.34 39.87 41.24 43.45 44.02 41.27 41.12 39.80 35.72 37.01 33.68 36.33 34.65 31.96 31.58 31.39 31.03 33.35 33.52 34.06 34.30 33.14 32.49 34.38 37.54 35.89 34.10 45.45 44.97 38.47 40.60 46.61 47.31 48.77
51.69 52.07 52.07 52.29 52.40 52.41 52.29 51.91 52.14 52.24 52.74 52.94 53.00 53.52 53.91 53.99 53.85 52.19 46.78 50.83 50.31 44.03 42.97 46.93 46.55 47.24 46.04 46.04 42.23 41.03 38.97 37.49 36.53 33.99 34.46 34.30 33.22 35.22 32.92 28.39 38.11 32.84 34.83 34.53 36.41 36.91 44.33 47.55 46.27 45.37 45.56 44.32 45.51 48.68
51.78 51.97 52.12 52.21 52.21 52.00 51.45 51.99 52.20 52.33 52.68 52.84 53.29 53.91 54.11 54.21 53.64 52.16 50.04 49.86 47.80 43.51 40.54 41.83 43.60 48.52 50.14 48.78 49.39 40.41 40.18 39.96 37.98 38.44 36.51 35.62 32.68 33.83 30.15 31.69 34.26 37.96 40.55 35.60 35.93 38.45 40.08 45.14 46.17 44.83 45.26 44.94 46.20 48.65
51.53 51.93 51.96 52.01 51.93 51.41 51.34 52.05 52.08 52.54 52.79 53.25 53.72 53.85 53.97 53.81 53.72 53.04 49.80 49.10 46.80 42.36 37.77 38.77 47.81 44.26 50.14 48.79 48.26 47.35 44.80 43.96 39.09 37.90 34.59 34.51 33.50 36.77 33.66 33.84 34.73 37.35 38.58 35.93 35.89 38.04 41.42 44.25 43.32 43.96 44.88 45.83 46.17 46.80
51.42 51.62 51.56 51.69 50.85 51.16 51.38 51.47 51.92 52.44 52.91 53.52 53.71 53.54 53.60 53.23 53.23 50.93 50.09 46.97 45.03 40.42 35.86 36.61 41.43 42.34 45.93 44.93 44.93 45.50 43.83 42.62 40.53 36.83 36.24 35.11 38.60 36.60 35.32 35.20 35.42 38.82 36.77 34.63 33.68 39.05 38.96 39.84 43.54 45.23 44.41 44.90 45.79 45.72
51.15 51.19 51.28 51.51 51.61 51.62 51.81 51.79 52.13 52.42 53.21 53.43 53.38 53.70 53.62 53.25 53.26 51.00 46.53 46.55 46.37 44.05 36.86 33.77 39.23 39.13 41.13 44.66 44.00 42.29 43.23 41.52 41.54 38.93 37.27 38.50 40.04 37.40 33.32 32.79 38.87 41.38 42.82 43.53 40.39 43.52 43.29 43.69 44.18 45.97 44.61 45.34 46.99 46.85
51.08 51.00 51.18 51.32 50.85 51.15 51.40 51.93 52.17 52.62 52.51 53.29 53.05 52.63 52.80 52.39 47.72 45.70 42.02 45.54 48.90 46.05 39.52 36.47 37.49 40.35 42.02 40.74 40.42 40.26 40.16 38.31 39.95 38.19 36.03 36.11 36.99 37.75 34.32 32.29 39.70 41.93 42.86 44.11 45.50 45.78 44.35 44.95 43.16 45.62 46.30 46.43 47.54 48.20
50.88 51.11 51.29 50.71 50.55 50.51 51.04 51.66 52.04 51.97 52.66 53.18 53.00 52.24 51.92 51.53 49.12 45.89 46.26 49.64 46.54 41.06 42.41 40.01 39.62 39.36 40.08 36.70 35.57 38.45 36.60 37.29 38.77 37.37 38.45 36.08 37.80 35.06 32.19 39.69 41.25 42.12 42.99 42.97 43.87 45.23 44.93 45.66 44.28 44.36 46.01 45.71 44.94 48.14
50.74 51.00 50.87 50.38 50.47 50.43 50.38 51.09 52.07 52.10 52.78 52.70 52.59 52.47 49.95 47.74 45.47 45.40 51.46 50.16 45.79 42.91 34.74 38.48 38.53 36.51 41.69 37.50 37.01 37.02 36.91 36.36 38.80 36.67 36.49 36.84 33.64 32.55 37.29 40.13 41.06 41.58 41.14 41.52 43.25 43.68 44.32 44.50 44.62 45.25 45.55 44.73 43.65 44.03
50.81 51.10 50.72 50.38 50.66 50.19 50.24 50.43 51.77 52.72 52.28 52.16 48.62 47.49 45.47 47.11 52.78 50.85 46.61 43.74 44.02 43.75 38.09 37.99 41.15 39.65 41.37 41.92 41.56 40.93 40.75 37.24 34.65 37.20 39.05 34.00 32.91 39.36 39.70 42.97 44.08 43.63 43.65 43.21 40.92 39.91 41.12 43.27 46.63 42.62 43.52 42.91 43.50 44.11
50.94 51.04 50.89 50.60 50.40 50.41 50.28 50.26 51.70 52.09 50.49 46.23 45.69 45.52 47.00 52.34 46.57 47.50 42.92 40.34 40.91 36.01 38.75 38.32 41.18 40.21 43.89 41.53 40.66 41.21 38.33 38.55 29.94 34.58 34.94 33.09 27.61 35.21 40.68 40.74 44.88 45.52 44.72 43.74 43.75 43.36 42.88 42.88 43.89 45.23 46.02 46.29 47.22 47.45
50.85 51.00 50.93 50.75 50.66 50.61 50.61 51.00 51.67 47.09 47.79 47.91 46.03 48.29 46.15 46.86 45.04 39.31 36.08 38.63 37.48 36.63 40.93 41.48 43.16 43.03 42.59 45.18 39.15 41.55 38.88 37.25 28.69 36.16 29.05 28.98 32.83 37.41 39.25 40.28 41.46 43.58 44.48 42.40 42.99 42.41 42.99 42.78 43.65 43.81 43.52 43.75 44.20 45.04
50.65 50.89 50.93 51.10 51.49 51.67 51.83 52.07 51.96 51.59 50.75 48.44 47.92 44.44 42.95 41.08 33.59 35.41 28.68 32.76 35.28 39.04 41.57 43.97 44.33 44.24 44.50 42.66 41.70 40.92 35.14 31.92 36.15 32.46 30.43 33.08 40.41 38.34 38.15 39.33 40.36 43.54 43.82 42.89 42.71 43.13 42.80 42.59 43.02 42.53 42.20 43.43 43.45 43.05
50.38 50.77 51.02 51.27 51.35 51.95 52.17 52.30 52.51 52.04 48.03 47.63 46.04 33.87 37.26 35.29 36.97 36.80 36.51 36.46 39.96 40.08 40.69 39.43 43.86 44.90 44.57 41.94 38.10 34.42 36.84 35.07 30.51 28.31 30.44 34.90 37.50 38.22 38.89 38.96 38.23 39.15 42.01 42.31 42.08 42.31 41.74 41.32 41.04 42.13 42.43 42.41 41.94 41.03
50.39 50.72 50.94 50.56 52.14 52.51 52.22 52.14 52.50 49.83 49.44 46.54 42.64 33.12 36.97 39.93 39.65 40.22 40.47 39.49 41.15 40.96 39.84 40.35 39.80 38.33 36.78 36.28 35.38 33.29 31.97 28.65 31.71 27.78 37.05 38.58 40.33 38.92 38.40 38.67 37.13 37.86 41.47 40.82 41.68 41.68 41.83 42.45 41.96 40.65 41.81 42.08 41.75 41.21
50.54 50.52 51.73 52.26 51.91 51.71 51.35 51.93 50.85 50.95 50.71 48.41 43.47 39.24 39.90 40.80 38.58 39.68 39.82 39.31 40.78 40.69 40.16 39.32 36.87 35.83 34.78 34.61 32.73 31.27 27.95 23.87 30.67 35.71 38.22 41.54 39.08 38.94 38.48 38.78 37.29 37.13 39.26 42.07 41.78 41.31 41.74 41.86 41.36 42.41 43.00 41.85 41.59 41.82
50.32 48.38 52.24 51.54 51.29 51.10 51.38 51.99 53.30 51.58 47.90 45.27 44.97 43.91 40.70 39.84 39.62 39.99 40.01 40.32 40.81 39.58 36.24 36.22 33.41 32.59 35.56 32.54 31.66 33.50 30.17 32.74 37.40 38.48 38.24 38.59 38.35 39.21 40.12 37.99 36.89 37.19 38.09 38.56 42.34 41.73 42.09 43.11 43.03 42.41 41.64 42.34 43.60 43.25
47.18 50.48 51.62 51.08 50.22 50.04 52.89 52.43 51.62 48.75 47.35 45.18 44.88 44.07 42.27 41.44 40.56 41.62 41.65 41.64 40.54 39.03 37.80 36.34 36.93 32.84 30.99 30.33 30.82 33.83 36.34 38.32 36.26 34.88 36.47 39.61 39.93 39.53 40.26 37.15 36.35 38.03 37.15 39.06 38.26 38.74 39.59 40.29 40.20 39.15 37.83 37.47 37.86 40.51
48.17 49.09 50.27 50.70 50.23 47.16 50.95 52.38 50.34 46.56 49.05 44.73 44.13 44.57 44.00 42.78 43.49 43.04 42.52 41.67 41.61 41.02 39.93 37.43 35.82 33.48 33.42 35.16 35.17 35.58 35.85 34.86 34.34 35.82 37.61 37.30 36.25 35.37 36.65 38.09 36.17 36.50 37.47 36.72 35.18 34.51 34.62 36.09 37.60 35.69 35.67 35.93 36.03 37.00
50.19 50.86 51.39 51.72 50.80 50.48 51.87 51.28 50.53 47.31 45.51 44.46 44.22 44.24 45.07 43.96 44.85 43.35 42.75 41.78 40.01 38.61 37.47 36.08 36.73 37.58 37.56 37.94 37.74 37.55 37.10 37.08 36.61 34.91 34.76 36.19 37.07 35.34 36.67 35.84 34.38 34.99 34.81 34.36 34.66 36.36 33.79 34.67 35.10 34.95 35.24 36.41 35.73 35.68
50.60 53.86 52.90 51.08 50.10 50.08 50.78 48.86 45.26 46.49 45.43 44.38 44.85 45.38 45.04 44.91 45.03 44.59 43.79 42.95 39.08 37.44 36.77 38.47 39.20 40.74 40.38 40.90 39.95 38.67 38.42 37.79 37.05 36.15 35.87 35.77 36.70 33.91 34.59 36.11 34.74 33.29 34.45 33.46 33.33 33.04 34.38 32.73 32.98 34.47 34.96 34.81 35.00 36.27
49.59 53.79 52.77 52.81 52.53 53.15 50.40 49.36 45.85 45.90 45.79 45.83 46.55 45.99 44.28 44.36 45.36 46.04 46.25 42.69 40.96 41.72 42.23 41.66 40.11 41.56 41.88 41.24 40.53 40.32 42.93 40.83 37.28 36.24 37.94 36.54 33.34 33.36 33.56 33.75 34.47 33.34 33.93 33.89 33.46 33.43 33.47 33.08 33.28 34.50 34.76 34.80 36.51 36.69
52.39 53.03 53.32 54.96 51.58 42.98 43.59 48.44 46.12 47.55 44.84 44.65 45.55 43.28 43.33 43.95 46.12 48.81 43.93 45.27 45.03 45.26 43.35 42.55 42.88 44.08 42.90 41.69 42.09 42.56 42.34 37.90 35.38 33.87 33.54 32.83 32.98 33.16 33.08 33.98 34.18 35.21 34.94 33.88 33.34 33.01 33.84 35.51 36.13 35.99 36.17 35.89 35.79 35.38
52.82 52.43 50.51 49.70 46.11 41.94 47.38 46.24 48.39 46.50 45.29 43.22 43.44 41.57 42.45 44.46 45.94 42.48 41.54 43.68 45.74 45.82 44.57 44.49 43.63 43.10 39.90 40.70 41.55 39.39 37.71 35.87 34.51 33.28 32.98 34.01 33.01 32.49 32.26 32.91 33.68 34.15 34.57 35.40 35.94 34.69 34.04 33.76 35.86 35.71 36.55 36.42 35.80 34.99
44.13 43.27 43.18 36.61 45.35 45.52 47.72 46.52 43.57 43.14 41.56 43.18 43.19 42.40 44.16 45.49 41.46 40.33 39.15 41.80 44.72 44.66 45.65 44.03 41.08 39.71 37.32 35.90 37.57 36.51 35.80 35.41 34.50 33.65 33.24 34.05 32.97 32.15 32.07 31.85 31.93 31.75 33.00 34.75 35.12 35.43 34.31 34.27 34.66 36.00 35.89 35.35 35.35 34.45
39.34 46.82 41.62 45.42 45.31 44.76 45.14 43.00 43.33 43.46 43.63 43.91 44.51 45.77 47.06 44.42 42.41 38.72 39.51 41.80 44.15 45.06 44.34 42.36 40.94 39.47 38.59 37.69 36.57 35.19 36.23 35.55 34.39 33.54 33.16 32.54 33.78 33.11 30.86 30.93 31.39 32.44 33.17 32.90 34.42 36.43 37.38 37.24 37.70 36.63 36.25 36.47 36.63 35.74
40.26 44.18 45.29 47.47 47.50 47.24 45.59 46.57 46.27 44.31 43.78 43.67 43.22 44.34 43.58 40.67 40.57 42.75 43.99 45.05 45.03 46.52 45.06 44.12 42.21 40.51 40.33 39.85 36.96 39.11 37.79 37.89 36.92 37.58 36.81 36.35 35.35 36.35 36.58 33.94 31.76 33.30 33.48 35.20 35.30 35.64 36.08 36.56 36.42 36.62 35.67 35.08 35.39 35.74
48.91 48.51 45.74 46.68 46.67 47.25 44.80 45.25 45.05 43.39 43.97 46.36 45.09 41.97 43.10 42.60 41.12 43.43 44.67 46.68 47.86 46.22 44.29 42.82 42.33 41.18 39.72 39.12 38.02 40.64 39.06 38.92 40.31 39.17 39.33 38.00 37.50 38.10 36.67 35.78 35.05 36.54 35.24 35.64 36.67 37.02 36.80 35.67 35.89 37.00 36.75 35.56 34.53 35.59
47.92 48.93 47.61 44.65 45.84 46.81 47.30 45.57 46.52 46.82 48.33 45.96 42.71 41.81 45.39 47.82 47.16 46.43 46.85 46.66 45.98 44.29 43.07 40.95 38.62 39.13 39.75 39.34 38.43 37.18 35.43 35.57 36.75 35.57 34.19 32.39 31.43 33.71 34.27 35.10 36.29 35.78 35.65 35.19 37.49 37.34 38.12 36.70 36.57 37.31 37.25 36.55 35.80 34.92
47.03 48.99 46.13 46.65 46.11 45.55 47.37 48.89 47.79 48.18 47.73 48.30 47.68 46.91 47.62 46.57 47.74 48.81 46.68 44.43 38.79 36.61 36.23 37.74 36.95 38.55 36.87 35.47 33.79 34.34 35.23 34.47 33.56 33.33 31.08 31.54 32.53 35.00 37.87 38.85 37.75 37.57 37.75 38.52 36.55 36.37 38.69 38.23 37.58 36.95 36.48 35.22 34.63 34.14
49.51 48.19 47.37 47.53 46.98 47.26 47.47 49.31 49.45 49.00 49.12 47.90 48.87 46.27 45.65 47.30 47.78 45.17 40.62 38.93 37.46 36.99 36.58 34.96 34.17 34.24 34.57 33.19 33.17 31.58 30.49 32.22 33.36 35.09 34.39 32.75 33.30 33.84 34.56 35.44 37.40 38.99 39.13 38.79 37.10 35.61 36.19 35.52 35.19 35.51 34.99 34.43 34.15 34.02
48.84 48.16 47.37 46.24 45.97 47.46 49.01 47.19 45.85 45.61 46.27 46.11 45.89 48.49 47.95 46.02 42.85 42.20 42.04 38.16 36.91 35.78 37.30 35.75 34.31 32.46 33.47 34.17 34.03 33.51 34.18 32.63 32.67 32.99 33.17 32.28 31.90 32.00 32.77 34.98 36.20 38.39 38.57 37.80 36.38 34.70 35.95 34.87 33.85 34.23 34.77 33.59 33.24 33.01
48.78 47.78 47.71 47.04 45.68 47.24 47.96 48.02 46.04 44.74 45.29 44.97 45.88 48.20 47.21 44.79 40.89 41.87 41.56 39.76 37.69 36.55 35.64 34.92 34.61 34.37 34.71 35.19 34.18 33.44 34.01 33.28 34.35 35.69 35.73 35.58 35.07 33.40 31.73 32.10 34.48 35.69 35.05 34.11 34.22 34.40 34.49 34.70 34.19 34.13 33.30 33.06 32.76 32.81

GFSWCAN_sfc_wetblb_042.txt.gz
Wetbulb
51.35 51.86 52.36 52.45 52.61 52.45 52.19 51.83 51.90 52.40 52.83 53.10 53.47 53.59 53.86 54.12 54.00 50.68 46.76 49.41 45.69 40.62 41.62 42.69 44.08 41.77 41.59 39.96 34.31 38.31 34.70 36.50 35.98 32.68 31.76 30.30 30.53 32.55 32.73 33.29 33.11 32.53 31.48 33.80 35.39 36.48 35.13 45.55 43.11 37.98 40.78 44.48 44.46 45.64
51.99 52.07 52.08 52.22 52.43 52.08 51.52 51.39 52.09 52.53 52.92 53.06 53.53 53.76 54.15 54.08 53.74 50.62 46.34 50.90 50.12 44.29 42.95 46.02 46.98 47.57 45.89 45.84 43.10 40.51 36.93 38.84 38.72 34.69 34.69 34.35 32.73 33.56 32.91 29.27 37.58 31.54 34.54 32.19 34.16 35.91 40.66 46.07 42.74 44.07 44.91 43.89 44.34 44.43
51.87 51.92 52.04 51.97 52.25 51.48 51.16 51.50 52.09 52.61 53.02 53.31 53.71 54.09 54.15 54.02 53.78 51.19 50.07 49.56 47.81 42.81 38.88 38.35 40.02 45.49 50.02 48.23 49.50 40.64 39.24 41.63 40.94 40.93 37.33 36.05 32.93 34.86 30.68 32.22 34.96 36.97 39.52 35.52 36.53 38.23 40.42 44.13 44.76 44.40 45.15 45.08 46.12 46.75
51.58 51.73 51.77 51.86 51.63 51.68 51.36 51.60 52.20 52.49 52.96 53.67 53.96 53.98 53.88 53.49 54.04 52.57 49.07 49.59 46.56 40.14 33.84 37.27 44.73 41.70 46.36 46.37 47.83 47.33 44.05 43.77 41.29 38.47 34.90 36.09 34.35 37.25 34.40 35.21 35.21 37.14 38.19 35.11 36.06 38.67 41.41 44.24 43.58 44.29 45.12 46.46 47.17 47.47
51.37 51.44 51.61 51.68 51.39 51.45 51.36 51.78 52.27 52.51 53.08 53.70 53.60 53.55 53.45 53.24 53.78 49.97 46.99 45.29 44.04 41.43 34.80 36.10 39.65 40.68 43.11 44.79 44.10 44.35 42.54 40.33 37.91 37.28 34.25 34.77 37.50 35.99 36.30 36.65 34.66 39.78 37.53 35.11 34.78 40.17 39.81 40.81 44.15 45.85 44.65 44.75 46.22 46.70
51.04 51.36 51.39 51.41 51.22 50.94 51.03 51.68 52.37 52.48 52.37 53.31 53.43 53.82 53.47 53.24 52.68 50.02 46.59 45.11 47.41 45.77 37.26 33.50 38.36 39.23 41.15 43.62 42.89 41.27 41.72 40.86 40.27 36.98 36.21 37.09 39.19 37.46 33.79 33.09 39.39 41.28 42.67 42.88 40.29 44.29 44.39 45.41 46.56 47.56 45.58 46.30 46.83 46.68
51.10 51.18 51.44 50.95 50.91 50.75 50.67 51.19 52.29 52.23 52.06 53.17 53.15 52.46 52.70 52.51 49.20 45.18 41.94 44.66 48.18 44.05 39.62 39.88 37.17 39.00 40.47 38.87 38.93 38.83 38.70 37.12 39.07 38.10 36.38 36.09 37.17 37.30 34.18 32.01 39.60 41.38 42.50 42.96 43.76 43.67 41.96 43.84 42.85 45.95 46.10 46.78 47.77 47.46
50.93 51.02 51.21 50.98 50.67 50.68 50.53 50.60 51.78 52.19 51.67 52.91 52.94 52.13 52.30 51.31 49.11 44.89 46.20 49.31 45.70 40.24 39.09 39.29 41.25 40.70 41.50 37.35 35.01 37.04 35.38 35.92 37.99 36.82 38.73 36.80 38.51 35.98 32.40 39.40 40.86 42.04 42.57 42.45 42.83 43.51 43.00 44.94 45.60 45.15 45.22 45.68 45.11 45.82
50.81 51.05 51.21 51.02 50.79 50.54 50.19 50.27 51.13 51.88 52.74 52.64 52.49 52.32 48.62 46.60 43.83 44.72 51.04 49.45 44.85 41.38 33.17 37.98 36.02 39.11 42.27 39.55 36.30 36.16 35.81 35.59 37.89 37.36 36.16 36.95 34.21 32.03 36.63 39.22 41.20 42.04 41.25 41.21 42.87 42.67 43.20 43.91 44.14 44.46 44.95 45.42 44.31 44.38
50.72 50.86 51.24 50.87 51.00 50.29 50.28 50.10 50.45 51.51 52.28 52.09 47.85 46.20 43.69 47.08 52.23 50.61 46.85 44.73 44.20 43.49 36.94 37.47 41.46 38.61 41.37 42.42 41.37 39.42 40.79 36.67 33.84 36.53 39.30 31.86 31.28 36.90 39.67 40.64 43.65 43.96 43.32 42.47 40.71 39.47 41.05 41.70 42.33 43.40 43.62 46.05 45.30 44.86
50.61 50.82 51.12 51.43 50.98 50.61 50.28 50.06 50.12 51.75 49.91 45.40 44.53 44.50 46.69 51.39 46.47 47.21 43.77 40.99 40.58 35.68 38.68 39.12 40.86 39.63 43.22 41.30 40.54 41.84 37.64 37.89 30.78 34.42 34.75 29.62 28.36 33.53 38.71 39.62 42.02 45.07 43.99 42.09 42.09 43.03 42.90 42.58 42.42 42.39 42.48 43.38 43.89 44.39
50.63 50.82 50.94 51.20 51.19 51.03 51.14 50.65 50.93 47.19 46.24 47.03 45.57 46.56 45.11 46.48 44.22 37.79 34.62 36.33 35.35 35.74 39.42 39.26 41.15 43.29 41.63 45.21 41.00 41.35 38.35 33.23 27.42 35.58 28.18 29.25 35.83 36.91 37.72 39.14 40.61 42.72 43.94 42.39 42.11 40.93 41.77 42.34 42.81 42.07 41.64 41.35 41.54 42.16
50.46 50.70 50.61 50.86 50.74 51.29 51.92 51.93 51.69 50.64 49.81 47.41 46.24 43.07 41.46 39.81 32.33 32.90 27.44 31.65 34.02 37.46 39.47 41.16 43.34 42.75 44.64 43.71 41.79 40.61 32.79 31.16 34.94 31.54 29.20 33.03 38.18 38.96 37.92 38.44 39.43 42.68 42.74 42.43 41.62 41.63 41.49 41.02 42.50 42.33 41.32 42.20 42.05 41.73
50.36 50.54 50.61 50.49 50.46 51.45 52.14 52.17 52.29 51.69 46.70 46.03 44.73 34.88 36.18 34.17 36.06 35.76 35.74 36.21 38.72 38.20 38.67 37.59 41.58 40.76 41.06 38.42 36.32 33.03 33.97 33.70 28.96 19.53 22.53 33.54 36.15 37.99 38.81 38.89 37.54 38.80 41.98 41.87 41.98 42.05 41.42 41.18 40.43 40.77 41.33 41.67 41.39 41.19
50.37 50.54 50.58 50.88 51.89 52.11 52.02 51.91 52.32 48.82 47.89 45.28 42.00 32.99 36.41 39.62 38.62 39.38 39.04 38.02 39.30 38.73 38.03 38.89 37.77 36.87 35.61 34.66 33.65 32.08 31.03 27.04 30.98 25.67 31.85 36.61 38.18 38.67 38.82 38.52 37.09 36.55 40.79 41.23 41.75 41.51 41.88 41.91 41.30 40.38 41.19 41.11 41.12 41.86
50.45 50.31 50.79 51.24 51.39 51.26 51.32 51.77 49.95 49.39 48.93 47.15 44.27 39.52 39.90 40.26 37.94 38.07 38.49 38.32 38.97 38.39 38.60 37.46 35.75 34.94 33.81 33.40 31.95 31.58 28.46 23.60 29.92 33.98 37.05 37.76 38.51 39.00 38.82 38.61 37.11 36.43 37.76 41.09 41.33 41.40 41.56 41.34 40.93 40.90 42.26 42.14 41.78 41.83
50.05 47.43 51.38 50.77 50.64 51.14 51.49 50.38 50.76 49.82 47.71 43.91 42.25 43.74 41.95 39.41 39.43 38.72 38.61 39.49 39.19 38.26 35.54 34.99 32.82 32.50 34.44 31.67 31.59 32.91 30.46 33.16 34.95 36.01 35.94 37.06 38.33 38.79 39.52 39.49 37.54 37.64 38.16 38.95 41.54 41.99 41.96 43.09 42.84 42.23 40.71 39.84 42.10 42.54
45.95 48.21 50.65 50.55 49.95 49.18 50.65 50.10 50.35 48.44 45.13 45.27 43.15 45.05 40.56 40.87 39.63 40.19 40.93 40.19 39.29 38.24 37.25 36.32 36.27 32.82 31.66 31.17 30.93 33.78 35.51 36.21 35.38 34.66 34.61 37.57 38.72 37.21 38.07 37.35 37.75 38.18 38.73 39.21 40.24 40.55 41.13 40.69 40.80 40.24 36.57 36.63 37.85 41.65
47.65 48.61 50.22 50.50 49.74 46.20 49.49 51.08 49.92 44.69 46.19 43.85 42.88 42.42 41.92 41.86 42.07 42.61 42.93 41.91 41.87 40.53 40.00 38.01 35.55 33.60 34.25 35.90 36.41 35.95 35.38 35.14 34.74 35.36 36.30 37.00 36.54 36.38 36.13 38.05 37.29 37.55 37.65 36.70 35.80 35.62 34.83 36.67 37.22 35.97 35.83 36.81 36.21 36.76
50.47 51.25 51.68 51.65 50.21 48.98 50.10 50.10 49.17 45.74 44.09 43.80 42.87 42.55 42.61 43.88 43.98 44.39 45.16 43.80 41.08 40.18 39.56 37.53 36.86 39.01 38.73 39.27 38.21 37.51 37.26 36.26 36.03 34.66 35.25 36.67 37.08 35.11 34.58 36.37 35.53 35.81 35.44 35.17 35.03 36.21 35.41 35.75 35.68 35.53 36.71 36.93 36.53 36.51
50.34 52.50 51.77 50.01 48.96 49.23 49.30 47.99 45.05 44.91 44.79 42.96 43.32 43.88 43.63 45.13 45.67 43.42 43.15 43.26 40.85 41.08 39.57 40.05 41.46 41.36 42.16 42.55 38.94 37.87 37.12 36.92 35.93 36.51 36.24 35.93 36.71 33.83 33.77 35.04 35.24 35.18 35.95 35.08 34.93 34.72 35.65 35.08 35.34 35.80 36.56 36.37 36.66 37.56
48.92 52.83 51.27 51.53 51.25 51.42 49.53 49.68 45.55 44.56 43.91 44.22 45.53 44.87 43.36 43.22 42.66 43.18 44.53 42.47 40.54 42.09 41.60 42.25 42.10 43.87 44.70 40.79 40.83 41.07 40.29 40.40 36.73 35.51 37.07 35.43 33.83 33.49 33.60 33.85 34.73 35.06 35.74 35.52 35.35 34.83 35.26 35.44 35.60 36.32 37.13 37.48 37.89 38.36
51.82 51.40 52.05 53.49 50.21 42.69 43.35 47.15 44.33 45.74 43.58 43.67 43.93 42.30 42.20 42.70 44.19 46.90 43.61 43.47 43.66 44.73 42.81 43.52 44.15 42.98 41.27 42.08 42.00 43.95 41.58 36.45 34.21 33.79 33.79 33.32 33.02 32.75 33.31 34.15 34.57 36.32 36.77 36.97 35.77 35.68 36.00 36.29 37.17 37.48 37.81 37.53 37.91 37.89
51.64 51.05 49.13 48.49 45.65 41.49 46.26 44.44 46.83 45.38 44.12 42.04 41.66 40.28 42.27 43.92 46.13 42.66 39.65 40.84 43.81 43.88 45.17 45.44 41.72 39.85 40.02 41.01 40.55 41.00 38.73 35.44 34.06 33.59 33.89 33.74 33.06 32.72 32.74 32.81 33.63 34.44 34.78 35.57 35.67 36.23 36.87 37.89 37.23 37.88 38.03 37.70 37.07 36.78
43.41 41.72 41.28 34.19 43.35 44.22 44.48 44.69 43.07 42.55 40.84 41.90 40.93 40.77 42.31 44.17 40.80 39.52 37.80 39.55 42.36 43.55 43.78 43.19 40.95 39.46 38.42 38.17 37.02 36.37 36.22 34.78 35.54 34.50 34.49 35.03 33.24 33.52 32.72 33.66 33.81 33.78 34.39 36.24 35.74 35.51 35.57 37.50 38.13 38.06 38.17 37.54 36.67 36.66
37.84 45.22 40.77 43.93 44.07 43.41 43.51 41.80 42.31 42.32 42.52 42.39 42.77 43.84 43.79 41.81 39.79 37.99 39.17 40.81 42.59 43.83 44.06 43.38 41.91 40.13 39.10 37.13 35.99 36.16 37.63 38.46 37.92 36.23 34.81 35.96 35.06 34.09 32.81 34.74 33.77 34.36 35.33 35.29 36.77 37.93 37.93 38.33 38.77 38.93 38.27 38.20 36.83 37.86
39.22 43.79 44.32 45.54 45.33 45.82 44.05 44.78 44.88 44.62 42.88 42.27 42.83 42.78 42.59 38.80 38.80 41.14 42.68 43.32 43.70 45.28 45.35 43.74 42.06 40.24 39.40 39.05 38.39 38.93 39.50 37.91 37.15 37.54 36.67 36.17 37.58 37.96 39.02 36.46 34.76 34.95 37.03 37.70 37.24 38.64 38.38 38.06 37.77 37.86 37.31 37.76 38.17 37.88
46.83 46.55 44.73 45.20 45.70 46.35 44.31 43.88 43.48 42.54 43.91 46.74 44.71 42.00 42.61 42.28 40.55 42.84 43.56 45.23 46.35 45.09 42.33 40.07 38.69 38.78 37.71 36.14 36.48 36.76 35.34 35.51 36.76 37.66 37.98 36.52 35.68 36.84 37.12 36.83 37.09 36.71 36.73 37.35 37.82 38.16 38.32 38.77 38.55 38.49 38.02 37.04 36.85 37.63
46.87 48.57 47.54 44.83 44.77 45.06 45.65 45.13 44.74 45.91 47.23 45.31 42.20 42.21 43.38 45.80 46.60 45.77 46.11 45.77 44.48 43.11 37.05 36.59 35.85 37.08 36.16 35.92 34.95 33.78 34.35 34.72 36.09 35.49 35.14 33.74 34.78 36.29 37.83 38.51 39.96 38.07 37.21 37.92 37.24 38.25 39.46 39.09 39.24 38.93 38.54 38.05 37.70 37.85
45.34 47.69 45.95 45.38 44.47 44.24 46.50 47.99 47.10 47.66 47.10 46.53 46.74 46.71 46.05 46.28 47.17 46.45 43.94 39.36 38.57 38.48 36.83 36.12 35.31 34.74 33.23 33.84 32.67 33.62 33.48 33.01 34.35 34.10 32.83 33.57 35.68 36.47 38.12 41.13 41.31 40.33 39.05 39.04 38.19 38.62 38.23 38.59 38.01 38.40 37.63 36.85 36.82 36.79
47.47 47.46 46.50 45.89 45.57 46.37 47.18 48.01 48.27 48.39 47.98 47.30 47.87 45.50 44.46 46.25 45.28 40.73 38.40 35.96 35.69 35.88 35.84 34.57 33.48 33.79 33.66 33.00 32.52 32.06 31.47 32.96 33.99 34.43 33.83 33.51 34.38 35.54 37.19 38.10 39.90 40.10 40.16 38.98 38.00 37.89 37.85 37.27 37.26 36.90 36.48 36.04 36.21 35.99
47.54 47.13 46.73 45.23 45.25 46.98 47.36 46.01 45.32 45.30 45.87 45.59 45.51 47.03 46.74 45.70 42.22 41.34 40.46 37.35 36.22 35.36 36.58 35.36 34.45 33.76 34.15 33.30 33.22 33.63 33.87 33.15 33.44 33.81 34.32 34.17 34.62 35.85 37.26 37.67 38.47 39.51 39.20 38.52 38.00 37.70 37.76 36.93 36.50 36.36 35.76 35.59 35.87 35.98
47.82 47.25 46.84 45.16 44.39 44.51 45.78 46.07 45.32 44.51 44.96 44.78 45.58 46.46 45.75 44.70 42.07 39.89 39.66 38.50 37.77 36.01 35.00 34.27 34.11 34.07 34.42 34.57 34.67 34.52 34.52 34.56 35.41 35.42 35.42 35.10 34.55 34.19 34.91 36.20 37.13 37.21 37.00 36.66 36.63 37.18 36.98 36.81 36.04 35.60 35.35 35.31 35.51 35.40

GFSWCAN_sfc_wetblb_045.txt.gz
Wetbulb
52.49 52.33 52.39 52.39 52.20 51.84 51.74 51.99 52.12 52.62 52.94 53.44 53.58 53.71 53.93 54.06 54.01 53.03 50.73 50.91 47.01 42.01 44.12 44.53 44.07 41.94 41.37 40.78 35.25 39.23 38.42 38.81 37.48 33.40 33.52 32.81 31.96 33.60 33.04 33.23 32.78 30.83 30.12 29.24 30.60 28.40 26.71 42.81 45.52 41.68 44.11 45.51 46.16 46.91
52.24 52.30 52.21 52.19 52.19 51.85 51.51 51.87 52.18 52.43 53.09 53.71 53.79 54.06 54.08 53.87 53.99 51.73 49.58 51.71 51.05 45.11 45.22 48.38 48.30 48.16 46.82 46.14 43.08 41.56 39.74 38.69 39.45 34.79 35.68 35.17 33.05 35.06 34.32 30.43 37.20 32.28 33.22 32.69 33.38 33.22 38.05 43.58 44.04 47.11 47.26 45.21 45.42 45.62
51.92 51.87 52.03 52.17 51.86 51.68 51.65 52.22 52.32 52.61 53.27 53.75 53.61 54.04 54.04 53.91 53.99 52.16 51.05 50.77 49.52 45.66 45.58 45.26 45.29 48.61 51.23 49.81 50.42 41.51 43.13 42.93 42.72 42.76 38.33 36.86 33.04 35.50 31.67 33.32 34.59 36.77 39.11 34.44 35.32 38.21 40.49 43.53 45.43 47.27 46.64 45.65 46.93 47.84
51.75 51.86 52.09 51.91 51.20 51.36 51.32 51.87 52.16 52.45 52.92 53.46 53.81 53.79 53.75 53.64 54.16 52.71 51.36 51.64 49.38 45.79 42.39 44.47 48.50 47.16 49.56 49.14 48.79 49.04 46.51 46.99 45.49 41.67 38.59 37.54 34.62 37.84 34.77 34.62 34.94 37.04 38.47 35.50 36.81 39.35 41.20 43.41 44.51 46.35 46.73 47.34 46.90 47.56
51.33 51.62 51.91 51.69 51.20 51.12 51.08 51.66 52.06 52.59 52.76 53.19 53.67 53.68 53.62 53.68 53.79 52.76 51.61 51.20 50.45 46.32 43.49 45.27 46.67 47.34 48.50 47.81 46.09 46.29 46.01 44.58 42.93 40.10 37.50 35.42 37.90 36.45 38.09 38.27 34.44 39.28 37.26 34.65 34.62 40.33 41.02 42.15 46.00 47.79 46.05 45.85 46.69 46.74
51.19 51.27 51.57 51.44 51.44 50.80 50.69 51.05 51.85 52.24 52.43 52.62 53.40 53.56 53.89 53.75 52.79 51.84 48.13 50.42 51.15 50.12 44.43 42.30 46.41 45.43 47.49 47.71 45.98 44.24 44.06 44.08 43.06 40.22 38.36 39.94 40.42 37.74 34.80 34.12 39.22 41.53 42.49 42.52 39.96 42.89 43.76 44.37 45.75 46.87 46.07 46.84 46.75 47.00
51.16 51.27 51.43 51.27 51.14 50.51 50.59 50.71 51.26 51.98 51.72 52.64 53.08 52.88 52.76 52.87 52.99 49.49 46.82 48.78 49.86 49.79 44.36 43.82 44.72 45.30 45.79 45.61 46.22 45.81 44.84 42.92 42.31 41.06 40.05 39.11 39.47 38.23 35.56 32.33 40.02 42.48 43.16 43.22 43.54 43.07 41.48 44.60 44.59 46.92 46.59 47.26 48.09 47.74
50.96 51.11 51.34 51.31 50.92 50.69 50.35 50.52 50.82 51.42 51.45 52.42 52.94 52.27 52.47 51.33 50.25 49.22 51.49 50.21 49.26 46.61 45.56 43.87 44.93 45.00 46.61 42.42 41.74 43.62 43.75 43.96 42.36 41.53 42.26 38.61 40.63 39.84 34.50 39.82 42.53 43.16 43.12 42.47 43.26 43.56 43.35 45.31 47.41 46.41 47.51 47.53 46.19 46.18
50.82 51.07 51.10 51.26 50.99 50.85 50.45 50.25 50.52 50.87 51.83 52.77 52.57 52.22 52.10 50.75 49.49 50.06 51.55 50.53 49.58 47.28 44.01 42.03 40.85 42.06 45.42 42.69 41.46 44.26 44.80 39.14 42.73 41.24 40.57 40.76 36.43 33.23 38.58 41.13 42.37 42.32 41.99 40.80 42.31 42.33 42.89 42.30 42.89 43.47 44.10 45.71 45.57 46.03
50.80 50.92 50.98 51.30 51.44 50.95 50.44 50.35 50.17 50.57 52.09 52.01 51.31 50.06 49.45 49.61 52.07 51.95 48.57 45.73 45.70 44.76 44.45 40.37 44.16 43.49 45.64 43.76 41.65 41.20 42.27 38.09 35.39 39.53 42.58 34.50 37.22 41.52 42.73 43.72 45.29 44.51 43.97 43.37 40.31 38.81 40.37 40.57 40.92 41.64 42.12 43.11 43.55 44.70
50.65 50.90 51.04 51.15 51.57 51.30 51.07 50.83 49.92 50.91 50.33 50.66 50.27 50.38 50.54 51.73 49.39 48.52 44.91 43.36 45.27 43.20 43.31 42.98 42.94 43.36 47.75 44.30 42.13 43.49 38.91 39.92 32.86 36.43 38.03 33.96 36.25 41.52 43.55 43.65 46.24 46.03 44.96 44.05 43.73 43.53 42.76 42.41 41.76 41.85 41.51 42.21 42.39 42.79
50.69 50.72 50.86 50.97 51.14 50.68 50.65 51.10 50.40 50.49 51.86 50.69 50.45 50.64 50.73 48.16 47.24 43.55 41.54 43.08 43.08 43.12 45.49 46.35 47.57 45.80 46.94 47.49 44.31 43.06 38.87 39.47 32.36 40.87 37.24 34.14 41.06 43.80 44.21 43.91 44.68 45.37 44.99 43.88 43.96 43.18 43.25 43.06 43.15 42.94 42.78 42.11 42.32 43.08
50.53 50.66 50.78 50.88 50.57 50.25 50.42 51.64 51.47 51.09 51.30 51.83 50.78 49.22 47.14 45.66 39.64 39.63 36.29 41.91 41.89 45.86 46.54 47.04 44.69 48.15 46.82 46.03 43.72 42.72 37.88 37.06 41.13 36.94 33.60 38.75 44.04 45.54 45.21 44.93 44.11 46.66 45.24 44.47 44.00 44.40 44.26 43.41 43.66 43.40 42.80 43.75 44.09 42.87
50.33 50.59 50.70 50.67 50.30 51.24 51.88 52.17 52.29 51.04 51.23 50.81 48.97 39.73 42.95 41.96 43.13 43.82 44.00 44.65 47.21 45.41 45.73 44.76 46.15 46.59 47.01 44.20 43.82 38.88 39.79 39.95 34.57 31.71 34.80 42.65 44.59 45.19 46.26 45.97 43.49 43.44 46.48 45.26 44.91 44.92 44.71 44.94 44.58 44.54 44.20 44.45 43.56 42.08
50.33 50.61 50.67 51.64 51.77 51.70 51.80 51.84 52.34 52.34 52.05 49.30 48.25 41.34 43.32 46.77 45.95 46.81 46.43 44.99 47.07 46.23 45.31 45.27 44.69 44.59 43.54 41.08 41.29 38.97 35.53 32.69 35.51 36.10 41.26 45.12 46.51 46.60 46.08 45.82 44.68 43.11 45.39 46.53 46.38 45.82 45.69 45.78 45.72 45.91 46.65 46.04 44.70 44.33
50.48 50.72 52.33 50.86 51.05 50.78 51.56 52.15 52.70 53.18 52.92 50.62 49.47 46.48 47.05 45.17 47.52 46.87 46.74 46.71 47.88 46.93 46.00 45.20 43.00 41.01 39.38 40.39 37.70 35.81 34.44 33.26 38.02 42.69 45.05 45.05 45.60 47.05 46.93 46.52 45.81 44.06 44.54 46.20 47.58 47.24 46.89 46.76 46.68 47.23 47.94 47.02 46.03 44.84
50.12 50.89 50.83 50.60 50.50 51.02 51.61 53.47 53.79 52.50 51.54 49.40 48.71 49.03 48.42 47.35 47.29 48.62 47.97 48.56 46.98 46.34 43.83 43.07 39.46 38.09 41.10 38.07 36.72 39.05 37.18 40.75 43.12 44.19 44.92 44.85 46.59 47.33 46.66 46.63 46.50 45.23 45.66 46.02 47.09 48.43 47.91 48.50 48.49 47.02 43.90 44.75 45.01 46.29
48.69 51.03 49.99 50.14 49.81 50.71 53.58 53.01 54.06 52.75 49.77 51.40 48.48 51.18 48.57 49.12 48.69 48.62 47.92 48.22 47.25 45.30 43.14 41.72 43.30 39.56 37.40 35.49 36.74 40.73 42.24 44.21 44.70 43.84 44.57 45.63 46.10 45.71 44.02 44.14 46.00 45.59 46.74 46.62 46.35 45.47 45.08 46.31 45.39 43.29 43.82 44.06 44.36 45.12
49.57 50.36 50.34 50.58 50.18 50.50 52.91 54.06 54.93 50.43 51.17 52.50 50.82 49.96 49.78 49.34 49.40 49.08 49.33 47.89 46.88 46.54 45.67 44.45 40.44 38.99 38.50 41.25 40.95 43.82 44.42 44.76 43.75 44.93 45.25 45.59 44.99 44.67 43.82 45.40 45.10 45.15 45.94 45.43 45.16 44.14 44.20 44.78 43.36 44.05 44.45 44.63 43.05 43.67
50.54 51.30 52.41 51.74 51.30 52.77 53.09 54.48 54.46 51.26 50.14 51.53 50.42 50.53 49.86 51.28 50.76 50.24 49.57 47.10 45.54 44.79 44.34 41.74 40.74 44.20 43.89 45.21 46.71 45.97 46.44 45.74 45.12 43.28 44.23 45.41 45.56 43.60 43.29 43.96 44.57 44.69 44.77 43.94 44.28 41.51 44.31 43.81 44.32 44.44 43.85 43.18 43.60 43.15
51.79 54.38 51.78 52.76 53.01 53.30 54.00 53.57 52.55 51.71 51.36 50.39 50.59 51.06 50.87 51.72 50.15 49.25 48.97 48.95 46.90 44.77 43.99 44.87 46.33 46.89 48.51 49.31 48.62 46.30 45.71 45.07 44.79 45.09 44.20 42.93 43.66 43.06 43.51 43.89 43.51 43.76 43.52 43.53 43.44 42.89 42.77 43.30 43.68 44.05 44.39 43.89 44.57 44.67
53.99 52.89 55.35 53.88 54.97 54.92 54.70 55.93 52.45 51.98 50.65 50.59 51.59 50.92 49.57 49.51 49.00 48.97 49.64 47.85 46.91 46.03 45.17 47.37 47.74 48.92 49.08 48.84 48.04 46.40 47.72 46.53 45.95 44.35 40.92 41.76 42.73 42.63 42.21 42.42 43.72 42.82 43.37 43.49 44.21 43.76 43.33 43.09 43.74 44.67 44.29 44.17 44.07 44.17
52.75 53.91 56.06 56.25 53.95 47.68 47.76 53.10 49.87 51.51 49.34 49.53 49.96 48.39 48.81 49.49 50.13 51.21 47.84 48.74 49.51 50.44 48.79 47.51 48.83 48.71 48.28 48.25 48.04 48.08 47.79 45.99 44.28 43.81 42.43 42.08 41.75 42.06 42.61 42.57 43.25 43.31 43.05 43.11 44.02 43.95 43.04 39.06 41.09 44.22 44.20 44.71 44.40 44.01
51.82 54.69 53.12 52.90 51.52 47.28 51.90 49.73 51.94 51.02 49.50 47.90 47.06 45.14 47.36 49.00 50.54 46.84 44.61 47.71 50.02 50.86 48.73 49.52 48.81 48.43 48.91 48.50 48.62 48.69 47.78 44.74 42.75 41.95 42.85 40.92 40.74 40.09 40.71 40.64 41.65 42.26 42.35 44.14 43.74 43.68 44.22 43.81 40.85 43.42 43.70 42.79 42.72 42.43
45.10 45.75 46.22 37.65 48.00 48.15 47.46 48.41 48.04 48.13 45.50 46.66 45.45 46.10 48.24 50.02 46.30 44.51 44.21 47.44 48.61 50.21 51.55 51.13 49.44 48.74 47.00 47.07 47.01 45.64 43.70 43.86 43.64 42.95 42.90 42.53 41.07 40.83 41.44 42.43 41.50 41.07 41.72 43.05 42.35 42.24 42.71 43.46 43.28 41.99 42.15 41.91 41.85 41.74
37.11 47.63 44.45 48.01 49.00 48.05 48.29 46.08 46.25 46.76 47.26 46.52 47.05 49.24 49.80 47.41 43.20 41.95 46.16 48.75 49.69 50.96 51.51 50.58 48.98 48.13 47.58 47.16 45.71 44.96 44.29 43.93 44.22 45.33 42.53 42.58 42.05 41.80 41.71 40.54 39.78 40.37 42.36 42.86 43.64 43.09 42.90 43.16 42.83 42.38 41.45 40.55 38.28 41.49
40.41 47.89 50.81 51.38 50.62 50.97 49.83 50.30 49.94 48.76 46.75 46.29 47.86 46.67 47.30 42.88 42.53 46.76 50.24 50.22 50.42 52.16 51.76 49.95 48.62 47.61 45.64 45.24 46.59 46.48 45.08 44.90 44.20 43.80 42.66 42.93 43.85 44.32 42.76 40.21 39.42 40.80 43.34 43.45 43.73 44.02 42.57 42.34 42.40 42.00 41.66 42.39 42.57 42.57
50.05 50.91 48.80 50.49 50.04 52.02 49.39 48.33 47.48 47.29 48.33 51.00 49.15 45.05 43.81 44.76 45.20 49.74 50.65 51.45 51.62 49.28 44.62 43.74 44.46 43.76 42.82 41.97 42.31 43.17 42.33 42.69 42.47 42.20 42.17 42.31 42.61 42.48 42.94 42.06 42.07 37.17 42.58 42.25 43.22 44.02 43.80 43.09 42.82 42.50 41.93 41.63 41.89 42.88
50.14 53.56 52.49 50.06 49.94 49.95 50.48 50.00 50.06 51.61 52.63 51.00 47.80 46.93 47.77 50.81 51.75 51.37 51.84 51.46 50.27 45.22 43.69 42.77 41.76 42.75 42.59 42.23 41.95 41.75 42.39 43.00 42.00 39.88 39.15 39.12 40.22 40.80 44.44 44.59 44.18 43.42 43.95 43.70 38.01 40.64 43.55 43.40 43.33 42.92 42.68 42.77 42.93 43.31
50.13 52.94 51.35 50.03 48.88 48.79 52.03 53.58 52.69 52.73 52.50 51.67 51.57 51.28 50.77 50.82 49.39 48.64 49.86 47.46 47.66 44.80 43.87 43.44 43.00 43.65 41.84 41.16 40.02 39.77 40.71 41.62 41.80 41.21 39.81 39.55 40.34 42.77 44.68 44.29 43.88 44.13 44.43 44.09 43.15 42.42 38.49 42.03 40.83 42.87 42.07 42.06 42.01 41.71
52.59 51.92 50.95 51.02 50.76 52.22 52.83 52.79 52.58 52.56 52.13 51.75 51.80 50.53 48.71 48.63 46.49 45.22 44.56 43.94 44.14 43.67 43.07 41.80 41.61 42.33 41.48 40.76 40.42 39.79 38.12 40.21 41.11 41.20 41.45 42.01 42.66 43.18 44.00 44.40 44.95 45.03 44.89 44.52 43.71 43.08 42.74 42.50 41.99 41.04 40.84 40.46 40.16 40.48
51.57 51.37 51.25 49.96 51.09 51.77 52.15 51.35 50.73 50.43 50.43 50.11 49.74 50.98 49.60 49.22 46.01 45.18 43.57 43.49 43.42 43.05 39.98 42.46 41.58 39.87 40.48 40.64 40.69 39.93 37.51 40.38 40.78 41.66 42.62 42.86 43.02 43.57 43.98 44.17 44.37 44.39 43.95 43.31 42.86 42.60 42.12 41.53 41.31 40.79 40.39 39.82 39.86 39.91
53.01 52.10 52.05 50.49 49.14 48.84 50.15 50.10 49.02 47.91 48.88 48.41 49.10 50.21 49.58 48.72 45.97 44.22 43.59 44.54 44.97 44.16 43.17 42.61 41.47 41.52 41.59 41.06 40.29 39.44 39.36 40.43 37.70 35.14 35.77 34.97 34.60 38.38 43.16 43.62 43.48 43.31 42.58 42.36 42.27 41.99 41.28 40.75 40.54 39.96 39.73 39.55 39.31 39.20

GFSWCAN_sfc_wetblb_048.txt.gz
Wetbulb
52.56 52.40 52.50 52.69 52.50 52.13 51.96 52.09 52.79 53.00 53.22 53.60 53.86 53.85 54.07 54.14 53.80 53.64 53.07 53.79 50.02 46.26 47.26 48.00 46.87 44.59 42.72 42.61 37.96 40.73 42.31 41.60 38.44 35.07 35.19 34.72 33.30 34.90 32.58 34.75 33.52 32.88 31.23 30.76 32.29 28.65 26.17 41.18 38.41 37.04 46.20 48.05 46.80 47.72
52.18 52.22 52.38 52.42 52.26 51.99 51.88 52.23 52.81 52.91 53.18 53.68 53.88 54.30 53.95 54.05 54.15 52.71 50.87 53.96 53.41 46.65 49.15 51.89 51.59 51.74 49.34 48.42 44.44 45.28 42.76 41.45 40.51 36.29 37.40 35.96 34.21 36.45 35.11 31.81 35.75 31.55 35.11 33.29 33.48 34.86 40.71 39.57 39.09 46.60 47.08 46.58 46.23 47.70
52.08 52.06 52.18 52.47 51.85 51.75 51.60 52.07 52.58 52.93 52.94 53.76 54.10 54.38 53.97 54.13 54.17 53.05 53.79 52.97 51.52 49.28 50.54 50.83 49.53 51.95 53.62 51.85 52.64 44.15 46.02 47.21 44.30 44.67 39.89 37.20 33.66 36.30 33.20 34.69 34.55 35.91 37.19 34.57 33.65 37.90 37.22 41.65 44.33 46.95 47.83 46.60 47.59 49.28
51.73 52.05 52.26 52.02 51.45 51.56 51.47 51.73 52.17 52.23 52.48 53.18 53.82 53.78 53.91 54.07 54.45 53.72 53.33 54.85 52.32 50.22 47.02 47.99 53.20 50.91 52.95 53.20 51.32 50.42 48.60 48.77 47.73 45.27 40.72 39.02 35.89 39.37 36.06 36.25 34.28 35.89 37.86 35.56 34.66 36.16 39.55 43.13 43.69 46.54 46.86 47.93 47.54 48.79
51.38 51.70 51.86 51.82 51.60 51.49 51.13 51.23 51.99 52.19 52.21 52.64 53.74 53.70 53.91 53.87 54.27 55.20 56.77 56.78 56.42 49.58 46.75 48.71 50.54 51.93 52.38 52.81 50.99 50.43 49.69 48.60 47.81 44.61 41.63 37.31 38.80 37.25 39.29 39.36 36.12 39.94 37.15 34.37 33.97 38.71 39.15 39.61 45.12 47.23 46.64 45.98 47.18 47.52
51.23 51.38 51.67 51.85 51.77 51.24 50.86 50.99 51.13 51.73 51.96 52.37 53.35 53.21 53.99 54.13 53.36 54.43 49.87 55.16 56.20 54.76 48.90 44.59 51.13 50.01 50.54 51.35 51.15 50.11 49.54 48.87 48.87 46.29 43.39 44.60 43.43 39.83 36.78 35.11 41.19 42.46 42.60 41.96 38.97 42.84 44.22 45.74 46.05 46.87 46.64 47.31 48.13 48.39
51.18 51.23 51.61 51.91 51.64 51.11 51.04 50.87 50.99 51.76 51.60 51.98 52.98 52.96 53.04 53.27 55.10 51.68 51.25 52.71 52.13 55.19 49.27 47.42 48.78 50.26 48.84 48.27 49.60 51.20 51.63 49.87 47.98 47.76 44.30 44.44 43.05 43.56 39.54 34.57 42.28 43.70 43.14 43.09 43.13 42.85 41.19 43.24 42.28 45.29 47.68 47.99 48.79 48.96
50.85 51.26 51.45 51.74 51.61 51.25 51.01 50.55 50.64 51.05 51.90 51.78 53.00 52.33 52.75 53.07 51.56 52.14 54.76 50.80 53.04 51.57 50.80 45.72 49.09 49.29 50.97 47.74 45.14 47.88 49.48 50.69 47.50 46.79 46.72 42.74 45.48 43.12 36.74 42.17 44.88 45.31 44.25 43.08 42.99 43.55 43.29 43.85 43.86 44.06 45.33 46.61 46.73 47.59
50.81 51.01 51.28 51.42 51.73 51.65 51.10 50.56 50.45 50.84 51.36 52.39 52.84 52.40 54.51 52.83 51.29 52.24 52.42 51.02 52.81 49.58 47.27 46.07 45.16 44.83 51.05 49.92 47.83 47.58 50.13 46.74 49.44 45.72 44.76 44.79 40.57 34.55 40.93 42.86 44.01 45.27 43.52 42.34 43.55 43.21 43.64 42.27 41.80 42.11 43.23 42.81 42.60 43.47
50.79 50.90 51.08 51.38 51.65 51.62 51.32 50.63 50.29 50.51 51.64 52.42 53.35 53.45 51.74 52.87 52.52 52.75 50.34 49.33 48.48 49.35 48.40 44.85 48.27 46.33 50.09 47.86 47.60 45.36 45.98 42.26 39.78 45.05 47.41 39.84 37.45 43.67 45.17 45.96 47.07 46.63 45.93 44.79 41.40 40.63 41.07 41.28 41.49 41.78 41.82 43.24 43.36 43.40
50.73 50.84 51.08 51.37 51.56 51.40 50.84 50.91 50.13 50.87 51.26 54.95 54.36 55.10 54.52 52.81 51.08 49.54 49.13 48.46 50.44 48.16 50.37 49.81 47.71 48.23 52.74 45.16 43.74 46.16 42.14 43.71 36.35 42.34 42.65 38.56 36.95 43.85 46.48 45.98 48.19 48.62 47.55 46.21 45.91 45.24 44.39 43.35 42.46 42.41 43.23 43.69 43.27 44.13
50.76 50.86 51.00 51.25 51.30 50.88 50.33 50.69 50.74 53.63 57.96 54.19 55.00 55.95 55.26 50.74 51.10 47.99 48.17 49.08 47.69 45.43 50.31 48.45 50.28 50.51 49.73 51.49 45.61 45.76 41.54 42.99 36.15 47.54 43.03 35.48 43.42 46.75 46.64 45.93 46.75 47.52 47.64 46.58 46.83 46.07 45.79 45.48 45.10 44.77 44.96 44.50 43.39 43.93
50.63 50.83 50.80 50.94 50.84 50.56 50.27 50.60 51.22 51.62 52.23 56.93 54.87 53.46 52.64 51.71 42.67 42.95 39.73 44.30 45.12 48.79 50.04 49.48 47.85 50.29 48.48 48.51 45.05 44.22 40.73 41.46 47.43 41.55 35.11 40.66 45.85 47.21 47.24 47.03 46.48 48.34 48.94 47.74 47.00 47.16 47.25 47.02 47.24 46.73 45.60 46.27 46.50 44.13
50.42 50.69 50.83 51.18 51.01 51.02 51.78 52.13 52.42 51.69 54.33 54.50 52.65 41.58 47.71 46.44 48.14 48.62 47.97 48.19 49.98 50.56 49.95 49.72 51.28 47.35 48.25 46.90 48.47 41.24 45.01 45.11 39.31 35.71 35.07 42.22 46.69 48.08 48.02 47.77 47.13 46.35 47.18 47.82 47.45 47.57 47.25 47.41 47.45 48.22 47.72 47.47 46.69 46.07
50.57 50.72 50.82 51.80 51.41 51.44 50.78 51.73 52.25 54.22 56.48 52.87 52.91 42.81 48.12 52.10 52.11 52.71 52.86 51.57 52.39 52.90 50.67 49.71 49.16 49.63 45.94 44.54 45.81 43.43 39.13 36.78 39.10 38.73 42.22 45.99 48.24 48.78 48.87 47.71 47.15 46.99 47.20 48.15 48.54 48.02 47.84 47.87 47.80 47.44 48.36 48.13 47.68 47.16
50.61 50.45 55.01 50.95 50.92 51.36 51.42 52.02 54.03 57.60 56.83 54.47 53.26 50.57 52.88 50.86 50.79 52.25 52.53 51.59 54.75 53.21 52.49 50.31 44.50 43.69 42.29 45.31 40.46 38.38 35.28 34.88 39.52 44.78 46.84 47.79 48.21 49.07 48.62 48.52 48.44 47.51 47.79 48.09 48.50 48.20 47.98 47.73 46.73 47.50 47.67 47.36 47.65 47.87
49.99 56.74 50.86 50.61 50.54 51.93 52.23 57.02 57.50 55.04 55.02 52.78 52.06 55.26 53.83 53.13 52.16 52.77 53.24 52.99 54.43 50.66 45.44 45.16 41.63 40.00 43.76 38.70 36.83 38.48 37.88 41.53 44.97 46.73 47.83 49.19 48.74 48.40 48.54 48.51 49.04 48.87 47.97 48.18 48.27 48.11 48.17 48.26 48.15 46.50 45.53 46.77 47.58 48.17
53.75 55.21 50.67 50.57 51.09 53.43 57.64 56.76 57.49 56.09 52.17 54.00 51.81 53.21 55.43 55.01 53.13 52.34 53.34 53.65 52.00 50.18 49.70 43.35 45.56 39.50 36.21 35.15 36.71 43.62 45.33 47.82 48.11 47.32 49.42 49.91 50.09 49.90 49.35 48.54 49.41 49.19 49.42 49.04 48.02 48.14 47.58 47.41 46.05 45.46 46.36 46.90 46.97 47.14
52.26 52.23 50.91 50.64 51.60 55.98 56.35 57.07 58.32 52.79 53.40 54.81 55.51 56.67 55.67 55.50 55.26 56.70 55.61 55.68 53.47 53.25 50.48 47.04 41.25 39.37 40.00 44.45 45.18 46.53 46.94 47.51 46.52 48.78 49.81 50.32 50.45 49.30 48.29 48.68 49.49 48.93 49.03 49.40 48.49 46.40 47.08 47.15 46.20 46.24 46.17 46.26 45.56 46.03
50.26 51.44 52.19 52.15 52.25 56.86 54.16 57.45 60.63 55.60 52.93 55.03 56.04 55.70 55.24 55.34 56.38 56.23 55.23 54.43 53.31 52.22 48.45 45.27 43.11 45.07 47.84 49.48 50.32 50.14 49.60 50.86 47.25 45.05 46.38 47.35 48.28 47.69 48.36 47.29 47.46 49.42 48.65 48.34 47.36 40.34 47.03 46.71 47.01 46.54 46.00 45.93 45.64 45.53
52.17 55.71 52.20 55.42 57.61 57.30 57.56 57.10 55.50 56.62 55.32 53.99 56.40 55.62 55.48 57.75 55.54 54.16 52.78 54.55 52.17 49.28 48.29 51.50 51.05 52.07 52.99 52.39 52.77 53.39 50.75 51.10 47.31 47.71 46.32 45.12 46.16 46.83 46.81 48.70 48.26 48.23 47.29 45.96 46.37 44.94 43.13 44.81 46.21 47.30 46.97 46.19 46.89 47.36
59.68 53.48 60.22 57.41 58.45 58.80 58.31 61.40 57.24 58.36 55.41 55.55 55.59 55.95 54.56 53.91 53.60 53.06 54.62 52.29 50.56 51.26 51.66 51.29 51.01 51.24 51.85 51.41 51.52 52.82 51.94 51.72 51.88 48.46 41.62 44.41 45.45 44.33 44.82 46.88 47.34 46.45 47.27 47.08 47.03 45.66 45.72 46.52 46.50 47.54 46.71 45.89 45.85 46.35
54.00 56.56 59.74 59.05 56.38 52.68 51.13 58.32 53.50 55.03 52.09 53.88 55.16 52.16 53.54 54.18 54.25 55.91 51.81 52.33 52.33 54.14 54.29 52.97 52.88 53.97 52.75 52.95 53.43 52.99 52.78 51.90 49.75 48.56 46.35 45.67 44.87 45.24 46.56 45.82 45.95 44.87 43.97 45.77 48.36 48.12 45.22 42.79 44.59 46.28 46.81 46.09 44.85 44.44
50.84 57.40 54.82 55.84 55.60 50.06 56.74 53.66 56.13 55.00 55.07 52.91 51.96 48.76 50.93 52.83 54.97 52.15 48.49 50.43 52.28 54.92 54.24 53.37 53.41 50.88 51.75 51.99 49.71 50.87 52.27 51.63 48.48 46.45 46.85 46.29 44.31 44.96 46.66 45.22 45.09 44.73 44.38 45.56 46.10 46.02 44.99 45.65 42.84 45.11 45.40 44.40 43.95 43.49
48.02 48.40 49.61 40.40 53.95 51.62 50.21 50.81 51.78 52.57 49.13 51.12 49.04 49.67 52.52 54.90 50.62 48.59 47.37 50.52 51.61 52.19 52.84 53.74 52.88 52.43 49.24 49.51 49.11 49.64 51.02 50.50 46.37 46.32 47.96 48.66 45.65 44.07 43.47 44.36 46.81 45.95 47.03 44.03 44.82 44.26 44.96 44.63 44.66 45.86 44.42 43.26 43.06 43.16
39.76 50.16 45.83 50.30 52.22 51.35 52.15 48.47 49.54 49.67 51.21 49.89 50.63 53.78 54.42 51.74 46.19 44.29 49.64 51.08 51.83 52.62 53.48 52.62 50.86 48.44 49.49 49.47 47.87 47.49 48.16 50.28 47.80 48.34 46.32 46.71 45.37 43.72 43.11 42.07 41.61 43.11 46.57 46.24 44.60 43.61 43.50 44.22 43.94 43.64 43.81 41.95 39.55 42.66
42.29 49.76 54.51 57.11 55.18 55.36 54.31 55.28 55.09 52.74 49.81 49.17 52.34 50.45 50.73 44.61 44.77 49.27 53.62 54.17 53.29 54.53 54.39 53.12 51.22 48.89 46.98 46.37 47.00 47.38 47.94 48.39 47.76 47.05 47.26 47.79 47.41 46.48 44.92 42.67 41.57 43.83 46.11 46.22 46.36 44.93 44.04 43.59 43.57 43.35 43.20 43.75 43.15 43.67
52.26 53.75 50.32 53.37 53.10 55.26 51.96 52.71 50.96 50.09 52.10 55.21 53.87 47.82 45.88 46.53 47.27 52.31 52.91 54.51 54.55 51.72 50.31 49.29 48.49 47.84 46.83 46.36 46.47 46.57 46.48 46.71 46.84 47.24 46.76 46.59 46.45 46.05 46.02 45.75 45.58 38.61 44.96 45.57 45.83 44.80 45.02 44.42 44.26 43.60 42.88 42.98 42.66 43.87
52.20 55.98 55.13 52.46 53.42 53.60 54.03 53.08 53.53 56.67 57.90 55.40 52.29 50.76 50.73 53.52 54.01 52.54 53.32 53.83 52.21 50.17 48.19 47.02 46.90 47.95 47.07 46.64 46.38 46.63 47.04 46.61 45.10 41.80 41.57 40.82 41.30 42.22 45.28 44.93 44.59 46.07 46.37 45.26 37.30 41.22 44.97 44.50 44.36 43.38 43.76 43.24 43.10 44.01
52.03 56.07 53.77 52.12 51.32 51.71 55.70 57.87 57.86 58.64 58.43 57.62 56.01 53.95 53.51 52.31 52.18 53.81 52.70 52.17 49.70 48.62 48.46 47.90 48.22 46.94 45.56 44.58 43.43 43.56 44.99 45.01 44.96 44.02 43.52 41.58 42.58 44.54 44.59 45.07 45.37 46.19 46.56 45.47 44.69 44.85 38.58 43.55 41.66 44.01 42.90 43.45 43.16 42.79
57.48 55.45 52.97 53.70 53.20 57.30 58.28 59.74 59.01 58.32 57.05 55.87 56.46 54.53 52.08 49.44 48.84 48.27 50.22 50.97 49.05 48.35 47.47 46.66 46.40 46.74 45.46 44.14 43.62 42.70 40.84 44.17 44.45 44.30 45.28 45.66 45.98 45.72 45.72 46.13 46.75 46.94 46.80 45.46 44.20 43.80 43.39 43.89 42.98 42.69 42.06 41.53 41.55 41.83
55.79 53.89 53.95 52.32 55.02 57.56 57.38 56.54 56.54 55.61 56.11 54.87 53.75 54.27 51.45 49.56 46.48 44.92 47.69 48.74 47.77 47.16 43.07 46.70 45.42 44.15 45.08 44.39 43.59 43.27 40.23 44.46 45.01 45.74 45.65 45.67 45.77 46.37 46.44 46.70 47.08 46.85 46.59 45.87 45.08 43.91 43.11 42.34 42.17 41.70 41.37 40.73 41.00 40.85
56.32 56.24 55.77 54.82 54.11 52.32 55.01 54.27 51.76 50.53 51.02 51.40 51.88 52.77 52.49 51.43 48.14 47.87 48.91 49.77 50.07 47.97 47.34 46.90 46.48 46.08 45.16 44.17 43.41 42.93 41.97 43.47 38.84 35.23 36.31 35.81 35.56 39.19 45.98 46.39 46.40 46.41 45.58 45.82 44.40 43.50 42.60 42.01 41.76 41.32 41.21 40.78 40.69 40.96

GFSWCAN_sfc_wetblb_051.txt.gz
Wetbulb
53.13 52.86 53.06 53.04 52.58 52.41 52.54 52.56 53.06 53.37 53.53 54.10 54.00 54.09 54.25 54.39 53.88 53.80 55.75 58.23 52.37 51.27 51.63 51.22 49.58 45.51 46.89 45.53 41.26 45.95 43.87 44.17 40.46 36.64 36.25 35.98 35.06 36.64 33.26 35.39 36.27 35.80 34.60 33.86 34.38 31.64 29.23 44.28 43.08 36.30 43.81 43.29 41.82 49.56
52.76 52.59 52.75 52.79 52.60 52.04 52.14 52.29 52.81 53.28 53.19 54.14 53.89 54.22 54.08 54.35 54.46 53.21 52.45 57.64 56.54 49.30 52.02 54.93 54.53 53.94 51.39 50.26 48.38 47.09 44.43 42.85 41.60 37.82 37.88 36.78 34.88 37.08 35.26 31.79 38.16 34.59 38.49 35.72 37.27 36.94 43.93 44.37 42.29 44.24 42.62 42.34 43.44 51.14
52.47 52.38 52.46 52.75 52.19 52.12 52.10 51.96 52.50 53.10 52.63 53.49 54.33 54.23 54.10 54.26 54.52 53.44 55.20 55.40 53.18 51.98 51.19 52.30 51.45 54.57 55.79 54.72 55.31 46.88 47.92 47.62 45.51 48.93 40.91 37.97 34.34 37.46 33.60 34.72 35.79 37.61 39.16 34.34 34.35 39.61 41.29 42.02 41.68 43.45 44.32 44.87 48.68 49.46
52.08 52.11 52.40 52.57 52.11 51.85 51.94 51.75 52.19 52.70 52.53 53.08 54.15 54.22 54.06 54.41 54.56 53.81 53.74 57.58 55.48 53.77 48.23 49.77 55.80 54.06 55.49 55.83 54.09 53.55 51.26 51.48 50.44 48.70 43.73 39.71 36.57 39.89 36.34 37.25 34.67 37.07 37.51 35.56 35.20 37.80 38.00 41.23 43.57 43.74 45.98 48.20 48.55 49.47
51.62 51.88 52.13 52.30 52.10 52.02 51.52 51.39 51.69 52.33 52.55 53.10 53.96 54.24 54.25 54.21 54.80 55.25 56.24 57.23 59.07 53.16 49.38 50.69 55.10 55.82 55.76 54.84 54.07 54.05 52.21 48.91 47.98 45.21 43.50 40.72 41.01 38.17 38.94 38.72 35.24 39.72 36.68 33.61 33.43 37.45 39.13 39.54 42.84 46.15 46.70 46.60 48.54 49.94
51.28 51.60 51.76 52.09 52.27 52.01 51.45 51.29 51.23 51.92 52.10 52.71 53.66 53.91 54.12 54.22 53.08 54.99 51.47 57.69 60.13 57.52 50.42 47.37 55.67 54.09 54.87 54.77 52.06 53.15 51.71 50.77 48.44 45.98 44.82 46.39 46.73 42.78 38.96 35.23 41.04 42.32 42.81 42.71 37.82 41.54 41.00 42.68 42.56 45.83 47.24 47.81 48.94 48.54
51.41 51.51 51.76 52.14 52.05 51.84 51.58 51.22 51.04 51.50 52.14 52.29 53.24 53.56 53.23 53.96 55.81 52.70 51.77 53.97 53.30 57.01 49.92 47.21 50.72 55.68 55.19 54.02 54.15 50.60 52.02 51.09 50.01 49.30 46.54 45.99 45.76 45.16 42.03 36.27 42.81 44.15 44.02 43.88 44.01 43.32 39.79 41.41 40.72 44.50 45.14 46.90 48.96 49.18
51.05 51.32 51.72 51.89 51.95 51.81 51.75 51.46 51.02 51.50 51.77 52.08 52.83 53.35 53.33 53.20 53.28 53.65 56.57 52.36 53.16 52.45 53.58 47.42 48.55 53.18 55.35 52.28 48.62 51.42 50.85 48.81 49.14 48.57 48.45 45.42 46.93 44.38 39.25 42.04 43.98 45.46 45.35 43.64 43.65 44.49 43.00 43.51 43.49 43.52 44.78 44.89 44.14 44.81
50.96 51.05 51.47 51.72 52.04 51.83 52.10 51.17 50.87 50.96 51.53 51.89 53.08 52.89 55.75 53.98 52.98 54.52 53.10 51.79 56.87 52.46 47.76 47.98 47.98 45.18 55.85 51.24 52.90 50.87 49.81 45.54 51.57 45.83 46.22 46.37 43.47 36.15 41.71 42.59 43.75 44.54 45.05 44.78 44.68 44.34 43.99 43.06 43.08 43.52 43.13 42.93 42.10 43.40
50.79 51.09 51.41 51.54 51.79 51.94 51.86 51.50 51.16 50.62 51.11 52.59 53.99 55.37 53.84 55.42 53.92 53.76 52.22 49.46 48.86 50.59 52.21 49.58 53.59 48.44 52.38 51.69 49.14 48.51 51.35 45.88 44.12 47.26 48.16 44.36 38.14 45.23 46.27 47.17 47.49 46.64 46.50 46.58 44.53 42.91 43.23 42.06 42.65 42.98 42.24 43.47 43.50 43.77
50.77 51.01 51.41 51.60 51.83 51.97 51.36 51.41 51.28 50.88 51.51 56.63 57.14 56.11 57.30 52.95 54.87 52.37 52.00 51.13 52.31 49.73 53.19 52.80 52.34 49.84 55.07 49.13 45.91 49.49 46.28 45.48 38.62 45.23 45.30 43.31 39.36 45.08 47.63 47.75 48.44 48.02 47.49 47.74 47.50 47.15 46.46 45.70 43.79 43.71 44.49 44.23 44.08 44.20
50.84 51.10 51.31 51.44 51.78 51.73 51.10 51.05 51.33 53.83 59.75 55.76 56.06 57.98 58.84 53.70 53.55 50.60 49.96 50.80 49.39 47.03 51.40 50.71 51.72 52.99 53.73 55.12 48.69 48.64 43.65 45.45 38.64 49.77 42.51 36.78 44.27 47.47 47.35 47.58 48.55 48.31 48.29 47.59 47.88 46.52 46.81 46.08 46.56 46.71 45.57 45.01 44.57 44.50
50.70 51.02 51.05 51.16 51.40 51.30 50.76 50.69 51.08 51.76 52.60 59.53 57.11 55.27 54.99 53.86 44.20 45.32 41.83 46.77 46.25 50.60 51.18 51.16 48.65 53.22 51.70 51.40 46.41 46.25 41.47 41.21 49.06 43.70 37.98 42.05 48.13 48.77 48.71 48.30 48.61 49.73 48.40 48.19 48.08 47.99 47.76 47.11 47.16 46.58 45.99 47.60 46.16 45.79
50.56 50.76 50.96 51.30 51.54 51.32 51.00 50.88 51.42 52.44 55.39 56.28 54.40 43.46 49.81 47.63 48.40 49.02 48.82 49.12 52.28 51.60 51.31 51.54 49.65 49.92 52.84 48.47 47.21 42.46 44.72 46.05 39.83 37.54 36.37 46.07 48.39 48.48 49.25 49.50 49.27 48.37 48.67 47.93 48.75 48.52 47.37 47.75 46.77 47.72 47.29 46.97 46.12 45.54
50.68 50.95 51.09 51.85 51.48 51.85 51.25 51.99 52.33 55.99 58.34 54.77 54.54 44.56 49.44 52.00 52.94 53.60 53.44 53.41 53.29 54.34 52.61 50.79 50.11 52.19 46.97 45.61 44.77 43.11 40.02 37.93 39.75 38.36 43.53 47.50 49.84 49.85 48.85 48.15 48.54 48.72 48.71 47.89 47.80 46.94 47.77 47.97 46.90 46.81 48.56 48.20 47.10 46.48
50.74 50.01 54.70 51.26 51.32 51.90 51.71 52.47 54.18 59.77 58.90 55.94 54.66 51.84 52.70 51.26 51.96 52.78 53.38 52.13 56.04 53.83 53.20 50.94 48.75 43.83 40.72 40.79 38.01 34.99 36.34 35.40 40.89 45.96 47.17 49.42 50.14 49.84 48.94 49.69 48.68 49.56 48.87 48.89 49.18 48.97 48.20 48.46 47.52 47.59 48.54 48.54 47.78 47.30
49.41 58.51 51.39 50.83 50.97 52.17 52.22 57.65 60.07 56.97 56.13 54.02 52.91 54.85 53.35 53.88 52.02 54.06 55.08 55.28 57.08 52.99 49.53 50.36 42.54 38.31 45.49 39.79 36.70 40.64 39.70 44.50 46.18 47.39 49.39 50.79 50.09 49.50 49.71 49.37 49.12 49.64 49.02 48.93 49.21 48.61 48.38 49.15 48.82 48.03 46.84 48.13 48.63 49.44
55.95 57.34 51.30 51.10 52.17 54.73 59.50 57.97 58.88 56.55 53.29 55.63 52.49 53.87 54.96 55.22 54.39 55.29 56.68 56.36 54.38 52.39 52.30 47.40 48.31 43.78 42.07 38.84 42.17 46.41 47.75 49.42 49.77 48.91 48.59 51.57 51.59 50.94 50.54 49.53 49.58 49.89 49.87 49.34 49.54 49.21 49.56 48.33 47.73 46.53 48.04 48.82 48.60 48.54
53.66 53.44 51.40 50.67 52.78 57.80 57.79 59.02 59.40 53.45 54.98 56.38 56.90 56.10 56.15 56.55 58.78 60.35 58.07 56.78 56.02 56.89 53.13 50.28 45.74 46.18 46.64 48.29 46.77 48.36 49.12 48.42 47.76 49.19 49.04 51.75 51.87 50.51 49.77 49.96 49.78 49.54 49.27 49.88 49.38 47.60 47.84 48.69 47.73 47.41 47.39 47.41 46.59 47.21
50.47 50.90 52.13 51.94 52.29 58.53 55.28 57.55 62.41 56.44 54.32 56.01 57.11 55.40 56.25 56.53 58.12 59.16 56.24 55.56 55.07 51.92 49.42 47.77 46.90 48.76 49.26 50.87 52.20 51.23 51.07 51.35 49.69 48.27 48.25 48.13 49.97 49.41 49.66 48.39 48.06 49.54 49.24 49.51 49.13 42.13 48.37 47.68 48.71 47.88 47.22 47.17 46.92 46.57
49.94 57.14 53.00 56.24 57.85 59.15 58.17 57.40 56.96 57.99 56.84 55.37 57.90 57.10 55.77 57.26 55.36 54.20 53.84 56.94 52.03 49.90 49.10 51.27 51.09 53.30 53.24 53.99 52.99 52.46 51.82 51.65 49.48 50.66 47.83 46.63 48.28 48.69 47.86 47.98 48.55 47.66 47.13 47.34 48.25 46.43 44.14 46.76 47.87 47.24 46.58 46.56 47.44 47.85
61.06 53.62 61.97 59.08 59.39 59.82 58.45 60.29 58.21 59.21 57.59 56.37 57.28 57.33 55.38 53.21 53.75 54.17 55.50 50.96 50.49 51.22 51.99 51.00 51.48 52.17 51.50 51.96 52.04 53.36 53.47 53.09 53.10 50.07 42.02 44.43 46.28 47.21 47.31 48.15 47.96 46.15 47.24 47.99 48.07 46.00 47.53 47.32 47.48 47.48 48.72 47.11 46.31 46.41
53.72 57.83 61.01 59.95 56.89 54.53 51.97 61.47 55.41 56.78 53.48 54.22 56.31 52.36 53.50 54.45 55.24 57.31 51.41 50.67 51.50 53.80 54.31 53.40 54.53 55.30 54.35 53.91 54.13 53.05 54.41 52.37 50.43 48.91 49.23 48.28 47.71 47.93 47.76 47.09 47.50 46.07 46.64 45.65 46.54 47.80 46.85 42.07 44.93 47.83 47.93 48.14 47.12 47.88
52.26 58.81 55.55 56.11 56.16 51.19 58.15 55.33 57.43 56.16 56.78 54.17 53.10 50.25 52.23 53.41 56.65 52.01 47.76 51.13 51.92 53.50 53.17 54.57 53.95 52.90 52.57 53.12 50.22 50.23 51.53 50.45 51.42 49.98 49.55 46.80 45.48 45.87 48.77 47.12 46.58 46.96 46.83 47.14 47.22 45.57 47.15 47.51 44.41 47.91 46.48 47.16 46.47 45.69
49.69 48.63 50.99 42.16 56.09 53.29 52.14 52.52 53.38 53.60 51.45 52.63 50.88 50.67 53.83 56.66 51.57 48.54 47.34 50.50 51.59 51.85 52.79 53.10 51.77 53.63 50.97 49.88 49.71 49.69 52.13 49.55 48.93 48.55 50.37 47.84 46.51 46.52 46.49 45.69 46.30 47.13 48.41 45.94 45.92 45.76 44.73 46.98 47.12 46.26 46.65 45.77 45.42 45.00
42.48 51.99 46.35 51.76 52.36 52.09 51.79 48.89 50.54 50.88 52.29 50.92 52.49 55.61 56.73 52.89 47.30 45.49 48.18 51.87 52.56 52.39 53.09 52.24 50.96 50.11 48.76 48.60 47.10 47.09 47.72 49.85 49.76 46.93 46.85 48.07 46.08 46.29 45.83 45.67 43.37 44.36 46.35 46.27 47.30 44.64 45.20 44.84 45.55 44.66 43.82 43.07 40.41 43.81
43.98 50.87 55.02 57.79 56.79 56.91 54.73 56.01 56.75 53.99 50.77 50.59 53.55 52.82 51.93 46.06 46.12 51.34 54.38 54.84 53.53 53.80 53.79 52.15 49.91 48.27 47.22 46.93 47.70 48.32 48.99 49.36 49.03 48.31 48.77 48.47 47.27 47.08 46.72 44.23 43.53 44.92 46.42 47.08 47.11 46.75 45.69 45.23 45.12 44.74 44.08 45.13 45.50 45.24
52.77 54.62 51.51 55.01 54.48 55.87 53.17 53.77 52.27 51.73 52.71 56.54 55.72 49.32 48.41 48.46 49.29 53.35 54.11 55.84 54.18 52.78 51.17 50.35 50.12 49.23 48.00 47.53 48.24 48.11 48.03 48.60 48.90 48.80 47.75 47.52 47.26 46.83 46.95 46.74 46.53 40.19 45.93 46.66 46.74 46.66 47.57 45.78 44.43 45.31 45.19 44.44 44.76 45.26
52.69 55.40 55.60 53.57 54.76 54.65 54.93 54.14 53.02 55.35 58.23 56.67 52.32 51.29 52.37 55.14 55.48 54.14 53.98 54.67 53.42 52.53 50.97 49.50 49.54 50.26 48.79 48.16 48.33 48.05 48.13 48.10 47.28 44.84 43.16 41.76 43.11 44.32 46.79 46.98 48.03 48.01 46.46 46.19 37.82 41.93 45.44 45.30 45.83 45.76 45.24 45.83 45.62 46.38
52.90 56.32 54.44 53.97 52.70 52.27 54.98 57.32 56.37 59.48 60.29 59.13 59.07 56.73 55.29 54.46 54.54 55.44 53.81 53.19 52.10 52.13 50.92 49.62 49.35 48.80 47.45 47.12 45.65 45.33 46.36 46.73 46.89 46.44 45.00 43.40 43.98 46.15 46.42 46.08 46.55 46.26 46.24 45.61 45.20 45.37 39.47 44.82 43.17 46.92 45.99 44.48 44.80 43.91
58.62 56.47 54.57 54.33 53.11 55.03 58.39 60.67 61.45 61.60 61.30 58.99 58.33 56.47 53.15 51.68 51.57 53.93 52.68 55.07 52.94 51.88 50.85 49.14 48.11 48.32 46.87 45.77 45.78 44.67 43.99 46.13 46.36 47.09 47.32 47.66 47.22 47.18 47.03 48.00 48.43 48.18 46.48 45.86 46.90 45.89 45.54 46.03 45.32 44.80 44.09 43.41 43.33 42.19
56.80 55.34 54.56 52.92 52.74 58.36 60.76 59.23 59.56 58.52 57.39 55.55 53.63 54.38 52.72 50.07 48.82 49.94 51.96 52.39 51.11 50.77 44.90 49.55 47.67 46.32 46.51 45.85 45.98 46.30 42.81 47.34 47.30 47.44 47.13 47.80 47.44 47.64 48.56 47.87 47.54 47.50 47.63 46.97 46.33 46.01 44.98 44.07 43.85 42.83 43.15 42.77 42.10 42.35
56.40 56.56 56.37 55.29 54.09 54.81 57.61 57.02 54.59 54.15 54.35 53.33 52.28 52.51 53.41 51.87 49.44 50.60 52.79 53.27 52.71 51.44 50.25 49.01 48.65 47.82 47.23 46.39 45.97 45.34 44.59 45.96 40.56 36.29 37.33 36.17 34.99 39.19 46.18 48.41 48.03 48.37 46.81 46.45 45.61 45.01 44.26 43.41 43.06 42.51 42.10 42.04 42.46 42.48

GFSWCAN_sfc_wetblb_054.txt.gz
Wetbulb
53.84 53.43 53.14 53.24 52.91 52.93 52.60 52.56 53.22 53.70 53.73 54.11 54.70 54.67 54.84 55.06 54.71 54.71 56.47 58.06 54.13 51.80 51.77 52.40 51.39 49.39 49.31 47.72 42.73 46.39 46.05 45.46 42.93 37.95 35.78 35.22 33.83 36.13 34.21 35.98 36.08 34.27 35.54 34.74 36.08 33.07 29.54 45.84 45.03 39.61 44.14 46.98 46.81 46.49
53.46 53.15 52.77 52.87 52.89 52.64 52.43 52.33 52.85 53.55 53.42 53.94 54.58 54.62 54.34 54.53 54.83 53.85 54.88 58.28 57.54 52.51 52.88 56.62 55.50 54.42 53.12 51.82 49.67 48.73 45.61 45.40 45.02 40.51 39.97 37.91 35.45 37.49 35.78 32.01 39.19 34.18 36.02 32.94 34.69 36.51 43.34 44.72 43.71 46.08 46.42 45.03 45.44 45.47
53.21 52.80 52.52 52.75 52.93 52.46 52.29 52.33 52.60 53.26 53.30 53.43 54.41 54.73 54.55 54.73 54.80 54.15 56.40 57.63 56.11 53.16 53.08 52.70 52.03 55.58 56.54 55.44 55.43 47.23 47.63 49.08 46.56 48.65 43.51 39.55 35.63 38.40 33.96 34.74 35.81 38.28 38.97 34.75 34.74 39.88 40.62 42.21 42.61 43.23 44.29 44.07 44.29 45.26
52.91 52.30 52.52 52.62 52.73 52.38 52.33 52.21 52.27 52.87 53.11 53.34 54.02 54.72 54.80 54.75 54.88 54.32 55.55 57.81 56.08 53.38 48.23 50.69 57.04 54.82 57.04 56.16 54.63 54.02 51.38 51.90 51.63 49.32 44.37 41.29 37.27 41.36 36.71 37.74 34.68 37.88 38.87 35.57 35.24 38.02 38.87 40.94 41.96 42.97 43.78 45.20 44.90 46.99
52.29 51.97 52.15 52.33 52.42 52.29 52.27 52.06 51.95 52.29 52.82 53.21 53.81 54.76 54.87 54.89 55.09 55.03 56.69 57.65 57.97 52.13 48.49 50.24 53.60 56.10 56.83 56.10 53.72 54.74 51.65 51.47 49.50 47.30 44.86 42.18 44.11 40.94 40.73 39.07 34.56 39.40 37.31 33.83 32.75 38.37 36.53 38.13 41.69 42.04 42.31 45.14 47.15 48.52
51.79 51.82 51.88 52.17 52.54 52.19 52.21 51.93 51.81 51.85 52.35 53.04 53.67 54.40 54.65 54.91 54.04 55.48 51.88 57.88 57.39 57.08 49.69 47.41 55.07 54.80 55.45 55.88 54.04 53.55 52.25 51.52 49.05 47.53 45.79 46.81 47.52 44.27 40.62 37.73 41.63 43.29 43.48 41.92 38.78 42.47 41.53 41.14 42.35 42.97 43.80 46.11 48.01 48.46
51.62 51.74 51.81 52.08 52.52 52.29 52.22 51.93 51.66 51.43 51.89 52.54 53.12 53.92 54.15 54.68 54.90 53.10 52.48 55.25 53.47 56.85 49.94 47.32 50.41 55.13 56.36 55.20 53.03 53.04 53.96 51.49 50.71 47.81 46.81 45.41 45.58 44.92 42.97 37.47 43.17 43.28 43.92 43.85 44.10 42.30 39.60 40.56 39.50 42.45 42.29 43.59 46.34 46.92
51.40 51.42 51.48 52.02 52.27 52.21 52.17 52.08 51.60 51.58 51.96 52.42 52.93 53.72 54.25 53.72 53.02 53.79 57.78 53.04 54.66 53.73 52.86 47.64 48.49 52.11 56.79 52.57 50.82 53.97 48.93 51.36 50.24 48.34 48.18 45.55 46.57 45.06 39.97 43.04 44.99 45.10 44.49 43.63 43.86 44.53 43.27 44.21 44.00 42.77 43.27 42.76 42.31 43.08
50.99 51.27 51.39 51.79 52.13 52.32 52.23 52.34 51.71 51.35 51.54 51.73 52.62 53.43 55.10 53.47 54.52 56.54 54.66 53.63 56.55 53.25 49.24 49.69 47.27 44.64 55.52 51.31 52.65 50.37 50.80 45.87 51.14 46.41 46.69 46.66 44.05 35.46 42.44 44.18 44.75 44.46 43.84 44.16 45.24 45.05 44.18 42.74 43.16 42.83 42.06 41.65 40.81 41.86
51.19 51.21 51.48 51.69 52.00 52.40 52.11 52.13 51.96 51.35 51.58 52.12 53.84 54.12 53.18 57.16 54.91 54.54 53.91 50.58 50.32 51.92 52.02 49.54 52.83 48.65 52.54 52.51 50.26 49.30 48.74 44.73 43.98 46.52 49.38 45.36 38.53 46.69 47.37 47.30 48.06 46.48 46.70 46.22 43.30 41.65 42.82 42.91 42.78 42.95 42.49 42.62 42.77 42.38
50.81 50.95 51.42 51.67 52.09 52.28 52.01 51.80 51.81 51.49 51.03 55.37 56.07 55.62 58.46 54.17 56.44 54.21 51.61 51.51 53.00 50.19 52.90 52.76 52.00 49.95 54.93 48.76 48.37 51.59 46.62 47.12 39.30 44.27 44.69 42.47 40.27 46.10 48.36 47.27 48.66 48.65 48.12 46.52 46.70 46.09 45.70 45.24 44.48 43.88 43.47 44.14 43.75 42.99
50.70 51.00 51.19 51.39 51.77 51.96 51.76 51.50 51.59 52.91 59.25 54.79 54.19 56.95 59.87 55.92 54.04 51.30 50.55 51.41 49.61 48.17 52.33 50.45 51.99 52.77 53.18 54.46 47.97 49.16 44.96 45.84 39.15 47.67 43.81 37.07 45.20 47.57 48.25 47.45 48.73 48.92 48.96 48.11 47.61 46.66 46.80 46.60 47.02 46.11 45.13 45.07 44.66 44.59
50.60 51.01 51.16 51.25 51.70 52.06 51.44 50.88 50.87 51.92 52.97 59.48 57.09 55.47 54.01 54.11 43.32 46.11 41.77 45.01 46.60 49.16 50.06 49.81 48.61 54.86 53.80 53.29 47.83 46.57 42.24 40.13 48.02 41.31 39.10 42.05 48.21 48.35 49.33 48.95 48.78 49.66 48.88 49.57 48.84 48.00 48.10 47.79 48.23 47.13 46.16 46.71 46.45 45.05
50.63 50.89 50.88 51.15 51.88 52.48 51.44 50.99 51.24 52.00 53.59 56.26 53.05 42.70 49.80 48.03 48.88 48.05 47.92 49.64 53.42 51.97 51.82 50.52 48.67 51.18 52.77 45.08 45.38 40.83 44.21 45.35 38.78 36.82 36.48 45.81 48.75 49.21 50.46 50.14 49.33 48.63 49.45 48.81 48.79 48.90 48.25 47.47 47.59 48.33 48.07 47.66 46.81 45.90
50.70 50.94 51.15 52.23 53.06 52.48 52.49 52.24 51.32 55.23 56.84 54.48 54.09 43.54 49.92 52.81 53.64 54.00 54.61 53.98 55.53 56.39 53.67 51.71 51.23 50.99 46.82 44.50 44.61 42.38 38.72 37.01 39.72 39.57 44.55 48.87 50.37 50.12 49.71 49.30 49.26 49.11 48.79 48.79 48.90 47.89 48.38 47.76 47.77 47.75 48.62 48.58 48.37 47.75
50.94 50.60 54.08 52.34 51.85 52.15 52.06 52.19 53.87 58.78 58.66 55.53 54.35 51.73 54.04 52.10 51.82 53.70 54.20 53.91 55.75 54.63 55.02 52.88 49.07 45.67 42.86 44.10 40.31 38.42 37.58 36.47 41.96 46.89 47.88 49.79 49.83 49.66 50.59 49.29 49.59 49.79 49.45 49.03 49.37 49.36 48.33 48.32 47.87 48.00 48.64 48.38 48.51 48.88
49.93 56.26 51.79 51.60 51.63 52.47 52.22 56.29 59.88 57.47 55.53 54.32 53.22 55.67 53.40 54.82 54.23 54.56 55.42 55.02 56.53 52.89 49.48 49.57 44.17 42.32 47.28 41.45 39.00 43.34 41.00 44.81 47.29 47.58 49.23 51.59 50.63 50.30 50.32 50.00 49.61 49.44 49.78 49.75 49.04 49.09 49.26 49.66 49.51 48.20 47.50 48.90 49.20 49.66
55.55 55.04 51.90 51.46 52.42 55.80 58.79 56.86 58.19 56.30 53.44 55.35 53.75 54.86 56.57 57.28 55.11 53.88 55.85 56.24 54.38 52.05 50.84 47.81 50.78 44.29 41.79 39.62 41.59 46.23 47.94 49.02 48.72 50.03 50.14 51.59 52.18 51.65 50.63 50.04 50.20 50.06 49.76 50.27 50.04 49.67 49.37 48.51 47.78 46.66 49.30 49.72 48.97 49.26
52.83 52.72 51.36 51.10 52.05 55.02 57.99 58.33 58.58 53.01 54.67 56.59 57.27 57.56 57.52 56.92 55.58 58.40 57.07 56.07 56.38 55.64 52.89 50.30 46.18 44.47 44.72 47.43 47.15 48.72 49.15 48.94 48.28 49.72 50.38 51.31 52.63 51.43 50.43 50.56 50.24 49.94 50.06 50.64 49.87 48.57 48.29 49.32 48.31 47.63 47.03 47.44 46.48 46.99
50.29 50.65 51.06 51.48 51.65 57.44 55.85 56.59 61.78 55.95 53.77 56.68 57.62 56.73 56.84 56.77 57.58 54.77 55.87 55.78 55.33 53.21 48.74 47.80 47.52 48.95 48.94 50.47 51.44 50.64 49.88 50.98 50.41 47.54 48.21 48.98 50.76 50.42 48.72 49.36 48.61 49.62 48.77 48.02 49.62 44.23 48.44 48.42 47.74 47.77 47.06 47.22 46.65 45.79
53.33 57.17 53.35 55.23 55.80 58.35 57.84 56.98 56.81 57.65 57.35 55.13 57.27 56.48 56.59 57.48 56.23 54.47 53.23 56.14 52.05 49.91 48.63 50.51 50.14 51.74 53.86 53.94 52.98 52.04 52.10 51.83 49.42 49.21 48.28 48.20 49.15 48.89 48.67 48.09 49.11 49.02 47.31 47.58 47.86 47.36 46.45 47.57 47.39 48.09 47.39 46.60 47.29 47.73
61.31 54.57 61.10 58.14 58.39 59.08 57.60 58.64 57.19 58.03 57.12 56.56 52.56 56.36 51.00 53.49 53.89 53.56 55.36 52.07 51.37 51.02 51.94 51.74 51.77 52.14 52.37 52.72 51.56 53.82 53.55 52.92 53.12 50.87 46.94 47.56 46.16 46.94 46.51 46.92 47.25 46.63 46.05 45.95 47.19 44.98 46.21 47.42 46.61 48.21 47.54 47.38 47.39 46.60
53.60 57.90 60.37 60.10 56.16 53.06 51.00 59.95 55.93 56.80 53.57 54.34 56.12 53.00 53.39 54.34 55.98 57.02 48.71 52.10 52.67 54.27 54.18 53.78 54.00 55.41 54.00 54.52 54.23 53.98 53.15 52.66 51.07 50.09 49.42 49.00 48.52 48.31 47.44 46.61 47.03 46.14 45.67 46.71 47.70 46.96 45.35 45.79 45.58 47.75 48.04 47.25 47.08 46.48
52.40 57.50 56.34 54.94 55.46 50.29 57.40 54.97 56.42 55.21 55.22 54.33 53.15 50.61 52.25 54.11 56.25 51.48 47.84 50.29 51.88 54.47 54.69 55.19 54.29 53.49 52.97 53.81 51.85 51.20 51.49 50.38 50.21 49.83 49.99 48.22 46.70 45.74 46.12 45.68 46.82 46.99 46.84 47.65 47.27 46.22 45.46 46.11 44.34 46.82 47.26 46.32 45.90 45.91
48.90 48.79 50.62 41.31 55.56 54.05 51.86 52.13 53.30 52.50 50.53 52.60 52.12 51.05 52.21 55.01 50.21 48.83 48.46 50.67 52.52 53.12 52.77 52.86 52.28 51.60 50.27 49.28 48.74 49.13 51.32 48.97 48.53 46.63 48.57 48.22 46.68 47.41 45.86 46.41 46.74 46.69 47.19 46.76 45.88 46.24 45.09 45.11 45.23 46.69 45.51 44.64 45.06 45.56
42.27 51.86 45.60 51.77 52.08 52.19 52.12 50.78 51.26 50.04 49.90 52.12 52.26 53.02 55.28 52.79 48.34 46.26 49.48 50.79 52.54 52.51 51.00 50.35 49.41 47.93 47.80 47.95 46.78 46.77 47.74 50.19 49.78 46.92 47.04 47.45 46.94 45.81 44.37 43.88 43.09 43.42 47.49 47.26 46.43 44.30 45.72 45.90 45.64 45.33 45.36 44.64 42.68 44.92
43.61 49.63 54.75 56.78 55.52 56.23 53.98 55.09 53.82 52.49 52.22 50.60 50.89 52.21 52.37 47.44 46.71 49.93 51.56 53.40 54.35 52.10 51.74 50.45 49.34 48.12 46.99 47.31 48.41 48.98 49.36 49.54 48.69 47.19 47.85 47.52 47.20 47.38 46.62 44.21 42.45 44.62 47.67 47.39 47.24 45.67 44.07 44.24 45.25 45.46 45.28 45.16 45.70 45.55
52.56 53.94 51.85 55.00 54.42 55.27 52.69 52.78 50.59 51.12 49.03 51.20 50.80 50.17 48.13 47.92 49.30 52.87 52.60 54.33 53.93 52.62 50.56 50.30 49.87 49.15 48.22 48.15 48.82 48.77 48.78 49.10 49.50 49.30 48.35 47.50 47.40 47.00 46.92 45.97 45.85 41.35 46.41 47.03 47.49 47.01 47.16 46.67 45.68 45.36 44.87 44.46 44.82 45.92
52.28 54.92 54.92 52.80 54.76 54.26 53.79 53.41 52.25 50.79 52.27 49.79 50.12 51.70 50.14 55.16 55.24 53.85 53.74 53.10 54.23 52.85 51.50 49.55 49.64 50.12 49.14 48.63 48.32 47.78 47.77 48.17 48.10 45.39 43.37 43.14 43.52 44.48 47.12 47.40 47.45 47.19 46.69 46.09 37.36 41.38 44.61 45.30 45.77 45.42 45.74 45.36 45.38 45.73
52.05 54.80 53.83 53.69 52.43 52.13 54.96 54.81 54.08 53.84 52.70 58.71 58.36 55.44 53.85 53.05 54.50 55.56 54.16 54.59 53.34 52.42 51.39 49.57 49.20 49.16 47.90 47.66 46.31 45.84 46.75 47.59 48.14 47.58 44.68 43.73 44.35 46.38 46.80 47.19 46.97 46.77 46.88 46.42 45.69 45.71 40.71 44.46 43.16 46.12 45.55 44.67 44.84 44.07
55.42 55.71 54.06 54.18 53.54 53.61 55.19 54.51 54.94 59.07 59.48 57.82 57.94 54.48 52.90 51.71 53.51 54.16 54.94 55.47 53.77 53.37 51.40 49.22 48.28 47.82 46.93 46.29 46.66 45.61 44.36 46.81 48.10 48.21 48.05 47.67 47.56 47.35 47.25 47.44 47.69 47.67 47.23 46.75 46.49 46.12 45.64 45.24 45.12 44.67 43.99 43.96 43.63 42.75
55.33 54.53 53.79 52.78 54.79 57.47 57.35 54.49 54.81 57.04 57.36 55.55 55.48 55.44 53.36 51.84 49.31 52.04 53.80 54.53 52.94 51.57 46.51 49.23 47.69 46.39 47.01 46.86 47.62 47.94 44.61 47.47 47.85 47.12 48.35 48.31 47.95 48.16 48.24 48.09 48.09 47.47 47.20 46.58 46.14 45.94 45.61 44.49 44.17 43.84 43.36 42.90 42.81 42.73
55.66 55.48 53.31 51.43 52.54 51.78 53.46 52.80 54.54 54.68 54.04 53.02 53.80 54.79 54.31 54.07 49.87 51.68 55.04 55.06 52.82 51.93 50.82 49.48 48.72 48.50 48.34 47.97 47.67 47.03 45.99 45.49 40.38 36.87 37.42 36.65 36.31 40.39 47.32 48.24 47.96 47.71 46.69 46.79 45.89 45.46 44.73 44.19 43.78 43.20 43.46 43.55 43.54 43.76

GFSWCAN_sfc_wetblb_057.txt.gz
Wetbulb
54.70 53.97 53.54 53.08 53.17 53.17 52.75 52.63 52.69 53.43 53.73 54.09 55.11 55.33 55.67 55.71 55.86 53.39 55.80 57.80 53.21 49.98 50.79 52.26 51.10 48.46 47.26 45.88 41.32 44.91 44.24 43.53 40.45 35.67 34.21 33.51 32.44 34.12 33.05 34.02 33.18 32.05 31.27 32.29 32.91 31.28 26.88 41.12 40.65 35.77 39.15 41.06 41.68 42.63
54.42 53.89 53.21 52.83 53.06 53.06 52.69 52.46 52.30 53.33 53.56 53.66 54.57 55.36 55.89 55.53 55.50 54.24 53.96 58.13 57.19 51.54 50.90 55.15 55.71 55.35 53.71 51.35 47.06 46.51 44.22 43.05 41.97 39.30 38.34 37.42 33.86 35.95 34.11 29.41 37.18 30.55 35.65 32.03 32.70 33.00 39.51 41.62 40.00 41.72 41.76 39.89 40.30 41.32
53.91 53.52 52.88 52.59 52.77 52.96 52.75 52.56 52.06 52.42 53.37 53.76 53.91 54.92 55.67 55.53 55.38 53.93 52.57 55.65 55.86 52.05 51.75 52.50 51.07 55.16 55.12 53.87 53.31 45.07 46.84 47.47 45.19 46.41 41.40 39.41 33.50 37.32 31.30 33.84 35.49 37.91 39.26 34.39 33.14 38.45 38.62 39.82 41.02 42.31 41.92 41.61 42.04 41.99
53.77 53.30 52.49 52.40 52.65 52.82 52.67 52.65 51.94 52.54 52.67 53.38 53.84 54.54 55.21 55.40 55.43 54.43 52.43 55.84 55.26 52.22 47.32 50.64 56.44 53.71 56.53 54.73 53.87 53.45 49.84 50.69 49.44 46.28 42.47 39.33 35.70 40.13 35.18 36.90 35.31 37.81 38.33 35.95 35.16 37.97 39.34 40.17 40.06 41.02 41.12 41.24 42.62 44.37
53.37 52.64 52.13 52.27 52.57 52.84 52.52 52.38 51.90 51.84 52.28 52.63 53.63 54.16 55.10 55.34 55.24 54.09 54.39 56.19 57.51 51.73 46.03 47.94 53.53 54.71 55.89 54.66 53.29 52.48 50.85 49.08 47.34 44.63 42.57 40.41 41.10 39.52 38.91 38.90 35.74 38.40 37.44 34.04 32.35 38.97 38.45 38.65 41.38 41.85 40.31 40.66 42.39 43.11
52.92 52.00 51.92 52.05 52.54 52.86 52.67 52.44 52.02 51.77 51.96 52.57 53.27 53.99 54.88 55.16 54.87 52.93 51.42 57.74 57.77 56.42 49.16 44.68 53.95 52.74 54.19 53.81 53.27 52.38 51.37 50.05 47.67 45.79 44.75 44.94 46.68 41.44 37.67 35.61 40.70 41.42 42.89 42.91 39.09 42.24 42.52 42.59 42.71 43.07 41.69 41.50 42.18 43.16
52.65 51.83 51.82 52.02 52.50 52.84 52.59 52.49 52.17 51.96 51.77 52.05 52.42 53.47 54.30 54.38 53.04 51.58 50.70 53.98 53.00 56.72 49.73 46.48 47.69 52.69 53.99 52.30 52.42 51.41 51.60 50.08 48.73 46.64 44.40 44.28 43.64 43.11 39.73 33.97 41.47 42.25 43.24 44.34 44.16 43.28 40.96 42.03 41.27 42.72 42.94 42.35 43.14 43.28
52.21 51.63 51.44 51.78 52.40 52.69 52.59 52.53 52.21 51.82 51.75 52.02 52.30 53.29 54.11 54.01 52.43 50.44 55.49 53.82 54.34 53.00 51.19 45.60 46.44 50.43 54.10 50.64 49.42 52.16 48.26 48.75 48.71 46.55 46.15 43.23 44.54 42.54 36.22 41.23 42.60 43.61 43.21 43.06 43.26 44.24 43.01 44.38 44.50 43.47 43.68 43.15 41.26 41.60
51.52 51.42 51.27 51.73 52.21 52.44 52.63 52.46 52.34 51.98 51.71 51.80 51.92 53.16 53.07 51.06 51.74 54.68 56.77 54.99 56.87 52.77 46.74 48.55 45.25 43.72 54.15 51.05 51.17 49.48 49.51 44.21 49.48 44.84 44.54 44.71 40.40 32.40 37.76 41.88 43.12 43.64 41.76 41.69 44.71 43.92 43.95 43.24 42.84 43.54 42.58 41.13 40.05 40.13
51.34 51.17 51.19 51.63 51.92 52.46 52.63 52.44 52.11 51.88 51.31 51.50 52.44 51.57 51.32 56.05 55.62 55.61 52.28 49.09 48.66 49.74 49.80 46.65 50.82 46.21 50.79 49.06 48.34 47.80 47.66 43.86 41.69 44.61 47.37 40.81 35.86 42.80 46.43 45.90 46.36 45.49 45.52 44.47 41.17 40.59 41.65 41.79 42.82 42.61 42.40 42.45 41.64 41.02
51.11 51.00 51.09 51.51 52.01 52.36 52.49 52.43 51.99 51.89 50.95 52.52 53.77 54.55 56.77 55.70 54.95 53.65 50.04 48.09 49.48 47.14 49.57 49.26 49.60 47.52 52.03 45.80 46.58 48.43 44.36 44.27 38.43 41.87 41.58 37.67 36.55 43.93 47.12 46.75 47.61 47.88 46.99 45.85 44.57 44.25 44.85 44.58 43.32 42.79 43.16 43.76 43.53 43.33
50.81 50.86 51.05 51.30 51.60 52.19 52.50 51.69 51.51 51.33 55.67 52.84 51.73 54.28 57.32 54.33 52.61 49.87 48.86 48.95 48.15 45.43 49.06 48.30 50.05 50.99 51.50 52.63 45.39 44.29 43.16 44.02 37.31 45.68 40.62 34.75 41.70 46.41 47.01 47.48 47.53 47.76 48.44 47.32 47.54 45.99 46.46 47.13 45.33 44.61 44.19 43.64 43.30 44.02
50.54 50.69 51.02 51.12 51.35 52.27 52.10 51.12 50.60 51.50 51.76 56.00 53.63 53.68 53.96 52.51 44.59 45.35 40.33 42.97 44.76 51.10 51.26 51.06 48.42 53.11 52.75 50.46 44.79 44.59 40.65 38.42 44.60 37.71 34.04 39.92 46.01 47.62 47.12 48.02 47.26 47.93 49.09 48.34 47.58 47.75 47.36 46.74 47.26 45.17 44.57 45.41 44.58 44.17
50.39 50.93 50.98 51.37 51.83 52.46 52.04 50.68 50.62 51.04 50.91 52.74 53.17 39.42 49.05 47.82 48.16 48.78 47.89 48.96 51.40 51.06 51.53 51.29 50.55 49.99 49.75 46.21 45.86 39.44 42.31 43.57 38.27 35.39 35.59 43.34 45.42 47.38 47.81 48.72 48.02 46.82 48.18 48.48 47.95 48.21 47.46 45.75 45.69 46.32 46.21 46.03 45.20 44.27
50.68 50.94 51.11 51.19 51.72 53.02 52.88 52.45 50.94 52.50 53.38 53.28 53.53 41.13 49.12 52.41 53.91 53.32 53.86 53.04 53.38 54.01 52.56 50.43 49.91 49.75 45.99 43.99 43.64 42.02 39.42 37.12 38.91 38.13 42.39 45.75 47.48 47.66 47.79 47.37 47.31 46.09 46.99 46.89 46.88 46.21 46.95 46.81 46.17 46.35 46.44 46.49 45.60 45.60
50.98 50.47 52.00 52.92 53.43 52.61 52.29 51.82 51.67 55.47 56.59 54.52 53.72 50.68 52.21 50.92 49.56 50.11 51.25 51.45 54.82 55.24 54.72 52.72 48.22 44.81 42.08 42.84 40.26 38.97 37.14 35.46 39.85 44.17 47.17 48.34 47.07 47.95 47.88 48.49 48.22 48.33 46.71 46.75 47.30 46.95 46.85 45.29 45.26 46.17 47.60 45.76 46.19 46.22
50.11 51.98 52.50 52.75 51.71 52.55 52.46 54.25 56.30 54.70 54.54 53.40 52.51 54.75 54.21 54.35 49.92 52.46 52.40 51.27 56.38 52.41 48.50 48.65 44.25 42.23 46.41 41.32 39.89 42.70 40.28 42.93 44.86 47.22 48.28 48.71 48.39 48.19 48.06 48.95 48.91 48.43 48.39 46.48 46.71 47.77 46.89 48.03 46.16 44.90 44.37 46.16 46.93 46.94
52.26 53.09 52.00 51.66 51.33 53.38 56.69 53.63 55.99 55.27 52.24 54.31 52.04 54.46 55.93 54.96 54.27 54.86 53.97 55.93 55.47 52.96 51.02 47.09 50.12 44.28 41.71 39.01 41.02 44.97 47.10 47.35 48.69 48.99 46.51 48.18 49.80 49.89 49.38 48.98 49.11 48.74 48.36 48.85 48.27 47.46 47.36 46.55 46.14 43.81 45.95 46.16 45.64 46.39
50.68 50.96 51.56 51.51 50.05 50.10 56.18 56.80 56.61 50.94 53.23 55.05 56.38 57.19 56.52 54.86 55.04 56.98 57.18 58.76 56.61 56.38 53.08 50.43 46.08 43.83 44.40 46.27 46.08 47.51 49.01 48.56 47.73 49.30 48.84 49.68 50.68 49.70 48.99 48.42 48.00 48.32 48.99 46.46 47.35 46.19 45.40 46.89 45.26 44.40 45.47 45.65 43.96 44.83
50.15 50.38 50.79 50.74 50.77 53.25 54.25 56.06 60.96 56.58 52.91 55.99 57.78 56.40 56.06 56.56 58.19 56.52 56.48 55.81 55.72 53.46 50.05 47.52 46.91 48.14 48.01 49.12 50.55 49.53 49.99 51.27 48.84 47.46 47.16 47.57 47.70 47.29 48.32 47.29 47.16 46.66 47.28 47.95 47.61 45.38 46.44 45.08 46.64 44.97 45.35 44.87 43.94 43.17
54.73 54.61 51.87 52.42 52.38 54.76 55.20 55.90 57.21 57.61 56.64 56.16 54.66 53.47 52.42 56.25 54.49 53.66 52.50 56.89 51.12 50.42 48.83 50.66 50.89 52.05 53.90 54.03 53.91 53.71 52.67 51.55 49.18 48.03 47.49 46.24 48.48 47.63 47.08 46.94 46.84 45.47 44.42 43.48 44.65 44.40 44.74 44.86 43.99 46.03 45.19 44.68 45.67 45.39
57.94 54.40 58.68 54.92 56.12 57.89 56.33 58.66 55.27 59.11 55.52 55.70 54.49 54.03 52.55 51.44 52.65 52.49 55.96 53.41 51.42 51.71 53.03 52.01 52.79 52.78 52.99 53.24 53.18 54.24 53.54 53.55 51.71 50.22 46.59 47.02 45.94 45.98 45.55 45.46 45.50 44.67 44.24 45.35 44.82 42.92 43.19 45.02 45.42 44.40 45.14 44.65 44.59 44.81
54.84 56.45 58.15 58.72 55.33 50.99 48.94 60.50 55.17 53.92 51.33 53.59 54.56 51.18 53.14 51.57 54.25 56.30 50.87 52.39 54.19 56.15 55.99 54.90 54.73 55.08 53.42 54.27 55.09 54.06 53.55 53.02 50.49 49.48 48.22 47.21 46.67 45.69 44.88 44.28 44.51 44.53 44.16 44.93 46.59 44.98 44.89 42.95 44.27 45.34 45.90 45.34 45.15 44.03
53.29 55.86 54.80 53.77 53.01 47.73 56.59 54.93 56.52 54.68 55.57 50.70 50.92 50.50 50.82 53.61 54.08 52.65 48.44 51.24 52.89 54.51 53.59 55.22 55.09 53.30 53.93 55.14 52.09 51.87 51.00 50.10 48.30 47.89 47.61 46.53 45.16 44.62 45.31 45.06 44.72 44.78 46.17 45.96 45.04 44.67 45.01 44.98 44.13 45.21 44.67 44.23 43.93 43.03
49.08 46.98 49.17 39.04 53.79 53.07 51.69 52.19 53.40 52.38 48.90 49.85 49.69 49.18 48.68 51.60 49.07 49.70 48.24 50.01 51.93 51.63 51.35 52.39 51.77 49.38 46.81 46.53 46.82 47.27 49.62 48.29 46.23 44.81 46.95 47.07 45.25 44.89 44.57 44.58 44.69 45.37 46.28 44.82 44.65 43.49 44.11 46.15 45.75 45.03 43.95 44.09 43.67 44.07
40.36 49.98 43.88 49.82 50.97 49.29 50.63 49.66 51.23 50.77 49.54 48.20 49.88 50.86 51.94 48.76 47.18 46.68 49.62 51.14 52.75 52.44 49.72 49.13 48.15 47.26 45.58 46.25 45.66 46.62 47.44 48.65 47.19 44.48 45.21 45.81 45.59 44.25 43.00 41.87 42.22 43.51 46.13 45.97 45.04 44.54 45.04 44.67 44.23 44.18 43.53 43.42 41.79 43.85
42.09 48.18 53.21 57.07 54.51 53.50 51.88 53.11 54.01 52.01 49.16 47.56 48.53 48.39 48.13 41.02 41.91 49.39 51.90 54.29 54.16 51.29 50.09 50.05 48.79 47.15 46.44 46.28 47.59 48.46 48.14 48.39 47.66 45.60 46.76 46.35 46.26 46.04 44.17 41.80 40.81 44.42 46.68 46.58 45.34 45.11 44.82 44.40 44.48 44.12 43.68 44.05 44.25 44.20
50.29 52.56 49.98 53.29 53.28 54.30 51.90 52.13 51.95 48.49 48.16 50.46 50.12 47.69 47.19 46.12 46.76 52.89 53.59 55.29 54.89 50.70 49.89 49.43 49.41 48.72 48.05 48.09 48.41 48.16 48.02 48.56 48.98 47.61 46.46 46.08 46.13 45.13 45.11 44.83 45.43 42.03 45.59 44.99 46.17 46.32 46.35 45.14 44.43 44.23 43.90 43.24 43.58 44.29
49.86 52.94 53.40 50.93 52.89 53.62 53.95 52.48 49.22 51.43 53.00 51.22 48.98 49.66 51.21 54.77 54.34 53.25 53.84 53.84 55.07 51.20 49.05 48.35 48.41 48.62 48.14 48.48 48.34 47.53 48.01 48.30 47.17 44.21 42.84 41.47 41.94 43.55 46.67 46.30 43.95 45.56 44.84 42.70 38.01 40.44 42.89 43.88 44.50 44.67 44.91 44.18 44.12 43.84
49.78 53.06 50.90 51.50 51.52 51.48 54.30 56.36 53.40 54.18 55.36 54.16 52.94 52.80 52.93 52.77 53.08 53.40 54.04 54.38 53.73 52.19 50.03 49.41 49.23 48.71 47.51 46.37 45.02 45.51 46.73 47.66 47.04 46.22 43.20 41.98 42.78 45.50 46.56 46.54 45.86 45.83 45.46 45.00 44.33 43.83 41.32 44.59 43.39 45.11 43.95 43.32 43.14 43.03
53.71 53.22 52.67 53.22 53.06 53.86 54.68 56.40 56.45 56.14 56.56 54.63 53.67 52.81 51.97 51.65 53.29 55.25 55.64 56.96 54.41 53.04 50.49 47.82 46.73 46.82 46.38 46.14 45.98 44.21 43.27 47.48 48.11 48.01 47.55 46.69 46.44 46.77 46.88 47.18 47.07 46.91 46.73 46.42 46.02 44.93 44.49 44.55 43.97 43.70 43.23 42.45 42.66 41.86
53.75 53.61 52.97 52.12 52.31 56.34 55.59 53.40 53.85 54.77 53.75 52.56 53.00 52.71 51.56 51.78 48.46 52.82 56.75 56.56 54.20 50.92 46.62 48.29 46.41 45.14 46.70 47.48 47.36 46.62 43.39 45.62 44.63 44.50 47.80 47.14 47.28 48.24 48.36 47.53 47.08 46.84 46.94 46.01 45.81 45.22 44.78 43.77 43.02 42.49 42.22 42.88 43.57 43.35
56.11 55.40 56.05 54.41 52.81 51.80 52.78 51.95 50.93 51.50 52.04 52.08 52.81 52.99 53.20 52.00 48.85 51.80 57.69 57.87 54.50 50.85 48.48 48.19 47.54 47.90 49.07 47.75 46.56 44.61 42.79 42.22 38.50 37.37 37.62 37.29 37.52 40.67 45.31 46.66 47.40 47.23 46.74 45.92 45.07 44.88 44.45 44.13 43.29 44.14 44.42 43.82 43.25 43.06

GFSWCAN_sfc_wetblb_060.txt.gz
Wetbulb
55.75 54.56 53.95 53.64 53.04 53.06 53.19 52.86 52.48 53.14 53.72 54.05 54.82 55.69 56.18 55.85 55.47 50.13 49.21 51.92 47.76 43.23 45.42 47.81 47.96 43.39 42.51 40.06 36.18 39.22 37.74 37.99 35.08 29.33 32.02 31.71 30.88 32.92 30.65 33.10 32.35 30.76 27.67 29.10 29.00 28.77 25.84 39.71 39.33 33.50 36.57 38.78 39.75 39.14
55.51 54.19 53.68 53.06 52.71 52.89 53.04 52.82 52.46 52.94 53.41 53.89 54.22 55.26 55.78 55.52 55.23 53.23 47.50 52.40 51.76 46.21 45.79 50.31 52.00 51.95 48.73 46.55 42.01 40.44 38.28 37.96 37.59 34.05 34.42 30.56 32.10 33.97 32.08 27.06 37.50 28.61 31.09 28.14 32.46 28.89 36.86 37.98 37.70 39.66 40.49 38.91 38.98 39.03
55.07 53.73 53.19 52.53 52.38 52.56 52.84 52.82 52.60 51.79 52.96 53.68 54.05 54.41 55.27 55.39 55.33 53.58 46.92 48.84 50.01 46.03 45.81 46.14 47.51 50.98 49.17 49.70 48.42 41.18 40.78 42.27 40.22 41.20 35.88 35.16 30.79 33.15 29.14 31.78 34.24 36.33 35.77 32.86 33.31 34.91 35.84 39.11 41.57 41.89 41.51 40.14 40.12 40.39
54.51 53.63 52.97 52.21 52.02 52.34 52.81 52.96 52.69 51.86 51.79 52.40 53.72 54.38 54.95 55.49 55.13 54.50 46.91 48.97 49.12 46.64 41.97 44.22 53.12 47.53 52.10 49.11 49.25 47.72 45.31 46.21 43.84 41.63 36.53 35.88 33.33 35.07 27.88 33.07 34.57 34.84 36.35 35.15 34.54 36.64 38.42 39.58 40.48 42.06 41.83 42.27 41.24 41.89
54.13 53.40 52.53 51.75 51.79 52.31 52.77 53.03 52.56 51.71 51.73 51.94 52.79 54.17 54.76 55.33 54.64 52.19 49.12 49.77 51.27 49.07 42.20 43.01 47.42 50.55 51.17 48.99 48.79 48.39 46.53 44.66 42.44 40.85 37.98 36.69 38.36 34.96 35.18 37.19 34.74 37.96 35.05 33.51 30.00 35.80 36.42 37.85 40.76 43.48 41.67 40.98 41.93 41.17
53.58 53.00 51.93 51.58 51.75 52.11 52.63 52.86 52.57 51.79 51.63 51.69 51.92 53.31 54.21 54.66 54.09 48.76 47.16 53.46 53.66 53.74 47.45 40.08 46.94 47.97 49.65 49.03 47.94 46.43 45.17 44.07 43.30 41.09 38.97 43.88 42.73 37.50 32.11 33.42 35.89 37.59 39.15 39.20 37.04 39.69 40.25 41.96 42.59 44.36 42.16 41.92 42.35 42.03
53.52 52.61 51.57 51.35 51.69 52.17 52.57 52.76 52.82 52.59 51.94 51.63 51.83 52.54 53.42 53.67 48.60 46.55 47.01 50.27 51.45 52.19 47.78 43.93 42.49 48.67 51.06 49.89 47.88 46.50 49.42 45.83 43.60 41.54 40.20 39.69 39.33 39.07 33.00 27.81 36.90 39.22 40.54 41.20 42.34 41.11 39.80 40.87 39.75 43.65 43.53 43.47 43.35 42.90
53.30 52.15 51.31 51.16 51.69 52.00 52.34 52.73 52.82 52.69 51.90 51.62 51.98 52.17 52.87 53.28 50.93 46.62 49.18 51.40 51.25 49.40 49.44 43.05 42.44 45.69 49.77 46.16 45.41 49.49 46.48 45.51 43.80 43.45 41.17 38.80 38.63 36.97 29.48 36.38 39.16 41.35 41.32 40.77 41.34 42.38 42.10 42.07 42.75 42.98 43.40 43.64 41.36 40.68
52.66 51.56 50.83 51.06 51.37 51.61 52.13 52.53 52.55 52.41 51.61 51.71 52.01 52.65 49.80 47.00 45.36 49.05 55.59 55.29 54.04 49.99 44.10 45.32 40.39 40.05 51.30 49.58 49.13 48.71 48.29 42.28 47.23 43.25 40.42 41.19 34.01 28.94 34.47 37.11 39.37 40.65 39.59 39.33 41.11 41.18 41.20 40.99 42.16 42.38 42.63 42.69 40.79 40.69
51.94 51.01 50.85 50.94 51.04 51.63 51.94 52.18 52.25 52.25 51.84 51.71 49.26 47.72 45.75 50.49 56.69 54.99 48.39 44.88 45.07 45.63 45.03 40.31 45.04 41.52 45.62 45.88 43.53 46.24 46.74 43.27 39.38 43.07 44.58 36.56 33.90 37.39 38.93 41.87 42.62 42.23 41.78 41.60 39.32 37.18 38.45 38.82 40.43 40.74 40.94 43.00 41.75 42.28
51.18 50.64 50.49 50.85 51.15 51.49 51.57 52.00 52.04 51.96 50.64 46.65 47.54 48.65 52.42 55.93 49.82 47.66 44.73 45.08 46.29 44.18 43.94 44.41 44.56 42.24 47.82 40.29 39.97 44.68 41.85 40.93 35.72 40.07 40.60 35.72 33.68 40.09 44.10 44.00 44.12 43.26 43.64 43.04 42.81 42.64 41.20 41.27 41.28 41.24 41.21 42.69 43.04 42.72
50.55 50.13 50.43 50.56 50.96 51.26 52.00 51.60 51.52 47.98 48.48 48.47 47.41 49.34 50.10 48.56 48.30 44.95 45.44 46.37 44.92 42.05 47.16 45.14 45.44 46.62 46.31 49.14 43.19 41.27 40.10 42.22 34.01 42.42 36.44 31.88 37.15 44.62 44.18 43.85 44.66 44.37 44.90 45.10 45.65 43.86 43.90 44.14 43.68 42.56 42.61 41.84 42.07 43.18
50.27 50.15 50.24 50.61 50.84 51.05 52.08 51.09 50.83 50.57 49.42 48.90 48.17 47.71 48.91 48.11 39.62 43.73 37.82 40.55 40.93 45.78 48.09 47.52 46.03 46.15 45.36 43.58 39.30 39.80 39.05 36.65 39.62 35.15 32.05 34.32 42.56 46.16 44.38 43.74 43.93 43.83 45.43 46.09 45.60 45.38 45.36 44.84 44.90 43.11 42.74 43.90 43.57 42.62
49.99 50.26 50.48 51.03 51.26 51.26 52.31 51.10 50.53 49.08 45.36 47.05 48.51 37.84 44.87 42.74 46.20 46.99 46.91 46.87 49.10 49.42 47.05 46.12 44.47 43.02 43.87 40.32 40.42 35.64 38.25 40.72 34.78 30.88 33.16 39.18 41.08 42.91 44.16 44.29 44.09 43.23 44.18 45.59 45.57 45.89 45.42 44.89 43.78 43.83 43.73 44.51 44.60 43.80
50.20 50.40 50.75 50.53 51.73 51.70 52.68 51.92 50.30 48.71 47.43 48.16 48.75 38.81 44.17 48.99 49.80 50.60 50.09 49.09 50.59 49.58 47.59 45.63 44.66 43.07 40.09 38.79 38.72 36.82 35.44 32.41 32.68 31.00 36.88 40.06 41.66 43.35 42.66 42.07 42.25 43.35 42.76 43.26 43.26 43.46 43.10 43.46 42.40 43.03 42.73 43.11 44.64 45.53
50.49 50.47 50.57 52.34 52.76 52.61 51.74 51.25 48.92 49.49 51.24 49.50 48.58 45.11 46.66 48.30 47.16 48.99 48.95 47.61 48.91 47.51 47.47 45.43 41.33 39.11 37.70 37.72 35.65 33.76 32.83 29.05 34.12 37.95 41.12 41.62 42.23 43.15 41.42 42.60 43.23 43.33 42.57 42.53 42.81 42.99 43.53 41.81 41.28 41.16 42.31 42.14 43.87 43.64
49.96 49.74 52.26 51.98 51.47 52.12 51.87 49.86 50.36 50.17 50.92 50.12 47.19 49.23 48.79 50.34 49.33 49.97 47.89 48.32 48.95 45.19 41.09 41.30 38.74 37.28 40.51 36.78 33.76 37.04 34.78 37.33 40.06 41.67 43.48 42.77 42.67 46.44 46.83 44.85 43.72 43.55 42.82 42.09 41.03 42.58 43.77 42.39 40.38 38.75 40.55 40.96 42.68 42.79
48.79 51.29 51.94 51.49 49.72 50.92 51.03 49.05 51.35 53.23 50.10 50.08 46.49 48.21 52.28 51.36 48.50 48.30 50.53 50.33 47.60 45.06 43.61 42.07 43.01 38.20 36.11 35.57 34.60 38.63 40.72 41.63 42.46 42.54 41.91 42.57 43.66 45.59 48.69 46.46 45.98 43.56 42.91 43.38 43.08 43.33 45.24 43.15 41.31 38.54 40.66 41.51 41.58 41.02
47.95 48.29 51.02 51.13 47.96 44.67 50.64 52.59 51.21 46.69 48.03 48.47 49.29 51.75 53.53 53.01 53.25 52.30 51.25 50.63 49.01 48.56 45.92 43.61 40.74 37.94 38.67 40.16 40.23 40.56 41.70 42.03 41.70 42.04 41.56 42.95 43.33 43.03 44.64 46.14 46.12 44.68 44.58 43.74 41.75 41.13 41.74 43.45 43.88 41.33 40.76 41.00 40.23 40.45
50.18 50.54 51.19 50.91 49.60 46.02 48.59 50.64 54.21 50.70 49.32 50.79 52.02 50.71 51.23 50.37 52.92 53.85 50.64 50.08 48.23 46.71 43.00 40.77 40.22 41.89 42.80 43.17 43.80 42.93 43.64 43.06 42.17 40.99 40.31 41.19 42.38 42.53 43.00 43.95 43.95 44.67 44.75 44.62 43.14 42.16 41.47 42.37 43.96 42.96 40.72 40.33 39.37 39.01
50.43 50.57 50.77 49.52 47.43 48.78 50.14 49.94 51.82 53.28 51.54 50.01 51.47 50.55 50.29 51.32 50.18 48.90 47.75 49.03 48.55 43.48 42.22 42.85 43.51 45.63 47.15 46.94 46.75 46.67 45.00 44.19 42.32 41.72 41.78 39.75 41.83 40.39 42.96 42.16 42.29 40.58 40.29 40.77 40.80 39.93 41.19 41.16 43.49 42.84 40.21 39.25 39.96 40.88
49.72 53.67 51.93 51.26 51.74 53.21 49.62 51.54 48.90 51.00 49.24 49.15 48.84 50.61 48.65 46.71 47.62 47.99 50.24 46.95 45.24 45.89 46.23 45.28 46.29 46.69 47.04 46.68 46.06 46.95 46.65 45.86 43.69 43.46 42.87 41.33 38.56 41.06 40.72 39.50 39.98 39.38 41.54 40.59 38.91 38.84 40.91 43.59 44.67 44.27 39.93 40.06 40.56 40.60
51.17 53.89 53.99 54.95 51.48 46.99 44.51 53.51 50.13 50.19 46.75 47.56 49.52 49.47 49.94 50.41 51.44 53.07 47.36 47.17 46.87 48.35 48.25 48.39 49.06 48.36 46.41 47.75 47.62 47.11 46.16 45.37 42.72 41.77 43.72 42.35 41.37 38.85 37.20 40.33 42.55 43.13 41.90 42.44 41.94 41.09 41.12 41.25 42.52 44.24 44.13 40.10 39.80 39.53
53.77 51.69 50.59 51.69 49.90 43.29 51.17 49.09 51.75 49.28 49.45 49.45 49.24 47.83 48.72 50.01 52.37 49.59 45.01 45.89 47.55 49.89 47.23 46.97 49.59 46.93 46.05 44.53 41.69 41.88 42.48 42.90 40.66 40.95 41.39 39.65 38.17 38.33 38.96 39.31 41.04 42.98 43.71 39.25 39.14 39.88 40.44 41.35 42.01 43.14 43.51 40.82 40.38 39.25
45.25 44.21 45.73 38.04 47.83 48.63 48.59 48.01 48.36 48.62 46.30 48.29 48.83 47.65 47.21 50.14 47.34 46.87 45.32 45.44 47.02 48.19 46.52 44.49 43.70 42.80 40.17 39.36 40.88 41.11 41.04 40.59 39.09 38.71 38.67 39.38 38.24 37.96 37.52 38.27 38.39 38.09 40.23 39.61 38.79 38.90 40.57 41.13 41.73 40.51 41.69 39.47 39.87 40.68
37.95 45.62 42.85 47.55 46.28 45.13 45.91 47.13 48.82 48.20 48.05 47.70 48.66 49.72 49.85 46.18 44.91 43.31 45.77 47.47 48.77 44.68 42.86 41.45 40.27 39.09 38.68 41.97 39.69 38.49 38.81 39.26 38.87 37.42 36.97 39.41 38.69 37.22 36.48 36.73 36.60 38.26 40.11 40.39 39.96 40.21 40.75 40.83 39.86 40.09 40.00 40.59 39.72 39.84
38.83 44.55 47.85 50.68 47.68 48.44 47.56 49.33 50.96 49.58 48.03 47.27 48.13 48.30 46.96 40.77 40.09 44.41 48.06 50.96 47.79 44.42 43.00 41.66 40.98 40.49 39.70 38.88 39.54 39.48 39.93 39.95 38.97 38.34 38.49 38.66 38.01 37.66 37.27 36.49 36.06 38.17 40.44 41.53 41.41 41.24 40.46 40.83 39.84 39.91 39.68 39.04 39.42 39.62
46.56 46.82 45.29 46.71 46.93 49.89 47.94 48.68 50.04 47.47 47.87 49.98 49.09 46.69 46.59 46.00 45.86 49.27 50.86 52.67 48.23 43.47 42.09 40.99 41.09 41.59 40.50 40.58 41.05 40.65 40.17 40.51 39.78 38.89 37.98 37.18 36.85 38.03 38.56 39.34 39.18 39.13 37.46 39.13 39.94 41.28 40.53 40.03 40.01 40.08 39.71 38.84 38.26 39.51
45.99 47.59 47.25 45.11 46.89 47.50 50.66 49.98 49.50 50.25 51.58 51.02 48.48 47.10 47.23 52.20 51.80 49.25 50.46 48.94 48.01 42.96 40.83 40.55 39.82 40.28 39.94 39.70 39.68 40.18 41.08 41.06 39.15 36.15 35.06 33.72 34.26 35.64 37.74 38.78 38.48 37.12 35.93 36.34 38.09 39.12 40.73 40.32 40.43 40.20 40.35 39.08 38.10 38.48
44.58 47.11 44.75 46.12 46.53 48.16 50.07 52.70 51.61 52.06 53.46 52.85 52.30 50.98 49.31 49.23 50.55 50.12 48.43 48.16 47.93 47.31 44.73 42.95 42.11 39.84 37.99 37.36 36.38 38.22 40.01 39.97 39.98 40.15 35.72 34.84 36.64 37.99 39.02 38.77 38.86 37.62 36.55 37.46 37.37 37.49 40.42 40.38 40.00 39.29 38.86 37.50 36.82 36.61
47.78 46.47 45.41 46.86 50.27 51.96 52.81 53.72 54.10 54.94 54.76 52.74 52.70 51.37 50.32 48.70 49.04 49.74 49.95 50.88 50.11 43.90 41.23 39.17 39.03 40.01 39.44 37.90 36.73 37.54 36.74 38.69 39.87 40.53 40.03 38.96 39.42 39.85 39.94 39.74 39.68 39.62 39.56 39.53 39.65 39.09 39.15 39.02 38.19 37.84 37.48 36.78 37.34 36.85
47.45 47.43 48.46 49.67 50.95 53.26 53.29 50.93 52.20 51.94 52.03 51.75 50.63 51.23 48.53 47.16 45.17 46.59 50.30 49.12 44.84 43.19 42.21 40.36 39.76 38.93 40.04 39.51 39.97 39.63 38.84 37.26 37.72 40.08 40.61 40.35 39.77 40.16 40.73 40.03 40.28 40.41 40.70 40.81 40.09 39.51 39.50 37.98 37.08 36.98 37.16 38.21 38.25 38.15
52.43 53.04 53.44 51.62 50.37 50.89 50.73 49.87 49.96 48.57 50.66 49.87 49.23 47.95 47.83 47.29 44.55 47.03 49.73 48.55 46.21 43.44 40.83 40.08 41.45 42.30 40.31 39.61 38.49 37.39 37.01 35.81 36.65 37.34 37.51 38.04 38.08 38.40 39.12 39.64 40.48 41.49 41.25 39.71 39.24 39.41 38.97 38.31 37.38 37.35 38.45 38.39 38.48 38.29

GFSWCAN_sfc_wetblb_063.txt.gz
Wetbulb
55.92 55.58 54.30 53.87 52.98 52.59 52.84 52.76 52.42 52.61 53.13 54.11 54.37 54.83 55.57 55.59 55.28 49.21 48.63 49.54 46.07 41.52 43.48 46.16 46.53 42.47 41.39 38.11 35.09 37.84 36.90 35.88 33.01 27.58 24.17 30.50 29.92 32.13 28.09 32.42 26.33 27.91 24.94 18.37 28.09 25.56 20.52 38.43 37.70 30.40 34.18 37.69 39.46 38.67
55.68 55.28 54.28 53.40 52.71 52.50 52.53 52.59 52.74 51.67 52.36 53.52 54.05 54.63 55.25 55.35 55.25 51.07 47.04 49.62 49.63 45.19 44.00 47.99 50.46 51.42 48.04 45.74 40.47 38.10 35.65 35.71 35.54 30.85 30.62 32.65 31.60 33.83 30.30 17.60 37.34 28.92 27.93 23.83 27.53 26.56 34.58 37.34 36.30 40.96 41.44 39.04 38.66 38.66
55.52 54.91 53.92 53.22 52.36 52.26 52.44 52.53 52.53 51.65 52.41 52.48 53.44 54.20 54.75 55.27 54.97 51.48 45.25 46.61 47.46 44.12 44.25 44.77 46.13 49.96 47.59 47.44 47.50 40.28 39.26 40.33 38.03 38.08 33.53 30.98 23.70 31.33 29.05 30.70 33.82 35.98 35.15 27.72 29.64 31.57 34.40 36.27 38.25 39.76 42.31 41.05 41.30 41.52
55.12 54.75 53.78 52.99 52.11 51.98 52.30 52.74 52.45 51.40 51.09 51.90 52.38 53.60 54.32 55.05 54.73 53.09 45.86 46.47 46.95 44.37 39.50 42.45 50.52 47.31 49.16 47.42 47.48 46.64 44.98 42.86 41.70 39.37 34.80 31.67 27.78 33.35 26.02 29.25 26.81 31.40 37.03 35.08 33.93 34.32 35.66 38.03 39.12 40.11 41.27 43.24 41.88 42.34
54.96 54.30 53.66 52.62 51.69 51.82 52.42 52.60 52.10 51.13 50.88 51.48 52.00 52.61 53.91 54.79 54.07 50.89 47.37 47.67 49.07 46.85 40.09 41.35 46.15 48.74 49.51 47.24 47.09 46.87 46.53 43.19 40.35 38.01 38.20 34.71 37.86 33.60 32.30 34.83 34.55 36.57 33.38 31.29 28.84 34.05 33.60 34.33 39.38 41.68 41.33 42.26 42.25 41.76
54.80 54.00 53.29 51.94 51.36 51.52 52.15 52.55 52.31 52.18 51.04 51.25 51.74 51.92 53.15 53.95 53.03 48.43 46.90 50.27 50.43 52.53 44.74 39.76 45.05 45.84 47.64 47.02 45.01 45.98 46.63 45.33 44.67 40.87 38.50 41.92 43.24 38.69 33.80 31.46 34.87 36.29 37.01 36.44 34.80 36.83 37.80 39.30 41.18 42.78 41.93 42.89 43.51 42.49
54.46 53.78 52.93 51.66 51.34 51.44 51.82 52.34 52.35 52.21 52.09 51.61 51.78 52.19 52.29 52.70 47.33 45.75 45.97 48.76 50.22 49.52 47.09 40.14 39.88 45.85 49.26 46.76 46.04 45.14 47.72 47.04 44.90 42.43 39.91 42.00 40.46 40.46 36.78 26.99 35.98 37.25 39.30 39.02 39.47 37.68 38.14 40.24 39.16 41.22 42.62 43.34 44.96 42.54
53.97 53.34 52.39 51.30 51.15 51.29 51.80 52.20 52.51 52.37 51.27 51.39 51.91 51.68 51.92 52.41 50.09 46.06 47.97 50.99 50.26 47.63 48.37 40.11 39.68 42.70 47.10 42.98 44.31 46.86 44.23 47.02 46.48 45.02 43.16 40.39 40.44 39.55 34.39 35.70 36.86 39.46 39.68 39.41 40.42 40.93 41.27 40.93 40.33 41.04 42.17 43.25 42.38 39.94
53.53 52.75 51.55 50.81 50.64 50.87 51.42 51.74 52.16 52.13 51.67 51.54 51.52 52.11 48.68 45.98 44.09 47.53 54.97 53.42 52.88 49.44 40.02 39.70 36.21 36.91 47.24 45.41 44.95 44.81 48.33 43.27 47.44 42.84 42.76 42.38 36.85 33.34 36.85 36.54 38.21 39.90 39.89 39.68 40.40 40.40 40.28 39.66 40.05 40.08 40.92 41.25 40.91 39.63
52.98 51.69 50.87 50.45 50.45 50.83 51.20 51.43 51.89 51.89 51.42 51.27 49.32 46.52 45.10 48.10 54.67 54.60 48.71 44.81 44.08 43.49 43.14 39.98 41.76 39.63 43.39 42.27 41.07 43.72 45.23 42.23 39.29 41.72 44.75 37.67 34.60 38.86 38.83 37.89 40.55 41.22 41.03 40.14 37.71 37.19 37.27 37.50 38.10 38.70 39.65 40.99 41.62 40.52
51.72 50.88 50.35 50.41 50.45 50.90 51.06 51.80 51.70 51.32 50.52 46.07 46.05 46.14 49.35 54.75 48.75 46.00 43.61 44.56 45.40 42.61 41.52 43.23 42.68 40.91 45.61 40.33 41.61 44.70 40.97 42.09 34.05 35.59 38.14 33.52 33.15 40.95 44.68 43.03 42.78 42.58 41.83 41.61 42.40 42.14 39.72 39.45 39.66 40.09 40.76 41.67 41.61 41.88
50.85 50.14 50.00 50.07 50.46 50.69 51.41 50.92 51.04 47.47 47.67 48.21 47.76 47.38 47.87 46.49 45.95 45.31 44.36 44.45 43.44 41.10 44.56 42.75 43.35 43.49 44.51 47.26 43.67 42.25 40.37 40.95 34.80 38.70 35.34 25.81 33.59 40.03 43.45 44.38 43.73 43.35 43.25 44.06 43.61 43.26 43.29 42.82 42.37 41.87 41.42 41.30 40.92 41.45
50.01 49.79 49.84 50.14 50.48 50.55 51.34 50.84 50.63 50.04 48.54 47.13 46.31 45.59 46.11 45.46 40.12 41.81 37.71 38.66 41.98 43.85 45.72 45.02 43.18 43.65 43.91 42.10 40.40 39.63 39.31 35.23 38.22 33.26 27.95 30.39 36.86 42.28 42.73 43.50 43.94 44.27 43.41 44.42 43.89 44.18 44.20 43.88 44.37 43.34 42.26 41.94 41.81 43.27
49.34 49.71 49.95 50.24 50.68 50.91 51.01 50.83 50.31 49.06 45.50 45.01 46.26 38.58 43.67 41.13 43.77 45.44 44.67 44.34 46.75 45.92 45.32 44.75 43.14 42.17 41.76 39.13 38.93 34.27 37.12 38.20 33.51 30.03 26.62 35.73 39.02 41.12 42.18 43.90 43.21 43.22 43.31 44.06 44.69 44.95 44.53 44.46 43.78 43.70 43.36 42.27 42.15 42.46
49.69 50.20 50.36 50.47 51.45 51.48 51.57 50.51 50.15 48.41 46.81 45.79 46.36 38.58 43.50 46.27 47.16 48.31 48.48 47.15 48.17 48.14 45.82 43.46 45.84 41.66 38.90 37.93 37.29 35.74 33.83 31.64 30.74 29.42 34.69 39.08 40.13 40.45 41.79 42.53 41.62 42.35 42.41 42.05 42.75 42.84 43.73 42.98 41.89 40.57 41.55 41.46 42.31 43.57
50.20 50.26 50.25 51.76 51.86 51.90 51.50 50.44 48.20 47.89 48.29 46.68 45.84 43.44 44.78 45.64 46.35 47.71 46.65 45.58 47.45 46.47 45.36 43.48 39.62 39.57 36.71 36.48 34.67 32.78 32.03 28.50 32.67 36.16 39.29 40.15 40.55 40.28 42.13 43.41 43.84 44.57 42.08 41.59 41.58 41.88 41.98 41.62 40.69 38.87 40.57 41.07 42.62 42.71
49.97 48.40 51.88 51.28 50.93 51.46 50.99 48.58 47.89 48.02 48.21 48.72 46.88 47.04 45.97 47.72 47.69 47.69 47.31 46.12 47.06 43.04 39.84 40.27 37.88 36.60 38.40 35.33 33.77 35.57 33.13 35.58 38.00 40.22 40.84 40.23 40.41 40.49 45.49 46.92 47.30 46.16 43.80 41.29 40.92 40.81 39.90 40.76 39.70 38.18 38.78 40.30 41.48 41.75
48.70 51.43 51.51 50.57 48.85 50.51 49.28 48.23 49.55 51.71 48.65 48.71 45.34 45.87 50.71 50.54 49.60 49.59 48.90 48.89 47.63 44.20 42.49 41.90 42.87 38.47 35.07 34.00 34.14 37.73 38.82 40.15 42.29 40.69 40.63 40.39 41.40 41.67 44.25 42.66 43.05 43.02 44.51 44.78 44.88 44.85 43.79 40.89 38.43 37.76 38.60 39.91 40.09 39.05
47.46 48.08 50.37 50.66 47.69 42.85 46.86 50.77 48.68 44.88 46.59 47.24 47.24 48.14 49.90 51.36 51.90 50.92 50.70 49.40 48.18 47.60 46.32 43.43 40.81 38.05 37.33 38.71 39.89 40.20 40.84 43.42 40.02 39.84 39.47 40.75 40.86 41.19 41.78 42.73 43.54 43.13 44.10 44.32 43.93 43.01 42.59 41.06 38.51 39.03 39.48 39.66 38.93 38.88
50.20 50.66 51.13 50.72 48.86 42.77 44.52 47.70 51.45 47.27 46.99 48.74 50.67 48.95 48.82 47.33 48.81 50.25 49.64 48.78 46.90 45.70 44.35 42.31 41.55 42.55 40.80 41.38 42.77 43.88 42.98 41.41 40.57 39.11 37.97 39.66 40.42 40.23 39.71 39.39 40.55 40.04 41.07 41.54 42.20 42.39 42.16 40.85 42.80 41.29 39.84 39.15 38.74 39.11
49.49 50.12 50.71 48.20 46.00 47.72 47.84 47.58 48.29 50.79 49.41 48.00 48.59 48.24 48.01 49.51 48.89 48.50 47.42 46.86 46.85 45.71 44.96 45.11 45.64 45.04 45.66 45.33 45.14 44.36 42.32 41.31 39.92 39.87 39.88 37.54 38.92 41.50 43.07 40.80 40.51 39.40 37.54 37.44 37.92 37.76 39.16 38.84 42.50 44.14 41.46 38.89 38.89 39.55
45.50 52.26 49.93 49.42 49.39 49.79 46.50 48.29 45.63 46.42 47.15 46.50 46.81 47.74 47.29 47.40 48.30 48.99 50.48 47.70 45.58 46.33 47.27 47.23 45.44 46.69 46.22 45.09 44.64 44.43 43.99 41.39 40.16 39.21 40.36 39.44 40.26 37.07 37.30 40.21 41.33 39.86 41.76 40.78 39.08 37.97 40.33 44.18 44.98 43.06 41.32 39.55 39.91 40.00
48.86 51.93 52.01 52.09 49.25 45.65 44.52 51.49 48.69 48.43 44.95 45.72 47.67 46.99 48.52 47.19 50.25 52.69 47.55 47.93 47.58 48.67 47.29 47.66 47.33 47.03 46.50 45.58 43.50 43.06 43.79 40.92 38.73 38.44 38.37 36.85 36.09 35.62 37.24 39.37 40.53 40.31 38.57 39.24 39.39 38.99 38.55 40.81 43.26 44.06 42.50 39.39 39.10 38.27
49.55 49.92 48.97 49.63 48.22 43.17 49.05 46.96 49.12 47.45 49.54 46.31 45.74 44.95 47.19 47.19 49.13 48.20 45.79 45.25 46.49 46.65 44.46 47.57 47.43 43.34 41.78 40.71 39.46 38.93 39.09 39.43 38.92 37.77 37.14 37.14 36.49 36.12 36.71 37.94 38.70 39.47 38.80 36.74 38.08 38.32 39.57 41.70 42.26 42.73 43.57 40.61 38.63 37.17
43.60 43.03 44.56 37.13 46.06 47.42 46.88 47.54 47.22 46.54 44.13 45.45 45.51 45.89 45.89 46.21 44.91 45.33 44.66 45.28 46.47 43.85 43.36 43.59 41.19 41.25 40.08 37.83 38.11 37.87 37.93 38.60 37.81 36.91 36.29 36.19 35.06 35.48 36.19 36.44 36.63 36.81 38.25 37.21 37.59 38.25 38.72 39.35 39.39 41.04 41.75 40.65 39.27 38.68
37.15 44.13 41.75 46.08 44.82 43.86 43.90 44.40 48.18 45.54 45.00 45.82 47.47 46.88 46.61 43.49 43.07 41.64 44.56 46.14 45.63 44.81 41.62 40.22 40.32 37.94 37.71 38.07 37.27 36.41 37.28 37.23 37.81 36.69 36.21 36.45 36.56 36.04 34.93 34.88 34.97 36.63 38.07 38.42 38.25 38.51 38.87 38.43 38.22 38.58 38.40 38.83 38.51 37.86
37.44 42.12 45.47 47.51 45.24 45.31 45.32 46.54 49.14 47.20 47.31 46.93 47.92 45.58 45.33 40.36 40.63 42.56 47.95 48.91 45.23 42.29 40.58 39.88 41.70 40.34 38.80 36.85 35.86 36.52 36.79 37.09 38.87 38.14 37.01 36.54 36.63 37.07 37.13 36.24 35.38 36.93 38.63 40.06 39.64 39.58 38.76 38.40 38.31 38.20 37.67 37.48 37.67 37.51
45.58 44.44 43.55 44.75 44.33 46.60 46.58 47.24 47.37 47.01 47.64 48.44 47.51 46.01 44.93 45.52 45.87 48.92 50.89 51.86 45.95 39.65 39.13 38.18 38.18 40.89 39.14 37.84 37.52 36.73 35.33 36.07 35.86 34.74 35.03 34.69 33.81 34.84 37.17 38.05 36.62 37.63 36.61 38.18 39.89 39.10 38.86 38.52 38.19 38.24 37.76 37.07 36.97 37.93
43.32 45.40 44.28 42.28 43.60 44.28 48.05 47.81 47.38 47.67 49.30 48.55 47.35 45.04 45.80 49.36 50.60 46.94 46.97 45.97 40.98 38.98 38.38 37.91 37.20 37.66 37.37 37.07 36.66 36.36 38.55 38.79 35.55 33.41 32.59 31.56 32.50 35.21 36.04 35.84 35.12 34.30 34.61 36.70 38.21 38.91 40.02 39.06 38.80 38.28 37.77 36.46 35.62 35.47
41.36 44.55 41.85 42.67 43.21 45.60 48.33 49.56 49.29 50.52 52.81 51.18 51.34 49.22 47.01 46.90 47.73 47.81 47.61 46.32 42.09 39.96 39.22 38.59 37.60 37.28 35.50 35.98 35.14 34.82 36.08 37.05 38.45 37.15 34.15 32.88 34.00 35.85 36.61 36.60 36.19 34.24 34.26 36.23 36.82 37.54 39.28 38.69 37.91 37.21 36.37 35.64 35.23 34.70
43.35 42.74 42.34 43.37 46.97 48.21 50.00 51.61 52.43 52.02 51.62 49.97 49.89 48.82 46.72 46.27 46.91 47.63 47.31 46.80 46.82 43.37 40.17 38.21 36.88 36.07 36.03 35.62 36.21 35.79 35.64 36.31 37.32 38.43 37.52 36.47 36.25 37.15 37.75 37.70 37.03 35.59 35.46 36.93 37.55 37.70 37.29 36.63 35.97 35.86 35.58 34.88 35.20 35.01
43.65 43.19 43.06 45.70 46.94 50.09 51.97 49.60 49.63 48.71 48.39 49.50 47.53 48.12 47.10 45.33 44.08 45.56 46.79 44.67 39.75 37.66 38.19 38.12 37.05 36.16 36.40 35.95 36.37 36.60 37.55 36.46 37.34 37.70 38.46 37.57 37.47 37.90 37.92 37.16 37.19 37.82 38.15 38.30 38.25 37.79 37.45 36.30 35.24 35.21 35.78 36.34 36.27 35.62
48.02 49.55 50.07 48.94 48.24 47.43 47.52 48.38 47.74 45.97 46.94 46.65 46.95 47.35 46.53 45.82 43.19 45.21 44.64 42.30 41.92 40.54 37.92 36.93 37.47 37.19 36.79 37.03 36.59 35.52 36.19 36.42 37.15 37.75 38.12 37.90 38.19 37.94 37.15 37.18 38.31 39.40 39.77 38.48 37.76 37.17 36.93 36.15 35.56 35.92 36.78 36.46 36.01 36.09

GFSWCAN_sfc_wetblb_066.txt.gz
Wetbulb
55.38 55.98 55.58 54.56 53.46 52.51 52.46 52.63 52.74 52.42 52.55 54.05 54.40 54.83 55.16 55.16 55.25 49.69 48.15 47.94 45.52 40.75 41.76 45.75 44.93 41.12 39.66 37.14 34.65 37.02 35.25 34.49 31.35 25.48 23.69 29.50 28.73 31.82 27.80 26.64 25.42 22.85 19.06 17.88 28.50 25.25 19.18 38.17 36.77 30.95 33.47 36.71 38.36 38.29
55.16 55.58 55.40 54.54 53.36 52.24 52.30 52.71 52.57 52.41 51.64 53.35 53.93 54.52 54.91 55.05 54.99 50.12 46.04 47.80 48.35 45.03 42.91 46.27 48.23 48.62 47.12 44.84 39.38 36.06 34.89 34.15 34.16 29.97 28.61 30.50 31.36 32.92 28.42 17.54 30.76 25.80 26.28 22.46 25.21 24.74 33.34 37.43 35.87 38.49 39.19 38.20 39.21 39.56
54.80 55.08 55.18 54.28 53.17 52.15 52.09 52.63 52.59 52.24 51.55 52.05 52.69 54.01 54.44 55.05 55.03 49.90 44.42 45.17 46.16 43.53 43.58 44.23 44.81 47.91 46.67 46.61 45.92 39.32 37.92 38.32 35.76 36.07 31.74 29.17 22.72 31.53 25.37 24.72 27.41 34.85 33.14 26.31 27.97 30.87 33.50 35.90 38.17 39.82 40.33 39.47 41.11 41.48
54.26 54.90 55.06 54.09 52.99 51.84 51.88 52.55 52.57 52.07 51.23 51.57 52.01 52.94 54.19 54.62 54.64 51.98 45.34 45.10 46.28 42.86 39.01 41.22 48.91 45.56 48.07 46.43 46.38 44.98 42.27 40.99 39.77 37.65 33.43 30.37 27.50 32.03 27.29 27.98 27.06 30.93 34.87 35.14 33.85 33.55 34.49 36.52 38.34 39.60 40.01 41.27 41.79 43.39
53.88 54.48 54.78 53.99 52.81 51.76 51.90 52.55 52.47 51.87 51.25 51.11 51.52 51.82 53.05 53.85 53.96 49.16 46.26 46.27 47.38 45.49 39.56 40.71 44.66 46.09 46.70 45.65 46.00 45.36 43.79 43.28 42.68 39.94 36.12 32.96 33.69 32.32 31.00 32.12 28.21 34.56 32.60 30.67 28.22 33.51 33.56 34.41 38.94 41.11 40.41 40.82 42.15 42.46
53.34 53.92 54.32 53.55 52.32 51.48 51.75 52.22 52.47 52.35 51.68 51.22 51.34 51.61 52.20 53.24 52.06 47.56 45.53 47.83 48.51 48.81 42.88 38.73 43.46 43.87 46.76 45.10 44.28 44.30 45.43 44.85 44.11 42.19 40.90 40.63 40.25 36.20 31.87 32.37 34.50 35.90 36.38 35.78 34.56 36.06 36.97 38.74 40.29 41.77 41.31 42.19 43.30 43.36
53.34 53.52 54.15 53.62 52.25 51.30 51.36 51.78 52.26 52.21 52.23 51.68 51.57 51.51 51.51 52.09 46.53 45.13 44.68 47.71 49.55 47.35 46.47 38.60 38.37 43.98 47.45 43.89 42.35 43.28 47.46 46.56 45.59 43.76 41.68 42.63 40.78 39.05 36.83 29.60 36.25 37.28 38.46 37.78 38.07 38.86 37.29 39.44 38.94 41.53 42.10 43.03 44.05 43.99
52.98 53.34 53.81 52.94 51.77 51.17 51.38 51.73 52.13 52.24 52.00 50.96 51.17 51.10 51.55 51.89 49.35 45.53 47.41 50.79 51.01 47.55 48.01 39.17 38.24 41.27 45.66 41.69 40.86 45.98 45.78 46.55 46.08 44.61 44.00 41.28 41.24 40.40 34.69 38.57 38.00 39.64 38.76 38.45 38.95 39.65 40.12 40.15 40.59 41.00 41.74 42.07 41.53 41.60
52.58 53.37 53.27 52.11 50.98 50.70 51.02 51.46 51.86 52.00 51.90 50.75 50.63 51.61 47.87 45.53 43.77 47.13 54.37 52.82 52.26 49.25 40.64 39.30 36.20 36.20 44.83 43.01 42.78 43.76 47.17 43.25 46.50 42.67 43.04 42.44 37.83 33.86 38.45 39.36 38.30 39.14 38.90 39.74 40.36 40.27 40.29 39.82 40.55 40.70 40.53 40.57 40.20 40.65
52.81 52.95 52.11 51.01 50.24 50.45 50.87 51.22 51.55 51.62 51.29 50.93 48.89 45.90 45.28 46.68 53.29 53.84 49.06 46.28 44.12 42.77 44.42 42.11 39.87 38.92 42.43 40.63 41.83 44.23 44.61 40.32 39.27 41.33 40.05 35.25 33.68 41.43 42.54 41.59 39.62 40.80 41.56 40.92 38.48 37.44 38.10 38.34 38.69 39.11 39.33 40.63 40.91 40.61
52.73 51.77 50.86 50.28 50.19 50.41 50.72 51.29 51.74 51.23 50.04 44.96 45.36 45.54 48.09 53.08 47.98 46.34 44.26 42.58 44.89 41.92 40.89 42.86 40.20 39.68 44.16 39.86 42.21 41.72 37.56 38.12 35.10 34.14 38.00 34.20 32.89 39.95 44.15 43.47 42.68 42.74 42.50 41.84 41.60 41.15 40.98 40.65 39.73 39.46 40.32 41.40 41.94 41.49
51.42 50.64 50.20 49.92 50.07 50.39 50.64 50.90 50.76 47.45 46.30 47.58 47.31 46.88 47.29 45.64 45.28 45.03 43.89 45.90 44.58 40.80 43.73 42.56 42.53 43.60 42.77 44.05 41.35 39.81 40.46 40.12 33.42 37.64 35.97 28.46 33.34 37.56 41.42 42.96 44.34 43.39 43.69 43.34 42.75 42.14 42.31 42.30 41.90 41.42 41.61 42.00 41.56 41.63
50.34 49.84 49.60 49.78 50.05 50.35 50.76 50.73 50.37 49.99 48.08 46.50 45.51 43.81 43.92 43.43 39.76 41.87 34.46 39.60 42.38 45.39 45.60 45.83 42.47 43.15 44.03 41.36 41.71 40.82 39.12 36.44 37.59 34.17 30.41 29.92 36.24 39.23 40.45 42.31 43.66 44.43 43.62 43.77 43.91 44.23 43.72 43.53 44.93 43.38 43.20 44.09 42.59 41.91
49.58 49.46 49.71 50.02 50.40 50.76 50.63 50.80 50.87 49.24 44.45 42.49 44.55 40.62 45.22 39.51 42.10 42.50 43.16 42.79 45.63 45.01 45.04 44.22 42.58 42.17 41.28 41.61 38.32 34.94 36.39 37.75 35.78 31.18 25.60 34.76 38.26 39.84 41.00 42.69 43.33 43.32 43.97 43.73 44.08 44.88 44.80 44.58 44.31 44.75 44.13 43.21 42.23 42.01
49.72 49.92 50.20 50.52 51.39 51.59 50.88 50.90 49.83 47.91 45.51 43.50 44.22 37.35 42.06 45.85 45.21 46.56 49.27 47.56 47.02 47.06 45.00 43.11 42.58 41.66 40.81 40.08 37.53 35.92 33.70 32.66 31.52 29.32 33.42 37.87 39.55 39.76 40.95 42.06 40.16 42.62 43.37 43.01 43.59 43.50 44.49 44.53 43.67 42.73 42.11 42.14 42.48 42.96
50.16 49.98 49.82 51.51 51.52 51.45 50.52 50.04 47.61 47.90 46.59 44.32 43.25 41.44 43.76 43.26 44.13 47.59 47.06 45.66 46.97 45.85 44.68 43.27 39.55 38.27 37.64 37.11 35.40 33.99 32.66 30.01 33.11 35.27 38.49 39.17 39.84 40.16 40.52 42.09 43.75 44.76 44.80 44.92 44.15 43.98 43.71 42.27 42.48 42.64 41.26 41.39 43.01 42.90
49.79 48.04 51.57 50.54 51.02 51.34 50.82 49.40 46.91 46.66 45.40 45.98 45.03 45.73 44.14 44.22 45.15 45.99 49.23 49.17 47.10 45.38 40.59 39.88 38.09 38.09 38.96 35.75 34.49 35.46 33.46 35.64 37.87 39.63 40.46 39.40 40.00 40.67 41.54 42.76 43.83 43.10 42.46 42.24 41.53 42.17 43.07 43.24 42.61 41.60 40.49 41.10 43.36 42.64
48.56 50.96 51.33 49.96 48.37 49.98 48.84 48.21 49.38 49.67 46.54 46.30 43.50 43.76 45.42 47.02 46.99 47.20 48.63 48.63 47.86 43.02 41.29 41.83 42.62 39.72 37.70 36.00 35.38 37.82 38.54 39.66 40.75 40.93 40.40 39.90 40.80 41.24 42.95 41.59 43.29 43.96 43.35 43.56 44.03 44.96 44.99 44.17 42.43 40.80 41.95 43.16 42.07 41.68
47.06 49.31 50.44 50.52 47.57 42.71 44.03 49.93 47.02 42.89 45.09 46.27 46.79 46.25 47.90 49.21 49.67 48.97 48.93 48.28 47.40 46.65 45.12 43.59 41.87 39.23 39.73 40.77 39.01 38.86 41.08 40.47 40.29 39.63 39.35 40.08 40.02 41.11 41.79 41.84 41.40 40.36 40.85 41.00 41.00 42.85 44.05 43.42 42.20 41.17 42.07 43.25 41.12 40.50
50.14 50.71 51.29 50.68 48.80 41.60 41.58 44.11 49.21 45.17 43.58 46.86 46.31 46.75 47.85 47.26 47.11 48.41 48.62 47.69 45.71 45.60 44.47 43.75 43.20 43.93 41.62 43.02 40.89 41.56 41.92 41.22 40.16 38.68 37.94 38.65 40.04 40.36 40.63 40.18 40.38 38.90 39.27 40.09 40.32 41.60 42.35 42.43 44.26 43.68 43.65 42.54 41.18 40.81
49.30 49.95 50.50 47.58 44.91 46.22 47.31 45.80 46.48 48.16 48.03 46.54 47.20 46.56 46.20 47.38 47.11 48.34 48.19 47.02 46.86 46.04 44.95 46.65 46.07 45.77 45.61 43.66 42.85 42.73 41.18 40.81 40.32 39.49 38.57 37.53 40.11 41.99 40.30 40.41 40.18 38.88 38.14 37.99 38.53 38.94 42.11 42.55 43.43 45.06 43.84 41.46 41.73 42.17
45.00 51.54 50.62 49.77 48.46 46.83 44.99 45.98 44.36 43.90 44.11 45.16 45.53 45.53 44.83 44.79 45.31 46.63 48.85 46.81 47.09 46.65 47.88 47.52 46.32 45.92 44.65 44.75 43.51 43.04 41.29 39.52 38.81 38.96 39.85 39.35 37.53 37.49 38.36 38.88 39.32 38.27 39.42 39.61 38.95 38.90 41.93 44.38 44.36 44.59 43.36 41.98 42.10 42.38
47.90 50.45 52.26 51.69 49.31 45.92 44.09 48.84 46.58 47.74 44.74 44.31 46.30 45.14 46.16 44.77 46.30 49.57 47.54 48.56 48.31 47.20 48.23 44.90 46.03 47.05 44.63 42.98 43.85 42.07 40.61 39.33 38.15 37.36 37.22 36.33 35.88 36.35 38.69 39.12 39.16 39.37 38.57 38.83 39.40 39.32 40.03 43.21 44.15 44.09 42.40 41.67 41.36 39.35
47.92 48.48 48.27 49.38 48.44 42.42 48.14 45.80 48.28 48.14 48.00 45.61 45.20 46.21 45.40 45.58 47.04 44.47 42.68 43.96 46.19 45.73 46.60 46.84 45.90 42.40 40.49 40.22 39.28 39.02 39.26 39.06 36.99 36.27 36.36 36.95 37.03 36.77 37.88 37.90 38.66 39.53 38.77 38.62 39.10 39.94 41.48 43.00 43.28 44.53 43.60 40.89 39.57 37.86
42.98 42.36 43.74 37.16 44.68 45.77 46.02 47.33 47.05 46.71 45.77 45.96 44.96 44.67 43.29 45.02 43.38 45.34 44.14 44.07 44.06 44.76 46.99 42.51 40.92 40.43 38.83 37.09 37.25 37.30 37.87 38.22 37.24 36.95 36.58 36.92 36.51 36.65 37.11 37.66 38.14 38.47 39.52 39.11 38.79 39.02 39.22 40.67 41.70 43.09 42.94 42.25 40.11 39.25
36.44 41.82 40.89 44.77 44.07 43.05 42.55 42.37 45.87 44.44 43.84 44.41 45.79 45.66 44.84 42.81 42.42 42.45 44.93 45.78 45.49 43.93 42.12 41.32 39.47 38.14 37.54 37.73 36.93 36.84 38.20 38.09 37.81 37.17 36.86 36.53 36.82 36.98 36.25 36.17 36.54 38.42 39.30 39.71 39.89 39.72 39.71 39.75 39.84 39.98 40.20 39.50 37.82 39.54
35.94 39.89 43.11 45.62 44.46 44.32 43.07 43.74 47.75 45.78 46.52 45.52 44.63 44.24 46.16 41.77 41.75 43.93 48.34 48.47 45.91 44.91 41.56 40.63 40.24 39.42 38.59 37.38 36.49 36.94 37.54 38.04 39.36 38.68 37.70 37.45 37.30 38.35 38.76 38.00 38.52 39.19 40.27 41.26 40.91 40.79 40.21 40.23 39.74 39.55 39.27 39.35 39.62 38.65
44.10 43.59 42.19 43.11 43.31 44.95 44.05 45.68 46.01 45.31 45.96 47.24 46.84 45.97 45.12 45.37 45.61 47.18 49.54 49.53 45.92 40.02 39.04 37.84 37.73 38.97 38.50 38.14 37.10 36.22 34.94 35.04 35.10 35.12 35.64 35.71 35.67 37.07 38.94 38.56 37.71 37.24 39.57 41.06 41.04 41.04 40.70 40.52 40.44 40.30 40.01 39.32 39.30 39.73
41.16 44.09 43.39 40.98 41.81 41.94 42.95 44.00 45.59 46.31 48.89 46.93 47.16 46.90 47.58 48.95 49.59 47.34 47.82 44.03 38.65 39.11 38.25 37.86 37.09 37.36 36.41 35.95 35.91 35.73 36.38 36.97 36.63 35.27 35.08 33.93 35.07 37.19 38.40 37.53 37.14 36.85 38.31 40.00 38.35 39.89 41.43 40.66 40.35 39.49 39.35 38.72 38.16 38.22
39.36 42.77 40.89 40.73 39.86 40.62 45.31 48.26 47.83 49.97 49.84 50.51 50.55 48.29 45.86 45.78 46.87 47.44 43.36 39.27 38.68 39.44 40.16 39.69 38.35 38.66 37.26 37.01 35.71 35.63 36.63 36.15 37.90 37.66 34.96 34.77 36.04 37.82 38.64 38.90 38.02 36.86 37.84 39.32 40.31 40.82 39.03 40.14 39.02 39.72 39.10 38.99 38.51 38.37
42.01 41.29 40.85 40.56 43.02 47.04 49.27 50.72 51.65 50.92 50.70 49.08 49.15 47.74 45.64 45.80 46.53 47.01 46.44 43.49 40.87 40.26 38.43 37.79 36.71 36.87 37.43 36.69 37.04 36.55 35.99 37.77 37.27 38.65 38.61 38.32 37.75 38.38 39.17 39.35 38.75 37.60 38.93 40.12 40.56 40.20 40.06 39.46 38.94 38.71 38.96 39.47 39.50 38.16
42.02 41.59 41.52 43.44 46.13 48.89 50.24 49.93 50.55 48.05 48.48 49.01 46.14 47.44 46.52 45.45 44.01 45.24 46.43 46.13 42.63 41.49 41.52 39.97 37.93 37.79 37.30 38.76 38.86 39.08 38.77 41.19 38.82 39.10 39.84 38.55 38.82 39.55 39.78 39.56 39.27 39.05 39.16 39.67 40.82 40.35 40.46 39.43 38.58 38.84 39.15 39.47 39.88 40.18
43.29 45.93 48.07 47.74 46.21 46.88 47.51 48.85 46.95 45.31 46.03 45.94 46.46 47.13 46.79 46.07 44.61 45.40 43.64 41.41 42.44 41.62 40.56 40.11 38.98 37.83 38.23 38.72 39.35 38.62 37.36 38.44 38.49 37.77 37.53 37.76 37.98 38.40 39.24 39.24 39.68 40.40 40.87 40.65 40.94 40.47 40.33 39.86 39.42 39.93 39.97 40.19 40.57 40.67

GFSWCAN_sfc_wetblb_069.txt.gz
Wetbulb
55.09 55.55 56.01 55.81 54.90 53.66 52.56 52.73 52.66 52.90 52.54 52.91 53.97 54.80 55.05 55.33 55.27 54.36 53.18 53.15 52.20 48.91 48.69 48.63 48.94 46.23 44.62 45.34 43.39 43.53 42.81 42.00 40.79 36.71 36.08 34.29 34.20 34.71 32.97 33.66 34.26 34.52 34.45 34.29 33.50 31.17 29.44 42.90 40.26 37.06 40.35 41.79 41.87 41.91
54.89 55.19 55.55 55.81 54.96 53.74 52.44 52.48 52.54 52.63 52.25 52.10 53.12 54.23 54.70 55.04 55.18 51.69 52.51 52.30 52.97 51.48 49.54 50.59 52.19 52.65 51.77 50.99 46.87 44.12 43.36 42.25 42.61 38.15 37.07 37.00 35.32 35.30 34.46 33.24 37.71 33.30 37.15 35.96 36.52 37.02 40.92 43.66 42.44 44.17 43.50 41.58 42.42 42.36
54.37 54.53 55.09 55.37 54.83 53.62 52.39 52.37 52.44 52.46 52.15 51.63 52.29 53.31 54.35 54.88 55.02 52.02 51.53 51.43 52.49 50.72 50.26 50.80 50.52 53.10 53.81 53.27 53.09 46.79 45.33 45.56 43.73 45.13 40.73 39.30 35.09 38.92 34.46 35.12 36.33 39.04 39.23 37.64 35.72 40.32 40.39 42.69 43.97 44.40 44.82 43.61 44.15 44.07
54.03 54.37 54.71 55.23 54.71 53.40 52.13 52.15 52.58 52.50 51.86 51.42 51.66 52.35 53.23 54.27 54.35 52.73 52.40 51.44 52.19 49.54 46.33 47.30 52.70 51.83 53.55 52.62 52.02 51.23 48.56 46.80 46.18 45.39 43.22 40.99 39.49 40.30 38.52 38.19 37.98 40.28 40.18 38.77 38.10 41.00 40.86 42.26 43.98 45.10 44.97 45.46 44.93 45.81
53.49 53.83 54.15 54.89 54.43 53.34 52.12 52.08 52.46 52.32 51.67 51.16 51.18 51.58 52.13 53.31 53.71 52.44 52.63 52.28 53.26 51.07 46.80 48.32 51.51 51.92 52.64 51.93 51.18 50.31 48.87 45.66 45.06 43.71 42.82 41.05 40.56 39.63 40.34 39.82 38.65 41.05 40.38 38.19 39.52 43.41 43.65 43.00 45.18 46.07 45.06 44.88 46.25 46.38
53.01 53.51 53.77 54.40 54.21 52.91 51.69 51.85 52.34 52.28 52.24 51.31 51.00 51.10 51.35 52.33 52.24 53.29 52.03 53.70 53.99 54.25 49.63 44.75 50.23 50.34 52.31 50.13 49.70 49.17 48.37 47.26 46.16 44.68 43.63 42.36 43.11 42.16 37.34 35.77 43.36 43.41 44.51 45.56 43.17 45.19 44.92 45.79 46.35 46.98 45.96 46.41 47.14 47.19
52.99 53.33 53.57 54.16 53.93 52.40 51.48 51.52 52.17 52.24 52.26 51.53 51.26 50.91 51.00 51.61 52.86 50.96 50.99 52.68 52.00 53.54 49.91 44.99 45.49 50.11 51.49 48.85 49.17 49.13 49.54 48.50 48.78 46.15 44.45 46.11 43.63 41.91 38.65 35.98 42.48 43.99 44.70 44.88 45.22 44.32 43.04 44.50 45.04 47.25 47.35 47.70 47.39 48.20
52.85 53.03 53.23 53.88 53.51 51.97 51.35 51.50 51.98 52.17 52.28 50.87 50.77 50.65 51.21 51.70 51.05 50.89 53.47 51.84 52.83 52.08 50.90 43.93 44.76 47.44 51.79 48.98 48.39 51.07 47.66 48.63 47.33 47.13 46.44 42.64 41.92 39.88 34.21 41.13 44.43 45.23 45.44 44.35 44.17 45.54 46.67 47.00 47.48 47.23 47.55 47.59 46.89 46.71
52.34 52.79 52.95 53.62 52.42 51.36 50.99 51.25 51.69 51.80 51.94 50.75 50.13 51.11 51.55 50.95 51.25 52.25 54.23 53.68 53.87 51.72 46.83 45.63 42.18 43.46 50.68 49.07 50.07 50.02 50.64 44.90 49.05 45.33 44.31 42.97 39.37 34.21 40.36 43.55 44.65 44.83 43.98 44.95 45.65 45.35 45.21 45.04 46.44 47.06 47.15 46.97 45.87 46.44
52.45 52.63 53.28 52.43 51.31 50.70 50.68 51.25 51.30 51.48 51.23 50.68 50.67 50.23 50.16 52.60 54.67 54.38 52.36 49.22 50.42 50.10 49.79 44.00 46.55 44.29 48.70 48.05 47.51 47.43 48.30 45.39 42.29 42.76 44.00 40.50 38.38 45.42 46.31 44.66 46.25 46.76 45.14 45.47 43.94 43.36 44.46 44.70 46.03 46.70 46.64 47.47 47.44 47.53
52.62 52.84 51.86 50.83 50.36 50.43 50.92 51.04 51.63 51.13 50.19 49.35 50.59 51.10 52.71 53.39 52.99 50.71 47.30 46.01 46.65 43.78 46.30 45.62 45.51 46.34 49.42 46.60 46.81 48.05 43.97 44.96 38.45 40.95 39.64 36.57 36.57 44.70 46.94 48.03 48.54 49.16 45.95 47.20 48.51 49.11 48.78 48.09 47.27 45.97 46.95 47.11 47.65 48.08
52.18 51.33 50.61 50.19 50.04 50.47 50.56 50.81 50.81 49.72 49.44 50.28 50.67 50.37 52.48 51.10 48.94 45.58 45.98 47.15 44.67 44.23 47.25 46.71 46.49 47.48 48.96 50.11 47.22 45.51 43.40 42.68 36.45 44.51 39.08 32.40 42.71 45.92 46.10 48.25 49.39 50.23 48.80 48.23 49.06 48.71 48.87 48.08 48.11 48.09 48.34 48.02 48.16 48.92
50.44 50.09 49.86 49.90 50.01 50.41 50.33 50.83 50.26 50.38 49.94 50.41 49.83 48.48 48.21 47.70 40.29 42.05 40.76 42.78 44.58 49.23 49.89 48.91 48.23 49.37 47.73 48.16 44.99 43.86 40.53 38.51 44.04 38.93 33.47 38.96 46.48 46.67 47.12 47.65 48.25 49.77 50.03 49.41 49.58 49.91 49.64 49.15 49.60 48.71 48.55 49.88 49.65 48.33
49.19 49.47 49.50 49.76 50.23 50.59 50.52 51.00 51.04 50.15 49.03 46.49 47.40 38.38 44.81 43.06 44.77 46.85 47.50 49.35 49.96 51.28 50.32 50.12 48.17 48.10 46.63 44.52 44.47 40.25 42.50 42.68 36.08 33.68 34.98 44.43 46.85 47.35 47.93 48.24 47.93 48.14 48.51 48.62 48.98 49.58 49.36 49.29 49.06 49.80 49.87 50.38 48.98 47.81
50.08 50.00 50.09 50.74 51.56 51.64 51.10 51.13 50.36 50.05 49.49 45.74 47.64 38.79 45.09 50.19 50.90 51.72 51.58 50.69 51.80 52.11 50.44 48.61 47.58 47.33 44.84 42.02 42.39 40.25 38.18 35.37 38.50 38.89 43.56 47.02 47.66 47.46 48.15 48.01 47.90 47.78 48.25 48.36 47.97 47.66 48.18 48.83 48.69 49.08 49.82 49.23 48.92 49.07
50.30 50.36 51.50 51.32 51.27 51.15 50.58 49.70 49.69 49.77 49.17 46.48 46.14 45.89 49.81 48.59 50.00 50.88 51.64 51.60 51.54 50.93 49.99 49.18 45.98 43.16 41.82 41.50 38.86 38.30 36.86 35.85 40.66 44.28 47.83 47.84 47.53 47.97 48.08 48.46 48.90 48.73 48.64 48.33 48.03 47.30 47.16 45.70 45.84 46.36 47.41 47.90 48.56 48.92
50.03 50.69 51.22 50.75 51.60 50.82 50.31 50.67 49.93 47.81 47.01 46.65 46.30 49.79 47.69 48.47 48.45 50.24 52.46 53.70 53.76 51.04 47.62 46.64 42.54 41.10 43.17 38.97 38.01 40.71 40.40 44.31 46.72 48.09 48.79 47.90 47.40 47.84 48.15 48.85 48.15 47.56 47.38 47.24 47.31 47.61 46.09 47.17 46.62 45.75 44.71 46.26 48.26 49.02
50.77 52.62 50.68 49.97 50.46 50.79 50.81 49.76 49.48 48.85 46.28 48.17 46.57 48.45 50.74 52.81 52.40 52.84 54.19 53.18 51.68 50.66 47.60 45.07 45.68 42.69 36.84 34.81 39.49 45.24 46.44 46.30 47.82 48.70 48.39 48.09 48.17 48.02 47.87 47.76 46.84 46.26 46.48 46.72 46.60 46.45 45.27 43.61 40.99 43.69 42.76 45.26 46.93 47.37
48.92 50.08 50.77 50.38 49.37 46.92 45.16 50.09 49.51 45.14 47.40 50.52 51.98 52.59 53.14 53.98 55.27 55.20 54.50 53.18 53.80 51.99 48.69 46.68 43.74 40.38 38.82 43.10 44.17 47.04 47.70 48.15 48.45 48.03 47.34 47.12 47.55 47.64 47.15 47.16 46.57 45.53 46.11 46.13 46.28 46.45 46.70 46.02 44.49 43.11 43.65 46.53 45.92 46.54
50.35 51.05 51.57 50.62 49.66 45.99 43.80 45.95 51.97 49.15 48.68 51.19 51.48 51.44 53.31 54.26 53.29 53.77 53.92 53.49 51.54 49.52 46.76 45.47 44.22 44.62 45.02 47.95 49.51 49.09 50.05 49.44 48.30 47.33 45.54 45.88 47.21 47.66 46.86 46.52 44.86 45.67 45.47 46.25 45.88 43.80 46.18 46.07 46.88 45.05 45.45 45.04 45.22 45.62
49.95 50.21 50.35 50.03 48.00 47.30 47.76 49.07 49.78 51.67 53.03 51.92 53.82 53.39 53.33 53.76 52.67 52.55 52.39 49.77 48.74 48.15 45.82 47.59 48.47 50.01 51.91 49.91 49.43 49.95 48.40 49.16 48.09 47.17 45.88 44.75 46.68 46.37 46.01 45.43 45.71 45.37 44.71 44.72 44.63 44.63 43.76 44.94 45.32 45.64 44.68 45.11 46.66 47.79
48.91 51.28 51.23 49.96 48.94 47.59 46.26 49.34 48.31 50.00 47.71 50.34 50.86 52.30 51.32 50.64 50.89 51.53 52.58 50.86 49.01 48.17 49.85 50.04 51.52 50.83 48.94 49.71 49.33 49.40 48.09 47.56 47.61 44.75 43.41 43.45 43.39 43.79 44.05 44.97 44.16 43.86 44.39 45.09 44.75 44.20 42.59 44.03 45.56 46.71 45.58 44.97 44.99 45.82
48.82 50.70 51.92 51.57 49.38 46.61 46.02 52.96 50.32 51.72 48.20 49.80 51.88 50.19 50.54 51.01 52.14 53.88 51.00 51.63 49.81 49.11 50.46 49.00 49.45 50.44 49.52 48.88 47.15 46.48 47.21 47.50 45.65 44.75 44.23 43.86 44.18 45.12 45.01 44.80 45.18 44.36 44.27 44.65 45.34 44.40 42.00 42.56 44.81 45.57 46.22 46.19 44.67 43.94
48.11 50.44 50.10 49.95 48.94 44.06 51.18 50.09 51.73 51.61 51.50 49.59 48.88 48.09 48.98 50.05 52.49 50.06 47.57 48.44 48.31 49.19 49.55 47.70 46.56 47.10 48.10 48.19 46.33 45.49 45.77 45.86 44.37 43.99 44.82 44.92 43.95 43.65 44.75 44.96 45.50 45.47 45.28 45.74 45.99 45.69 45.96 46.33 44.25 46.24 45.68 44.69 44.35 44.18
44.54 44.00 44.87 38.02 47.72 47.23 48.74 49.33 49.51 49.21 48.06 48.72 48.07 48.27 49.29 50.77 47.08 46.56 46.07 45.47 47.72 49.09 47.63 46.72 48.06 48.40 46.27 45.15 45.57 45.26 45.49 45.85 44.67 43.59 44.52 45.22 44.05 44.20 44.24 45.23 45.25 45.43 46.93 45.33 44.71 45.06 45.66 47.04 47.32 46.52 46.14 45.39 43.93 43.52
36.74 43.68 42.53 47.64 48.19 46.59 46.51 45.38 47.17 48.46 48.52 47.87 48.95 49.54 50.25 47.45 44.47 43.20 46.45 46.74 47.50 46.47 44.44 47.44 47.08 45.77 45.22 45.99 44.63 45.14 45.96 46.79 46.49 43.68 44.12 45.22 44.63 43.46 43.04 42.82 43.36 44.07 46.60 46.96 45.79 44.75 44.81 45.45 45.48 44.71 44.22 43.04 39.04 43.41
37.64 42.89 47.08 50.04 49.17 48.79 48.09 48.84 49.62 49.32 48.21 47.58 49.19 47.88 47.46 43.16 42.34 47.11 50.48 50.59 48.19 48.69 48.80 49.37 48.77 47.27 45.73 45.06 45.51 46.36 46.42 46.72 46.59 45.61 46.05 45.53 45.93 46.47 46.14 44.34 43.51 45.04 47.41 47.07 46.69 46.06 44.92 44.55 44.63 44.39 44.27 44.83 44.16 44.24
47.36 47.78 44.58 47.70 48.05 49.86 47.49 48.03 47.90 48.11 49.42 50.91 49.61 46.00 44.17 45.47 46.63 51.20 51.71 50.44 49.37 47.82 48.59 48.12 47.94 48.60 47.50 46.93 46.68 45.60 45.18 44.14 43.68 44.16 44.23 44.19 45.23 46.61 46.11 45.46 45.19 37.48 46.73 47.20 46.98 46.86 46.19 45.67 44.89 44.23 43.93 43.48 43.24 43.79
45.49 48.44 48.33 45.70 46.43 46.55 46.81 46.72 48.97 51.94 52.93 51.87 49.70 47.95 49.00 52.87 53.91 53.06 52.90 49.16 47.30 47.57 46.79 46.15 45.65 46.13 45.57 45.27 45.57 45.74 45.09 44.27 42.73 41.10 40.62 40.59 42.12 44.16 45.53 45.43 45.71 46.36 46.82 45.94 38.14 42.55 45.52 45.09 44.79 44.62 43.99 44.03 44.07 44.54
44.65 47.97 45.78 45.51 44.08 44.25 48.68 51.92 52.73 54.35 54.45 54.61 54.40 52.21 51.27 51.11 52.42 52.36 48.40 46.57 46.57 47.22 48.24 48.15 46.98 46.29 45.46 44.74 43.85 43.50 44.79 45.25 45.50 44.51 42.16 41.47 42.76 45.34 46.14 45.38 44.48 45.32 46.58 46.82 46.19 45.18 39.39 44.23 42.36 45.16 44.58 44.82 44.41 43.52
47.64 46.38 45.07 45.19 44.89 50.82 53.15 54.79 54.92 54.62 54.46 54.06 54.29 52.37 50.82 51.21 52.13 52.99 51.39 49.35 48.50 47.75 46.91 46.36 45.39 46.32 45.91 45.08 44.59 43.81 43.02 44.81 44.75 45.23 46.71 46.38 45.86 45.92 45.82 45.50 45.16 46.14 46.78 47.12 47.03 46.79 46.18 45.61 45.09 43.91 43.60 43.37 43.16 42.94
47.27 45.85 45.52 45.10 49.51 53.59 54.33 53.70 53.64 53.31 53.35 52.67 51.85 52.76 51.06 50.30 49.18 51.39 52.92 51.12 48.16 46.84 45.31 46.54 46.28 45.94 46.54 47.60 47.47 47.52 40.68 47.62 45.59 45.62 45.95 46.26 46.58 46.98 47.03 46.38 45.41 45.27 45.82 45.80 46.59 46.63 45.47 44.56 44.27 44.11 43.81 42.84 43.19 43.40
48.16 47.33 47.35 49.66 50.56 50.48 52.45 52.67 50.87 49.74 50.79 50.81 51.56 51.24 51.69 51.15 49.27 52.13 49.47 50.78 51.45 51.20 49.78 48.17 47.73 48.37 47.13 46.75 46.45 46.48 42.55 47.22 45.04 40.36 39.74 40.22 40.83 43.13 46.47 46.95 46.57 46.23 45.85 45.98 46.20 46.19 44.86 43.50 44.00 43.62 43.81 43.56 43.58 43.95

GFSWCAN_sfc_wetblb_072.txt.gz
Wetbulb
54.54 55.02 55.64 55.96 56.24 55.48 53.81 52.64 52.70 52.80 52.88 52.49 53.51 54.82 55.22 55.32 55.36 55.85 57.86 59.53 57.00 53.71 53.32 52.74 52.50 50.55 50.52 51.27 48.69 48.49 47.15 46.78 46.03 42.14 43.36 41.81 41.62 40.31 38.06 39.42 39.38 39.54 39.32 39.82 41.10 37.76 34.47 47.65 45.02 41.72 46.29 47.23 46.73 46.46
54.42 54.64 55.24 55.34 55.90 55.52 54.00 52.53 52.64 52.66 52.58 51.78 52.80 53.59 54.75 55.08 55.28 53.85 57.99 59.32 58.91 55.59 54.52 56.35 56.11 56.20 55.03 54.38 52.89 50.46 47.72 46.22 48.93 46.00 45.67 44.45 41.76 42.21 40.43 39.43 43.02 38.30 42.98 43.06 41.79 43.48 46.04 49.04 47.17 48.53 47.41 46.86 46.54 47.13
53.88 54.08 54.54 54.82 55.36 55.24 54.08 52.31 52.24 52.62 52.20 51.43 51.68 52.87 53.96 54.71 54.93 53.88 58.17 58.52 57.86 55.44 54.44 54.14 53.39 56.80 58.18 57.43 58.59 51.74 52.07 50.13 49.62 51.22 48.57 47.72 40.29 44.61 40.77 40.93 41.75 43.83 45.30 42.18 41.18 44.56 45.78 48.03 48.36 48.40 48.28 47.65 48.17 47.78
53.60 53.98 54.32 54.70 54.94 55.12 54.00 52.18 51.97 52.20 51.99 51.43 51.30 51.95 52.66 53.85 54.28 53.46 57.79 58.68 57.56 55.35 50.06 51.56 57.52 55.55 57.98 57.94 57.52 56.25 54.34 53.73 53.15 51.80 49.66 47.91 45.26 46.48 45.60 44.66 43.26 46.80 45.47 43.45 43.51 45.64 45.80 47.40 48.69 49.16 48.68 48.70 48.14 48.14
53.02 53.58 53.94 54.16 54.52 54.96 53.81 52.06 52.05 52.05 51.89 51.15 50.96 51.30 51.62 52.93 53.49 55.33 59.48 60.02 59.86 54.86 50.49 52.15 55.33 56.18 57.57 57.10 56.04 55.75 54.19 51.00 48.15 47.29 45.73 43.49 48.12 46.30 47.32 45.64 44.47 46.86 45.05 43.09 43.50 47.92 47.49 46.35 49.84 50.14 48.72 48.17 48.85 48.23
52.62 53.04 53.50 53.82 54.22 54.60 52.68 51.74 51.64 51.87 52.20 51.62 51.32 50.94 51.45 51.75 52.88 57.09 55.16 58.81 61.20 58.99 53.42 49.14 54.65 54.64 55.53 55.59 55.36 54.82 53.95 52.72 52.49 46.42 48.54 46.54 48.21 44.32 42.07 39.91 46.53 49.45 50.30 50.53 47.76 49.66 49.53 49.42 49.88 50.45 49.32 49.67 50.07 49.75
52.96 53.02 53.32 53.64 54.26 53.78 51.84 51.49 51.57 51.66 52.04 51.79 51.27 50.80 50.93 51.27 55.21 54.49 54.01 56.00 54.95 59.49 53.42 49.52 50.10 54.39 55.02 53.92 54.38 54.06 53.68 51.42 51.64 48.93 47.12 46.86 45.36 44.34 39.94 38.09 46.72 49.68 50.35 50.59 50.82 49.63 47.31 48.46 47.68 50.12 50.20 50.55 50.07 50.45
52.58 52.78 53.18 53.58 54.19 53.00 51.42 51.53 51.45 51.62 52.04 51.22 50.63 50.40 51.17 51.98 52.20 54.57 57.53 53.10 55.39 56.22 54.52 49.88 49.50 50.88 55.60 53.19 51.40 55.59 52.28 51.84 50.61 49.71 48.62 47.11 43.95 42.30 37.34 45.07 48.61 47.49 48.27 49.49 49.87 49.95 49.58 50.65 50.26 50.48 51.10 50.75 49.79 49.45
52.39 52.50 53.00 53.28 53.63 52.00 51.46 51.21 51.45 51.32 51.75 50.70 50.27 50.62 54.71 54.31 55.73 56.30 54.31 54.40 58.07 55.68 51.87 51.69 49.65 48.53 54.93 55.04 55.15 52.32 53.07 46.89 53.10 48.65 48.53 46.75 42.33 36.80 44.76 48.08 46.69 47.35 47.53 48.96 50.28 49.90 49.56 49.06 49.41 49.99 50.22 49.87 49.11 49.08
52.30 52.48 52.82 53.25 52.21 51.12 50.58 51.07 50.82 51.25 51.36 50.49 52.73 54.40 54.04 56.72 54.28 54.66 55.27 53.62 53.19 54.24 54.05 49.94 53.43 50.52 53.65 53.00 51.86 51.52 51.59 46.80 44.24 45.91 46.90 43.24 41.49 49.00 50.75 51.21 49.65 47.91 50.22 49.49 47.98 47.70 48.03 47.66 48.59 49.30 49.84 50.48 50.37 49.81
52.46 52.79 52.71 52.01 51.08 50.48 50.48 50.97 51.80 50.91 50.11 52.79 54.31 54.43 56.87 53.80 55.90 53.81 49.50 48.99 49.07 48.30 52.04 51.58 50.99 51.59 54.61 49.93 49.42 51.51 47.23 48.47 41.70 42.95 41.98 39.57 39.63 47.50 50.64 49.87 51.26 51.53 51.56 49.70 49.63 50.29 50.77 50.26 49.82 50.11 50.37 50.85 50.95 50.63
52.27 51.39 50.78 50.61 50.50 50.39 50.46 51.05 51.40 52.25 54.35 52.93 54.71 55.47 56.95 53.76 51.22 47.42 46.70 48.78 46.77 49.37 52.29 51.69 52.67 51.42 52.57 55.16 49.66 48.94 45.70 46.89 38.16 47.86 41.59 36.75 44.77 48.75 50.09 50.77 51.97 52.39 52.72 51.71 51.93 51.53 51.69 52.10 52.13 51.83 51.71 51.19 51.81 51.50
50.38 50.12 50.07 50.29 50.41 50.46 50.72 51.21 50.87 50.80 51.58 55.44 53.21 51.29 52.10 50.21 41.85 43.74 43.61 47.58 49.10 53.25 53.86 52.32 50.68 51.64 50.53 51.82 50.05 47.90 42.71 41.41 48.23 41.94 38.47 41.54 48.99 50.77 51.36 51.61 51.50 53.08 53.06 52.75 52.57 52.76 52.95 52.47 53.25 52.70 51.94 52.63 52.88 52.28
49.84 49.99 50.02 50.12 50.31 50.44 50.52 51.23 51.13 51.43 52.23 50.31 48.77 40.45 46.31 45.48 47.43 50.59 51.65 53.97 55.21 55.97 54.79 54.48 51.32 50.48 50.45 48.07 48.93 42.72 46.09 45.93 37.20 35.16 38.34 46.38 49.08 50.24 51.33 52.22 51.64 50.52 51.44 51.78 51.60 51.66 51.75 52.06 51.82 52.70 52.75 53.21 52.48 51.72
50.36 50.37 50.60 51.66 51.38 52.02 51.08 51.29 51.25 53.05 52.66 48.30 48.95 40.37 46.31 51.76 54.93 56.94 57.51 56.10 56.79 58.64 54.62 52.19 52.93 51.74 48.73 46.07 47.35 43.95 40.00 37.58 40.59 40.72 46.22 49.11 51.68 51.03 50.69 51.03 50.89 50.82 50.86 50.84 51.26 50.76 50.82 51.40 51.51 51.23 52.04 52.79 52.70 52.30
50.46 50.86 53.01 51.20 51.37 51.17 50.60 50.63 51.48 54.46 52.78 49.56 48.64 47.02 50.67 51.29 50.91 54.32 55.11 55.14 57.89 56.26 55.01 54.86 50.09 47.36 45.63 45.62 40.36 38.79 38.58 38.04 43.58 47.91 50.08 51.71 50.91 51.21 52.13 52.04 50.91 50.71 50.17 49.89 48.87 48.94 49.91 49.50 49.36 48.52 48.52 49.61 52.10 52.13
50.28 52.02 51.14 51.46 51.02 50.43 50.64 53.36 53.87 50.73 49.92 48.19 48.37 51.41 50.25 49.57 49.29 51.23 55.09 56.28 58.24 53.79 50.07 50.05 44.53 43.69 46.22 40.65 38.28 42.38 41.14 45.41 48.12 50.10 51.99 52.59 51.34 51.12 51.23 50.25 49.85 49.20 48.70 48.77 48.72 47.39 48.16 48.72 48.84 48.28 48.37 48.21 49.49 50.15
51.85 52.36 50.63 51.14 51.76 51.29 53.28 52.31 52.12 50.83 47.83 50.57 48.44 50.62 52.64 53.64 53.23 54.42 57.24 58.12 55.62 54.15 52.67 48.09 50.46 43.08 40.58 36.21 38.68 44.99 48.75 52.06 52.08 52.10 51.07 51.71 51.68 51.17 50.54 49.10 49.02 48.74 48.50 48.42 48.61 48.57 48.65 47.65 45.80 44.54 43.16 47.30 49.96 47.88
49.73 51.38 51.20 51.10 51.14 50.09 49.19 51.14 52.67 48.37 49.96 51.95 53.10 54.00 54.61 55.25 57.61 57.92 58.20 58.89 58.03 56.44 51.11 47.60 43.97 39.84 39.01 42.84 44.84 48.72 51.68 52.10 51.01 50.59 50.85 51.33 51.12 50.16 49.90 49.35 48.60 47.52 47.90 48.03 47.99 47.62 48.39 48.28 47.44 43.24 43.63 45.87 47.09 45.86
50.50 51.37 51.82 51.55 50.33 50.14 47.41 49.61 55.67 50.57 50.43 53.82 55.06 54.42 55.74 57.01 59.23 58.70 58.24 57.21 56.03 51.89 47.01 45.34 44.63 45.72 45.80 48.20 52.11 52.23 52.49 53.52 51.47 49.41 48.05 49.44 51.05 49.59 48.82 48.08 46.77 47.84 49.02 48.63 48.98 44.20 47.26 47.70 47.33 46.56 45.62 46.09 46.58 46.77
49.37 52.55 51.11 51.41 51.25 50.42 50.68 51.82 51.53 53.09 54.05 53.68 56.54 57.12 54.95 58.28 56.56 54.83 54.75 53.13 51.85 51.47 46.45 49.11 50.17 52.45 54.84 55.60 55.88 52.74 52.88 54.10 50.97 49.81 48.60 47.41 49.21 49.14 48.46 49.23 48.45 47.52 46.37 46.64 46.37 44.41 45.05 45.37 46.53 46.75 47.67 48.14 48.90 48.94
54.01 51.61 53.46 53.67 51.05 50.37 50.30 53.85 51.39 53.72 51.74 52.07 52.96 54.53 52.89 53.63 55.20 55.67 54.95 53.27 53.43 49.45 50.86 51.38 55.21 55.63 54.05 53.52 51.88 51.99 52.94 52.22 50.52 47.11 44.51 44.74 46.37 46.48 46.95 46.87 46.71 46.18 46.66 46.95 44.26 42.17 44.23 45.38 48.15 49.00 48.33 45.90 45.41 47.64
49.14 51.78 52.97 52.41 49.97 47.72 47.37 56.40 51.86 53.48 50.29 53.23 55.72 52.94 53.98 54.45 55.58 57.29 53.24 55.27 52.25 51.92 52.87 52.41 52.48 54.75 53.95 53.40 52.86 52.34 52.23 50.29 47.72 46.77 46.77 47.18 47.49 48.03 47.31 47.25 47.92 46.74 46.24 46.21 46.34 45.54 47.47 44.60 47.56 48.40 48.34 47.56 47.15 46.51
47.81 51.54 50.30 49.65 49.62 45.80 53.30 51.51 54.80 53.91 54.84 52.79 52.07 49.72 52.12 53.12 55.70 50.60 48.07 48.37 51.55 53.72 49.96 49.06 50.41 52.77 52.17 51.74 49.91 49.42 49.79 48.72 47.12 47.30 48.19 47.28 45.90 46.00 47.52 47.53 47.83 47.97 48.22 48.68 48.28 48.80 48.95 48.44 45.71 48.43 47.42 46.87 46.48 45.33
45.04 45.49 46.94 39.14 49.39 48.68 48.26 50.19 51.04 51.56 49.23 51.05 49.35 50.74 51.72 54.70 48.73 47.42 46.76 45.37 49.67 52.09 51.26 50.14 53.32 53.56 50.95 49.44 48.35 48.12 49.64 48.94 46.58 45.56 47.42 47.34 46.41 46.69 47.04 47.42 47.57 48.73 49.26 47.43 47.01 47.18 47.59 48.20 48.37 47.74 48.24 45.84 44.76 44.13
37.77 47.22 44.34 48.91 49.86 48.65 49.14 46.03 47.99 49.25 50.25 49.23 50.34 53.77 54.59 51.04 45.67 45.18 48.74 48.41 49.36 50.55 49.93 52.39 51.91 50.26 48.34 48.39 47.15 47.00 47.52 49.46 47.95 45.76 46.71 48.14 47.96 47.08 46.05 45.25 44.90 45.91 49.87 49.47 46.96 45.73 45.57 45.43 45.15 44.83 44.26 43.39 39.57 44.03
39.35 45.08 49.86 53.43 52.01 51.86 50.29 52.00 52.34 50.64 48.62 48.48 51.78 49.05 46.67 41.64 44.82 50.07 53.49 53.07 50.46 52.47 54.22 54.08 51.73 49.15 48.05 48.17 48.64 48.96 49.33 49.92 49.50 47.83 47.96 48.43 49.03 51.14 49.47 46.88 45.50 47.50 50.04 49.81 48.39 47.56 45.93 44.85 44.84 44.54 44.37 44.96 44.97 44.40
49.05 49.49 46.27 49.96 50.16 51.61 48.32 49.05 48.17 47.05 50.59 55.00 53.98 47.91 46.12 44.42 48.54 54.42 54.30 54.41 52.93 53.04 52.30 51.63 50.93 49.97 49.31 49.18 49.46 49.17 48.47 48.22 48.28 48.51 48.10 48.08 49.59 49.53 49.51 49.25 49.08 39.01 48.94 48.89 48.41 49.56 48.60 47.13 46.27 45.53 45.23 44.94 45.12 46.36
48.21 51.16 50.67 47.38 48.47 48.37 48.35 47.87 48.90 54.68 57.48 56.39 51.82 51.82 51.33 56.37 58.40 55.79 54.75 52.68 52.08 50.89 49.18 48.80 49.31 50.42 50.00 50.01 49.95 49.82 49.24 47.89 45.83 43.68 43.09 43.48 44.47 45.92 48.73 48.79 48.35 49.26 49.15 48.09 37.92 42.02 46.79 46.49 46.57 46.35 45.97 46.69 47.66 47.88
48.10 51.23 48.03 47.11 45.94 45.58 49.75 52.83 55.56 59.07 58.90 57.11 58.44 56.61 55.82 56.29 57.10 58.18 55.22 51.75 50.36 49.86 50.32 50.34 49.95 49.51 48.48 48.11 47.54 48.08 49.34 49.24 48.95 47.73 45.53 44.70 45.38 47.15 47.57 47.81 47.98 48.67 49.46 49.16 47.99 47.11 39.22 44.91 42.98 47.06 47.03 47.96 47.11 46.71
52.02 49.77 47.42 47.74 47.28 51.10 53.90 57.64 59.07 58.16 57.94 57.37 58.62 55.58 55.82 55.44 56.32 57.56 56.32 53.98 52.13 52.06 51.42 50.57 50.33 50.53 49.86 49.08 48.48 47.43 46.76 49.15 49.60 49.24 49.93 48.74 48.10 48.18 48.09 48.21 48.83 49.21 49.69 50.62 50.49 49.98 48.96 48.43 48.71 47.44 46.27 45.63 45.28 45.31
49.53 48.09 47.37 46.28 49.99 56.73 57.67 56.34 56.15 55.38 55.14 54.13 54.62 56.26 54.69 53.65 52.15 54.89 56.73 56.44 53.02 50.98 49.14 50.46 50.86 50.67 52.06 52.03 51.65 51.27 41.53 50.19 50.01 49.75 49.41 48.80 48.64 49.04 49.14 48.90 48.99 49.34 49.28 49.03 49.61 49.44 47.69 47.15 48.17 46.98 46.66 45.40 46.09 45.99
51.02 50.45 49.47 48.52 49.30 51.29 54.80 54.77 53.93 53.28 53.54 53.29 53.83 54.08 54.01 53.87 51.38 56.06 57.19 57.59 56.16 54.28 52.30 50.38 51.19 52.95 52.86 52.96 52.56 51.52 46.22 51.23 48.86 42.79 41.73 41.36 42.19 45.01 48.70 49.14 48.96 48.77 48.18 48.62 49.04 48.53 47.09 45.84 46.99 46.21 45.90 46.23 46.20 46.05

GFSWCAN_sfc_wetblb_075.txt.gz
Wetbulb
54.47 54.66 55.04 55.60 55.74 56.28 55.90 53.72 52.24 52.48 53.05 52.74 53.49 54.33 55.39 55.60 55.83 56.49 60.52 62.50 59.20 55.02 55.15 54.20 54.06 53.05 52.59 52.58 49.59 51.11 49.31 49.40 48.22 45.53 46.36 45.60 43.53 44.91 42.60 44.66 43.73 44.01 42.43 42.35 43.78 41.61 38.72 50.41 48.07 44.44 49.68 51.59 51.00 50.32
54.14 54.46 54.64 54.96 55.36 55.62 55.90 54.12 52.32 52.33 52.80 52.28 52.66 53.43 54.71 55.22 55.65 54.97 59.99 62.53 61.91 57.39 57.01 57.96 57.15 58.18 56.87 56.42 54.62 51.93 51.07 48.64 50.57 48.71 48.73 48.11 44.95 46.08 44.01 41.65 46.82 41.76 46.22 44.04 45.15 45.23 50.90 51.65 50.26 52.93 52.80 51.39 49.94 50.56
53.69 53.93 54.07 54.60 54.86 55.22 55.78 54.28 52.20 52.38 52.62 51.99 52.12 52.87 53.88 54.57 54.90 54.83 59.77 61.20 60.18 56.79 56.21 55.52 54.37 58.18 59.56 58.43 59.58 52.68 54.04 53.50 51.43 53.87 51.42 49.68 43.14 47.70 43.18 43.64 45.17 46.97 48.77 45.37 44.22 48.00 48.54 50.71 51.20 51.08 50.54 50.26 50.75 50.56
53.00 53.14 53.87 54.30 54.72 54.88 55.48 53.81 51.93 52.40 52.55 51.87 51.82 52.12 52.64 53.75 54.36 54.34 59.82 61.04 59.67 56.97 51.91 54.40 59.20 56.98 59.80 59.43 58.58 58.33 56.43 56.70 56.34 53.81 50.20 48.36 45.25 50.19 45.76 47.29 46.41 48.44 48.97 46.08 45.95 48.35 48.80 50.32 51.41 51.19 50.58 50.78 50.48 50.83
52.70 52.69 53.22 53.72 54.20 54.66 55.44 53.40 51.72 52.17 52.45 51.74 51.63 51.70 52.24 52.86 53.44 55.86 61.13 63.01 63.15 57.44 52.94 53.84 57.19 58.31 59.11 58.65 57.31 58.07 56.57 56.25 53.95 50.64 48.74 47.25 48.73 49.70 49.44 47.96 46.95 50.73 48.31 46.53 45.06 50.34 50.23 50.08 52.21 52.75 51.17 50.43 50.99 50.52
52.61 52.75 53.08 53.52 53.84 54.30 54.86 52.58 51.47 51.96 52.37 52.30 51.85 51.30 51.68 52.01 52.84 58.92 56.73 60.82 64.31 61.41 55.31 51.13 57.67 55.67 57.76 57.76 57.16 56.83 55.84 54.52 51.91 49.59 52.02 51.46 52.00 49.70 44.45 42.94 50.31 51.88 51.50 52.47 50.11 53.14 52.36 52.49 52.11 53.14 51.74 51.69 52.01 51.62
52.80 52.96 53.12 53.30 53.82 54.48 53.54 51.11 51.39 51.92 52.35 52.47 51.83 51.26 51.39 51.51 55.32 56.22 55.49 57.76 55.48 61.13 55.65 51.54 51.70 56.36 57.29 56.69 56.81 56.02 56.10 53.55 54.27 50.07 49.02 50.78 49.26 48.74 42.69 40.73 48.99 50.43 52.31 51.27 53.63 52.32 50.40 50.92 49.78 52.08 52.33 52.39 52.01 52.64
52.72 52.78 52.89 53.28 53.80 54.23 52.30 51.16 51.74 51.88 52.37 52.08 51.15 51.30 51.37 51.98 52.83 55.38 58.54 53.60 55.97 58.06 56.84 51.63 52.08 53.37 57.80 52.75 51.68 56.97 51.61 51.96 51.63 51.75 53.46 49.52 48.02 48.24 41.00 48.06 50.33 49.80 51.64 50.96 51.51 52.89 52.27 52.97 52.30 52.19 52.59 52.50 51.30 50.79
52.45 52.58 52.64 53.14 53.36 53.15 51.31 51.37 51.57 51.49 52.16 51.66 50.90 51.26 55.35 55.08 56.82 57.60 55.14 54.79 59.96 56.99 53.00 53.96 51.26 48.65 57.64 55.33 56.09 55.16 54.17 48.65 54.77 49.99 50.08 49.50 47.18 40.81 46.70 49.08 50.35 51.75 50.41 50.25 50.53 50.54 52.22 50.73 51.62 51.63 51.92 51.61 50.86 50.86
52.22 52.32 52.54 52.94 52.81 51.19 50.72 51.09 50.92 51.21 52.04 50.86 53.10 55.68 54.81 57.79 55.14 56.03 57.19 53.67 52.80 55.46 55.78 52.58 58.06 53.33 55.28 54.35 53.13 52.44 52.66 48.87 45.97 48.71 51.08 47.02 45.47 50.86 52.23 52.89 53.34 52.71 51.87 50.48 47.16 47.38 49.53 49.54 50.05 50.81 51.20 51.87 52.15 50.83
52.42 52.58 53.01 52.10 50.90 50.75 50.54 50.97 52.11 51.24 49.83 54.72 54.54 55.21 59.02 54.21 57.76 55.01 50.33 48.85 50.27 50.89 54.85 55.07 55.22 53.11 58.12 52.03 52.15 53.75 50.43 51.28 44.96 47.00 46.16 45.04 42.02 49.19 51.37 52.44 54.13 52.87 52.77 52.36 52.95 52.51 51.98 50.92 51.19 50.75 51.02 51.13 51.41 51.35
51.84 51.51 51.23 50.98 50.84 50.79 50.92 51.41 51.76 53.14 57.63 54.80 56.22 58.24 59.18 55.29 52.32 48.60 48.01 50.12 48.74 51.10 55.10 53.51 54.49 55.84 55.01 57.85 52.68 52.23 48.64 49.32 40.52 48.43 44.11 39.29 46.25 51.78 51.96 52.10 52.63 53.29 53.02 51.91 53.15 53.16 53.22 52.98 52.35 51.75 51.95 51.28 51.85 52.41
50.60 50.31 50.29 49.93 50.35 50.60 50.97 51.38 51.16 51.71 51.26 58.60 55.20 52.82 52.51 50.47 43.58 44.48 44.51 48.49 50.80 54.89 55.94 55.56 53.36 55.66 55.39 55.53 52.59 50.59 44.11 42.97 50.36 44.15 41.68 44.46 51.08 52.01 52.54 52.15 51.87 53.28 54.25 54.04 53.23 53.12 53.17 52.57 52.63 51.72 51.36 52.52 53.51 52.63
50.92 50.71 50.84 50.52 50.67 50.71 50.79 51.55 51.23 52.84 54.58 52.95 50.39 42.15 47.74 46.52 49.41 51.56 52.57 54.80 56.59 57.14 56.45 57.12 55.32 53.04 53.76 51.10 51.53 44.41 46.83 48.69 40.23 37.39 39.87 47.37 50.86 51.69 53.03 53.11 52.59 52.08 52.41 52.58 52.64 52.98 53.09 53.37 52.80 53.50 53.31 53.44 52.94 52.88
50.54 51.08 51.49 52.26 51.69 52.02 51.48 51.53 51.30 55.20 55.26 51.02 50.34 41.38 47.63 51.63 54.33 56.13 57.04 56.81 57.34 58.12 58.60 57.01 54.03 53.35 51.30 47.83 49.48 45.18 41.41 38.47 40.63 41.85 45.66 50.15 53.15 53.36 52.30 52.35 52.26 52.02 51.93 51.06 50.77 49.92 50.08 50.35 50.95 52.06 53.07 52.98 53.99 53.56
50.33 50.44 53.61 51.50 51.49 51.33 51.08 51.16 52.86 56.62 55.47 52.13 50.85 48.85 50.96 50.80 51.17 53.70 55.32 55.67 58.75 57.64 59.19 57.69 50.92 48.37 46.71 46.26 42.23 39.17 38.42 37.62 43.00 46.35 51.67 53.28 53.06 52.84 52.39 52.11 52.01 52.03 51.22 51.03 50.72 50.49 50.48 50.01 50.05 50.57 51.61 51.84 52.30 52.50
50.66 53.01 51.42 51.49 50.83 50.80 51.56 55.21 56.44 52.67 52.17 50.40 50.19 52.95 51.50 51.15 50.30 50.84 52.85 55.46 61.01 58.82 53.45 52.09 45.85 45.39 48.07 42.58 38.99 42.79 41.43 44.75 49.59 51.15 52.01 53.76 52.78 52.37 51.94 51.02 50.66 50.37 49.91 50.01 49.64 49.68 50.16 50.45 49.80 49.89 48.49 49.79 50.89 52.16
53.13 51.10 51.78 51.91 51.98 53.12 56.17 55.13 54.22 52.80 49.29 51.67 49.72 51.19 52.97 53.77 53.57 54.77 56.95 60.07 60.22 57.85 57.19 51.28 51.24 41.72 37.75 35.31 37.20 43.85 47.79 50.32 53.50 52.76 52.77 53.93 53.31 52.91 51.51 50.52 50.17 49.52 49.47 49.67 49.59 49.96 49.98 49.49 48.30 47.99 48.51 47.90 48.26 48.44
50.18 50.37 51.15 51.43 52.53 51.37 52.20 53.41 54.88 49.74 51.39 52.82 53.37 54.09 54.29 54.84 57.52 58.37 58.88 59.98 59.87 60.20 56.13 52.01 42.25 39.83 40.30 45.77 47.05 49.57 51.30 51.97 50.67 51.15 52.47 52.99 52.79 51.30 50.32 50.73 49.90 49.00 47.87 48.24 48.83 48.17 47.58 50.20 49.19 47.30 46.60 45.74 44.88 47.34
50.43 51.06 51.63 51.76 50.67 52.06 50.26 52.32 57.25 52.20 50.52 54.00 55.43 54.27 55.11 55.40 58.06 58.25 58.26 59.04 57.57 55.90 49.98 45.78 45.81 48.29 49.30 50.95 51.86 51.39 52.69 52.53 50.94 49.93 50.69 49.79 51.35 50.57 49.16 48.95 47.88 49.15 48.59 49.14 48.65 45.48 47.77 49.14 49.35 47.18 45.09 45.26 44.29 45.78
47.77 53.76 51.68 53.58 52.37 53.00 52.92 53.59 52.72 53.64 53.73 52.93 55.77 56.00 54.66 58.08 57.97 55.90 58.12 59.49 55.01 52.53 49.74 51.36 51.81 53.77 55.33 56.89 56.19 55.73 54.64 53.45 51.53 50.40 49.50 49.69 49.91 49.90 50.21 51.09 49.78 48.47 47.60 47.57 48.01 46.63 45.75 46.57 48.60 48.24 45.82 45.72 47.38 48.79
55.18 51.52 57.02 55.35 54.09 53.48 53.15 55.81 53.26 55.06 53.41 53.67 54.28 55.57 54.87 55.10 55.34 56.44 59.43 54.90 53.45 54.69 55.08 55.11 57.13 57.21 56.31 55.25 55.43 55.67 55.28 53.76 52.21 48.16 45.68 45.67 48.77 48.20 47.81 48.22 48.53 46.80 47.09 48.02 47.31 46.99 47.87 48.43 49.68 49.34 46.98 45.28 45.44 46.97
49.31 52.30 54.33 54.04 51.56 50.13 48.91 57.43 52.49 54.07 51.02 52.94 57.17 53.66 53.72 54.93 57.76 59.51 55.84 54.52 53.64 56.15 55.79 56.57 56.37 56.66 56.67 56.10 55.76 55.00 53.91 52.46 49.67 48.77 49.27 49.06 49.30 50.44 49.71 49.84 48.88 47.20 46.19 47.90 48.87 48.00 48.47 45.47 48.14 47.29 48.44 47.70 47.08 46.45
48.29 52.19 50.91 51.20 51.10 46.75 53.53 51.50 54.86 54.07 54.59 53.37 52.48 50.72 52.83 55.46 57.59 55.53 50.15 49.11 53.20 54.93 52.92 52.12 53.52 53.27 54.12 54.59 52.63 51.76 51.69 51.09 49.48 49.55 50.31 49.48 47.62 48.43 50.67 49.04 48.70 48.85 48.79 49.66 48.72 50.24 51.78 50.00 45.10 48.12 47.66 46.58 46.85 45.92
46.03 45.61 47.77 41.40 52.13 48.80 48.86 50.48 52.14 52.39 50.54 52.07 51.62 50.88 52.41 57.98 53.08 50.28 48.91 50.28 50.34 51.29 53.56 52.94 51.39 52.85 51.67 51.65 50.69 50.28 51.42 51.01 49.01 48.03 50.09 49.33 48.34 48.74 48.87 48.79 49.07 48.81 49.74 48.48 47.84 48.63 48.12 49.24 48.46 47.10 46.25 45.33 45.40 45.32
41.12 48.93 44.78 49.42 50.31 49.27 50.19 47.06 48.61 49.65 50.43 50.06 51.87 55.19 55.71 48.82 45.57 45.98 50.27 52.47 52.14 53.38 54.17 53.82 53.69 53.56 51.17 50.98 49.10 48.91 49.68 51.03 50.06 48.25 49.07 51.38 50.92 49.85 48.19 46.59 46.22 47.68 50.41 49.71 48.06 46.66 46.60 47.57 48.23 46.34 46.52 44.84 40.73 45.07
40.89 46.62 51.35 54.28 53.19 52.94 51.82 52.58 52.91 51.19 49.83 49.09 52.01 51.19 51.24 45.47 45.17 50.98 54.73 55.44 54.70 55.88 56.49 56.28 54.21 51.58 49.89 50.03 50.35 50.49 51.07 51.70 51.38 49.52 49.97 51.75 52.55 52.76 51.38 49.87 47.20 48.72 52.29 50.37 49.74 48.00 46.60 46.71 46.04 46.03 45.78 48.02 47.24 46.80
50.15 50.96 47.82 50.78 50.89 52.12 49.41 50.50 50.54 49.28 49.98 54.84 54.49 48.60 48.34 49.12 49.32 56.19 55.62 56.92 56.20 55.21 54.51 53.81 52.76 51.75 51.15 50.79 50.87 50.27 49.64 50.12 50.48 50.01 49.59 50.14 51.63 52.36 51.09 50.86 50.24 41.94 49.42 49.60 49.18 50.74 49.76 48.96 48.40 47.26 46.72 46.14 46.83 47.58
50.29 52.75 51.77 49.21 50.22 50.25 50.12 49.98 50.49 54.36 57.51 55.26 52.54 51.53 53.14 57.34 58.27 56.86 56.21 54.92 54.21 52.67 50.48 50.23 50.39 51.58 51.40 51.44 51.44 50.88 50.05 49.33 47.78 45.56 45.24 45.57 46.80 47.93 50.62 49.86 49.08 50.13 50.12 48.59 38.66 42.48 46.98 46.97 47.75 47.87 47.46 48.97 48.37 48.26
50.91 53.36 49.99 49.42 48.37 48.02 50.96 53.02 53.46 58.03 60.22 58.30 60.07 58.89 57.10 57.86 58.91 59.19 55.94 53.98 52.31 51.28 51.25 51.08 50.92 50.46 49.58 49.33 49.15 49.75 50.88 50.68 50.29 49.19 47.41 46.93 47.85 49.18 49.70 49.91 50.27 50.72 50.81 50.32 48.95 48.07 40.57 45.14 44.34 47.45 47.58 49.27 48.82 47.31
54.17 52.60 49.98 50.23 49.27 51.43 52.94 55.83 58.56 58.82 58.35 58.67 60.22 58.60 54.26 56.91 58.39 59.16 56.91 55.00 54.23 53.81 52.76 51.60 51.24 51.66 51.04 50.60 50.12 49.23 48.42 50.72 51.04 51.01 50.82 51.37 49.81 49.60 49.91 50.10 50.60 51.02 51.34 52.52 52.23 51.17 50.38 48.88 49.80 48.50 47.78 46.65 46.41 46.23
52.00 50.56 49.53 48.40 50.53 55.24 58.82 56.12 56.99 56.77 57.29 57.72 55.97 56.72 56.68 55.84 53.93 56.68 58.92 57.23 54.48 53.34 51.35 51.84 52.02 51.99 53.36 53.60 53.54 53.29 43.38 52.20 51.40 51.26 50.92 50.29 50.19 50.69 50.65 50.63 51.07 51.09 50.96 50.45 50.51 50.56 49.11 48.43 49.87 48.39 48.47 46.88 47.14 46.66
52.44 52.00 51.25 50.42 50.44 51.57 55.71 55.89 55.29 54.49 55.59 54.70 54.96 55.88 55.91 54.26 51.54 56.61 60.70 60.26 57.73 55.26 55.03 54.41 53.89 54.97 54.74 54.76 54.85 53.58 48.83 53.01 50.37 43.63 41.33 42.72 44.10 46.69 50.01 50.64 50.55 50.49 49.62 49.68 50.22 49.99 48.57 47.70 48.07 47.90 47.55 47.41 47.44 46.79

GFSWCAN_sfc_wetblb_078.txt.gz
Wetbulb
54.64 54.72 54.92 55.10 55.38 55.56 56.12 56.40 54.32 52.87 53.04 53.78 53.43 54.27 55.09 55.84 56.05 55.50 60.72 62.80 59.52 56.73 55.87 54.65 54.39 53.11 52.73 52.81 49.73 51.53 49.84 50.25 49.01 45.69 46.15 46.45 43.92 46.29 43.36 45.62 45.30 43.48 42.79 43.04 43.02 41.15 39.59 51.19 49.14 44.60 50.15 52.44 51.38 51.58
54.11 54.15 54.47 54.79 54.79 55.05 55.78 56.40 54.61 52.59 53.11 53.74 53.30 53.72 54.55 55.20 55.76 55.29 58.76 62.98 62.27 57.34 57.05 58.62 57.20 57.81 56.95 57.01 54.45 52.47 50.87 50.96 51.19 48.73 48.34 48.59 45.27 46.11 44.58 41.23 47.87 42.88 46.23 45.77 45.59 46.13 52.31 52.20 51.78 54.20 53.90 52.07 51.58 51.53
53.75 53.56 53.64 54.12 54.18 54.97 55.42 56.08 54.75 52.37 53.14 53.47 53.22 53.57 53.79 54.24 55.00 55.11 58.83 60.83 59.71 56.22 56.46 55.67 53.81 57.77 58.81 58.01 59.24 52.92 54.41 54.36 52.80 53.67 50.45 48.97 45.13 47.78 42.69 44.17 45.76 48.41 49.62 46.46 46.79 49.18 50.34 52.09 52.67 53.13 52.75 53.03 52.50 52.54
53.48 53.37 53.23 53.70 54.18 54.57 54.91 55.74 54.57 52.35 52.93 53.23 52.95 52.99 53.30 53.61 54.14 54.11 58.85 61.44 59.54 57.87 52.14 54.53 60.25 56.62 59.36 58.80 58.08 58.58 56.94 56.89 56.38 53.51 50.06 49.38 46.60 50.73 46.31 47.16 47.66 49.11 49.33 46.74 46.35 48.79 49.94 50.40 52.05 51.74 51.10 51.70 51.81 51.64
53.12 53.20 53.23 53.19 53.85 54.27 54.77 55.66 53.63 52.14 52.75 52.95 52.57 52.72 52.87 53.36 53.46 55.11 59.57 61.72 61.88 57.67 53.47 54.69 57.53 58.74 59.04 58.17 56.99 57.97 57.02 55.37 54.14 50.36 49.57 48.40 50.30 49.28 49.70 48.26 46.54 50.07 47.86 46.97 45.89 50.51 51.05 51.03 52.86 53.45 51.69 50.65 51.45 51.04
52.95 53.15 53.20 53.40 53.81 54.01 54.53 55.05 52.34 52.36 52.69 52.78 52.86 52.99 52.74 52.78 52.96 56.81 56.82 60.40 62.18 60.89 54.74 50.32 58.73 56.94 57.29 57.96 57.09 56.88 56.94 55.73 54.49 52.02 50.76 51.15 53.11 49.65 45.06 44.94 49.74 51.84 51.99 52.22 49.69 52.68 52.70 53.68 55.06 54.31 52.67 52.46 52.08 51.73
53.14 53.21 53.21 53.29 53.59 54.05 54.50 52.70 51.19 52.10 52.46 52.82 52.86 52.53 52.20 52.30 54.08 56.01 54.79 57.03 55.06 60.84 55.51 52.58 52.08 56.80 57.94 56.99 56.72 56.07 57.18 55.68 53.58 51.58 49.91 50.59 51.05 49.69 46.62 43.32 48.92 50.93 52.21 52.46 53.76 53.09 50.62 52.60 51.46 53.40 53.39 53.45 53.21 52.89
53.00 53.10 53.09 53.08 53.49 54.01 53.43 51.48 50.93 52.22 52.40 52.72 52.36 52.03 52.11 52.51 52.59 54.99 58.74 53.82 54.94 57.76 57.45 51.39 51.79 54.21 58.02 53.39 51.72 56.64 52.84 53.94 53.27 51.20 52.86 51.47 50.33 49.30 44.02 48.39 50.73 51.46 52.16 52.21 52.47 53.46 51.19 52.97 53.79 52.56 53.18 53.01 51.69 50.92
52.53 52.58 52.69 52.93 53.31 53.64 51.92 50.95 51.73 52.37 52.45 52.57 51.95 51.95 54.82 54.77 57.25 58.16 56.25 56.31 60.42 57.44 53.28 53.32 50.77 48.55 57.48 54.61 54.24 53.57 54.40 50.02 54.73 50.48 51.11 51.06 48.22 40.64 47.01 49.12 50.68 51.65 51.01 51.29 52.72 52.39 50.59 49.59 51.27 51.79 51.57 51.51 50.90 51.00
52.44 52.47 52.56 52.96 52.99 51.69 50.86 50.96 51.67 51.97 52.01 51.86 52.09 54.61 54.36 58.11 56.58 57.41 57.46 54.67 54.08 56.17 55.65 52.50 55.74 50.57 55.40 53.34 53.44 53.15 54.26 49.67 47.01 50.12 52.08 48.35 47.15 50.99 52.16 53.10 53.50 52.70 52.80 52.83 50.11 48.77 49.82 49.92 49.64 51.30 51.07 51.69 52.02 51.66
52.75 52.70 52.94 52.13 51.25 50.54 50.37 50.52 51.30 51.74 50.16 54.27 53.83 55.05 59.26 55.11 58.18 55.66 50.41 49.86 51.52 50.23 54.41 54.52 54.81 52.64 58.04 52.13 52.20 54.05 50.31 50.73 44.85 47.19 46.20 45.66 43.85 49.11 52.95 53.44 54.21 53.99 53.34 52.97 52.84 52.81 52.57 50.41 49.56 49.94 49.62 52.12 52.31 52.95
51.82 51.85 51.59 51.24 51.08 50.73 50.78 51.34 52.11 52.13 57.55 54.03 55.56 59.17 59.30 55.80 52.89 49.08 47.83 50.33 49.78 49.54 54.84 53.24 54.12 55.26 56.63 57.58 53.64 52.38 48.35 49.14 42.44 49.54 45.07 39.88 45.97 51.64 52.24 51.43 52.31 53.81 52.67 52.08 53.01 52.21 51.55 51.46 52.13 53.02 52.61 52.78 52.68 54.29
50.85 50.66 50.65 50.01 50.35 50.75 51.28 51.55 51.57 52.41 53.05 59.25 55.27 53.15 52.89 51.54 43.33 44.43 43.31 47.74 49.72 53.26 55.18 54.95 54.26 56.82 57.31 57.25 53.08 50.64 45.64 43.39 49.68 43.88 43.12 43.19 50.76 52.56 52.81 52.62 51.99 53.29 52.81 53.77 52.92 53.50 53.79 53.20 53.61 53.02 51.83 53.33 53.53 51.09
51.27 51.19 50.55 50.33 50.66 51.00 51.15 51.56 51.74 52.76 53.68 53.27 50.82 39.45 47.42 46.53 48.58 50.72 51.22 53.04 55.54 56.63 53.10 55.11 55.07 54.52 54.17 49.26 50.99 44.06 46.63 46.16 39.90 39.18 39.59 47.67 52.10 50.12 53.02 53.03 52.01 51.40 52.45 52.20 52.30 52.60 51.05 50.82 51.94 53.74 53.37 52.70 52.95 49.94
50.61 50.91 51.74 52.37 51.88 52.39 51.60 51.27 51.57 54.14 54.78 51.37 51.06 40.97 47.85 51.38 52.91 54.73 57.03 55.25 56.65 57.42 56.72 55.91 55.72 54.34 51.48 49.21 48.48 44.86 40.50 37.90 40.44 40.58 45.71 51.99 52.18 52.60 52.87 52.50 51.94 51.53 51.28 50.56 50.19 49.95 50.65 50.66 50.08 50.96 51.96 51.53 51.57 52.49
50.59 50.03 52.27 51.49 51.39 51.62 51.10 50.78 52.74 55.34 54.75 52.26 51.48 49.06 51.41 50.17 50.75 52.52 55.51 55.43 57.09 57.22 58.47 57.35 52.16 49.56 47.36 46.10 41.64 38.35 37.73 37.11 42.87 47.04 51.34 51.79 53.02 53.15 52.24 52.14 51.06 50.48 50.47 50.02 50.42 49.82 49.80 49.48 49.03 49.44 50.43 50.28 50.07 51.41
49.85 55.10 51.42 51.59 51.01 51.12 51.07 53.55 56.42 53.30 52.04 50.88 50.24 52.80 51.59 51.48 50.80 51.86 52.73 52.78 57.68 57.23 52.96 53.55 47.19 46.16 46.61 40.12 39.68 43.06 41.32 46.59 49.53 49.63 52.41 54.30 53.11 52.14 52.16 50.75 50.19 50.08 49.48 49.54 49.20 48.97 50.25 49.83 50.18 49.26 48.23 49.67 50.12 50.36
54.11 52.29 52.04 51.78 50.87 54.92 56.80 53.93 54.18 52.90 49.82 51.81 49.57 51.19 52.61 53.18 52.70 53.59 55.08 58.56 58.68 55.81 56.57 51.17 53.65 47.46 41.27 37.93 40.96 46.90 49.44 51.24 52.35 51.45 54.13 53.59 53.53 52.89 51.50 50.09 49.90 49.81 49.10 49.30 48.92 49.44 49.12 49.10 49.11 48.45 48.29 48.20 47.71 47.50
50.05 51.02 51.55 51.59 52.69 51.36 52.48 53.98 54.25 49.17 51.57 53.54 53.74 54.00 53.95 54.15 55.74 56.27 56.93 60.41 60.29 57.53 57.14 53.49 47.33 44.14 44.16 46.85 48.16 49.96 51.37 51.69 50.73 52.60 53.10 53.67 53.27 51.65 50.56 50.80 50.08 49.53 49.41 49.33 49.51 48.23 48.45 49.51 48.84 46.84 46.16 47.33 45.76 46.70
50.29 50.85 51.11 51.65 50.81 51.81 50.99 52.18 57.23 52.30 49.84 52.42 54.79 53.50 54.43 55.10 57.00 57.27 58.26 55.15 55.80 57.83 53.29 50.48 49.90 49.39 50.93 51.99 53.14 52.32 53.75 53.50 51.90 50.23 50.86 51.86 51.96 51.91 50.08 49.42 48.67 49.81 49.20 50.18 48.96 47.26 48.00 48.30 47.91 46.87 46.77 45.60 44.85 46.18
51.58 54.27 52.43 54.15 51.38 52.84 53.47 52.98 53.07 53.44 53.59 52.23 54.13 54.40 54.50 56.89 52.27 51.44 53.21 58.96 56.49 54.78 52.84 54.75 53.15 54.11 55.58 55.65 55.79 56.20 51.26 54.49 51.77 50.64 49.28 49.11 49.98 50.18 50.19 49.93 49.82 48.73 47.84 47.59 47.16 46.26 46.62 45.82 47.59 47.48 46.25 45.92 47.34 49.73
55.72 52.42 56.00 54.96 53.48 53.49 52.93 55.51 52.74 54.71 53.21 53.35 53.45 54.37 53.71 52.05 52.42 55.34 58.69 55.56 55.32 54.01 56.18 55.32 57.00 57.31 56.39 55.62 55.90 56.13 55.81 54.49 52.65 48.42 45.89 46.77 48.97 48.21 47.76 48.70 48.32 47.23 47.48 47.07 46.55 47.10 48.24 49.87 49.67 48.38 47.22 46.26 45.99 46.56
53.04 53.12 53.90 54.55 50.85 49.40 48.16 56.27 51.70 53.27 49.70 52.39 55.66 52.94 53.70 52.19 52.41 57.04 55.32 56.29 55.57 56.92 58.15 57.68 57.45 57.92 57.05 56.89 56.31 55.61 54.80 52.46 49.78 49.06 49.45 49.14 49.19 50.15 49.36 48.89 49.07 47.72 47.24 47.91 48.98 49.36 48.23 45.80 47.53 48.77 48.06 48.28 47.82 47.12
49.16 52.47 50.82 49.71 50.35 46.57 53.42 51.67 54.53 52.89 52.95 52.17 52.10 49.93 51.22 51.99 57.32 55.25 50.44 52.75 55.04 56.20 55.70 55.78 55.60 54.00 54.15 55.25 53.07 52.43 52.21 51.87 50.00 49.79 50.71 49.33 47.93 48.81 49.58 48.66 48.93 49.32 49.37 49.56 49.65 49.60 48.59 49.36 46.11 47.66 48.22 46.57 47.64 45.63
45.11 44.54 47.05 40.88 52.14 49.43 48.54 49.72 50.95 50.91 50.54 51.44 50.69 49.96 52.09 56.29 51.71 50.67 49.21 50.53 53.75 54.04 53.80 55.33 54.67 54.29 51.85 52.72 51.64 51.30 52.42 51.06 49.54 48.81 50.51 49.79 49.01 49.01 48.63 48.56 49.11 49.39 50.19 48.57 48.90 48.42 48.15 48.86 47.89 47.42 46.25 45.69 45.49 45.70
41.15 48.59 43.54 49.22 49.79 48.64 49.77 47.00 48.78 48.71 50.73 49.44 50.87 54.09 54.96 50.58 46.00 47.00 51.56 52.42 53.00 54.22 54.04 54.70 53.64 53.62 53.30 52.68 50.16 49.46 50.32 51.77 50.69 48.73 49.23 50.27 50.24 49.54 48.05 47.35 47.06 47.51 50.34 49.67 48.45 47.62 47.20 47.60 47.28 46.87 46.84 45.66 41.27 45.02
42.11 46.58 51.51 54.41 52.42 51.62 50.95 52.45 53.28 50.27 48.76 48.56 52.40 51.66 51.08 46.73 46.59 50.87 55.15 55.97 54.48 55.52 56.51 57.15 56.11 55.24 51.34 50.78 51.44 51.40 51.43 51.59 51.74 50.29 50.47 51.48 51.91 52.20 50.96 49.16 47.97 48.95 51.22 50.32 49.65 48.51 47.55 47.64 47.23 46.83 46.46 46.83 46.88 47.04
50.19 51.14 48.16 51.26 51.24 52.03 49.37 49.97 49.33 48.50 50.31 54.58 53.29 49.01 47.34 48.49 50.29 54.74 56.35 57.59 57.62 57.81 56.50 55.58 54.14 52.83 52.04 51.51 51.23 51.10 50.93 51.41 51.03 50.41 50.17 50.67 52.00 52.23 51.71 51.18 50.39 42.00 49.64 49.21 49.28 50.09 49.36 48.98 47.75 47.16 46.89 46.45 47.22 47.84
50.26 53.28 52.74 49.78 51.07 51.38 51.11 50.16 50.82 53.40 57.52 56.01 53.13 49.77 50.79 55.32 57.62 56.54 56.85 56.45 55.91 54.38 52.31 51.04 51.21 52.33 51.84 51.83 51.51 50.81 50.35 49.84 48.31 46.01 45.67 46.03 47.28 48.47 50.90 49.53 48.56 49.97 49.79 48.44 38.32 42.71 46.93 46.75 47.56 47.76 48.06 47.95 48.24 48.58
51.12 54.19 50.93 50.48 48.97 48.54 51.64 53.33 52.88 55.75 57.96 57.14 57.78 55.77 55.98 57.43 58.58 58.71 56.29 54.68 53.15 51.67 51.59 51.70 51.27 50.97 50.08 49.80 49.47 49.79 50.68 50.84 50.56 49.16 47.45 47.37 48.44 50.30 50.49 50.46 50.50 50.82 50.81 50.03 48.72 47.73 41.01 45.92 45.39 47.96 47.96 48.30 48.50 48.17
54.17 53.44 51.59 51.11 50.14 52.18 53.10 54.18 55.21 58.01 58.16 57.58 57.19 55.12 54.85 55.35 58.17 58.39 56.45 55.50 54.55 53.66 52.51 50.79 50.30 51.16 50.58 50.33 50.04 49.13 48.62 50.85 51.33 51.22 50.90 51.04 50.60 50.15 50.39 50.65 50.80 51.07 51.07 51.63 51.34 50.16 49.04 48.19 48.42 48.19 48.02 47.64 47.24 46.53
53.02 51.69 50.31 48.53 50.06 53.81 55.57 55.40 55.02 55.94 54.82 57.36 56.33 57.16 56.14 54.81 53.60 56.66 58.29 56.41 54.91 53.84 51.80 52.52 52.35 52.07 53.36 53.44 53.30 53.19 45.27 52.37 51.86 51.50 51.28 50.12 50.47 50.98 51.09 50.93 51.10 51.08 50.92 50.64 50.32 50.03 49.57 48.68 48.99 48.34 48.61 47.26 47.76 47.43
52.58 52.38 51.99 50.97 50.51 51.22 54.22 54.95 54.62 54.50 55.55 54.71 55.23 55.95 53.68 54.14 51.91 54.54 60.23 60.17 57.79 56.14 55.38 55.58 55.66 55.42 55.67 55.24 54.75 53.77 50.21 53.83 50.99 42.69 41.79 42.57 45.93 48.08 50.54 50.78 51.10 51.00 50.44 50.03 50.02 50.13 49.19 48.83 48.38 48.43 48.03 47.84 47.96 47.68

GFSWCAN_sfc_wetblb_081.txt.gz
Wetbulb
54.50 54.60 54.68 55.00 55.22 55.38 54.94 55.71 56.93 55.82 53.65 53.51 54.31 54.24 54.75 55.31 55.77 54.72 56.21 61.19 57.13 54.10 55.56 55.25 54.96 52.94 51.49 51.22 46.94 48.56 47.14 47.86 44.74 40.87 42.65 42.42 40.32 42.29 39.02 41.10 39.62 38.84 36.89 35.88 36.96 33.94 32.81 49.04 47.63 42.48 46.18 47.54 48.29 48.47
54.19 54.11 54.05 54.31 54.69 54.14 54.43 55.64 56.57 55.79 53.51 53.78 54.02 54.01 54.44 54.59 55.30 55.28 56.50 62.45 61.74 55.20 55.55 58.88 57.41 59.21 57.27 55.71 51.76 49.49 48.03 48.60 47.39 44.52 44.43 45.21 41.91 41.62 41.04 35.88 43.27 35.87 42.10 38.45 40.15 39.81 46.88 49.30 48.32 49.48 49.75 47.73 48.41 47.74
53.77 53.73 53.70 53.60 53.82 54.08 54.63 55.52 56.15 55.59 53.48 53.67 53.87 53.81 53.95 54.49 54.76 54.18 54.99 59.03 58.96 54.73 54.50 54.65 52.25 56.13 56.65 56.27 56.27 50.02 51.50 52.17 50.50 50.43 46.91 45.66 41.29 44.41 38.20 39.99 41.92 44.48 44.99 40.94 41.32 45.13 47.35 48.40 50.00 50.30 50.48 48.66 49.68 49.28
53.66 53.61 53.64 53.54 53.62 53.94 53.94 55.24 56.09 55.10 53.35 53.61 53.71 53.31 53.66 53.98 54.14 53.73 54.88 58.25 58.07 56.14 50.97 52.61 58.32 55.99 57.89 56.23 57.08 56.80 54.51 53.95 53.22 50.53 45.08 44.79 42.67 47.15 42.77 43.39 42.57 45.25 45.97 42.65 42.15 44.68 46.11 48.46 49.83 49.55 48.69 50.00 49.84 49.71
53.34 53.53 53.36 53.48 53.04 53.55 54.09 55.02 55.89 54.09 53.16 53.46 53.45 53.22 53.49 53.49 53.63 52.85 55.11 58.39 60.58 55.79 51.09 52.80 56.77 56.63 57.02 56.57 56.59 56.65 54.68 52.61 51.16 48.19 46.18 43.98 46.90 46.14 45.80 44.72 42.17 45.86 45.68 41.98 40.79 48.00 47.43 47.78 49.98 50.59 48.46 47.87 48.97 47.75
53.27 53.40 53.35 53.31 53.52 53.79 54.27 54.80 54.94 52.89 53.28 53.49 53.36 53.24 53.18 53.10 52.88 53.79 55.09 59.68 57.90 59.61 52.90 50.17 56.53 55.53 56.03 56.22 55.48 54.71 54.53 53.47 51.70 48.97 46.99 48.70 50.27 46.32 41.35 41.29 46.68 48.30 49.58 48.83 46.29 49.58 50.65 50.73 51.78 53.40 49.59 49.07 50.08 49.11
53.37 53.35 53.36 53.35 53.57 53.86 54.08 54.78 52.56 52.06 53.12 53.28 53.45 53.07 52.66 52.75 51.62 53.12 53.23 55.56 52.11 58.57 53.59 50.75 50.48 55.58 56.80 56.10 54.58 54.19 54.95 53.00 51.44 49.92 48.22 47.39 48.16 47.12 43.71 39.49 46.25 47.81 48.89 49.94 49.43 48.79 48.04 50.00 49.65 50.93 52.85 51.34 51.72 50.32
52.88 52.94 53.24 53.40 53.41 53.92 54.38 52.90 51.14 50.99 52.89 53.26 53.26 52.93 52.71 52.34 51.61 52.39 57.07 53.05 52.95 55.36 55.83 49.21 50.50 52.02 56.17 51.24 50.30 54.91 51.74 51.79 51.36 49.70 50.39 48.84 48.42 47.09 41.54 45.84 47.65 49.20 50.01 49.99 50.71 50.86 49.51 49.87 50.51 50.66 52.58 52.36 49.19 48.41
52.51 52.62 52.72 52.98 53.24 53.76 52.97 51.81 51.10 52.04 52.49 52.76 52.99 52.56 52.96 51.62 54.56 57.74 57.44 57.14 58.87 56.81 51.46 51.56 48.79 46.97 55.45 52.62 53.64 52.61 51.69 47.44 53.15 47.70 48.44 49.20 46.00 39.17 44.61 46.65 48.18 49.65 48.97 47.28 49.60 49.53 50.66 50.35 48.63 50.53 49.80 50.65 48.26 47.44
52.55 52.51 52.64 52.99 53.31 52.33 51.21 50.66 51.54 51.70 51.62 52.17 50.97 52.52 52.95 56.73 57.51 58.46 56.43 54.88 54.45 54.83 53.94 50.50 54.60 50.01 53.64 51.81 50.73 50.89 51.22 48.48 44.92 47.92 51.39 46.25 43.63 48.33 50.18 50.91 50.83 52.45 50.44 49.48 46.71 47.80 48.61 48.26 48.57 49.29 49.64 49.44 49.07 48.75
52.94 52.87 52.85 52.22 51.59 50.81 50.65 50.80 50.98 51.59 51.04 52.18 52.91 54.08 58.64 55.73 57.10 55.31 50.03 49.30 50.93 48.64 52.30 51.77 51.28 50.36 55.13 49.04 49.86 52.25 48.57 48.75 42.46 46.31 45.23 43.19 41.64 47.02 51.10 51.49 52.74 51.70 51.46 50.29 50.24 50.40 49.62 49.00 49.09 49.19 48.59 49.64 49.24 49.59
51.76 51.63 51.50 51.09 50.63 50.70 50.86 50.73 51.53 50.33 54.74 51.66 51.11 54.55 59.30 55.28 52.77 48.55 47.65 50.29 48.68 47.51 53.81 51.50 52.71 53.72 55.38 55.45 49.86 50.47 46.96 47.69 41.96 48.68 43.28 37.46 44.71 49.33 51.93 51.06 50.74 51.24 51.39 51.13 52.01 51.54 51.33 51.42 50.88 50.12 49.29 48.81 49.46 50.72
51.50 50.84 51.07 51.10 51.35 51.56 51.62 51.47 51.48 51.68 51.54 56.64 53.57 52.73 51.65 50.72 40.46 43.22 42.05 45.30 47.08 52.26 54.15 53.86 52.97 55.22 54.78 53.60 49.90 48.20 44.27 43.13 48.27 42.40 38.97 41.61 47.66 47.39 48.36 48.85 51.54 51.46 52.53 52.31 51.12 51.07 51.42 52.01 51.97 51.29 50.56 51.72 51.22 51.26
51.56 51.75 52.39 51.77 51.25 51.28 51.03 51.09 51.69 52.22 51.47 51.79 50.05 36.56 46.09 44.74 46.59 47.79 48.11 50.93 53.19 52.51 51.04 53.43 51.06 52.20 53.31 50.06 50.31 43.15 44.94 44.86 39.02 37.27 39.41 46.24 47.88 47.71 48.28 50.29 52.02 51.16 51.21 50.43 50.42 50.99 50.64 50.16 49.74 50.48 51.12 50.08 50.99 50.44
50.82 50.95 51.87 52.29 52.08 52.56 52.47 51.24 51.44 52.49 52.35 50.79 50.76 38.72 46.08 49.79 51.36 52.36 54.59 52.85 52.37 55.18 51.78 50.95 50.16 52.01 49.56 47.68 45.76 43.33 39.68 37.62 39.46 40.37 45.59 48.99 49.94 50.91 50.59 50.93 48.29 49.01 48.94 48.29 48.80 48.63 48.58 48.39 47.78 48.08 48.87 49.30 49.26 49.11
50.80 50.14 52.14 51.72 51.28 51.57 51.56 50.51 51.06 52.44 53.42 51.12 50.68 47.88 50.64 49.60 49.67 52.03 53.17 54.80 54.27 54.48 54.33 52.50 49.95 48.13 46.34 45.79 40.72 39.14 38.02 36.60 42.26 47.36 50.01 51.01 50.78 50.90 50.18 49.88 49.51 49.06 48.07 47.79 47.16 47.45 47.25 46.98 46.63 46.97 47.78 47.69 47.32 47.40
49.33 53.39 51.31 51.59 51.44 51.29 51.03 52.09 53.53 51.04 50.44 49.85 48.61 51.86 50.51 50.05 49.63 50.92 52.82 53.30 58.59 55.59 52.80 52.53 46.52 45.38 46.72 41.60 40.29 43.39 40.29 45.41 47.35 50.13 51.22 51.25 50.54 50.56 49.84 49.43 48.48 48.34 47.81 46.77 46.73 46.73 46.68 47.74 48.14 46.88 45.37 45.33 45.87 46.14
50.78 51.97 51.87 51.71 51.20 52.01 54.87 51.46 52.24 51.81 48.38 50.50 48.52 50.47 51.92 52.64 52.89 52.90 54.41 56.93 57.97 56.11 55.11 50.94 53.46 47.01 43.92 40.21 41.35 45.56 48.04 50.68 51.24 51.58 51.59 52.37 51.56 50.46 49.89 48.03 48.38 47.88 46.99 47.24 47.28 47.63 47.71 46.96 45.17 43.92 43.85 44.80 44.45 45.15
51.13 50.47 50.93 51.26 50.51 48.72 50.71 53.34 53.52 47.21 49.55 52.36 53.55 54.35 53.70 53.93 56.98 57.43 56.81 56.12 58.38 58.61 56.06 51.71 48.41 45.92 45.25 46.86 47.80 49.67 50.66 50.32 49.56 51.46 52.08 52.56 52.20 49.67 49.01 49.89 49.30 48.78 49.09 47.50 46.23 47.03 46.99 46.42 45.05 44.33 44.55 45.31 45.18 46.08
50.15 50.63 51.16 51.32 50.38 49.84 49.68 51.09 56.74 51.68 48.82 52.28 53.27 52.68 54.40 54.46 54.93 55.88 54.98 53.81 52.29 52.50 50.77 49.36 49.55 50.77 51.27 51.06 51.74 53.16 52.05 53.67 51.09 49.89 49.97 49.56 50.19 50.67 48.40 47.72 47.27 47.71 47.16 45.92 45.62 45.42 46.20 45.24 44.76 43.65 44.58 44.94 45.54 45.45
51.03 52.66 51.26 51.57 50.65 49.67 50.76 51.76 52.06 52.80 53.13 51.48 53.54 53.04 52.77 56.10 53.60 52.28 53.33 53.48 50.15 49.42 50.17 52.67 53.66 54.78 56.51 55.43 56.60 55.85 54.71 53.52 50.07 49.35 49.77 48.67 50.00 49.98 49.13 49.15 48.46 47.42 45.99 45.55 45.26 44.59 44.60 44.52 44.22 44.39 44.46 45.15 46.13 47.19
53.61 52.04 54.46 53.65 52.55 53.00 51.61 54.32 51.55 53.85 52.56 52.21 51.99 53.44 52.27 53.32 53.40 51.74 55.76 52.90 52.43 53.48 55.97 55.96 55.36 56.44 56.06 55.44 55.77 54.70 54.54 52.64 49.33 46.15 45.54 45.50 47.77 47.03 46.62 47.10 46.64 45.71 45.56 45.53 45.69 45.58 46.23 47.28 47.46 47.18 46.73 45.10 44.62 45.14
51.96 52.98 52.89 53.37 50.32 46.88 46.34 55.67 50.32 52.24 49.11 51.17 53.92 52.18 52.91 52.85 54.37 55.90 52.18 53.88 56.18 59.31 58.44 57.99 57.28 57.32 56.17 56.49 55.87 55.68 54.94 52.87 49.71 48.55 49.06 47.84 48.35 48.95 47.86 47.69 47.86 46.48 45.63 46.24 47.25 47.36 47.25 45.05 44.90 46.51 46.70 46.20 45.88 45.60
51.16 51.40 49.79 49.42 48.20 44.28 51.83 50.46 52.39 51.71 52.43 50.25 51.37 48.59 48.79 52.50 54.51 50.99 49.14 51.85 53.81 57.15 56.10 56.09 55.14 54.28 55.07 55.02 52.56 52.26 51.86 52.72 49.74 50.24 50.18 48.23 46.79 48.02 48.01 47.39 47.77 48.01 48.03 48.42 47.67 47.48 47.27 47.05 45.94 46.13 46.22 45.56 45.13 44.52
44.22 42.74 44.74 37.33 50.45 49.02 47.30 47.95 49.27 50.00 48.66 50.40 49.64 48.18 49.16 54.65 50.44 49.68 49.12 50.92 52.62 53.75 54.21 55.28 53.54 54.05 51.79 52.25 51.85 51.21 52.85 50.82 48.50 47.77 50.24 49.22 48.07 47.87 47.54 47.17 48.01 48.81 49.17 47.90 46.96 46.90 46.34 46.71 46.23 45.82 45.23 43.85 43.79 45.13
39.47 46.52 41.93 47.55 48.20 46.74 47.93 46.78 48.50 49.17 49.76 49.23 50.63 53.52 55.26 50.47 47.43 47.62 50.29 52.36 52.75 52.15 54.04 54.24 53.60 52.86 52.15 51.49 49.39 48.42 49.82 52.26 51.35 48.30 48.99 48.94 48.99 47.80 46.61 45.72 45.00 46.71 49.20 48.60 47.25 46.39 46.07 46.33 46.10 46.45 45.76 44.17 40.42 45.19
40.99 45.73 50.04 53.65 51.10 51.10 50.02 51.13 50.57 50.30 48.86 48.70 52.11 51.37 50.22 46.36 46.63 50.50 54.10 55.58 54.68 55.75 56.86 57.06 54.81 53.07 52.00 50.77 51.05 51.53 51.77 51.56 52.37 49.63 50.39 49.92 50.76 50.77 48.93 47.63 46.26 47.85 49.87 49.39 48.65 47.78 46.62 46.65 46.14 45.97 45.52 45.74 45.71 45.62
48.19 50.29 46.67 49.98 50.30 51.72 48.64 49.05 48.72 48.47 50.18 53.89 52.78 49.11 47.32 47.32 49.16 55.42 55.96 57.22 57.48 57.44 57.10 57.21 56.62 56.17 51.56 50.66 50.43 50.82 50.89 50.72 50.73 50.24 49.95 50.06 50.69 50.84 49.73 48.93 48.20 44.13 47.60 47.76 48.39 48.15 47.54 47.83 47.07 46.48 46.20 45.27 45.60 46.53
47.77 51.08 51.33 48.76 50.38 50.19 50.35 50.07 50.14 52.44 56.30 54.31 53.10 51.31 50.94 54.86 57.54 56.22 57.59 57.72 58.32 57.10 54.29 51.60 51.18 51.67 51.30 51.14 51.27 50.73 50.08 48.70 47.39 46.10 45.48 44.39 45.39 47.13 48.56 47.54 47.37 48.55 47.78 46.39 38.67 43.22 46.18 45.75 46.47 46.26 47.65 47.11 47.24 47.37
48.00 52.15 49.89 50.12 48.93 47.80 50.92 52.70 52.37 55.93 58.07 57.87 57.62 56.42 55.09 55.84 58.68 57.89 56.23 55.76 54.12 53.06 52.46 51.46 51.31 50.61 49.32 48.75 48.24 48.74 49.60 49.86 49.26 47.84 46.15 46.19 46.80 48.99 48.56 47.93 48.59 49.24 47.99 46.97 46.00 44.81 40.66 44.20 43.69 47.03 46.94 47.43 46.98 46.88
52.79 52.23 50.69 50.46 49.25 51.85 52.98 54.62 54.97 56.74 58.00 55.95 54.63 53.00 53.95 53.67 56.14 57.31 56.35 56.12 54.86 53.87 52.00 50.58 50.37 50.60 49.68 49.42 49.02 48.02 47.34 50.15 51.85 52.08 51.46 50.43 49.86 49.53 49.91 50.11 50.13 50.77 50.30 49.32 48.18 46.55 46.06 45.57 46.84 47.38 47.32 47.27 46.00 45.22
51.22 50.82 50.56 49.15 50.08 54.19 55.27 53.10 53.14 57.14 55.88 53.97 50.81 51.79 53.69 52.34 51.12 55.95 57.93 56.59 53.95 52.28 50.90 51.00 50.62 50.45 52.03 51.77 52.10 51.34 48.32 50.96 51.39 51.21 52.25 50.59 50.27 50.70 50.63 50.13 49.86 49.83 50.65 50.38 49.89 49.37 48.91 48.51 48.42 47.86 47.56 47.73 47.72 47.45
52.42 52.18 52.50 51.12 50.90 51.30 52.59 54.90 54.74 53.92 54.11 52.62 52.29 53.19 53.48 52.52 50.80 53.86 58.52 58.04 55.63 54.83 54.01 54.64 54.97 54.53 55.52 55.78 55.08 52.72 49.58 52.74 49.59 44.50 42.94 44.07 47.73 48.42 49.97 49.77 49.77 50.47 50.21 49.81 49.45 49.29 49.03 49.00 48.14 48.83 48.47 48.17 48.13 47.80

GFSWCAN_sfc_wetblb_084.txt.gz
Wetbulb
54.25 54.36 54.42 54.32 54.75 55.17 54.40 54.56 54.72 56.78 55.72 53.68 54.20 54.47 54.73 54.91 55.17 51.92 50.38 53.34 51.24 47.32 49.10 51.35 50.88 46.74 47.33 44.87 40.78 42.93 42.32 43.74 39.48 36.58 37.47 33.89 32.50 35.98 33.45 37.67 35.45 35.05 31.13 28.91 32.25 28.78 29.35 47.10 46.85 40.66 42.78 44.16 46.42 47.41
54.25 54.27 54.26 54.03 53.91 54.26 53.76 53.89 55.11 56.28 55.41 53.82 54.17 54.16 54.16 54.74 54.82 54.20 51.15 55.31 55.99 49.30 49.85 53.07 53.52 52.65 53.00 51.21 46.18 42.68 43.68 42.58 41.88 39.22 39.34 38.93 35.29 36.96 35.25 30.12 38.82 32.28 38.22 34.82 36.39 35.85 43.62 45.92 45.88 46.74 47.41 45.77 45.22 47.31
53.83 53.99 53.99 53.96 53.44 52.73 53.72 53.74 55.05 56.26 55.19 53.61 54.10 54.00 53.73 54.17 54.34 53.07 49.05 51.50 52.46 48.99 49.47 48.79 49.49 50.06 52.31 51.22 51.42 45.44 45.30 45.99 44.14 44.01 40.90 39.97 37.33 38.23 33.68 34.96 37.34 40.41 40.98 36.29 37.89 42.38 43.31 45.09 47.15 48.16 47.59 47.50 47.61 47.73
53.71 53.89 53.97 53.88 53.92 53.54 53.50 53.60 55.17 56.22 54.34 53.17 53.91 53.60 53.72 54.21 53.82 53.19 48.51 51.17 52.28 50.19 45.93 47.28 52.29 50.14 51.98 51.01 52.56 51.47 49.22 47.98 47.21 43.83 38.63 38.35 38.06 41.38 37.76 38.94 37.76 40.95 41.31 38.39 37.72 41.11 42.94 46.55 46.97 47.36 47.20 48.70 48.36 47.42
53.35 53.56 53.77 53.83 53.74 53.40 52.81 53.52 54.91 55.92 53.27 53.13 53.64 53.56 53.66 53.52 53.13 50.30 48.40 51.05 53.67 50.91 45.85 47.11 51.81 50.69 51.10 51.43 51.86 51.22 48.61 46.71 44.96 42.52 40.21 38.69 41.33 41.49 40.39 39.64 37.18 41.97 40.37 37.49 37.14 43.18 42.29 42.86 45.97 47.69 46.35 47.14 47.19 46.62
53.22 53.40 53.58 53.65 53.62 53.06 53.56 53.60 54.95 54.78 52.71 52.88 53.33 53.62 53.41 53.01 52.40 50.48 50.38 53.83 51.92 53.40 47.85 43.67 50.19 48.68 49.16 50.77 50.19 48.16 48.69 46.98 45.27 43.16 41.05 43.06 45.03 41.23 36.56 33.10 41.84 43.37 45.39 44.82 43.37 45.77 46.76 48.54 51.21 50.67 47.04 45.85 47.60 46.37
53.19 53.33 53.37 53.63 53.57 53.54 53.89 54.20 54.87 52.48 52.77 52.69 53.00 52.96 52.74 52.02 47.93 49.24 50.51 53.30 51.17 51.96 48.90 45.72 46.01 49.24 51.03 49.88 48.43 48.14 48.39 47.17 45.60 43.31 42.27 42.80 43.05 42.87 37.94 33.17 42.18 44.19 44.54 46.48 47.47 46.57 44.26 47.13 46.06 49.83 50.12 49.15 50.03 47.62
52.81 52.83 53.17 53.45 53.45 53.54 53.91 54.45 52.88 51.14 52.22 52.92 52.63 52.67 52.45 52.17 50.44 47.70 50.93 51.77 50.14 50.61 50.66 44.90 45.07 46.42 49.01 45.15 44.55 47.73 45.99 45.56 45.26 43.80 44.57 43.45 43.58 42.00 36.10 41.43 43.38 45.48 45.90 45.73 47.35 47.39 46.19 46.52 47.47 47.98 49.32 49.57 47.18 46.94
52.50 52.48 52.70 53.05 53.13 53.38 53.91 52.63 51.54 51.74 52.02 52.13 52.34 52.42 50.40 48.96 48.39 53.08 57.08 54.79 53.26 51.80 46.75 46.19 42.77 42.98 49.60 46.75 46.94 46.99 45.67 41.84 47.45 42.72 42.96 44.04 39.81 36.27 41.17 42.70 44.41 46.21 45.95 45.99 47.69 47.24 46.71 46.46 46.42 47.00 47.49 48.33 46.85 45.42
52.77 52.68 52.54 52.65 53.17 52.91 51.81 51.28 51.36 51.35 51.40 51.91 50.53 49.75 48.67 52.96 57.34 56.94 52.96 50.04 49.57 49.47 48.11 44.88 48.59 45.83 48.33 46.15 45.12 46.16 45.99 43.26 40.59 44.21 46.33 40.49 40.20 43.60 44.92 46.64 47.58 47.33 48.16 48.46 43.23 42.85 43.54 44.35 45.75 46.73 46.51 49.66 48.97 48.55
52.45 52.61 52.59 52.20 51.72 51.19 50.72 50.51 50.84 51.30 51.89 50.36 49.01 50.16 55.92 56.36 51.93 50.08 44.63 45.13 45.50 43.57 46.46 46.64 46.51 45.08 51.68 44.90 45.54 49.53 46.05 45.15 35.76 41.09 41.70 34.91 39.51 44.94 48.63 48.62 48.56 49.29 47.95 47.06 46.69 46.90 47.31 46.36 46.41 47.00 47.25 49.65 49.89 49.40
50.55 50.69 50.83 51.00 50.79 50.55 50.78 50.75 50.84 49.51 50.21 48.60 48.88 50.87 51.87 50.59 48.29 43.59 42.58 46.36 45.55 43.25 47.71 46.60 47.47 46.98 49.13 50.80 47.09 47.14 44.57 46.12 40.12 47.28 42.58 36.05 42.09 45.23 46.60 47.80 49.42 47.41 47.61 47.76 48.49 48.49 48.33 49.55 49.03 48.22 48.06 47.30 50.25 50.21
51.67 51.84 50.87 50.15 50.59 50.95 50.78 50.62 50.73 50.82 50.05 50.02 48.89 47.61 49.02 45.05 37.80 40.22 38.06 41.53 43.02 47.18 49.45 50.41 48.64 49.28 50.55 49.39 44.62 43.94 42.43 42.56 46.73 41.67 37.20 39.14 43.54 45.34 44.89 47.53 47.61 47.82 48.92 48.88 48.24 48.80 48.86 48.67 51.00 50.08 49.68 49.08 49.40 48.71
50.91 51.08 50.91 51.88 50.80 50.74 50.70 50.36 50.64 50.16 47.75 47.14 46.88 36.61 41.41 39.96 42.66 42.96 43.06 45.39 48.53 49.35 49.71 50.16 48.78 48.05 48.46 45.37 44.75 40.71 43.92 44.04 39.40 36.45 36.43 41.58 42.15 43.39 46.36 47.11 48.35 47.16 47.48 47.14 47.61 48.34 47.24 47.73 48.84 50.15 50.45 49.87 50.53 49.44
50.65 50.72 50.90 51.74 51.82 51.52 51.80 51.46 50.61 47.68 47.32 46.78 46.55 35.69 41.91 44.60 45.38 47.40 49.76 48.65 50.73 51.20 48.90 46.59 45.93 48.12 46.55 44.95 44.46 43.12 40.39 37.53 37.74 35.08 39.58 42.91 43.86 47.07 44.89 46.62 43.87 44.02 43.58 43.42 43.83 44.39 44.67 44.90 45.12 45.74 46.69 45.83 45.18 45.29
50.65 50.48 49.98 51.82 51.54 51.33 51.20 50.19 47.60 47.32 48.19 47.72 45.78 42.91 44.63 43.32 43.45 44.24 47.68 48.39 52.71 52.11 51.11 47.10 44.12 45.24 44.64 44.49 40.63 39.58 37.88 34.29 36.80 41.89 44.41 45.72 48.47 46.89 43.57 43.65 43.20 43.57 42.61 41.95 42.22 42.78 43.43 43.54 43.20 43.15 43.69 42.77 42.95 43.38
49.81 50.67 51.03 51.32 51.64 51.36 50.84 49.02 48.75 47.19 47.00 46.96 43.93 45.39 44.63 43.52 42.99 44.12 45.76 49.05 53.52 50.37 46.28 46.53 42.91 41.44 43.07 39.73 38.42 41.52 37.49 39.39 43.72 46.75 47.43 45.32 44.94 43.78 42.82 42.29 43.31 43.21 42.22 41.56 41.46 41.84 42.67 43.06 42.26 40.79 39.48 40.39 41.35 41.75
48.21 50.30 51.63 51.22 50.70 50.78 51.95 49.26 49.20 50.16 46.61 46.57 43.25 44.16 45.36 46.42 45.70 45.99 51.21 52.78 51.58 50.98 49.32 45.08 46.61 40.81 38.62 36.15 37.20 40.37 42.24 44.55 47.75 46.29 47.91 45.73 44.22 43.40 43.59 41.66 42.76 43.13 41.76 41.65 42.55 42.92 42.31 41.20 39.73 39.14 39.14 40.57 41.22 42.05
48.45 47.87 50.29 50.56 49.57 46.90 48.22 50.91 50.59 44.63 45.23 45.93 46.53 47.11 47.72 47.64 52.10 52.28 50.32 50.17 50.83 52.38 49.53 46.62 43.63 42.45 41.40 42.32 42.12 42.77 43.71 45.72 45.91 46.40 46.42 45.88 44.84 44.07 43.25 42.71 42.96 42.38 41.24 41.32 42.21 42.12 41.35 40.60 39.48 39.43 41.09 40.86 40.17 42.61
50.02 50.34 50.78 50.93 50.38 46.97 47.08 48.18 51.35 46.35 45.13 46.68 46.82 46.35 46.97 47.26 51.45 51.03 50.14 48.79 48.49 49.69 47.26 46.29 46.59 46.15 45.61 45.62 45.93 45.92 46.34 48.51 48.36 45.87 44.41 45.43 47.35 44.00 42.05 41.12 41.39 40.51 40.23 40.65 41.79 42.19 40.05 39.50 39.56 39.32 39.79 41.10 40.72 39.99
50.04 51.26 51.18 50.38 48.30 46.65 46.03 47.16 49.16 47.55 48.54 46.81 47.75 47.39 47.81 50.03 48.23 48.00 49.87 49.70 47.80 46.27 46.55 49.62 50.93 51.88 49.65 48.17 48.98 48.47 45.97 49.25 47.82 47.51 46.55 43.47 44.07 43.54 41.79 43.11 41.46 41.01 39.94 40.03 40.02 40.72 40.79 38.86 39.45 40.01 40.05 40.10 42.87 45.27
50.58 52.30 50.20 49.62 48.91 49.95 46.66 48.65 46.82 47.51 46.35 46.52 46.48 46.83 45.20 49.62 48.29 47.79 51.49 48.74 48.02 48.26 49.25 49.74 50.27 49.98 48.96 49.13 47.59 46.02 45.17 41.78 40.24 42.53 45.19 45.10 42.50 40.34 42.43 42.30 40.86 39.73 40.13 40.48 40.40 40.48 40.78 41.46 41.17 41.42 41.85 41.14 41.00 41.58
49.67 50.29 48.95 50.77 49.06 45.58 41.96 50.03 46.35 46.84 44.72 45.48 49.25 48.94 46.84 46.76 50.20 52.87 49.02 50.85 51.55 54.33 52.03 50.92 50.72 50.43 50.07 49.66 48.94 47.65 44.69 43.51 40.70 40.03 40.94 41.16 40.36 42.03 43.09 41.67 42.33 40.86 39.76 39.86 41.04 42.47 42.41 42.75 42.63 42.03 42.24 41.37 40.89 40.82
51.39 48.98 48.33 46.64 45.92 40.18 47.03 46.21 50.04 48.06 49.06 44.96 46.70 47.08 47.44 48.67 51.16 47.90 46.53 49.36 52.17 53.06 51.25 50.62 50.81 49.53 49.19 48.33 48.84 48.17 44.46 42.90 41.00 41.48 40.81 40.72 39.87 39.94 42.27 42.61 41.80 41.73 41.94 41.84 42.05 41.69 41.97 42.13 42.70 41.60 41.67 41.35 40.47 39.95
43.15 41.42 41.52 35.69 44.79 45.62 45.29 45.21 45.27 45.61 45.19 46.31 47.16 47.19 48.13 49.18 46.82 46.58 46.78 49.12 51.55 51.88 50.42 50.39 49.05 48.97 47.28 46.82 46.00 43.60 44.90 42.96 41.22 40.25 41.21 41.40 40.96 40.38 39.19 40.97 41.44 42.39 43.19 41.80 41.10 42.09 41.74 41.23 41.83 41.60 41.36 40.06 39.58 40.11
38.33 42.94 38.95 43.97 44.02 43.16 44.95 45.55 46.99 46.71 46.07 46.68 47.75 49.84 50.67 46.53 43.90 45.08 45.44 48.23 48.83 51.37 52.01 49.79 48.62 47.58 46.85 47.04 43.86 42.58 42.08 43.74 42.87 41.32 40.65 42.32 41.96 41.98 39.22 40.04 39.96 40.51 42.76 42.83 41.92 41.65 41.64 41.27 41.29 41.55 41.08 40.45 40.41 41.16
38.76 42.71 45.71 47.87 46.18 46.16 46.26 48.80 48.55 45.42 45.01 45.84 47.44 47.33 46.34 44.06 44.48 45.89 49.09 50.04 49.09 49.85 52.00 51.38 50.59 49.09 50.34 47.59 43.44 42.92 43.91 43.97 44.12 42.83 42.45 42.83 42.94 44.31 43.46 41.35 39.54 41.15 42.58 43.75 42.52 42.56 41.70 41.66 42.01 41.88 40.81 40.80 40.89 41.44
44.65 45.58 43.53 45.44 45.88 46.93 45.00 45.04 44.87 45.90 45.85 51.32 50.16 47.33 45.28 45.78 45.46 49.24 50.24 51.47 51.59 51.55 51.78 51.79 51.84 51.41 47.74 45.02 45.28 43.87 42.20 42.91 43.29 42.36 43.00 43.22 42.60 43.51 43.75 42.99 42.28 41.52 42.80 43.22 42.99 42.78 42.70 42.65 41.79 41.94 41.40 40.32 40.51 41.92
44.63 46.99 47.10 44.90 46.01 46.30 46.29 45.35 45.46 48.01 50.45 50.23 49.32 47.71 46.69 49.59 51.53 50.54 51.11 52.18 52.13 51.26 49.33 44.67 45.50 47.90 45.28 43.86 44.05 44.83 42.69 42.47 41.21 39.36 39.18 37.64 39.09 40.41 41.36 41.44 41.28 40.92 40.60 39.98 39.75 41.51 42.78 42.11 42.11 42.61 43.26 42.34 42.19 42.33
43.83 46.88 44.50 45.65 45.28 44.80 47.03 47.98 47.10 49.66 51.05 52.33 52.50 50.84 50.14 51.36 53.39 53.16 50.73 51.96 49.91 48.18 46.48 46.36 46.42 46.06 44.25 43.77 41.37 40.21 42.27 42.65 42.84 42.14 40.35 39.74 40.18 42.25 40.76 41.62 41.79 42.25 40.44 39.36 38.55 38.35 39.64 40.37 39.59 40.78 41.50 41.55 41.09 41.10
47.21 46.48 45.20 45.72 45.04 47.71 50.15 49.40 49.39 54.48 53.32 50.49 51.09 49.76 49.69 52.41 54.08 54.20 52.34 49.12 47.67 46.23 46.40 44.96 44.73 45.87 45.10 43.54 42.54 41.93 40.59 42.65 43.89 44.43 44.48 43.74 44.40 44.34 43.26 43.41 43.82 44.06 41.54 41.05 40.44 39.62 39.44 39.60 40.92 41.45 41.54 42.00 41.43 41.18
46.17 45.58 44.94 45.62 47.18 50.15 50.20 48.33 47.14 50.68 51.26 50.61 49.96 50.96 51.30 51.82 50.39 52.46 55.47 53.70 49.41 46.73 46.08 45.97 45.31 45.44 47.05 47.61 47.25 46.81 43.90 46.36 45.92 45.48 45.00 44.31 45.48 45.43 45.43 44.12 44.19 45.73 45.06 44.08 43.35 41.83 41.52 41.22 40.84 41.73 42.77 43.16 42.51 42.70
47.59 48.21 47.59 46.75 46.06 46.37 47.57 47.30 50.40 49.83 50.34 49.30 49.82 51.46 51.90 50.35 49.26 52.30 55.98 55.68 53.05 52.85 53.06 50.99 50.91 49.82 48.41 47.85 48.42 48.34 45.32 47.50 46.57 43.57 42.48 42.76 43.00 43.48 43.61 43.19 43.72 45.34 45.88 45.19 44.59 44.00 43.78 43.72 43.20 43.32 43.58 43.46 43.58 43.65

GFSWCAN_sfc_wetblb_087.txt.gz
Wetbulb
54.20 54.56 54.60 54.51 54.45 54.33 54.25 54.81 54.16 54.67 56.47 55.45 53.69 54.50 54.47 54.63 54.75 51.26 49.15 50.84 49.59 45.17 46.71 50.56 50.13 45.89 45.45 42.26 39.34 41.50 41.09 42.18 37.88 36.38 35.54 31.42 31.30 34.43 31.47 36.24 34.28 33.95 29.28 26.56 30.07 27.75 28.28 45.08 45.09 38.04 41.56 43.40 45.86 49.20
54.14 54.28 54.44 54.40 54.44 53.84 53.44 53.86 53.75 54.77 56.31 54.98 53.60 54.19 54.10 54.28 54.57 52.94 48.96 51.76 53.38 47.04 47.36 51.26 51.54 52.13 51.72 49.65 43.94 40.79 41.54 41.20 40.31 37.76 38.11 36.67 33.34 35.51 32.09 29.05 36.82 32.25 37.05 33.84 35.24 34.14 40.85 43.85 44.03 44.77 44.34 43.97 44.27 45.42
53.74 53.94 54.16 54.30 54.30 54.23 53.11 53.28 53.34 54.69 56.29 54.45 53.56 53.95 53.81 54.36 54.12 52.29 47.22 49.55 49.94 47.80 47.85 48.87 47.96 50.18 49.65 50.42 50.38 44.98 43.06 43.62 41.48 42.52 40.17 38.38 35.76 36.73 33.33 34.02 35.05 38.34 39.63 34.91 37.47 40.76 42.24 44.56 45.23 45.47 45.51 45.59 46.96 48.02
53.60 53.74 53.96 54.14 54.24 53.97 53.74 53.39 53.46 54.92 56.07 53.37 53.39 53.43 53.71 53.81 53.49 52.56 46.40 48.11 50.74 48.72 44.31 46.58 52.66 47.34 49.33 50.41 51.03 49.83 47.58 45.59 44.33 40.95 36.87 37.52 37.03 39.66 35.51 37.50 36.50 39.67 38.77 36.70 36.13 39.44 41.84 45.10 45.41 45.46 46.48 47.09 47.10 47.82
53.11 53.44 53.78 53.83 53.90 53.91 53.61 53.20 53.43 54.82 55.14 52.79 53.16 53.22 53.30 53.17 52.95 49.59 46.29 48.53 51.10 49.23 45.28 45.74 50.26 50.29 48.31 51.09 50.16 48.82 47.61 45.34 42.75 41.11 38.49 37.82 39.00 39.46 38.18 38.11 35.97 40.68 38.97 36.86 36.27 40.42 40.48 41.07 44.56 47.07 45.99 46.30 46.62 45.78
53.11 53.26 53.38 53.58 53.78 53.63 53.18 53.22 53.78 55.26 52.99 52.60 52.89 53.07 53.09 52.77 52.02 50.36 48.87 51.97 50.78 51.63 46.45 43.30 48.76 47.24 47.70 49.21 49.18 47.44 46.62 44.96 43.43 41.75 39.91 41.11 43.11 40.16 35.44 31.20 39.91 41.57 42.96 43.11 42.20 43.99 44.86 45.86 48.27 48.89 46.49 46.13 46.67 45.88
52.98 53.00 53.16 53.50 53.68 53.76 53.67 53.93 54.25 54.29 52.22 52.66 52.64 52.66 52.58 52.05 47.21 48.99 49.22 51.77 50.04 50.53 47.47 45.21 45.13 48.21 48.76 47.61 46.83 46.34 46.70 44.98 44.30 41.51 40.94 41.56 41.27 40.63 36.11 30.98 40.31 42.61 44.37 45.06 45.87 45.94 43.12 46.61 45.74 49.13 50.09 49.79 48.80 46.62
52.69 52.67 53.01 53.24 53.62 53.68 53.70 54.11 54.52 51.66 52.10 52.57 52.37 52.14 52.04 52.05 50.55 47.55 50.54 51.32 50.07 50.07 49.62 44.02 43.83 44.60 47.65 44.14 43.58 45.65 44.63 44.24 43.51 41.82 42.71 42.28 42.03 39.91 34.74 40.11 41.81 43.18 44.44 45.23 45.99 46.07 45.02 44.93 46.30 47.06 47.93 48.32 47.17 45.78
52.65 52.49 52.47 52.92 53.16 53.19 53.74 53.69 51.93 51.69 52.04 51.74 52.22 52.27 49.78 48.62 48.97 51.39 55.33 53.88 53.27 50.89 46.19 45.13 41.47 40.51 47.91 44.44 44.75 45.25 44.49 40.77 44.32 41.02 41.24 42.83 37.31 36.13 40.84 41.65 43.32 45.16 44.80 45.48 46.43 46.24 46.13 44.85 45.40 45.97 46.27 45.90 45.34 45.17
52.81 52.95 52.80 52.88 53.04 52.94 52.13 51.27 51.33 51.35 51.52 51.73 50.49 50.35 48.97 51.72 57.09 56.11 52.02 48.67 48.52 48.36 47.21 43.75 47.03 44.50 45.60 44.05 44.00 45.54 46.67 44.35 38.65 41.59 44.17 39.04 38.89 42.33 44.07 44.43 45.06 45.98 47.91 46.70 42.62 41.25 41.86 42.36 44.80 44.80 45.48 47.29 46.42 46.53
51.24 51.81 52.12 51.94 51.52 51.06 50.53 50.60 50.85 51.13 51.54 50.33 49.95 50.73 53.54 55.52 51.47 49.17 44.42 43.46 44.21 42.55 44.82 45.74 45.77 44.32 48.87 43.74 46.05 48.71 44.85 41.96 38.14 39.60 40.76 35.31 37.53 42.24 46.42 46.69 46.86 46.48 47.24 46.43 44.76 43.75 45.59 45.20 44.98 45.57 46.28 47.19 47.57 47.93
50.92 50.22 50.31 50.40 50.81 50.58 50.71 50.66 50.59 48.99 49.78 48.34 47.86 50.25 50.85 49.65 46.87 43.60 41.43 42.72 42.56 41.88 45.43 45.04 45.69 45.15 47.98 47.82 45.83 44.56 41.26 41.83 38.07 45.49 42.81 36.14 40.06 43.98 44.62 46.92 47.80 47.49 47.53 46.47 46.94 47.18 47.18 47.56 46.90 47.18 47.10 46.57 47.56 47.94
50.90 50.91 50.53 50.62 50.14 50.45 50.40 50.42 50.49 50.87 49.94 49.41 49.38 47.54 47.76 44.42 37.93 38.85 35.69 39.05 40.93 45.70 47.13 47.78 46.22 46.65 46.89 46.60 43.52 43.88 41.26 39.13 44.99 41.58 38.00 38.15 41.91 45.39 44.07 44.77 46.07 46.48 47.42 47.64 47.52 47.67 47.90 47.25 48.14 48.99 49.62 49.72 47.40 47.19
50.49 50.73 50.65 50.76 51.33 50.48 50.67 50.27 50.23 48.94 47.37 46.08 45.09 34.88 40.16 38.95 40.80 41.23 41.30 42.38 45.99 48.22 47.97 47.70 48.02 47.21 45.88 44.22 42.53 39.07 40.68 42.12 39.83 36.89 36.77 39.81 42.60 43.41 43.49 45.62 46.01 45.48 46.44 46.63 46.56 46.52 46.32 46.44 46.10 48.19 50.02 49.43 48.66 47.39
50.46 50.42 50.53 50.52 51.42 51.14 51.30 51.38 50.19 46.49 46.24 45.19 45.43 35.19 40.43 43.00 44.31 46.03 46.33 46.12 48.93 49.32 47.14 44.84 44.25 45.51 43.92 41.24 41.52 40.56 40.54 38.48 39.00 36.77 37.77 41.58 41.96 42.78 45.09 45.46 42.56 42.95 42.99 43.87 45.24 44.80 43.20 43.56 44.52 45.21 44.99 44.22 43.53 44.51
50.52 50.29 49.75 51.30 51.06 51.32 51.09 49.72 46.13 45.66 46.10 45.24 44.54 41.75 42.63 41.84 41.34 41.86 43.99 44.91 49.48 48.87 46.76 44.99 41.74 41.96 41.48 40.74 38.89 38.05 38.65 35.36 35.81 39.13 42.05 42.71 42.67 43.33 43.00 42.05 42.04 41.80 40.61 40.51 41.01 41.81 42.42 42.02 41.21 39.63 40.09 40.56 40.54 41.03
49.96 48.71 50.89 50.88 51.19 50.44 50.25 48.30 46.98 45.27 44.39 45.58 43.75 43.74 43.26 42.30 42.23 42.49 43.59 47.64 50.40 47.49 43.75 43.86 41.21 40.17 41.23 37.04 36.22 40.85 37.37 37.76 39.40 42.44 44.01 43.70 44.05 42.06 41.09 41.09 41.87 41.94 41.05 40.12 40.51 41.24 40.70 40.25 39.93 39.39 38.09 38.95 39.89 41.02
47.10 50.40 51.23 50.71 50.50 50.92 50.88 48.79 49.24 49.05 44.74 46.47 42.38 42.85 43.20 43.88 43.69 44.38 49.78 50.84 49.13 47.43 48.11 45.79 44.32 39.16 37.52 35.65 36.63 40.04 40.83 41.76 43.16 44.51 43.97 43.92 42.95 41.78 41.24 40.47 41.59 40.62 40.34 40.64 41.54 40.77 39.83 38.86 37.92 37.43 37.60 39.23 39.42 39.96
49.11 47.90 49.46 50.28 49.37 46.01 47.03 48.89 48.45 44.49 44.94 45.42 44.89 44.69 45.57 45.42 47.44 48.85 49.48 49.77 48.62 49.48 47.75 44.82 41.30 39.83 40.15 42.29 41.69 41.22 41.65 43.79 43.64 44.27 44.93 43.16 42.39 41.62 40.94 40.40 40.62 40.31 40.77 40.66 40.15 39.76 39.45 38.55 37.93 37.82 38.72 38.75 37.88 39.30
50.19 50.37 50.43 50.51 50.34 46.37 45.93 47.02 51.03 45.10 43.43 44.65 44.46 43.97 44.49 44.22 48.58 48.81 47.82 46.96 45.99 46.15 44.38 43.44 43.34 44.80 45.05 44.77 44.22 43.78 43.98 45.61 46.85 43.48 42.87 42.80 43.21 40.86 40.30 41.49 39.86 39.03 40.47 40.07 39.40 39.70 38.07 37.91 37.87 38.06 38.63 39.21 38.18 39.05
49.27 50.41 51.20 49.73 47.13 45.92 44.60 45.63 47.34 47.83 46.03 44.87 45.65 45.26 44.67 48.31 46.85 46.33 46.60 47.18 44.92 43.68 43.71 47.28 47.71 48.89 47.93 48.97 46.23 45.75 45.79 48.32 47.70 46.23 45.34 42.63 41.78 40.71 39.13 39.03 38.62 39.07 39.26 38.68 38.34 37.54 38.12 36.82 37.19 38.19 38.45 38.98 39.32 42.04
49.12 52.07 49.36 49.31 48.01 48.39 43.55 46.34 45.16 45.97 44.18 44.34 44.44 44.90 43.42 45.60 45.68 45.61 47.77 45.57 44.82 46.83 47.28 47.34 48.20 48.49 47.07 46.27 44.99 46.09 46.97 46.71 46.28 45.77 44.05 43.01 40.19 38.43 39.16 39.91 38.92 38.58 39.07 39.29 38.75 38.53 38.94 39.80 39.91 39.91 40.12 40.41 39.99 38.49
49.65 49.00 47.92 49.06 46.85 45.06 42.54 47.60 45.24 45.20 42.81 43.88 46.69 46.00 46.28 45.16 46.98 49.41 45.36 47.09 48.17 50.35 50.67 49.40 48.28 47.92 47.39 45.15 43.38 40.73 41.81 43.08 42.34 43.71 43.61 43.10 41.02 41.35 41.05 40.66 39.91 39.65 38.83 38.84 39.42 39.73 39.89 40.86 41.07 40.99 40.77 40.29 39.10 38.34
49.89 48.03 47.58 46.02 44.88 40.71 44.92 43.77 47.45 46.49 47.67 43.24 43.44 44.95 45.72 46.51 48.42 44.41 44.03 46.02 49.82 50.81 48.97 48.10 48.28 46.76 45.51 44.46 42.90 43.90 44.72 41.86 39.13 38.51 39.89 40.49 38.27 38.59 41.86 41.67 40.30 39.97 41.08 39.92 39.54 40.81 41.32 41.77 40.98 40.64 40.10 39.78 39.27 38.47
42.38 41.76 41.68 34.81 43.36 45.72 43.89 43.74 43.32 42.95 43.36 45.20 47.12 46.78 47.18 46.92 43.35 46.31 44.24 46.03 48.26 48.55 48.02 48.29 47.50 47.21 44.96 44.20 44.60 45.87 43.93 40.65 40.19 38.23 37.72 39.14 38.87 37.83 38.22 39.21 39.78 40.16 40.36 40.14 39.90 40.59 40.21 40.61 40.66 41.04 40.86 39.51 39.13 38.79
38.30 44.13 38.18 42.11 41.82 41.69 44.79 44.00 44.55 46.00 46.63 46.64 47.27 49.32 48.00 44.46 42.22 43.48 44.06 46.39 47.61 48.78 48.29 49.00 48.06 46.15 45.29 45.64 43.44 40.65 42.48 40.00 39.79 39.51 39.25 39.14 42.47 42.45 40.62 39.23 38.41 39.65 41.00 41.32 40.97 41.29 41.51 40.35 39.90 40.66 38.79 38.94 38.85 39.35
39.11 42.34 43.88 44.89 43.94 43.93 45.46 47.91 48.17 45.00 45.11 45.41 46.76 47.32 45.72 41.97 43.00 45.20 47.49 47.77 48.13 49.33 51.10 50.24 49.91 48.98 47.56 46.29 44.35 41.84 40.95 41.28 42.25 43.60 41.75 41.04 40.25 42.27 43.54 42.21 40.71 42.79 42.69 42.78 42.02 41.92 41.13 40.62 40.44 40.58 39.56 39.28 39.15 39.91
43.37 43.52 41.30 43.15 43.82 44.99 43.91 44.88 43.39 43.04 46.20 47.79 46.99 44.05 45.55 44.99 43.82 47.52 48.82 49.73 49.75 49.76 49.94 49.98 49.52 49.46 48.23 46.89 46.16 42.14 40.02 39.50 39.71 40.19 40.99 40.57 39.10 39.72 40.52 41.14 41.39 40.10 42.15 42.81 41.99 41.17 40.79 40.88 41.14 40.72 39.85 38.91 39.03 40.35
43.22 44.64 44.32 42.65 44.09 43.92 44.43 44.20 43.75 44.75 47.98 47.70 47.09 47.37 47.44 50.45 49.88 49.19 49.45 49.33 49.53 50.03 48.06 47.22 45.18 44.07 45.28 44.59 43.20 40.67 41.58 42.82 40.78 38.85 38.46 37.44 37.73 39.06 39.04 40.71 40.57 40.57 40.76 40.87 39.80 40.84 42.00 41.54 41.02 40.85 41.17 40.41 40.31 40.32
41.93 44.72 42.28 43.03 42.84 42.84 45.23 45.87 45.32 46.48 48.52 49.39 49.88 48.73 47.77 49.08 51.07 52.07 50.04 48.89 48.61 48.66 47.69 46.27 43.39 43.80 42.52 43.07 39.66 38.45 39.53 42.81 43.85 42.21 39.83 39.17 40.69 40.77 39.50 39.63 39.83 39.51 38.84 39.32 38.83 37.63 39.19 39.06 38.84 39.59 40.11 40.02 39.63 39.64
43.70 42.90 41.93 41.98 42.27 44.59 46.69 46.94 46.95 49.78 49.79 48.59 48.81 47.35 47.25 49.09 50.50 53.02 53.38 52.79 47.84 43.74 42.97 41.89 41.81 43.79 43.78 42.71 42.03 41.65 39.92 40.89 41.61 43.46 44.07 43.24 41.39 41.92 41.12 40.57 40.55 39.98 39.33 39.48 38.53 38.52 38.43 38.58 38.86 39.11 39.80 40.00 40.63 40.36
42.83 42.48 41.92 41.21 42.90 46.54 47.41 45.44 44.76 47.76 48.12 47.48 47.27 49.04 50.50 51.35 49.66 51.72 54.37 52.57 46.68 44.43 44.16 45.02 44.84 43.60 46.11 47.07 47.23 46.96 43.39 46.57 43.92 44.42 43.61 42.22 42.11 43.11 42.28 41.61 41.03 41.00 39.71 39.49 39.13 39.20 39.10 39.32 39.22 39.64 40.21 40.63 41.03 40.43
43.28 43.53 43.81 43.66 43.37 43.66 44.72 45.45 47.25 46.91 47.44 47.30 47.98 49.55 49.48 48.44 48.10 51.76 55.05 55.06 52.72 51.66 51.34 51.85 51.74 51.46 48.82 46.50 46.46 46.30 43.30 46.02 44.09 41.56 41.02 40.72 40.97 41.66 43.38 41.75 42.35 43.47 42.78 41.73 40.77 40.76 40.61 40.32 39.76 40.21 40.54 40.64 41.14 41.60

GFSWCAN_sfc_wetblb_090.txt.gz
Wetbulb
53.66 54.39 54.68 54.94 54.94 54.72 54.32 53.73 53.96 53.98 54.53 56.67 54.93 54.12 54.58 54.53 54.73 49.89 48.46 49.80 48.02 44.02 44.61 49.20 48.50 44.20 43.53 40.78 38.77 40.12 40.30 40.65 36.57 36.00 34.24 30.06 30.39 33.29 31.09 34.69 33.14 32.39 28.63 25.66 29.24 28.38 28.28 44.31 44.62 38.74 41.88 45.21 47.65 50.29
53.85 54.01 54.24 54.50 54.70 54.82 54.49 53.50 53.17 53.57 54.43 56.44 54.33 53.97 54.33 54.38 54.53 52.88 47.87 49.98 51.76 46.58 46.44 49.44 50.56 50.70 49.98 48.25 42.51 39.81 40.52 39.52 39.30 37.45 36.52 34.44 32.03 33.95 30.24 26.96 35.93 32.04 35.96 33.21 33.67 33.31 39.91 42.63 42.90 45.15 44.54 45.30 47.30 48.33
53.64 53.80 53.92 54.20 54.36 54.58 54.37 53.75 53.17 53.57 54.63 56.32 53.45 53.64 53.96 54.51 54.04 51.63 45.99 47.99 49.04 47.11 45.25 47.15 46.82 49.08 48.44 48.84 48.59 43.85 41.78 41.91 39.89 41.19 39.41 36.53 34.69 35.74 31.99 32.79 33.82 37.07 38.53 36.44 37.20 40.41 42.64 44.41 45.48 46.18 46.74 46.54 47.65 48.10
53.46 53.55 53.88 53.98 54.18 54.28 54.20 53.84 53.28 53.57 54.63 55.42 52.81 53.30 53.53 53.77 53.46 52.33 45.10 46.27 49.35 47.37 43.28 45.18 52.74 48.89 47.78 48.97 49.44 48.53 46.09 43.48 41.84 39.50 36.25 37.09 35.83 38.08 34.45 36.65 35.40 38.55 38.64 36.19 36.14 39.05 41.91 44.65 46.22 46.32 47.03 47.92 48.22 48.65
53.01 53.46 53.62 53.76 53.96 54.18 54.09 53.41 53.20 53.59 54.90 53.65 52.78 52.89 53.09 53.21 52.81 48.53 45.38 46.68 49.05 48.24 43.87 45.34 48.13 48.37 46.09 49.32 48.48 47.81 46.18 43.74 41.61 40.37 37.95 37.68 37.85 38.62 36.67 37.20 35.38 39.66 38.28 35.99 35.85 41.02 41.47 42.20 45.01 47.58 46.30 46.94 47.51 47.29
53.04 53.20 53.22 53.34 53.68 53.88 53.77 53.04 53.31 53.92 55.14 52.35 52.62 52.90 53.05 52.81 51.74 49.60 47.07 50.29 49.60 50.21 44.53 42.66 47.49 46.84 46.63 47.73 47.49 46.24 45.37 43.23 42.07 41.03 39.42 40.17 41.24 39.51 35.29 30.89 39.44 40.49 41.28 42.38 42.01 42.67 43.52 46.48 48.67 49.12 46.78 46.85 47.53 46.60
53.07 52.94 53.12 53.26 53.62 53.84 53.79 53.75 53.90 54.51 52.47 52.28 52.39 52.37 52.41 51.88 46.42 48.22 47.72 49.97 49.76 49.67 45.46 43.36 44.55 47.45 47.65 46.35 45.44 45.31 45.48 43.39 43.27 40.67 40.03 40.53 40.50 39.40 35.42 30.84 40.52 41.77 43.08 44.09 44.92 45.93 43.94 46.87 45.73 49.24 49.73 50.39 49.72 47.83
53.00 52.81 52.83 53.11 53.62 53.67 53.63 53.95 54.31 53.82 52.07 52.24 52.18 52.05 51.83 51.76 50.29 47.27 50.11 50.82 49.67 48.98 48.37 43.38 43.35 43.74 46.85 42.83 42.50 44.46 43.29 42.99 42.47 40.87 41.21 40.94 40.74 38.82 34.35 39.46 41.24 42.99 43.94 44.63 45.73 45.80 44.92 45.53 46.47 47.46 48.58 48.30 48.02 46.90
52.74 52.92 52.63 52.83 53.14 53.31 53.39 54.06 52.99 52.07 52.15 51.75 51.60 52.33 48.57 47.45 47.85 50.91 54.84 54.08 52.94 48.72 43.71 43.89 40.37 39.23 46.56 43.34 43.70 44.53 43.30 40.32 42.99 39.99 40.02 41.79 36.57 35.70 40.46 41.50 42.54 44.62 44.06 45.01 45.70 45.74 46.03 46.28 45.97 46.20 46.82 47.19 46.36 45.80
51.86 52.25 52.63 53.01 53.16 53.02 52.39 51.58 51.27 51.37 51.25 51.46 49.09 48.16 46.80 50.50 56.73 56.12 52.22 48.77 47.99 47.92 46.96 43.59 45.38 43.64 44.34 42.93 42.61 45.10 46.32 42.62 37.83 40.25 42.72 37.98 36.69 41.45 43.09 44.25 44.41 45.69 46.25 45.91 43.61 42.45 42.70 42.81 44.84 45.41 46.00 47.10 46.77 46.53
50.57 50.83 51.42 51.29 51.04 50.61 50.76 50.53 50.76 50.65 51.54 49.87 47.89 49.59 52.16 54.83 51.02 49.04 45.41 43.98 43.72 42.58 44.56 44.74 45.64 44.28 47.61 42.73 42.77 47.25 44.71 43.26 36.21 38.84 40.48 35.31 37.73 41.43 45.55 45.86 46.79 46.26 46.67 45.58 45.32 45.04 45.26 45.38 45.35 45.50 46.34 47.37 47.42 47.83
51.13 50.82 50.26 50.30 50.42 50.44 50.50 50.25 50.44 50.17 49.96 48.41 48.41 50.12 50.80 49.33 45.75 42.89 40.97 41.65 42.15 41.28 44.03 44.19 44.71 44.28 46.80 46.57 46.46 46.39 43.53 42.52 37.84 43.28 42.65 34.91 40.17 43.25 45.01 45.74 47.71 46.55 47.24 47.68 46.53 46.63 47.34 47.59 47.15 46.73 47.16 47.30 48.28 49.32
50.86 50.85 50.68 50.42 50.74 50.11 49.98 49.80 49.94 50.69 50.00 50.80 50.83 48.60 48.16 44.40 37.10 38.89 35.65 38.64 39.85 44.22 46.05 46.82 45.20 45.74 45.02 45.09 45.24 44.60 41.81 40.17 43.00 41.40 38.37 37.29 41.41 44.22 44.08 44.81 45.95 46.32 47.43 47.61 47.66 48.09 48.38 48.21 48.99 48.66 48.13 48.88 48.79 48.62
50.75 50.57 50.64 50.48 50.66 50.88 50.35 50.87 50.29 48.94 47.34 47.31 44.27 34.79 39.89 37.59 40.30 40.38 39.49 41.15 44.99 47.32 46.89 46.06 45.21 44.27 44.01 43.72 43.10 40.33 41.51 41.81 39.95 37.56 35.36 40.78 42.10 43.45 43.62 45.32 45.71 45.60 46.46 46.41 46.27 46.64 46.86 47.63 46.05 45.90 44.40 44.74 46.30 46.32
50.35 50.46 50.39 50.38 50.86 51.06 51.00 51.05 50.24 45.74 45.40 43.78 44.01 37.11 40.06 43.06 43.21 44.74 45.20 44.56 47.30 48.13 46.22 45.18 44.48 44.65 41.86 42.12 39.96 39.62 40.14 38.66 39.13 37.62 39.30 41.06 41.94 42.74 43.54 43.40 43.07 43.48 43.69 43.46 43.82 43.53 43.50 43.81 43.26 42.18 42.28 42.06 42.27 42.45
50.48 50.13 49.69 50.92 50.79 51.07 50.78 48.73 45.55 45.03 44.66 43.06 42.26 40.59 42.06 41.15 40.96 41.27 42.17 42.93 47.39 46.69 45.33 44.59 41.40 41.20 40.65 39.32 37.31 36.46 36.18 34.33 37.02 39.17 41.28 41.69 41.56 42.83 43.28 42.11 42.02 42.09 41.38 40.67 41.20 42.24 41.86 41.32 40.68 40.15 40.48 40.99 41.46 41.73
49.86 47.60 50.88 50.77 51.09 50.45 50.07 48.93 46.06 43.38 41.74 42.96 41.99 42.92 41.76 41.66 41.37 41.32 41.13 43.05 48.40 46.11 42.69 42.47 40.12 38.99 39.93 36.67 35.73 38.46 37.14 38.65 39.46 40.49 42.18 42.30 42.96 43.21 41.14 41.29 41.02 41.17 40.72 40.62 40.66 41.07 40.49 40.42 40.27 39.86 39.62 40.35 40.90 41.39
46.96 50.17 50.87 50.34 49.70 50.86 50.31 48.58 48.91 47.73 43.30 43.82 41.53 41.67 42.52 43.31 41.77 43.46 45.25 48.24 47.70 46.28 45.83 43.55 43.10 38.72 37.51 35.47 36.04 40.36 40.88 41.11 41.50 42.94 43.50 43.63 43.01 41.15 41.78 41.07 41.57 41.31 40.27 40.82 41.60 40.55 40.42 39.28 38.94 39.17 39.78 40.44 40.54 40.64
48.85 48.77 49.93 49.91 49.37 45.86 46.33 49.43 47.79 43.30 43.75 45.85 44.31 43.64 43.92 44.24 44.89 45.34 47.51 48.48 47.65 47.36 45.79 43.55 40.35 38.64 38.76 40.19 41.78 41.15 41.17 43.25 42.73 43.01 43.87 43.25 41.81 40.91 40.55 41.32 41.15 39.81 40.16 40.74 40.48 40.15 39.35 39.72 40.23 40.43 40.75 40.66 40.29 41.09
50.72 50.65 50.72 50.47 49.92 45.79 44.82 46.35 50.44 44.19 41.70 43.06 42.59 41.54 41.96 42.38 45.09 47.11 46.45 46.38 46.56 45.92 43.64 42.50 42.55 43.22 43.76 45.31 45.60 44.91 43.68 44.94 45.42 43.45 42.33 41.38 41.20 40.29 39.88 40.07 39.65 39.83 40.48 40.24 39.77 39.30 39.12 39.65 39.75 39.96 40.04 40.44 40.68 41.20
48.81 50.23 50.96 49.52 46.97 45.86 44.72 43.23 44.41 46.27 45.18 43.62 44.25 43.54 43.52 46.94 45.86 45.61 45.23 45.19 44.48 43.00 42.22 44.27 45.30 47.79 48.45 46.76 45.07 44.36 45.72 47.58 46.33 45.27 44.75 42.01 42.18 40.91 39.67 39.75 39.80 40.63 40.30 39.30 38.74 38.69 39.30 39.06 39.06 39.71 40.21 40.92 41.14 41.15
47.73 51.83 47.55 48.26 46.71 47.41 42.32 44.30 42.68 44.24 42.82 42.99 43.11 43.46 42.22 43.75 44.18 44.86 45.84 44.37 43.61 44.79 45.25 46.16 47.32 47.84 47.11 46.04 45.21 45.90 46.97 46.66 44.85 43.45 42.97 43.17 39.59 38.62 38.83 39.27 40.08 39.85 40.02 40.12 38.74 38.45 39.09 39.86 40.29 41.33 41.20 42.13 41.68 40.86
50.01 49.27 47.91 48.15 46.17 44.52 42.91 46.31 44.10 44.53 41.91 42.24 44.17 43.52 44.15 44.02 45.47 47.81 44.24 44.93 46.13 47.93 48.10 47.77 48.50 49.17 47.55 44.95 43.29 43.75 46.55 46.68 45.68 44.12 43.16 42.16 41.00 40.49 39.90 40.04 40.41 40.23 39.64 39.93 39.94 39.68 40.12 40.27 41.82 42.16 42.47 41.96 41.08 41.04
50.00 47.79 46.35 45.74 45.14 40.73 45.12 42.21 44.93 45.19 44.70 42.25 41.64 42.81 43.77 45.32 49.29 47.21 45.02 46.17 47.05 48.84 48.64 47.84 46.82 44.36 42.49 42.31 41.64 42.29 42.59 45.65 45.27 43.18 42.92 42.15 40.23 39.45 41.49 41.80 40.64 41.00 41.75 41.34 40.49 40.92 41.78 42.22 41.80 42.78 42.14 41.66 41.51 41.17
41.54 39.83 39.65 34.60 43.71 44.79 43.57 42.88 42.66 42.48 41.10 43.22 45.39 45.04 46.59 49.02 45.63 45.38 44.59 45.24 47.81 47.65 47.18 47.00 46.25 45.30 43.03 41.87 42.62 44.81 43.44 44.95 42.60 41.30 40.57 43.34 40.30 39.04 39.28 39.98 40.38 40.74 41.01 40.82 40.56 41.53 42.43 42.55 42.33 42.80 43.01 42.10 41.13 41.27
35.51 43.60 37.67 40.39 40.37 40.52 42.78 43.73 44.94 44.98 44.81 45.38 47.09 49.34 48.78 45.82 43.03 41.90 44.00 45.68 46.87 47.77 47.27 47.40 46.11 44.27 43.35 43.77 42.99 41.70 41.41 39.92 40.28 41.25 39.45 40.98 43.48 42.76 41.07 40.14 39.95 40.50 41.20 42.05 41.95 42.20 42.81 42.85 42.52 42.79 42.61 42.05 38.91 41.17
38.63 41.98 42.54 43.35 42.27 44.89 44.27 46.18 47.25 46.60 45.15 45.27 46.98 47.61 45.36 42.14 42.06 44.73 46.90 47.39 48.08 49.21 50.00 49.91 48.80 47.73 46.65 45.41 43.96 42.34 41.76 40.83 42.45 43.33 42.32 41.53 42.42 44.12 44.31 42.18 40.91 43.58 43.39 43.50 43.12 43.74 43.76 43.53 43.03 42.52 42.13 41.90 41.50 41.93
41.79 42.20 40.15 41.76 42.05 44.86 42.69 43.84 43.48 42.53 44.55 48.08 47.79 44.34 42.52 43.83 43.26 46.93 48.67 49.36 49.67 49.91 50.60 49.51 49.33 49.15 47.87 47.44 45.77 41.48 39.98 39.64 40.42 40.42 41.29 40.84 40.44 41.11 41.80 43.07 43.73 40.29 44.35 45.07 44.82 44.49 43.82 43.53 43.23 42.90 42.57 41.73 41.92 42.30
41.48 43.30 42.79 41.20 42.52 42.79 42.85 44.78 44.33 45.24 46.35 47.43 46.51 45.43 46.28 48.67 49.22 49.14 49.19 48.80 48.84 49.88 48.86 48.31 47.93 47.42 44.95 44.22 44.02 42.18 41.05 42.07 41.54 40.55 40.57 39.67 40.05 41.88 40.90 41.47 42.09 42.53 43.11 43.57 40.02 42.43 43.70 42.74 42.93 43.14 43.62 42.74 42.79 43.20
41.02 43.84 41.75 41.92 41.31 41.31 44.05 46.21 46.57 48.15 46.49 47.96 48.72 48.24 47.79 47.94 50.04 50.52 48.90 48.62 48.60 49.18 49.97 50.18 47.00 45.96 45.50 44.07 40.94 39.47 40.73 42.82 45.36 43.59 41.62 40.52 41.46 42.53 41.12 41.15 41.33 41.45 41.71 42.84 42.25 41.40 39.31 41.45 40.41 42.44 42.30 42.32 42.70 42.77
42.81 42.35 41.81 41.55 40.62 42.84 45.11 46.47 47.42 48.15 49.08 48.05 47.93 46.59 46.32 48.23 50.40 52.58 52.87 53.00 49.69 46.15 46.73 45.08 42.50 42.86 42.81 41.56 42.47 41.27 39.94 42.11 42.53 44.64 45.03 44.34 42.62 42.27 41.97 41.82 41.80 41.33 41.56 42.11 41.46 41.46 41.11 40.96 41.56 42.08 42.32 42.63 42.77 41.65
42.09 41.36 40.89 39.91 41.11 44.99 46.43 44.77 44.18 45.92 46.96 46.73 46.66 48.11 48.13 48.83 48.17 50.85 53.21 51.85 46.27 44.71 43.65 44.47 43.75 43.30 44.94 44.80 45.13 45.29 41.81 45.96 43.35 43.26 44.00 43.05 42.90 43.26 43.12 41.99 41.79 41.87 41.92 42.02 41.29 41.03 41.38 41.61 41.46 41.36 41.61 42.00 42.77 43.29
41.96 41.53 41.77 41.96 42.14 43.82 45.62 46.57 46.62 46.14 46.37 46.37 47.95 49.47 48.98 47.59 46.85 50.31 54.13 54.76 52.24 50.99 50.69 51.13 51.86 52.34 52.66 51.93 47.78 45.67 42.97 45.78 45.25 40.59 39.90 40.07 40.38 41.41 42.77 42.44 42.63 43.26 42.63 41.85 41.55 41.24 41.29 41.50 41.49 42.06 42.38 42.52 42.85 43.16

GFSWCAN_sfc_wetblb_093.txt.gz
Wetbulb
53.04 53.85 54.40 54.78 54.96 54.98 55.24 55.06 54.21 53.63 54.23 55.02 56.78 54.82 54.49 54.60 54.65 53.80 54.57 55.44 55.22 51.47 52.63 53.57 51.90 49.79 49.03 49.01 47.99 47.58 47.71 47.99 47.55 45.40 44.82 43.51 44.57 43.98 42.93 44.06 43.64 41.74 41.75 41.53 40.76 39.77 37.85 49.52 49.65 45.80 49.03 52.07 52.29 55.45
53.16 53.87 54.16 54.36 54.30 54.58 54.92 55.14 54.41 53.41 53.80 54.76 56.61 54.26 54.29 54.43 54.41 53.53 54.59 54.85 55.91 53.71 52.50 53.66 55.58 55.72 54.87 54.11 50.67 47.49 49.30 48.06 48.60 47.02 46.10 43.94 43.55 43.43 41.23 40.03 44.97 42.46 45.38 45.97 44.11 44.59 47.99 50.16 50.80 52.09 51.93 51.68 53.24 54.00
53.32 53.93 54.02 54.06 54.06 54.40 54.52 54.92 54.35 53.47 53.82 54.73 56.37 53.53 54.03 54.39 53.96 53.01 52.40 53.79 54.89 53.66 51.85 53.68 53.82 55.39 54.60 54.68 55.33 51.48 50.24 49.75 48.67 49.82 48.85 46.64 43.36 45.53 41.56 42.20 43.55 45.43 46.04 47.01 46.09 48.80 49.56 51.06 52.03 52.19 52.80 52.88 53.60 53.94
53.41 53.56 53.84 54.14 54.12 54.20 54.56 54.68 54.37 53.47 53.71 54.59 55.61 53.19 53.62 54.00 53.28 52.62 51.13 52.96 55.38 53.40 49.69 51.45 56.82 54.61 55.28 55.26 55.44 55.10 52.36 50.12 49.82 49.90 48.76 47.98 46.04 46.11 45.00 45.04 45.23 47.25 46.44 46.45 46.17 47.81 48.94 51.53 52.42 52.92 52.45 53.30 53.61 53.66
53.00 53.58 53.68 53.68 53.88 54.10 54.56 54.52 53.93 53.47 53.72 55.04 53.84 53.00 53.14 53.34 52.89 52.06 51.58 53.08 54.65 53.97 48.61 52.05 54.21 54.35 53.42 55.55 54.19 54.17 53.63 52.60 51.67 49.54 48.48 46.28 46.71 46.84 46.29 46.24 45.33 47.47 47.80 46.07 46.34 51.41 52.16 51.29 53.41 53.61 52.62 52.85 53.83 53.93
53.24 53.41 53.32 53.50 53.52 54.00 54.28 54.13 53.43 53.43 53.84 54.94 52.75 52.70 52.99 52.72 51.74 55.21 52.65 55.02 55.38 56.46 51.42 48.72 53.60 52.63 52.96 54.06 53.64 52.86 53.03 51.67 51.65 51.25 49.31 48.43 47.61 48.17 45.52 44.87 49.59 49.82 49.95 51.32 50.34 51.47 52.04 52.33 53.27 53.59 52.73 52.69 53.01 53.50
53.22 53.41 53.24 53.22 53.56 53.84 54.04 53.97 53.90 53.99 54.58 52.89 52.56 52.47 52.29 51.61 51.83 53.32 51.85 53.98 52.33 55.69 51.25 47.93 50.63 52.48 52.89 52.80 52.36 53.27 52.62 51.13 52.17 49.74 49.08 49.96 49.43 48.94 47.22 45.39 48.73 49.86 50.53 50.76 51.02 51.68 50.50 52.55 52.40 54.39 54.46 54.07 52.73 53.44
52.84 53.11 53.16 52.97 53.36 53.82 53.86 54.02 54.22 54.48 53.54 52.31 52.37 51.94 51.77 51.80 51.68 52.01 54.92 52.04 52.95 54.46 53.87 48.57 49.19 49.26 52.63 50.53 49.94 51.72 51.32 51.33 49.55 49.31 48.94 49.75 48.16 48.31 45.86 49.53 49.35 49.63 49.92 50.55 51.59 52.17 52.39 54.21 53.68 53.91 53.95 53.42 52.77 52.70
51.81 52.63 53.09 52.88 53.16 53.46 53.48 53.96 54.46 53.38 52.51 52.32 51.69 52.25 52.21 51.87 52.98 55.06 54.12 53.47 56.22 53.49 48.52 49.35 47.73 45.55 51.83 49.49 50.91 50.85 51.02 48.59 49.97 48.98 49.20 49.78 47.51 42.54 49.02 50.45 50.25 51.05 50.30 51.06 52.18 52.05 51.26 51.90 52.35 51.98 51.91 51.96 51.74 52.11
50.81 51.34 52.06 52.46 52.81 52.93 52.73 52.36 51.49 51.36 51.28 51.42 51.14 51.00 51.08 55.13 56.96 56.80 55.28 53.06 52.66 51.63 51.95 49.12 51.23 49.07 50.24 49.80 49.19 50.76 50.93 48.16 46.71 48.37 49.82 47.35 46.80 50.20 50.82 51.70 52.08 51.94 52.10 51.76 49.87 49.41 50.59 50.63 50.65 51.25 51.63 52.73 52.81 52.61
51.13 50.74 50.57 50.64 50.61 50.47 50.46 50.94 50.98 50.79 51.25 51.03 50.37 52.72 55.54 54.81 54.99 52.74 49.04 47.98 47.79 46.01 48.98 49.61 50.79 49.67 52.94 49.50 49.31 52.04 48.82 48.15 45.39 47.43 47.52 45.57 41.50 48.98 50.07 50.87 52.55 52.33 52.24 52.11 52.48 53.35 53.13 52.99 51.66 51.71 51.98 52.31 52.76 52.69
50.71 50.99 50.75 50.61 50.44 50.30 50.46 50.26 50.33 51.55 50.96 50.51 50.82 52.43 54.52 52.82 49.73 47.12 45.67 46.37 45.97 44.32 47.94 48.26 49.24 51.98 52.40 53.62 51.75 50.57 47.67 47.30 42.79 49.33 46.80 39.54 46.88 49.61 49.87 50.26 51.71 52.31 52.20 51.97 52.18 51.78 52.77 52.99 53.24 52.98 52.58 52.85 53.08 53.31
50.73 51.02 50.74 50.67 50.89 50.78 50.13 50.05 49.69 51.11 50.64 52.00 52.05 50.26 49.46 48.08 40.77 42.18 39.53 42.63 43.82 47.63 49.58 50.38 49.20 52.47 51.43 52.64 50.04 49.21 44.67 45.32 49.40 45.39 42.88 43.93 49.16 49.39 49.84 50.83 51.96 52.86 53.24 52.43 51.81 52.94 53.26 52.96 53.12 53.01 52.48 52.72 52.84 52.46
50.74 50.58 50.56 50.80 50.89 50.77 50.74 51.24 50.57 49.80 49.78 48.90 46.46 39.36 44.29 42.81 44.17 45.64 44.80 46.66 49.80 51.62 51.51 52.51 50.61 51.59 50.99 49.69 49.57 45.33 46.69 47.73 42.35 39.80 41.49 48.37 49.50 50.35 50.83 51.24 51.61 51.22 52.26 52.29 51.93 52.04 51.51 50.44 49.39 49.37 48.90 49.14 48.97 48.44
50.31 50.50 50.51 50.33 50.96 50.96 51.06 51.09 50.45 49.53 48.91 47.02 48.16 39.62 43.87 48.06 48.66 49.23 49.55 49.50 51.55 52.91 52.08 50.83 50.42 50.98 48.76 46.20 45.03 45.03 42.68 40.59 42.06 42.70 47.21 49.90 50.42 50.92 50.86 50.71 51.13 51.06 50.79 49.99 49.95 49.35 49.38 49.18 48.49 47.41 47.70 47.79 47.73 47.57
50.33 50.32 49.91 50.51 51.05 51.08 50.86 49.88 48.83 49.04 48.21 46.10 46.45 46.14 47.83 46.87 47.37 47.06 48.03 48.85 52.99 52.86 51.40 51.83 48.45 47.18 45.41 46.38 43.97 42.84 41.62 40.20 44.41 47.76 50.49 50.18 50.17 50.87 50.46 50.55 50.64 50.63 49.95 48.84 48.84 48.72 48.40 48.05 47.62 46.74 47.26 47.24 47.24 47.78
49.72 48.43 50.69 50.80 50.93 50.19 49.97 50.38 48.81 45.52 44.45 44.29 45.08 48.57 47.81 47.20 47.05 48.53 48.85 49.78 52.93 51.42 49.68 49.29 45.18 43.80 46.21 44.48 42.84 45.57 44.12 47.58 49.34 48.95 50.20 51.42 50.72 50.59 49.96 49.60 49.24 48.54 48.23 48.36 48.21 48.32 47.61 47.45 47.11 46.71 46.15 46.68 47.22 47.58
47.61 50.77 50.83 50.38 50.05 51.19 51.29 49.98 49.07 48.51 43.92 45.73 44.25 47.05 48.54 49.75 49.17 48.73 49.69 52.42 52.66 51.90 50.54 48.86 48.86 45.70 44.64 42.54 44.19 48.17 49.23 50.22 49.59 50.21 51.20 50.78 51.70 51.47 49.82 49.28 49.04 48.79 48.49 48.13 48.40 47.96 47.43 46.56 46.28 46.02 46.72 47.71 47.77 47.56
49.60 49.17 50.38 50.26 49.66 47.13 46.70 50.01 49.00 44.10 46.75 49.29 49.94 50.38 50.15 50.57 50.69 50.91 51.90 54.07 54.15 53.92 51.13 49.78 47.36 46.34 46.92 48.45 49.81 50.62 48.73 48.18 48.13 49.56 51.16 51.88 52.18 49.43 49.70 49.76 48.93 48.01 47.79 48.02 47.89 47.50 47.11 47.45 47.09 47.33 48.27 48.45 47.49 48.27
51.29 51.13 51.08 50.73 50.19 46.77 44.41 46.44 50.94 46.98 45.80 48.56 48.64 47.81 48.70 49.52 50.80 52.60 52.86 52.71 53.04 52.60 50.54 49.12 49.33 51.19 51.22 52.96 51.64 51.00 49.94 49.75 50.07 48.94 48.89 49.16 49.50 49.10 49.00 48.78 47.73 47.70 47.69 47.83 47.39 44.43 46.70 46.72 47.41 47.92 47.95 47.46 47.09 47.26
49.45 50.80 51.03 50.55 48.00 46.55 45.10 45.38 46.68 49.35 49.81 48.33 50.68 49.85 49.93 50.70 51.59 51.37 50.83 52.25 52.20 51.33 50.55 52.92 53.79 54.86 54.43 54.63 53.55 53.05 51.61 51.68 51.65 51.87 50.45 48.36 48.38 48.68 48.21 48.48 47.68 47.29 47.15 47.24 46.28 45.40 44.23 46.62 47.09 48.12 48.53 48.78 48.70 48.65
49.31 51.44 48.73 49.12 46.43 47.32 45.97 48.04 46.48 48.55 47.31 48.45 48.34 49.62 48.44 49.43 50.58 50.57 51.47 50.57 50.78 53.00 53.29 53.96 53.82 54.83 54.35 53.10 52.83 52.42 53.08 53.39 53.45 49.69 46.87 46.94 46.78 46.76 47.20 47.60 47.17 46.90 47.69 47.54 46.48 46.13 46.44 46.99 47.72 48.51 49.10 49.24 47.62 49.01
50.35 49.95 49.30 48.60 46.37 44.28 43.00 50.16 47.04 48.79 45.58 46.97 49.33 47.71 48.24 48.93 50.89 51.71 50.40 51.86 52.81 55.09 55.31 54.54 54.97 55.53 55.24 53.87 52.58 51.86 52.98 52.95 51.61 51.89 50.41 50.97 50.26 49.93 48.90 48.01 48.97 47.56 47.06 47.04 47.36 46.82 46.58 43.91 45.94 47.66 49.71 48.97 48.66 48.84
50.23 48.61 46.69 45.33 45.18 41.36 47.43 46.14 48.53 47.15 47.66 46.90 46.50 45.97 47.91 49.75 51.16 50.09 48.50 51.44 53.80 55.58 54.00 53.75 53.57 51.44 49.93 50.35 51.06 51.53 52.02 53.40 53.07 51.57 51.75 50.04 48.41 47.97 49.22 48.83 48.70 48.89 48.63 48.73 47.45 46.97 47.04 47.58 45.35 48.84 49.01 48.12 47.96 47.64
42.17 41.74 42.53 36.39 45.42 45.02 43.79 44.70 45.39 46.58 45.25 47.28 46.48 46.39 48.82 51.50 47.53 46.57 47.90 51.05 52.46 53.10 54.00 54.29 53.37 52.79 52.30 51.89 51.29 51.18 51.76 52.91 51.47 50.95 49.83 51.08 49.65 47.94 47.31 48.09 48.14 48.41 48.66 47.75 46.69 47.12 47.92 48.77 48.97 48.75 48.54 48.16 46.93 46.49
36.41 43.05 40.14 43.35 44.08 43.59 43.68 43.05 45.01 44.94 46.46 45.77 46.46 48.99 49.59 47.48 45.08 45.11 49.26 52.40 52.88 53.83 53.35 52.83 52.79 51.54 51.00 52.37 51.10 49.90 49.15 51.01 52.72 51.63 50.27 50.43 49.15 48.22 47.08 46.35 46.00 46.64 48.31 49.05 48.86 47.98 48.19 48.77 48.43 48.09 47.77 46.69 40.00 45.92
38.07 42.67 46.25 48.39 46.70 46.08 45.08 46.83 47.87 47.73 44.56 44.48 45.73 47.07 48.14 44.16 45.42 49.53 51.93 53.07 54.09 55.29 55.51 55.19 54.25 53.33 53.27 51.58 51.32 50.33 48.77 50.22 51.81 51.85 52.83 51.38 51.66 51.87 50.25 48.66 47.86 49.86 49.89 49.26 49.29 49.22 48.61 48.59 48.64 48.59 48.33 48.37 47.90 47.38
44.09 45.47 42.88 45.98 46.16 47.71 44.53 45.71 45.98 44.72 45.92 49.34 49.53 46.54 45.26 46.19 48.14 52.88 53.95 54.71 55.58 56.35 56.59 55.82 55.50 55.40 54.23 53.37 52.14 49.93 47.88 47.95 48.04 47.87 48.07 48.79 49.39 49.48 50.73 51.17 51.31 42.30 50.09 50.64 49.94 50.25 50.04 50.01 49.55 49.43 48.88 48.28 48.12 48.60
43.53 47.70 46.75 44.11 45.46 46.24 46.67 46.45 47.33 48.91 50.51 51.90 48.66 48.78 49.29 52.54 53.31 52.97 55.00 54.03 55.51 56.19 54.00 54.20 53.85 54.41 53.66 53.24 51.72 51.02 49.21 47.92 47.07 46.11 46.13 46.45 46.01 46.74 47.56 48.51 48.45 48.78 49.94 49.63 42.06 46.79 50.43 50.15 50.28 49.80 49.05 49.05 49.21 49.12
44.45 47.96 45.37 44.74 43.99 43.95 47.45 50.24 50.07 51.50 51.82 52.24 52.95 53.29 52.74 52.66 54.73 55.76 54.50 53.70 53.52 53.37 55.48 55.28 54.42 53.69 52.61 52.31 50.72 47.72 48.26 49.51 50.14 48.72 46.51 46.07 47.31 50.26 48.60 47.99 47.66 48.25 49.02 49.37 49.65 48.61 39.58 45.62 42.92 47.31 46.97 47.95 48.04 47.92
47.59 46.48 44.95 44.87 43.99 46.98 48.87 50.90 50.94 50.75 51.55 52.60 52.79 51.79 51.62 53.41 54.81 55.04 54.13 54.02 54.95 53.88 51.25 49.24 48.60 50.55 52.33 50.48 49.62 49.13 48.86 48.71 47.18 47.41 49.06 49.71 49.14 48.40 48.13 48.53 48.59 48.35 48.39 48.87 49.41 48.96 49.05 48.11 48.30 47.68 47.52 47.32 47.42 45.92
46.01 44.76 44.33 43.18 45.51 49.51 50.43 49.21 49.60 50.21 51.54 51.70 51.85 53.12 52.59 52.93 51.56 53.35 54.56 53.10 50.54 50.37 45.59 47.61 46.54 46.71 48.17 49.40 49.19 48.81 41.93 49.51 47.69 47.11 48.18 47.87 47.79 48.39 48.23 48.05 47.88 48.42 48.84 48.84 48.87 49.03 48.81 48.27 47.84 47.45 47.20 47.03 47.52 47.66
45.89 46.12 45.90 45.07 45.48 46.82 49.65 50.78 50.71 50.54 51.67 51.32 51.39 51.99 51.83 51.57 49.79 54.03 57.25 55.51 52.66 51.07 50.67 51.02 51.38 52.44 51.79 52.64 52.60 51.66 46.67 50.35 47.41 41.31 41.18 41.71 42.74 44.76 48.22 48.63 48.25 48.51 48.58 48.50 48.54 48.49 47.95 47.55 46.82 46.59 46.47 46.55 46.79 47.18

GFSWCAN_sfc_wetblb_096.txt.gz
Wetbulb
52.21 52.56 53.76 54.47 54.90 54.84 54.82 55.06 55.54 55.24 53.94 54.16 55.06 56.48 54.87 54.61 54.68 55.53 60.62 62.62 59.18 56.81 57.41 56.23 54.94 54.20 54.20 53.46 50.71 53.05 51.60 51.87 51.44 48.01 48.73 48.58 47.35 49.80 47.21 48.74 47.10 45.45 44.88 45.22 46.58 43.59 40.89 52.78 52.26 48.71 53.09 55.99 56.41 58.67
52.78 53.23 53.81 54.42 54.56 54.53 54.70 54.76 55.24 55.32 53.75 53.61 54.90 56.43 54.33 54.31 54.31 53.85 58.99 61.52 61.50 57.82 57.50 59.21 59.06 58.94 57.98 57.71 56.37 54.36 53.68 51.47 53.24 51.44 51.34 51.83 47.83 49.43 47.24 44.73 50.85 46.18 48.96 49.47 47.07 48.48 53.63 55.29 54.99 56.01 56.39 55.87 56.57 57.74
52.85 53.70 53.96 54.20 54.16 54.40 54.68 54.70 54.96 54.83 53.87 53.67 54.63 56.41 53.99 54.09 53.82 53.30 57.90 61.13 59.81 57.05 56.81 56.62 56.16 58.51 59.81 59.05 59.73 53.73 56.42 55.36 54.99 56.89 54.59 52.98 46.45 51.28 44.83 45.46 46.99 50.77 51.69 50.10 48.41 51.69 52.54 54.46 55.51 56.08 56.59 55.71 56.37 58.20
53.21 53.63 53.99 54.08 54.08 54.24 54.38 54.70 54.86 54.71 53.90 53.73 54.61 55.81 53.55 53.80 53.10 52.41 56.45 60.17 59.93 57.34 52.82 54.18 60.45 57.99 59.44 59.39 58.98 59.23 58.08 57.67 57.38 56.89 53.31 51.93 49.32 52.30 50.56 49.94 48.44 51.42 51.62 49.95 49.82 52.25 53.68 54.82 55.70 55.69 55.60 55.98 55.80 57.67
52.76 53.27 53.86 53.82 53.76 53.95 54.29 54.68 54.76 54.41 53.67 53.88 55.12 53.74 53.13 53.31 52.99 53.94 57.42 59.64 60.77 57.26 52.09 54.44 58.50 58.31 57.86 59.52 57.91 58.00 58.02 56.72 54.72 52.61 51.60 50.55 53.42 51.31 53.03 51.47 48.93 52.57 50.31 48.35 48.11 51.99 52.89 52.06 56.15 57.20 55.68 55.30 56.03 56.10
52.58 53.30 53.54 53.64 53.56 53.88 54.25 54.56 54.43 53.45 53.41 54.06 54.71 52.59 52.87 52.64 52.33 57.18 53.82 58.52 61.17 61.35 55.48 49.87 58.06 56.03 57.00 58.70 57.89 57.58 57.73 57.91 56.93 54.13 54.24 54.49 53.72 52.21 49.19 48.57 53.11 54.40 54.96 55.65 52.80 55.99 55.23 56.39 56.47 57.34 56.15 56.28 56.58 56.52
52.44 53.13 53.58 53.68 53.57 53.69 54.18 54.26 53.61 53.63 54.02 54.68 52.68 52.62 52.35 51.83 54.57 54.55 53.97 56.88 54.58 61.66 56.04 51.60 52.38 55.76 57.35 57.58 57.23 57.00 58.10 58.08 56.70 55.93 53.04 54.52 53.38 51.84 51.20 48.21 51.39 53.83 55.00 55.50 55.82 55.73 54.05 55.37 54.77 56.80 56.89 56.82 54.59 57.03
51.54 52.53 53.10 53.46 53.31 53.85 54.06 53.95 54.07 54.31 54.65 53.06 52.33 52.08 51.99 52.06 52.16 53.24 58.17 53.06 56.23 57.93 57.23 52.53 52.52 52.40 56.87 53.98 53.17 58.57 54.96 55.91 55.48 55.87 54.94 52.91 53.51 53.16 49.27 53.61 54.55 54.54 54.54 54.76 55.42 56.48 55.76 57.36 57.49 56.93 56.97 55.76 54.69 54.80
51.18 51.49 52.34 53.08 53.08 53.53 53.65 53.91 54.19 54.42 53.34 52.83 52.31 52.01 54.36 54.24 54.13 56.48 53.86 54.26 59.59 57.38 52.24 52.84 50.80 48.77 55.67 55.11 56.32 54.97 56.35 51.71 56.42 52.41 53.77 53.36 52.22 48.57 52.24 54.12 54.43 55.07 54.20 54.56 55.92 55.62 55.53 55.61 55.67 55.61 54.86 54.12 53.14 54.23
51.49 50.99 51.25 51.64 51.78 51.70 51.76 51.58 51.34 51.34 51.22 51.65 52.10 51.82 50.78 56.71 56.14 56.59 57.86 55.69 55.87 55.99 55.39 51.71 56.75 50.90 53.98 53.36 52.41 52.90 54.84 52.94 49.67 52.58 54.14 50.87 50.87 55.39 56.43 56.02 57.69 56.34 56.12 55.89 53.80 53.07 53.78 53.68 53.95 53.76 53.44 54.89 54.97 55.17
50.95 51.25 51.01 50.54 50.66 50.68 50.73 50.90 50.66 50.98 50.80 51.71 50.63 54.44 58.74 54.82 57.72 56.29 51.73 50.14 51.00 48.45 51.46 51.55 54.09 52.56 56.39 51.35 51.12 55.56 52.07 52.57 47.03 51.15 50.49 49.62 46.66 53.71 54.49 55.09 57.46 57.62 56.79 56.19 56.18 56.11 56.65 56.30 54.62 53.76 53.62 54.20 54.79 55.11
51.04 50.90 51.10 51.07 50.49 50.17 50.22 50.07 50.57 51.41 53.25 51.69 53.85 56.44 58.95 56.02 53.21 49.19 47.84 50.01 48.07 46.21 50.73 50.35 52.28 56.75 55.17 59.16 54.35 53.76 50.06 51.29 45.31 53.15 50.04 45.74 50.85 54.60 54.26 54.70 55.68 56.57 56.65 56.12 56.31 56.09 56.00 55.40 55.17 54.72 54.41 54.82 55.78 55.85
51.01 50.98 51.03 50.95 50.90 50.77 49.78 49.66 49.78 51.33 51.66 54.33 54.83 52.15 51.27 51.37 41.77 42.85 41.84 43.78 45.54 50.01 51.57 52.06 51.15 55.45 55.48 56.60 53.88 52.28 47.73 47.88 53.84 48.34 46.46 48.06 55.05 54.69 55.25 55.59 55.30 56.79 56.60 55.99 55.50 56.19 56.25 55.90 56.32 55.60 55.43 55.88 55.99 55.87
51.14 50.93 50.82 50.72 51.09 51.07 50.92 50.65 49.25 50.11 51.02 50.71 47.10 38.74 44.76 43.96 46.79 47.85 47.44 48.96 52.52 53.86 53.86 53.12 52.73 52.86 55.39 52.83 52.77 46.83 50.88 51.80 45.35 43.77 44.73 52.94 54.98 54.94 55.51 56.08 55.70 55.38 56.14 55.74 55.80 56.02 55.77 55.31 54.43 54.25 53.59 53.18 53.19 52.66
50.87 50.64 50.97 50.59 51.25 51.20 51.26 51.32 50.34 50.30 49.14 46.98 47.91 40.50 45.11 50.21 52.89 54.00 53.84 53.49 55.61 57.02 55.76 53.36 53.24 53.61 51.76 50.17 52.11 49.80 46.60 43.41 45.65 46.34 52.04 54.42 55.69 55.54 55.03 55.52 55.65 55.65 55.74 55.36 55.20 53.60 52.83 52.79 52.73 51.83 51.69 51.81 51.38 51.38
50.38 50.21 51.51 50.69 51.20 51.32 51.19 51.25 51.27 49.68 48.85 47.62 48.97 47.97 51.32 49.70 50.10 52.00 52.50 52.93 56.15 54.26 56.98 54.96 51.35 48.87 48.30 50.38 47.60 46.07 44.87 43.79 48.92 52.26 55.60 55.59 55.70 55.53 55.56 55.72 55.79 55.59 55.05 54.22 53.65 53.00 52.34 51.34 50.93 50.95 51.03 51.15 50.75 50.56
49.75 49.12 50.56 51.10 50.79 50.02 50.37 52.88 51.90 48.60 47.64 46.21 46.91 50.59 51.12 51.81 52.20 49.65 51.69 52.14 56.83 54.75 51.67 52.42 47.54 46.75 51.79 48.19 46.52 50.69 48.06 52.44 54.94 54.66 55.85 56.57 56.19 55.89 55.92 55.45 54.83 54.12 53.48 53.00 52.07 51.70 51.66 51.94 51.43 50.27 49.06 50.05 50.47 50.90
48.38 51.42 50.80 50.50 50.69 51.16 52.41 51.13 50.10 49.08 45.38 48.17 46.36 49.48 51.59 52.50 52.69 52.23 53.21 55.53 54.91 53.48 53.72 51.10 53.95 48.82 47.37 45.34 47.86 51.62 53.86 56.31 57.34 56.00 55.52 56.80 56.95 56.41 55.36 54.53 53.95 53.63 52.54 51.88 52.08 52.13 52.02 50.77 49.62 49.42 49.82 50.57 50.31 51.20
50.42 50.25 49.63 50.21 50.78 49.36 49.03 49.66 50.18 44.46 48.37 52.07 52.25 52.66 52.79 52.67 54.04 54.48 55.56 56.28 57.64 59.55 56.58 53.72 49.62 48.48 49.92 53.55 53.51 54.34 55.59 56.08 54.78 54.61 54.82 56.97 57.14 55.81 55.07 54.35 53.68 52.31 51.93 52.29 52.02 51.16 51.02 50.92 50.15 49.97 50.50 50.55 51.08 51.70
50.48 50.94 51.14 51.05 50.39 47.65 44.74 45.82 52.10 49.51 48.10 51.54 52.30 51.11 52.04 52.27 54.89 54.58 54.26 55.34 55.38 54.66 52.22 50.53 51.00 53.30 53.99 55.30 57.87 56.55 58.12 58.32 55.24 50.79 52.50 54.42 56.05 55.25 54.26 53.11 51.11 51.99 51.78 52.46 52.29 48.08 50.10 49.70 50.28 50.39 50.93 51.35 50.08 51.05
49.13 50.84 51.29 51.03 49.11 47.40 45.86 46.67 49.45 50.65 51.47 51.01 54.23 53.17 52.48 53.81 52.74 52.88 53.22 55.47 53.50 52.23 51.56 54.42 55.03 56.54 58.96 59.84 59.99 59.55 58.70 57.16 55.93 55.56 54.47 53.36 54.48 53.88 53.25 52.17 51.97 51.47 50.64 50.98 50.25 48.99 46.54 49.02 49.71 50.29 50.29 50.26 51.14 51.78
52.08 51.69 50.37 49.68 46.90 47.89 47.82 50.14 49.86 52.00 50.81 51.53 51.93 52.84 51.16 51.38 52.99 53.72 55.65 52.29 51.96 53.51 55.00 55.42 56.54 57.09 57.54 59.25 59.24 59.06 58.92 58.60 58.64 56.11 51.29 51.11 52.56 52.23 52.00 51.69 50.70 50.23 50.61 50.52 50.39 49.22 49.02 50.08 50.36 50.51 50.23 50.72 47.64 51.49
50.42 51.32 51.92 50.27 46.84 45.50 44.91 54.26 48.56 49.82 46.60 49.08 51.75 49.39 49.85 51.39 53.90 55.23 51.61 53.33 54.40 57.37 57.98 57.80 59.14 60.34 59.28 59.84 59.73 58.97 58.58 58.01 56.48 56.16 55.09 54.59 54.20 54.12 53.27 52.03 51.68 50.65 50.02 50.22 50.22 49.70 49.56 46.44 47.00 49.56 50.76 49.88 50.68 49.66
50.43 48.67 47.40 46.84 46.09 43.34 49.91 47.47 50.47 49.79 49.97 48.86 48.32 46.72 49.72 52.66 51.98 50.75 50.23 53.29 55.92 58.46 57.54 58.58 58.30 57.57 57.79 57.63 56.88 57.27 57.41 57.60 56.73 56.28 56.05 54.55 53.17 53.04 53.46 52.09 52.16 51.76 51.11 50.78 49.69 49.60 49.86 49.57 47.23 49.43 50.10 50.13 49.82 48.87
41.98 42.40 43.07 38.41 47.32 45.73 43.96 45.35 46.84 47.39 45.61 48.35 47.20 48.08 50.83 54.10 49.82 49.24 50.43 54.15 56.25 57.04 57.85 58.47 57.78 57.29 56.03 56.35 57.26 57.68 58.58 57.29 55.79 55.09 56.05 55.78 54.58 53.15 51.92 51.80 52.05 51.41 51.44 49.82 48.85 48.99 49.23 50.05 49.91 50.16 50.24 49.99 49.77 48.18
38.33 45.22 41.67 45.82 46.64 44.98 45.22 43.41 45.03 46.41 47.69 46.65 47.82 50.95 52.64 49.29 46.44 46.85 52.69 56.24 56.98 57.96 58.37 57.56 57.30 56.42 56.49 57.80 56.51 56.00 56.35 58.18 57.54 55.80 55.91 56.38 55.16 52.33 51.14 49.97 49.58 49.80 51.98 51.15 50.04 49.06 49.15 49.88 49.69 49.67 49.59 48.05 41.20 46.97
38.30 44.10 48.96 52.07 50.18 49.42 48.09 49.43 49.86 48.12 45.23 42.65 43.63 45.83 47.29 45.26 45.40 51.55 57.57 58.11 57.70 58.59 60.59 59.52 58.69 57.80 57.61 57.38 57.71 57.48 57.48 57.92 57.85 57.32 57.71 57.23 56.47 55.63 53.79 51.21 50.07 51.44 52.68 51.86 51.67 50.73 49.79 49.72 49.63 49.41 49.69 50.01 49.88 49.25
46.74 47.23 44.01 48.09 48.50 49.92 46.03 46.57 45.98 43.73 45.22 48.49 48.31 45.69 45.34 46.32 49.23 55.88 56.89 58.25 58.93 60.26 60.35 59.63 60.27 60.55 59.32 57.65 56.52 54.81 55.59 55.04 54.55 55.25 55.76 56.03 56.32 55.75 54.99 53.98 53.88 44.58 52.97 53.04 52.29 52.13 51.56 50.84 50.29 50.22 50.13 49.65 50.34 50.73
45.41 49.48 49.31 46.05 47.52 48.09 48.57 47.31 47.10 48.99 51.74 51.54 48.38 48.01 50.17 55.02 56.83 56.51 57.61 57.79 57.23 58.86 58.75 57.94 57.77 58.63 57.95 57.32 56.15 54.98 53.63 52.88 50.51 49.02 48.77 49.08 50.80 51.86 53.38 53.44 52.99 53.69 53.68 53.23 43.16 48.66 52.08 51.60 51.52 51.02 50.94 50.92 51.09 51.22
46.32 50.56 46.85 46.58 45.80 45.64 49.78 52.58 51.76 54.39 55.77 54.24 54.13 53.46 55.36 56.61 57.15 58.52 57.24 57.54 58.05 58.25 57.33 58.64 58.90 57.40 56.01 54.96 52.71 53.81 54.26 53.16 52.38 51.32 49.60 49.15 49.96 51.49 51.78 51.83 51.83 52.34 52.71 52.75 52.38 51.92 41.35 48.31 46.21 51.29 49.72 50.24 50.31 50.04
51.33 49.65 47.22 47.26 46.96 49.70 51.34 52.76 53.56 54.00 53.44 53.91 56.11 54.20 54.71 56.86 57.59 57.95 57.35 56.88 56.57 58.09 57.92 54.79 54.08 54.70 54.41 54.05 54.57 52.48 51.88 55.12 53.21 51.58 53.83 54.33 54.04 53.77 52.81 52.64 52.74 52.69 52.34 52.34 52.12 51.92 51.24 49.98 50.83 50.45 50.03 49.62 49.82 47.99
48.17 46.73 46.79 45.25 47.98 53.04 53.64 51.82 51.18 51.94 54.41 55.18 54.32 56.03 56.01 55.82 52.88 55.87 57.38 56.81 55.69 54.62 47.87 52.17 48.84 47.86 51.20 52.06 52.32 51.36 45.93 52.51 52.10 52.69 52.05 51.65 52.45 52.47 52.13 52.07 52.42 52.52 52.29 51.72 51.66 51.63 51.58 51.01 50.66 50.30 49.75 49.57 49.90 49.94
48.51 48.62 48.51 47.64 48.17 48.85 51.87 52.23 52.13 52.74 52.71 51.33 51.80 53.21 53.63 52.88 50.91 54.84 58.71 57.01 53.81 51.28 49.72 51.39 52.95 51.04 50.71 51.24 51.75 52.02 48.51 53.34 50.55 43.90 43.50 43.07 43.07 47.00 51.22 51.90 52.09 52.09 52.08 51.57 51.27 51.06 51.14 50.91 50.25 49.84 49.78 49.95 49.88 49.89

GFSWCAN_sfc_wetblb_099.txt.gz
Wetbulb
52.90 52.71 52.92 53.45 54.47 55.00 55.00 55.08 54.85 55.16 55.74 55.04 54.34 55.38 56.59 54.94 54.93 55.41 60.77 65.29 61.51 57.56 58.42 56.97 56.63 55.21 54.69 54.60 52.31 54.61 52.84 52.87 51.92 49.82 50.16 49.69 47.98 51.97 48.42 50.34 49.06 47.91 46.36 46.40 47.89 43.06 43.09 54.59 53.32 49.88 56.05 57.65 58.67 60.06
52.76 53.13 53.58 53.96 54.53 54.70 54.75 55.00 55.06 55.26 55.64 54.84 54.11 55.27 56.68 54.22 54.43 53.94 57.69 64.05 63.54 59.52 59.30 60.88 59.79 60.07 58.90 58.81 56.17 55.86 54.84 53.46 54.86 52.02 52.83 53.80 49.43 51.41 48.61 44.95 52.66 46.92 50.53 49.05 49.71 50.27 56.08 56.94 57.29 58.40 58.70 57.88 58.02 59.27
52.58 53.09 53.89 54.23 54.28 54.48 54.66 54.90 54.94 55.10 55.54 54.57 54.19 55.21 56.67 53.81 54.18 52.94 58.18 62.20 60.53 58.47 57.70 57.91 56.43 60.23 61.00 59.81 59.05 54.62 55.73 57.31 55.62 58.25 55.25 53.98 48.49 52.08 48.04 48.44 50.29 52.19 54.75 50.88 50.89 53.44 53.37 55.07 56.64 57.23 57.89 57.42 57.85 59.40
52.72 53.30 53.54 53.99 54.24 54.38 54.51 54.71 54.96 55.24 55.16 54.45 54.23 55.10 55.44 53.70 53.85 52.74 57.63 61.39 60.60 59.43 53.60 55.03 61.41 59.38 60.78 59.79 58.66 59.22 59.82 59.88 59.77 56.26 53.56 52.63 50.67 54.67 51.03 52.27 49.94 52.49 54.28 51.50 51.80 54.10 54.91 55.43 56.45 57.03 56.83 56.91 56.44 58.05
53.01 52.60 53.44 53.89 54.12 54.19 54.23 54.37 54.96 55.06 55.02 54.24 54.49 55.56 53.54 53.58 53.64 54.04 57.55 60.38 62.27 58.68 54.00 54.94 59.42 60.02 60.09 59.89 58.50 58.54 58.18 56.93 55.23 53.48 52.18 51.23 55.63 54.25 52.58 52.68 50.69 53.81 51.98 49.53 50.69 54.45 55.05 54.86 57.70 57.44 56.38 56.10 56.81 56.62
52.36 52.52 53.16 53.82 54.18 54.07 54.17 54.31 54.68 54.57 54.02 53.96 54.85 54.21 52.74 52.97 53.21 56.41 54.43 59.36 62.14 61.61 57.06 52.74 59.60 58.38 58.28 59.31 58.22 57.44 58.19 57.73 56.95 55.24 54.67 56.83 56.66 52.59 50.67 50.06 54.12 56.29 56.24 56.60 54.06 56.73 57.03 57.18 57.78 58.55 56.99 57.09 57.69 57.37
52.14 51.95 52.97 53.69 54.12 53.93 54.05 54.39 54.53 53.65 53.86 54.28 54.63 52.42 52.38 52.49 53.86 54.72 54.63 57.75 55.53 62.95 55.49 51.89 54.18 58.36 59.34 58.84 57.97 57.61 57.87 58.37 56.87 56.99 55.36 55.51 55.19 52.73 51.33 49.74 54.54 54.89 56.25 56.58 57.77 57.81 55.28 56.74 55.99 57.78 57.61 58.08 57.11 57.99
51.76 51.66 52.27 53.05 53.61 53.79 53.99 54.21 54.37 54.20 54.41 54.59 52.42 52.04 52.23 52.22 52.16 52.66 58.57 52.66 56.70 58.65 56.74 51.24 52.92 54.64 58.89 54.89 53.99 58.42 55.88 57.16 56.76 56.14 57.28 54.04 55.91 54.69 50.43 54.74 56.67 57.08 56.67 56.73 57.43 57.95 57.45 58.90 58.21 58.08 58.44 57.99 56.57 56.20
51.59 51.59 51.66 52.14 52.92 53.56 53.69 53.98 54.29 54.49 54.39 53.41 52.80 52.35 54.08 53.46 53.67 56.60 55.83 54.90 60.68 58.66 52.78 52.32 51.21 49.60 57.74 55.25 56.16 56.59 57.59 52.56 57.93 54.11 54.22 56.95 53.01 51.41 53.97 55.92 56.74 57.23 56.11 56.75 57.58 57.55 57.28 57.34 57.45 57.46 57.00 56.17 55.26 55.90
51.29 51.63 51.23 51.32 51.39 51.28 51.31 51.53 51.68 52.20 52.30 51.96 51.95 51.80 50.17 55.45 56.37 57.77 58.07 56.81 55.50 54.86 56.60 53.33 55.29 51.90 55.00 54.55 53.97 54.44 55.04 51.89 50.01 54.29 57.32 53.23 51.85 57.06 58.42 59.02 59.36 58.51 58.26 58.26 56.11 55.11 55.72 56.30 55.94 56.60 55.64 56.49 55.93 55.83
50.99 51.02 51.13 50.93 50.81 50.67 50.69 50.63 50.70 51.02 50.31 51.63 50.84 53.48 59.69 56.08 57.45 55.59 50.92 50.71 52.55 50.08 52.83 52.43 54.73 53.78 57.41 52.31 51.86 54.93 52.84 52.75 47.64 51.77 51.69 51.12 51.51 55.67 58.18 58.21 60.21 59.61 59.26 58.34 58.15 57.50 57.64 57.31 55.97 55.24 55.39 55.53 55.79 56.10
51.37 51.15 50.90 51.24 51.03 50.55 50.29 50.18 50.55 50.68 53.53 52.27 54.81 58.13 59.13 55.92 53.14 49.15 47.87 50.56 49.81 47.35 52.49 50.84 51.78 56.22 56.13 58.95 53.72 55.12 51.35 52.60 46.82 55.41 50.84 47.78 54.04 57.84 57.47 57.07 58.27 59.51 59.32 58.36 58.24 57.73 57.28 57.42 56.78 56.50 56.16 56.05 56.30 56.76
51.38 51.13 51.27 51.26 51.12 51.08 50.31 49.67 49.94 51.24 52.11 56.82 54.66 53.08 53.36 50.94 42.63 44.35 43.20 46.73 47.65 51.44 52.54 52.42 49.69 55.37 56.82 56.85 55.45 53.14 48.70 48.37 55.15 50.64 49.24 50.93 57.14 57.90 58.02 57.67 57.38 58.49 58.30 58.14 57.81 58.19 57.00 56.64 57.17 56.60 56.18 57.27 56.63 56.36
51.57 51.25 51.16 51.10 51.10 51.42 51.11 50.13 50.03 50.89 52.27 51.47 48.01 38.84 44.77 44.21 47.76 48.86 48.65 50.09 53.49 53.11 53.31 53.39 52.98 53.05 54.63 52.96 53.00 47.97 51.89 52.58 46.46 45.02 47.06 53.65 57.75 57.78 58.19 58.09 57.61 56.96 57.55 57.08 57.14 56.85 56.67 57.67 57.17 57.36 56.60 56.96 56.20 55.30
51.75 50.87 50.89 51.13 51.20 51.61 51.77 51.23 50.30 51.36 50.61 47.80 47.82 40.89 45.78 51.30 51.67 53.11 53.87 53.93 55.10 56.36 54.54 52.52 52.83 53.57 52.08 50.27 51.29 50.41 47.35 44.77 47.09 47.63 51.63 57.34 59.01 58.50 57.80 57.66 57.41 57.23 57.07 56.68 56.72 56.86 57.13 56.85 55.89 55.06 54.77 54.82 53.61 53.82
50.98 50.19 50.65 51.38 50.97 51.76 51.44 51.52 49.38 49.94 48.30 46.12 48.56 47.69 51.04 50.28 50.60 51.83 53.17 52.98 57.92 58.51 58.97 56.45 52.46 49.93 48.55 49.95 47.25 46.27 45.33 45.26 49.67 53.42 56.90 59.09 58.79 58.28 58.29 58.15 57.93 57.32 56.66 56.20 56.69 56.83 56.15 55.52 54.15 53.63 53.07 53.79 52.64 52.97
49.57 51.05 50.67 51.34 50.98 51.20 51.59 53.53 52.48 49.27 47.37 47.77 48.04 51.69 51.02 51.38 51.07 52.07 53.72 54.99 59.55 57.38 52.63 52.70 47.59 46.65 51.85 47.80 47.27 50.66 48.53 51.81 55.32 55.76 57.68 60.01 59.32 58.69 58.74 58.30 57.84 56.99 56.55 56.25 56.32 55.90 54.89 54.30 53.59 52.42 50.95 52.25 52.47 52.92
51.33 51.69 50.85 50.66 52.31 52.02 55.31 54.44 52.21 50.68 47.03 49.52 48.04 50.12 51.80 53.57 52.56 53.72 56.68 57.43 56.70 55.50 54.48 49.62 52.35 49.01 46.85 45.89 48.66 52.79 54.87 56.65 57.61 57.45 58.16 59.91 60.09 59.72 58.61 57.94 57.69 57.24 56.60 55.82 55.12 54.07 53.51 52.87 51.59 51.16 52.07 52.35 51.94 52.28
51.14 51.42 50.16 50.03 50.28 50.21 48.91 50.87 53.19 45.72 49.60 52.12 52.65 52.68 53.39 53.32 55.46 56.46 56.31 57.79 58.38 58.43 56.20 54.39 50.60 49.42 50.34 53.46 52.83 55.06 55.23 56.12 55.80 57.69 58.96 60.59 60.18 58.81 58.14 57.84 56.95 56.29 55.37 54.00 53.46 52.62 53.03 53.14 52.16 52.03 51.84 51.49 51.05 52.61
50.46 50.31 50.62 51.01 51.03 49.28 45.11 48.16 53.30 49.02 49.13 51.94 53.98 53.24 54.01 53.66 54.69 55.32 55.76 56.33 56.37 55.90 53.92 51.81 52.05 53.78 53.55 54.89 57.36 57.38 57.84 59.07 58.37 56.34 57.35 58.41 58.60 58.23 57.20 56.20 55.27 54.78 53.53 53.96 53.50 49.89 52.57 51.50 52.24 51.89 52.46 51.64 50.85 50.12
50.86 51.68 51.66 51.36 49.85 52.17 50.73 46.25 50.10 51.49 52.61 51.54 53.07 53.74 52.71 54.81 53.95 53.77 53.61 55.63 53.86 53.33 52.32 54.74 55.66 56.82 59.19 61.16 61.05 60.56 60.12 60.11 57.95 56.77 55.23 54.85 56.62 57.31 56.15 55.93 54.75 53.36 52.58 52.62 52.17 51.05 49.52 50.96 51.62 51.96 51.53 50.28 51.45 51.54
51.97 51.90 51.66 51.41 49.16 50.21 49.29 52.04 50.64 53.52 52.09 52.14 53.10 54.30 52.57 52.20 53.18 54.18 56.28 54.39 53.11 53.61 54.49 54.90 56.09 57.12 57.75 59.67 59.80 61.25 60.64 61.61 61.65 58.49 53.06 53.04 55.22 55.22 55.00 54.46 53.01 52.19 52.49 52.70 52.57 51.54 50.72 51.74 52.28 51.96 51.47 51.24 49.69 51.14
51.25 53.19 53.69 49.50 44.85 45.47 47.18 55.61 49.03 50.42 47.53 49.33 51.12 49.06 49.55 50.49 54.36 57.85 53.56 54.32 55.01 57.37 57.28 57.41 59.90 60.49 59.41 60.42 61.78 62.07 62.13 61.11 59.26 59.05 57.65 57.06 57.37 57.00 55.86 54.61 53.77 52.57 51.74 52.55 53.26 52.25 51.00 48.73 49.36 51.14 51.77 52.05 50.73 51.18
51.16 50.44 47.05 47.49 48.00 45.23 51.93 49.92 52.29 50.94 49.90 48.30 48.35 48.03 50.97 53.61 56.64 53.28 50.45 53.20 55.56 57.92 57.79 61.11 59.21 58.32 59.56 60.67 59.03 59.64 60.52 60.90 59.60 58.84 58.64 57.66 55.96 55.36 55.55 54.43 54.17 53.55 53.41 53.31 52.33 51.53 51.74 51.09 48.53 49.95 51.31 50.88 50.18 49.75
42.31 43.25 46.44 39.81 49.59 47.33 45.41 46.50 47.77 47.46 46.75 48.56 47.87 48.03 52.66 55.07 51.59 50.44 50.93 55.18 54.98 56.32 57.25 59.64 59.67 58.94 56.52 56.91 58.50 58.87 61.52 60.39 57.99 56.18 57.48 57.44 55.33 54.49 54.25 54.72 53.99 53.56 53.61 51.85 50.69 50.66 51.15 51.24 50.60 50.76 50.72 50.56 49.83 50.13
38.51 44.47 43.51 46.66 47.33 47.03 47.39 43.66 45.99 47.16 48.41 46.72 48.41 53.70 55.36 51.70 47.22 46.75 51.48 54.77 55.74 57.25 58.79 58.25 58.44 57.31 56.57 58.71 57.42 57.68 59.60 60.91 58.76 55.11 55.94 56.37 55.36 53.86 53.97 52.38 51.02 51.60 53.45 52.21 51.01 50.31 50.41 50.85 50.59 50.87 50.54 49.05 43.64 48.12
38.47 44.24 49.29 53.29 51.42 49.88 49.60 50.60 50.82 48.20 44.89 45.54 48.41 49.03 48.85 44.97 44.98 49.61 55.31 58.43 57.57 58.68 60.85 61.72 60.04 58.95 57.36 57.91 59.63 60.23 60.13 60.22 59.29 57.75 56.95 58.08 56.77 56.97 55.47 53.04 51.74 52.94 53.75 51.71 51.37 51.21 50.64 50.50 50.70 50.70 50.47 51.06 50.96 50.22
47.18 48.44 45.50 50.43 49.14 50.29 46.60 47.24 45.24 43.41 43.98 47.00 47.84 45.69 44.95 45.92 47.50 55.10 59.64 60.67 60.78 61.85 62.39 62.02 61.64 60.96 58.76 58.64 59.11 59.15 59.30 59.08 59.12 58.71 58.05 57.93 58.72 57.83 57.40 56.28 55.99 45.06 53.35 53.01 52.45 52.15 51.44 51.44 51.19 51.12 50.83 50.67 51.05 51.84
47.61 50.36 49.32 46.95 48.45 48.54 48.11 47.65 46.68 47.61 50.18 49.61 48.12 47.83 49.69 55.07 58.23 57.62 59.02 60.53 62.37 60.42 59.04 58.09 59.02 60.94 60.36 59.84 59.06 58.70 58.58 57.43 55.18 52.66 51.91 51.86 53.62 54.34 56.07 55.45 54.39 54.09 53.72 52.68 43.70 48.53 52.60 52.13 51.89 51.80 52.10 51.71 51.98 52.34
47.74 50.17 47.34 46.96 45.85 46.00 49.60 52.23 51.36 51.62 53.63 53.33 54.94 55.23 56.17 58.80 59.04 60.29 59.48 59.35 59.32 60.24 60.42 59.97 59.74 58.48 55.88 55.82 56.13 56.00 56.10 56.29 54.98 53.45 51.43 50.83 52.45 55.07 55.53 54.98 54.46 54.15 53.72 53.19 52.35 51.66 41.63 48.44 47.57 51.83 50.60 51.50 51.44 50.96
49.34 48.30 46.91 47.13 45.85 49.91 52.62 53.83 54.76 54.73 56.16 56.13 57.72 56.91 56.22 57.62 58.10 59.61 58.85 58.56 58.27 58.54 58.50 57.95 58.82 58.77 56.00 55.62 55.59 54.63 52.69 54.18 55.67 55.32 54.09 54.37 53.96 53.73 53.99 54.49 54.41 54.19 53.44 52.87 52.35 51.87 51.42 50.07 51.03 51.23 51.10 50.97 50.96 49.35
47.66 46.29 45.85 45.54 48.43 53.23 54.46 52.83 53.06 52.79 54.73 55.56 54.00 55.17 55.15 56.43 53.89 56.85 57.23 57.00 55.92 55.12 51.24 54.85 55.23 53.95 54.23 51.65 54.51 54.62 49.58 57.02 57.12 56.84 55.80 54.80 54.66 54.22 55.33 54.28 53.77 53.61 53.23 52.83 52.77 52.32 52.18 52.22 51.76 51.49 51.19 51.33 51.54 51.38
47.90 49.93 50.15 49.64 49.59 49.77 52.38 52.75 53.19 52.75 54.34 53.59 53.29 53.63 53.81 52.34 50.54 55.93 57.85 57.65 56.11 55.45 54.86 54.04 52.69 50.37 51.50 51.42 52.22 50.25 50.72 55.09 51.69 45.95 45.74 44.88 45.51 48.69 53.70 54.59 54.22 53.48 52.89 52.37 51.83 51.59 51.49 51.62 51.83 51.88 51.83 51.73 51.28 51.02

GFSWCAN_sfc_wetblb_102.txt.gz
Wetbulb
53.39 53.37 53.33 53.14 53.61 54.37 54.98 55.26 55.36 55.28 55.36 55.87 56.28 55.19 55.59 56.86 55.64 54.25 57.02 63.29 59.13 57.92 58.75 58.36 56.26 55.00 54.84 54.36 52.05 54.76 52.51 53.45 51.52 49.23 48.88 49.16 47.76 46.42 45.83 50.37 49.28 47.69 47.38 46.92 48.49 44.18 41.60 54.99 53.75 48.83 55.42 58.30 59.58 60.39
52.88 53.07 52.81 53.37 54.37 54.62 54.84 55.02 55.16 55.38 55.47 55.59 56.12 54.86 55.44 56.71 55.02 54.24 54.51 63.22 63.76 57.83 59.46 62.43 59.95 59.17 58.16 58.66 56.32 56.96 55.08 56.03 54.47 51.64 52.34 52.20 48.74 49.76 49.50 44.88 52.90 47.09 51.56 49.58 50.28 49.74 56.31 57.57 58.42 60.06 59.74 58.48 58.74 59.79
52.27 52.30 53.05 54.03 54.15 54.46 54.78 54.74 55.08 55.14 55.57 55.91 55.57 54.72 55.40 56.67 54.62 53.35 54.40 58.73 60.80 55.39 55.79 56.81 57.13 59.81 60.90 59.01 59.45 53.17 56.11 56.52 56.83 57.23 54.96 52.89 49.89 51.52 47.43 48.33 50.47 52.42 55.26 51.74 51.86 54.51 55.08 55.85 57.09 57.78 58.77 57.99 58.34 59.65
52.38 52.97 53.46 53.44 53.95 54.40 54.72 54.68 54.84 55.16 55.45 55.63 55.17 54.55 55.23 56.37 54.60 53.74 54.55 59.05 59.28 57.88 52.87 53.91 58.41 58.32 60.37 59.73 58.68 58.21 58.63 60.09 58.51 57.38 52.47 52.18 50.31 54.31 49.66 52.34 50.63 53.10 54.50 50.88 51.38 54.81 55.29 55.56 56.27 57.43 57.19 56.96 56.59 58.38
52.60 53.12 52.92 53.34 54.00 54.40 54.64 54.60 54.64 54.98 55.24 55.24 54.66 54.58 55.82 55.19 54.60 53.76 55.23 57.77 60.39 57.28 53.94 55.33 58.10 59.78 59.76 59.25 58.03 58.08 57.68 57.48 55.23 53.29 52.06 51.32 54.55 54.21 53.73 52.32 50.54 53.40 51.80 49.88 49.15 56.41 57.57 55.27 57.77 57.77 56.94 55.83 56.57 56.77
52.90 52.96 52.26 52.97 53.77 54.50 54.44 54.47 54.62 55.06 54.80 54.13 54.12 54.72 55.52 53.73 53.86 53.97 53.00 58.13 59.79 60.56 55.68 52.63 58.79 58.44 58.66 58.49 58.20 57.19 57.62 57.36 56.02 54.12 53.62 55.98 57.64 54.43 49.11 49.51 55.19 55.34 56.38 56.36 54.29 57.09 57.20 57.13 58.52 58.74 57.17 57.18 58.01 57.60
53.02 52.66 52.24 52.68 53.57 54.32 54.10 54.25 54.49 54.76 54.06 53.88 54.41 54.98 53.91 53.42 52.62 53.27 52.65 56.04 52.66 61.90 55.43 52.91 53.49 58.22 58.76 57.78 57.52 56.98 57.99 56.78 56.10 54.93 53.72 54.55 55.16 53.40 49.90 48.98 55.40 56.46 56.94 57.48 57.46 57.97 56.06 57.22 56.45 57.90 57.55 58.34 58.33 58.07
52.89 52.26 52.11 52.33 53.12 53.98 54.14 54.36 54.54 54.65 54.17 54.45 54.59 53.56 53.10 52.62 51.78 51.95 56.84 53.80 54.38 57.83 55.40 48.84 51.54 54.79 58.94 54.20 53.60 57.71 55.26 56.35 56.37 55.05 56.12 54.63 56.25 55.24 50.08 54.76 56.57 57.24 57.24 56.72 57.51 58.16 58.00 58.65 58.65 58.64 58.61 58.67 57.03 56.63
52.54 51.90 51.94 51.70 52.01 52.68 53.59 53.95 54.25 54.54 54.48 54.68 53.69 53.25 53.61 52.00 52.61 54.98 57.75 56.20 60.19 57.32 51.49 50.11 48.44 48.94 57.80 55.31 55.55 55.72 56.59 52.18 56.96 53.55 53.45 54.63 52.71 52.69 54.31 56.14 57.24 58.11 56.90 57.23 58.03 58.16 57.50 57.48 57.75 58.13 57.61 57.04 55.83 56.00
52.64 51.54 51.72 51.35 51.49 51.12 51.30 51.32 51.74 52.86 53.05 53.17 52.94 51.67 50.80 54.29 56.67 57.45 57.66 55.79 54.12 54.01 55.94 52.31 54.24 51.07 55.78 53.72 52.95 54.19 54.82 51.96 50.20 53.89 56.49 53.30 52.38 59.14 58.90 59.37 60.07 59.30 59.04 58.68 56.36 55.49 56.24 56.16 56.47 57.27 57.22 57.39 56.49 55.93
52.46 51.61 51.45 51.54 51.26 50.84 50.65 50.41 50.52 50.80 50.60 51.31 51.17 52.69 60.24 56.50 56.81 53.99 49.71 50.07 50.76 47.13 50.11 52.57 54.39 52.82 56.70 51.33 51.99 55.47 51.90 52.49 47.72 51.67 51.15 50.82 50.62 56.42 59.20 59.40 61.73 60.50 60.14 59.09 59.12 58.21 58.33 59.19 55.86 56.00 56.16 56.37 56.15 55.98
52.22 51.80 51.47 51.23 51.47 51.22 50.56 50.22 50.87 50.69 52.87 50.99 51.73 57.98 58.24 53.71 52.38 48.79 47.88 49.02 49.14 46.84 51.79 49.80 51.13 55.00 53.21 59.56 53.68 54.12 50.75 52.23 46.25 54.74 50.20 49.31 53.37 59.24 59.47 58.50 59.30 60.66 59.42 58.84 59.09 58.61 58.26 58.46 57.31 56.93 55.74 56.28 56.42 57.04
52.36 51.94 51.50 51.49 51.48 51.19 50.76 49.98 50.17 50.50 52.11 55.40 53.59 52.62 51.54 50.88 42.53 44.23 42.56 45.49 46.87 50.97 52.47 52.35 50.51 56.13 56.94 57.07 54.22 53.09 48.94 47.36 53.83 50.04 48.19 51.13 59.16 59.19 58.96 58.64 58.60 59.87 59.72 59.20 58.57 58.57 58.59 57.77 57.01 55.91 56.59 57.84 57.25 56.72
52.06 51.79 51.47 51.44 51.47 51.21 51.24 50.36 50.44 51.53 51.35 50.81 47.78 39.17 46.20 44.76 47.18 48.30 48.47 49.61 52.83 53.33 53.60 53.01 51.62 53.77 54.91 52.61 52.57 47.69 50.34 51.37 46.37 44.85 46.51 52.91 59.71 59.39 59.39 59.00 58.60 57.85 58.23 58.17 58.06 57.07 57.35 57.49 57.53 58.20 57.83 57.53 56.24 55.26
52.16 51.96 51.43 51.06 51.60 51.63 51.54 50.90 50.58 52.61 50.36 48.01 47.92 40.95 45.48 50.26 52.29 53.32 54.47 53.79 54.49 55.41 54.72 52.34 51.59 52.68 52.53 50.64 51.13 49.59 46.83 44.79 46.87 46.77 51.85 58.33 61.14 60.70 58.69 58.38 58.10 57.62 57.53 57.34 57.53 57.15 57.36 57.03 56.55 56.35 56.55 55.94 54.75 53.77
52.11 50.59 51.75 51.94 51.91 52.14 51.69 51.35 50.08 50.94 49.16 46.65 47.33 46.26 50.27 49.95 49.91 51.93 52.80 52.48 55.65 55.85 55.73 54.50 51.63 49.00 46.44 47.89 46.93 45.70 45.08 44.11 48.52 54.14 58.09 60.36 61.18 60.28 60.63 58.98 58.55 58.61 57.78 57.32 57.14 56.94 56.14 56.46 55.37 55.30 54.88 53.87 53.12 52.54
50.57 51.30 51.13 51.64 51.03 51.70 51.58 52.51 48.42 46.88 46.64 45.44 47.02 49.89 48.98 50.11 50.14 51.32 54.14 54.31 56.80 55.60 51.53 51.85 45.23 45.25 49.98 46.32 46.58 49.39 47.23 50.59 54.72 56.02 57.67 61.52 61.59 61.25 60.45 59.37 58.68 57.89 57.63 57.45 56.92 56.65 56.70 56.56 56.18 54.49 52.25 52.69 53.09 53.13
49.76 51.63 50.97 51.26 50.89 50.95 53.42 53.70 51.42 48.82 45.75 48.64 46.45 49.99 51.81 52.78 52.91 53.84 54.50 54.56 54.74 55.57 55.40 50.03 52.11 48.56 47.57 45.67 47.18 51.96 54.06 56.41 53.92 55.88 59.91 61.42 62.82 62.27 60.34 59.64 60.17 58.80 57.76 58.06 57.16 56.64 56.06 54.56 53.13 51.92 53.04 53.14 52.54 52.81
51.95 52.67 50.77 50.29 51.79 51.29 51.49 51.93 53.04 47.15 49.31 51.24 52.07 52.32 52.71 53.11 55.88 56.00 56.22 58.37 57.21 56.04 54.34 51.60 46.31 46.34 49.09 53.27 53.13 55.03 55.59 56.90 56.85 58.35 60.42 62.32 62.20 60.56 60.82 60.06 58.83 57.99 57.45 56.91 55.87 53.98 53.55 54.53 52.95 52.76 52.71 52.37 50.91 52.07
50.73 50.56 50.72 50.79 49.93 48.48 45.32 47.13 52.80 49.70 49.07 52.68 54.09 52.93 53.38 52.99 54.21 55.02 55.38 55.78 55.93 51.75 49.04 50.30 48.83 50.91 52.28 51.89 54.15 56.75 57.66 59.18 58.64 57.34 58.06 59.39 60.09 59.79 59.63 58.42 56.71 57.11 56.24 55.79 54.24 50.47 53.58 52.90 52.76 52.99 52.60 51.72 51.67 50.85
49.75 51.25 51.10 51.57 51.40 51.56 48.78 49.43 49.14 51.31 52.29 51.14 53.56 53.46 52.18 54.47 53.50 52.75 53.21 55.59 53.63 52.84 51.54 54.59 55.61 56.78 57.40 56.24 55.25 58.23 60.77 59.40 58.10 58.10 57.73 57.68 57.85 56.30 56.21 57.30 57.45 56.19 54.09 52.60 52.35 51.61 49.98 51.77 52.31 52.48 51.65 51.03 50.83 51.15
51.81 52.11 51.68 51.94 48.26 50.39 50.60 53.10 51.09 53.87 51.80 51.73 52.14 53.17 51.25 51.62 51.39 52.96 55.71 53.18 52.25 53.30 54.95 55.05 57.31 57.28 58.15 55.06 57.26 61.98 62.27 62.45 61.66 58.14 54.17 54.76 56.07 55.69 54.52 55.03 55.53 53.83 52.72 52.82 52.87 52.34 51.94 52.18 52.84 52.62 51.97 51.54 50.26 51.60
51.75 51.47 51.16 51.33 47.95 46.37 45.21 54.22 49.46 50.07 46.60 49.01 51.40 49.15 50.00 51.19 54.39 57.38 53.69 54.37 54.89 56.78 58.13 57.83 60.53 62.51 60.99 62.17 62.52 62.43 62.46 61.23 59.02 58.38 58.66 58.68 58.24 57.09 56.74 56.28 56.20 53.57 52.19 52.98 54.06 53.27 52.56 49.80 49.71 51.93 51.93 51.24 51.67 50.75
50.73 51.22 48.51 48.11 47.45 44.02 50.98 49.33 50.92 49.14 50.08 49.13 47.88 47.95 50.41 52.92 55.55 53.91 50.99 53.32 55.96 58.01 57.67 60.54 59.38 57.79 59.32 61.85 58.02 60.05 60.34 61.28 59.66 59.00 59.46 55.97 54.64 55.89 57.48 56.61 55.57 54.74 54.11 53.93 53.53 53.11 52.61 51.88 49.92 51.14 51.21 50.97 50.15 50.28
43.76 43.71 46.44 40.49 49.68 47.08 46.75 47.47 47.28 47.28 46.14 48.43 47.40 48.55 51.75 55.62 51.04 50.43 50.30 54.30 55.12 57.04 56.85 59.26 57.27 57.46 57.51 56.97 57.47 58.66 62.32 59.69 58.23 57.96 58.82 57.11 56.86 56.28 56.30 56.29 55.63 55.47 54.84 53.29 52.48 51.86 51.51 51.77 50.98 50.09 49.65 50.26 50.53 50.14
38.47 46.37 41.61 46.53 47.33 46.03 46.29 44.15 45.79 47.27 47.84 46.79 49.10 54.11 55.29 52.07 47.85 47.47 51.69 53.48 53.72 55.77 55.24 56.55 55.72 54.90 56.09 57.51 57.18 58.12 56.74 60.70 59.91 58.09 58.82 58.54 56.81 55.45 54.52 53.53 52.63 53.64 54.80 54.06 52.87 51.26 50.99 50.98 50.10 49.84 49.25 48.07 45.20 49.35
40.52 44.98 48.86 52.95 50.35 50.13 49.24 49.92 50.78 49.26 46.59 46.08 49.17 49.90 49.77 45.53 46.23 50.41 52.64 55.74 55.63 58.58 60.08 59.88 59.24 56.60 57.81 58.24 60.31 60.83 61.39 61.45 60.15 59.47 59.48 57.50 57.44 57.98 56.81 54.63 53.89 54.27 54.64 53.66 52.91 51.72 50.70 50.60 50.32 49.94 50.04 51.11 51.17 50.01
47.65 48.17 45.23 50.33 48.82 49.97 46.35 47.52 46.63 45.01 46.71 49.79 49.82 46.35 45.79 46.00 47.08 52.12 53.54 55.53 60.09 60.34 60.51 60.58 60.55 60.67 59.64 60.07 59.76 59.08 59.55 59.23 59.29 58.65 57.08 56.16 58.13 56.43 57.71 57.61 56.80 45.71 54.74 54.14 52.39 52.05 51.69 51.31 50.92 50.66 50.52 50.46 50.84 51.77
47.69 49.61 48.78 47.18 49.21 49.74 49.05 47.92 46.77 48.16 49.61 49.41 47.97 47.03 48.10 53.14 56.26 55.95 58.72 59.74 61.32 60.52 56.29 55.65 57.34 60.07 59.86 60.15 59.91 59.54 59.19 58.71 55.21 52.96 53.33 52.79 53.78 54.78 57.01 56.16 53.33 54.53 54.49 52.43 41.84 48.31 52.74 51.70 51.83 51.44 51.64 51.54 52.06 52.52
47.13 50.03 47.25 47.06 46.85 46.75 49.81 50.78 49.44 51.15 52.49 53.21 53.35 53.03 53.42 57.35 58.84 60.39 59.44 59.19 58.43 57.43 58.34 59.11 59.13 58.71 57.54 55.89 54.23 57.04 58.64 57.93 57.44 56.46 53.18 51.59 52.49 55.22 55.69 53.93 54.33 54.19 54.28 53.33 51.79 51.54 43.30 50.07 47.96 51.54 50.49 51.20 51.48 51.41
49.99 48.85 47.39 47.19 47.26 51.34 52.31 54.03 55.06 54.58 52.39 51.79 52.19 53.08 55.25 57.54 58.06 59.42 57.91 57.68 58.19 58.19 57.19 56.18 56.32 56.14 54.15 54.11 55.87 52.24 51.76 54.79 55.70 55.26 55.12 55.38 56.98 56.75 55.96 55.89 55.57 54.90 54.23 53.39 52.67 51.81 51.32 50.47 50.68 50.56 50.48 50.65 50.85 49.08
48.78 46.99 46.67 46.35 48.01 52.90 54.04 52.85 52.81 52.35 53.93 55.21 54.56 55.96 55.43 55.52 54.02 54.71 56.16 56.71 55.73 54.75 51.41 54.72 54.51 53.36 54.32 55.56 55.06 53.54 49.12 55.42 56.65 56.50 55.95 54.69 54.90 55.28 55.15 55.20 55.23 54.80 54.06 53.23 52.92 52.33 52.09 51.51 50.67 50.54 50.48 50.79 51.13 51.03
49.00 48.85 48.35 47.79 47.43 49.92 52.04 51.87 51.69 52.39 53.91 53.34 52.92 52.78 52.73 52.40 50.63 55.24 58.10 58.07 56.30 55.26 54.99 54.80 55.32 53.98 52.53 51.88 52.11 52.36 50.49 54.42 50.13 45.67 45.94 44.10 43.11 47.23 53.41 54.42 53.96 53.82 53.37 53.01 52.60 52.24 51.79 51.73 51.20 51.85 52.10 51.95 51.36 51.73

GFSWCAN_sfc_wetblb_105.txt.gz
Wetbulb
53.41 53.04 53.41 52.69 53.43 53.93 54.70 55.01 55.21 55.21 55.27 55.54 56.06 56.21 56.36 55.52 56.80 53.19 52.52 55.77 57.20 54.78 55.80 58.87 57.69 54.39 53.39 51.88 49.54 51.68 50.39 50.04 47.94 44.64 44.10 45.48 41.97 43.34 42.12 46.25 47.90 44.25 41.83 41.86 40.27 37.19 38.26 54.38 53.09 46.86 51.80 54.87 55.80 59.15
52.63 53.07 52.49 52.73 53.42 54.12 54.64 54.91 55.17 55.37 55.41 55.65 56.00 56.31 55.69 55.45 56.54 54.75 51.29 59.02 60.65 57.43 55.38 57.25 57.46 58.22 58.39 56.96 53.61 54.31 53.23 53.09 52.32 48.41 49.00 48.67 45.11 43.78 42.98 40.55 48.37 42.38 47.75 45.75 45.29 43.71 48.82 53.82 53.89 56.01 56.21 54.07 54.59 55.31
52.70 52.50 52.82 53.44 53.79 53.79 54.34 54.93 55.15 55.17 55.45 55.75 56.18 56.13 55.19 55.61 56.76 53.48 51.65 53.96 57.21 56.19 52.96 52.74 52.77 59.25 58.50 57.73 56.05 50.67 53.35 56.01 54.51 54.34 51.78 50.17 45.62 48.00 43.51 44.07 46.74 49.55 51.19 47.44 48.49 50.05 52.93 54.72 54.76 55.93 55.97 54.10 55.08 55.70
52.25 52.41 52.92 53.73 53.30 53.93 54.56 54.97 55.11 55.17 55.31 55.55 56.00 55.52 54.92 55.42 56.51 53.85 51.97 55.36 54.44 55.31 51.19 51.28 56.73 55.71 59.95 57.93 57.04 56.17 54.83 57.88 56.07 54.70 50.18 47.44 47.46 50.39 46.12 48.46 46.27 49.84 49.11 46.54 49.34 52.25 52.57 53.77 54.70 54.53 54.60 55.26 54.88 55.93
51.84 52.48 53.37 53.02 52.91 53.55 54.40 55.13 55.03 55.03 55.21 55.67 55.49 54.93 54.91 55.82 55.26 53.51 53.02 54.00 55.85 53.75 50.62 52.09 57.48 60.07 57.52 56.70 56.52 56.59 54.60 54.88 53.84 49.97 48.63 47.32 52.22 50.62 49.74 47.73 45.80 49.43 48.39 44.55 45.24 52.39 51.08 51.72 54.60 56.46 54.23 54.06 54.58 54.93
51.86 52.61 53.27 52.54 52.82 53.61 54.64 54.60 54.80 54.92 55.37 55.19 54.54 54.46 55.17 55.32 53.94 51.65 51.70 56.23 56.16 57.42 54.22 50.36 57.66 57.11 56.93 57.18 56.03 56.22 54.99 54.87 53.91 50.97 50.12 53.03 54.32 50.71 44.61 44.97 50.60 52.09 53.43 52.55 51.97 54.36 54.10 55.60 56.82 56.56 54.79 55.43 55.87 55.90
51.69 52.69 53.21 52.49 52.72 53.61 54.41 54.40 54.66 55.05 55.13 54.25 54.21 54.78 54.97 53.60 51.22 49.95 50.79 54.34 52.36 52.84 54.71 50.93 51.70 56.55 57.50 56.36 55.20 54.54 55.31 55.22 54.14 52.30 51.19 51.71 51.17 50.71 45.82 43.32 52.15 53.88 54.95 54.70 56.18 55.50 52.73 55.10 53.59 56.40 56.80 56.87 57.08 57.00
51.82 52.64 52.73 52.41 52.31 52.88 54.02 54.52 54.86 54.94 54.56 54.52 54.78 54.66 53.48 52.52 51.16 49.24 53.26 52.80 52.88 56.85 55.62 48.29 49.35 51.84 56.47 52.45 50.75 55.32 52.43 53.27 54.33 52.40 53.49 51.53 52.31 51.98 45.80 50.89 53.51 55.80 55.30 54.95 54.90 55.20 54.75 55.10 55.95 55.52 56.33 56.30 54.59 53.73
51.49 53.07 52.49 52.34 51.81 52.28 52.21 53.77 54.34 54.46 54.34 54.68 54.70 53.74 52.69 50.29 50.45 54.06 58.53 55.10 59.32 57.02 50.41 49.35 46.61 47.77 56.53 53.14 53.19 53.39 54.43 49.66 54.24 49.93 50.51 52.75 49.25 47.48 51.78 52.62 54.54 55.59 54.37 54.40 56.00 55.84 55.50 54.92 55.93 55.50 55.67 55.19 53.37 54.05
51.57 53.03 52.19 52.11 51.55 51.81 51.49 51.19 51.40 52.42 53.25 53.36 52.67 49.52 48.34 53.11 57.40 58.35 57.55 55.34 54.33 53.76 54.86 50.63 52.82 50.67 54.36 52.80 50.93 51.69 52.27 49.99 47.22 50.68 54.59 49.68 49.94 55.09 55.73 56.03 56.82 57.82 56.82 56.31 53.55 52.10 52.84 53.71 54.98 55.16 54.73 54.60 53.84 53.79
51.69 52.79 52.30 51.40 52.09 52.00 51.38 50.71 50.71 50.98 50.95 50.94 49.17 52.62 58.82 56.89 56.75 54.23 49.65 49.66 50.00 46.78 49.13 50.52 52.05 50.66 55.36 50.13 49.71 52.20 50.62 50.87 46.06 49.79 49.63 48.24 47.47 52.31 56.81 58.01 58.27 58.46 58.03 56.75 57.80 56.05 56.77 55.26 53.97 53.82 53.73 54.20 54.72 55.36
51.42 52.52 52.18 51.72 51.59 52.09 51.76 50.43 50.67 50.14 50.98 50.86 50.60 54.32 57.79 54.34 51.31 47.49 47.01 48.55 48.47 44.71 49.41 46.51 49.32 53.66 53.99 55.34 52.38 52.09 49.63 50.95 45.44 52.86 49.20 45.06 51.34 56.95 57.19 57.87 58.90 59.40 58.79 58.28 58.00 57.08 56.66 56.36 55.12 53.93 53.12 54.04 54.49 54.45
51.09 52.46 52.25 51.68 51.80 51.84 51.22 50.20 50.39 50.61 51.63 53.94 52.10 50.73 50.75 50.12 40.60 42.66 41.58 44.82 45.44 50.80 51.14 48.92 47.41 51.65 54.02 54.51 51.56 50.60 46.55 45.57 50.12 48.62 45.84 47.11 55.87 57.50 57.41 57.37 57.51 58.57 58.89 58.36 58.18 58.04 56.69 56.13 56.04 55.32 53.98 54.67 54.36 53.83
51.02 52.16 52.12 51.77 51.86 51.59 51.66 50.28 50.64 51.33 50.33 49.40 47.29 38.77 44.33 43.11 45.36 46.69 47.16 48.51 51.40 53.30 51.89 51.48 49.71 52.31 52.09 49.70 50.77 47.62 49.55 48.80 45.71 43.38 45.15 51.54 56.35 56.73 57.27 57.60 56.98 56.77 57.50 57.26 56.17 55.94 56.16 55.45 55.11 55.62 55.94 55.04 54.32 52.88
51.19 52.18 52.03 51.48 51.74 52.01 51.53 50.79 50.76 51.90 50.11 47.37 47.64 39.74 44.48 48.81 50.45 51.79 54.14 51.93 53.53 54.40 53.41 51.22 51.41 53.69 50.37 50.40 50.14 48.77 46.31 43.88 45.90 44.99 49.08 55.73 57.27 57.07 56.69 56.96 56.88 56.58 56.41 54.97 55.17 55.30 55.85 55.61 54.57 54.14 54.13 52.60 51.98 51.07
51.49 51.48 50.98 52.59 52.76 52.33 52.17 51.17 50.52 50.90 49.03 46.89 47.11 45.44 48.40 48.25 49.00 51.05 52.14 51.10 55.31 55.21 53.82 53.64 50.94 48.57 46.52 48.16 45.81 45.68 44.47 43.36 46.87 53.63 56.74 57.52 56.98 57.05 57.23 57.27 56.86 56.74 55.35 55.32 55.38 55.52 55.19 54.09 53.48 52.41 52.61 51.05 50.12 50.47
51.19 50.38 51.95 51.93 51.32 51.77 51.60 50.76 48.39 46.71 46.83 45.29 44.67 48.36 48.23 49.14 48.23 49.38 52.79 52.94 56.57 53.94 49.82 51.48 47.23 45.60 49.28 45.56 44.16 47.88 45.95 48.63 54.98 57.12 58.25 58.47 57.97 58.10 58.34 58.16 56.47 55.85 55.45 55.63 55.54 54.79 54.26 53.89 52.86 52.57 50.09 49.64 49.97 50.37
49.97 51.75 51.65 51.29 50.91 51.06 50.85 49.86 49.80 46.52 44.38 46.58 45.16 48.14 50.06 51.22 50.60 51.24 52.94 55.96 55.74 51.64 48.78 48.17 51.64 46.47 45.37 43.80 45.42 49.02 52.73 55.74 57.55 57.37 58.23 59.44 59.86 59.27 58.95 56.30 56.51 56.68 55.86 55.23 54.98 54.39 53.62 53.13 51.95 50.84 50.54 50.30 49.68 49.24
51.31 51.36 50.92 51.06 50.62 51.13 49.77 50.57 52.33 46.08 47.80 49.59 50.22 51.12 51.58 51.56 52.80 54.27 55.27 54.47 54.76 54.97 52.29 51.45 48.48 47.02 47.00 52.21 51.80 52.80 52.74 54.22 54.60 56.42 57.63 59.48 59.96 58.88 58.77 56.80 56.91 56.11 55.54 54.84 54.67 53.49 52.81 51.60 50.36 50.38 50.64 50.05 48.19 49.06
50.98 50.97 50.80 50.61 50.44 48.45 46.07 47.93 52.77 48.32 46.73 51.90 52.94 51.74 51.52 53.26 55.69 55.02 54.82 54.45 55.15 52.08 48.55 47.11 48.35 50.16 51.51 54.56 55.09 56.11 55.34 56.06 54.85 54.16 55.15 57.50 59.07 59.27 58.54 57.06 56.16 56.85 55.99 55.15 53.66 51.35 51.64 50.62 50.82 50.65 50.93 49.84 48.64 47.38
49.72 50.67 50.95 51.24 49.83 48.31 47.99 47.72 48.73 50.37 50.99 50.10 52.56 53.10 52.37 55.80 53.71 53.02 53.13 53.43 51.88 51.78 47.90 50.26 50.73 53.16 54.66 54.84 55.67 55.78 55.15 56.78 56.08 56.81 56.46 56.71 58.49 58.23 58.04 56.33 55.66 55.27 54.13 52.84 51.11 49.47 49.72 50.07 49.91 49.30 48.59 49.24 48.23 47.36
51.73 51.54 51.39 50.22 47.46 48.51 49.05 52.08 49.80 51.77 50.49 50.86 51.11 52.10 51.56 51.42 51.28 52.32 56.07 53.63 52.42 53.40 54.56 53.86 53.66 54.52 54.84 52.98 54.05 55.50 54.57 55.20 59.47 56.54 54.69 54.64 56.59 55.98 55.51 54.87 53.75 53.02 53.12 51.98 51.47 50.43 49.92 50.88 50.60 50.56 49.22 48.62 47.58 48.02
51.51 51.06 49.72 49.68 46.53 44.79 43.34 52.73 49.10 50.06 46.20 48.93 51.63 48.77 49.69 51.05 53.91 57.06 52.90 53.91 53.70 57.39 58.46 59.14 59.34 56.09 54.45 55.19 55.30 55.53 55.05 54.48 57.82 58.33 57.53 58.15 57.67 57.10 56.13 55.14 55.10 53.56 52.15 51.88 52.60 52.19 50.74 49.00 47.94 50.18 50.23 49.22 48.57 46.54
50.75 49.90 47.84 47.25 46.14 41.82 50.07 49.12 51.33 49.41 49.34 47.96 47.70 47.10 49.73 52.02 55.67 53.38 48.88 51.75 54.49 57.36 56.78 58.72 58.93 58.24 59.35 59.38 57.58 59.66 59.51 59.73 59.16 59.35 59.26 58.05 56.68 56.11 55.90 55.01 55.57 55.81 53.43 53.31 52.97 52.40 51.24 50.21 48.63 49.35 49.26 48.60 48.77 47.20
43.03 41.83 44.11 36.41 48.86 46.28 45.49 46.43 47.15 47.66 46.08 48.61 47.26 48.54 51.27 55.05 50.19 49.38 49.53 53.66 55.72 56.82 55.82 55.65 56.21 58.82 56.39 57.48 58.03 57.61 61.15 60.39 58.41 57.12 57.74 58.66 57.07 55.71 55.01 56.03 56.05 54.80 54.07 52.37 51.45 51.36 50.24 50.33 49.80 49.37 49.27 48.76 48.64 48.49
37.74 45.22 40.66 45.58 46.39 45.76 46.00 44.54 46.23 46.46 47.66 46.90 48.68 52.90 54.03 51.05 47.37 47.06 51.62 53.23 54.62 56.11 56.92 57.91 58.81 56.09 56.97 56.94 55.64 57.21 58.06 58.03 59.72 55.86 58.11 58.52 57.18 55.50 53.91 53.66 51.62 52.06 54.60 53.70 52.16 50.95 50.42 49.92 49.31 49.40 48.41 46.27 43.48 48.52
38.65 42.91 47.83 51.54 50.32 49.28 47.11 49.99 51.15 49.01 46.68 46.34 48.90 49.60 49.38 45.10 45.82 49.93 52.71 54.51 54.32 56.69 57.22 56.64 57.92 56.43 57.37 58.17 58.89 60.42 60.17 60.36 59.05 57.13 59.54 58.85 58.96 57.90 56.11 53.46 52.97 54.15 54.14 53.47 52.69 51.32 50.25 49.95 49.43 49.10 48.36 48.67 49.54 49.37
45.81 47.89 45.11 49.77 49.46 50.24 46.65 47.62 46.44 46.16 46.70 49.64 49.00 46.65 45.90 45.92 46.28 52.38 54.30 57.24 57.19 56.86 57.73 58.23 58.11 57.91 58.94 60.10 60.17 59.91 60.12 59.87 58.68 57.91 57.30 55.11 56.49 55.55 55.46 55.37 53.13 45.56 52.33 52.41 52.04 51.65 50.62 50.43 49.97 49.42 49.24 48.81 49.99 49.89
46.76 49.69 48.44 46.02 48.29 49.55 49.08 46.92 46.21 48.38 50.78 50.03 48.54 47.76 48.52 52.94 53.44 53.23 55.40 56.58 57.30 57.24 55.31 54.56 54.83 57.39 59.15 61.00 60.85 60.04 59.37 57.96 55.92 53.52 52.59 51.50 51.86 50.00 52.72 54.49 53.42 52.93 51.95 48.19 44.65 49.20 51.25 50.88 50.86 50.39 50.70 50.17 50.61 51.32
46.50 49.86 47.17 46.77 46.37 46.54 48.49 50.88 49.35 50.33 50.72 51.15 53.27 52.31 50.98 52.29 54.73 56.54 56.98 57.21 57.30 57.02 56.65 56.72 57.66 56.53 54.74 53.75 54.52 53.89 54.67 55.85 56.63 53.10 50.83 50.46 51.39 52.85 52.82 52.07 52.02 51.79 51.44 50.67 49.14 47.81 44.62 48.36 46.59 49.41 49.40 49.98 49.88 50.40
49.43 49.34 47.35 47.48 47.00 49.76 52.01 52.83 52.69 53.38 53.51 53.41 53.18 51.24 50.57 53.70 56.88 56.20 56.40 56.72 56.65 56.05 55.15 55.10 54.06 54.00 53.68 53.45 51.97 51.62 50.10 53.69 53.72 53.79 53.04 53.76 54.20 53.93 53.58 53.43 53.48 53.31 51.99 50.67 50.36 50.00 49.62 49.64 50.02 49.99 49.90 49.73 49.99 47.81
48.13 46.99 46.61 45.80 47.70 52.16 53.56 52.62 51.99 51.74 52.63 51.58 51.67 50.89 54.34 55.14 52.42 54.06 56.76 55.98 54.49 53.78 51.13 53.55 52.83 52.11 54.11 53.75 53.14 52.49 48.04 54.17 54.68 54.08 55.10 53.92 56.05 54.81 54.54 54.55 54.68 53.94 53.36 52.42 51.49 50.87 50.83 50.07 49.38 49.50 49.22 49.94 49.86 49.89
48.36 48.84 48.75 48.30 48.32 49.28 52.24 52.38 52.05 52.31 52.36 52.22 52.10 52.62 52.61 51.96 50.07 55.37 57.79 57.16 55.03 54.02 53.62 54.18 54.11 53.37 53.07 53.17 53.37 53.35 50.57 52.58 49.90 45.08 44.17 41.88 40.29 43.08 52.46 54.13 53.61 53.78 53.71 52.66 52.16 51.89 51.55 50.84 49.98 49.84 49.82 49.79 49.89 50.42

GFSWCAN_sfc_wetblb_108.txt.gz
Wetbulb
53.70 53.39 53.02 52.88 52.58 53.16 53.82 54.19 54.82 55.03 55.35 55.29 55.66 56.27 56.35 56.31 55.68 53.22 48.41 50.63 48.25 50.83 52.09 55.56 55.42 50.63 49.37 47.50 44.29 46.46 46.24 45.60 42.43 40.14 41.05 39.65 39.05 40.46 38.21 41.74 43.27 42.70 38.08 38.88 36.29 33.16 33.08 51.16 51.68 46.59 50.21 54.05 56.23 55.77
53.38 52.59 52.87 52.49 52.77 53.66 53.83 54.14 54.83 55.13 55.35 55.07 55.72 56.22 56.56 55.82 55.74 54.44 45.98 51.75 52.85 52.21 51.64 55.45 56.68 55.76 52.65 52.12 49.56 47.69 47.11 46.88 46.80 43.28 42.48 43.38 40.82 40.77 38.14 37.38 44.07 40.11 44.22 43.30 44.31 40.93 46.40 50.14 50.05 54.27 53.67 56.20 56.82 54.77
53.24 52.85 52.79 52.95 52.97 53.82 53.75 54.44 54.89 55.15 55.23 55.41 55.63 56.16 56.44 55.13 55.62 55.07 47.14 48.46 49.87 52.13 51.56 49.44 49.31 52.17 52.05 53.84 52.78 46.13 46.39 50.28 47.58 47.85 45.92 44.02 40.36 42.41 38.36 39.19 42.65 45.40 47.43 44.32 43.84 47.02 50.72 53.11 53.03 53.91 54.46 52.14 53.10 56.37
53.27 52.88 52.50 52.99 53.60 53.16 53.34 54.20 54.99 55.25 55.29 55.19 55.67 56.10 55.71 55.09 55.55 55.84 47.50 49.36 47.90 48.94 46.50 49.37 56.72 53.07 55.89 55.18 54.53 50.65 51.16 51.93 50.50 47.88 43.90 40.97 41.39 43.77 41.00 43.50 42.92 45.40 44.51 43.68 44.55 47.82 50.91 51.79 52.08 52.07 52.95 54.17 54.88 55.60
53.07 52.36 52.42 53.05 53.31 52.78 53.21 54.32 54.85 54.89 55.23 55.27 55.73 55.57 55.01 55.13 55.59 52.95 49.82 49.66 50.30 48.44 45.47 47.83 53.67 55.60 56.33 53.88 53.04 51.20 50.59 48.87 47.79 44.38 42.02 41.35 45.08 44.98 42.61 41.62 40.75 45.64 43.51 41.97 42.80 48.06 46.22 48.17 51.18 52.97 52.21 52.34 53.85 53.47
52.79 52.02 52.38 53.09 52.96 52.56 53.42 54.07 54.51 54.77 55.03 55.55 54.86 54.58 54.58 55.29 53.99 47.25 45.54 49.84 51.08 49.75 48.06 46.51 52.76 53.85 51.46 52.12 51.37 49.56 49.39 48.50 47.39 45.84 43.77 45.97 47.95 44.13 39.37 38.57 45.04 46.72 48.44 48.52 49.41 51.21 50.01 52.23 53.66 54.09 52.20 53.46 53.98 52.84
52.56 52.14 52.45 53.05 52.73 52.49 53.27 54.23 54.71 54.93 55.21 54.82 54.05 54.11 54.94 54.32 48.18 45.93 46.70 51.20 49.92 47.79 49.50 46.67 46.98 53.00 53.45 51.08 50.07 49.45 48.97 48.65 47.55 45.21 45.35 46.01 45.59 43.88 39.73 38.22 46.30 48.62 50.55 51.04 51.95 51.33 50.28 51.73 50.83 53.28 54.67 55.23 54.87 54.59
52.23 51.89 52.42 53.05 52.46 52.00 52.76 53.82 54.66 55.05 55.13 54.38 54.32 54.54 54.40 52.48 49.81 45.31 48.26 50.69 49.38 49.68 50.89 43.88 44.17 49.24 53.00 46.81 46.71 48.82 47.19 46.86 46.86 46.37 46.17 46.26 46.77 45.48 40.61 44.17 48.28 50.81 51.10 51.49 51.95 51.81 50.94 51.73 51.73 52.59 53.27 53.03 52.20 52.39
51.59 51.83 52.72 52.50 52.08 51.77 52.16 52.00 52.93 54.02 54.12 54.00 54.32 54.38 49.64 46.11 44.07 47.55 56.72 53.84 52.29 51.03 44.68 43.93 41.89 44.20 52.86 48.99 47.49 47.99 47.66 42.74 46.67 44.37 44.37 46.97 43.14 41.56 45.36 46.46 51.00 49.93 49.86 50.22 51.72 52.15 52.12 51.60 51.58 52.28 52.62 51.92 50.72 51.10
50.89 51.55 52.82 52.70 51.99 51.70 51.55 51.28 51.31 51.52 52.40 53.21 51.69 46.78 42.57 47.48 56.11 57.14 52.61 50.47 49.40 48.07 49.12 46.24 48.91 44.94 50.95 48.73 45.98 45.99 45.90 44.05 41.87 45.69 47.40 43.23 41.80 47.58 50.09 51.10 53.62 52.45 51.93 52.00 49.75 48.40 49.57 50.25 50.70 51.10 50.72 52.72 51.99 51.64
50.94 51.74 52.72 52.35 51.62 51.56 51.74 50.95 50.44 51.03 51.74 49.89 46.47 46.14 52.49 56.45 50.33 48.21 44.42 45.01 46.35 42.05 44.15 47.34 46.71 45.50 51.62 47.14 45.85 48.27 46.65 44.01 39.92 43.72 44.51 42.20 42.06 47.73 52.29 51.69 52.95 53.98 53.06 53.11 52.21 51.86 51.85 52.03 50.64 50.44 50.20 51.32 52.46 51.96
51.01 51.62 52.32 52.47 52.00 51.81 51.40 50.75 50.54 49.90 50.04 49.75 48.70 50.68 53.25 51.22 47.07 42.06 42.27 43.68 44.32 42.40 45.27 44.50 46.15 49.04 49.78 51.01 46.87 48.50 44.63 45.98 41.28 46.36 44.77 39.25 45.88 49.18 52.21 54.02 54.24 53.10 54.05 53.64 54.43 54.14 53.00 52.16 51.27 50.57 51.45 51.95 51.43 51.57
50.94 51.31 52.35 52.14 52.06 51.87 51.23 50.66 50.35 50.62 50.91 52.14 50.83 49.86 48.11 45.65 36.35 39.40 37.45 40.03 40.94 46.81 46.59 45.71 45.47 47.10 49.17 49.59 46.99 45.53 43.08 42.07 49.54 42.51 40.92 41.59 46.56 51.81 51.86 53.30 54.40 54.66 54.88 54.70 54.43 54.31 53.04 51.79 51.95 52.09 51.23 51.75 51.66 50.42
50.61 50.91 51.92 52.10 51.92 52.17 51.40 50.55 50.57 51.12 49.92 48.35 46.49 38.93 40.68 38.96 41.07 42.15 43.37 44.39 46.78 47.88 47.20 43.96 47.85 46.54 48.47 45.10 46.03 43.32 45.10 46.07 40.76 39.06 40.76 45.26 50.94 52.19 52.08 53.18 53.44 53.80 54.41 54.31 53.50 53.05 52.36 52.06 51.64 52.06 51.63 51.20 50.20 48.59
50.59 51.09 52.13 51.94 52.04 52.07 51.43 50.71 51.10 51.32 49.74 46.85 46.60 38.88 42.42 44.71 45.48 47.65 49.34 49.65 50.47 50.83 48.73 46.68 49.00 48.71 46.97 45.53 47.42 46.41 44.25 41.78 41.28 41.97 44.49 47.48 52.39 52.32 52.00 52.34 52.19 52.33 51.84 52.12 52.68 52.10 52.03 51.90 50.73 49.78 50.02 48.88 48.53 47.80
51.06 51.24 50.79 51.69 52.17 51.79 51.24 50.41 50.45 50.32 48.31 46.61 46.09 44.32 45.24 44.75 45.79 47.94 48.19 48.83 52.02 51.42 50.15 49.66 45.92 45.79 44.46 45.49 43.67 42.24 41.06 39.86 41.76 46.10 48.79 52.02 52.29 51.91 51.63 52.14 52.12 51.69 51.21 51.64 52.23 52.06 51.90 50.79 49.31 48.71 49.50 49.44 49.49 48.31
51.08 48.99 51.94 51.77 51.86 51.72 51.32 49.86 48.30 46.76 46.76 45.53 42.96 45.55 45.59 45.51 45.72 46.31 49.69 50.29 53.95 51.58 46.41 48.26 42.47 41.49 44.75 42.35 41.89 44.19 41.53 42.51 51.19 52.06 51.82 52.27 53.37 52.38 52.28 51.96 51.94 52.17 52.10 51.90 51.11 51.32 49.57 48.56 49.35 48.05 45.23 45.11 46.74 46.20
49.45 51.36 51.85 51.14 50.79 49.82 49.11 48.53 48.17 45.79 43.33 43.79 40.99 43.26 45.87 47.49 47.89 49.32 49.24 53.15 51.39 48.04 47.91 47.75 46.38 41.08 40.75 40.82 40.75 43.63 44.87 49.99 52.64 53.54 54.13 54.48 54.84 53.37 53.66 51.48 52.35 52.58 52.38 52.27 51.82 50.28 49.64 48.57 47.17 45.55 44.81 44.99 45.36 45.30
50.96 51.00 51.32 51.29 50.40 49.41 47.89 47.13 49.24 44.12 44.21 45.78 45.67 47.57 48.38 48.23 49.37 51.20 52.56 52.53 52.91 52.65 48.92 46.00 45.17 42.77 42.16 44.10 45.72 48.72 48.34 49.37 51.90 51.95 53.40 55.21 55.05 54.05 52.51 52.22 52.46 51.36 51.67 50.70 50.16 50.32 49.56 48.60 48.54 47.15 46.87 45.60 44.51 44.44
51.20 51.04 50.66 50.94 50.65 47.96 45.84 46.25 49.82 45.58 43.37 46.52 47.67 47.03 46.48 46.51 49.38 50.60 51.47 51.50 51.70 49.00 45.42 45.97 45.09 46.77 46.78 48.83 50.01 51.38 52.69 53.25 53.57 51.19 51.02 54.10 54.55 54.13 52.67 53.01 52.67 51.12 50.77 50.28 48.84 48.61 46.52 45.09 45.44 45.99 47.24 46.00 44.48 44.32
50.02 50.35 50.81 50.52 48.67 48.19 47.24 46.16 46.27 46.53 46.41 45.30 47.60 47.59 48.01 48.38 47.43 49.13 49.46 51.73 49.67 47.79 46.69 48.15 46.76 47.21 49.74 51.88 53.05 53.79 53.03 52.98 52.84 53.23 52.68 52.82 54.95 55.35 53.36 52.23 53.06 53.06 51.49 49.39 47.25 45.96 46.44 46.23 45.26 45.81 45.91 45.09 45.00 45.66
50.74 51.35 49.59 49.84 46.85 47.53 46.65 47.82 45.72 48.53 47.22 46.35 45.88 46.86 46.02 45.55 45.58 46.75 51.21 48.38 49.00 48.18 48.08 48.06 48.26 49.28 51.98 51.06 52.03 53.45 54.46 54.12 54.28 53.17 50.37 52.43 53.24 52.99 51.83 52.98 53.34 52.85 52.23 50.68 48.16 46.21 46.01 45.84 45.41 44.24 45.43 45.13 43.27 43.16
51.40 50.90 49.57 48.92 45.16 43.37 41.00 46.97 45.54 45.55 42.17 44.15 47.22 43.73 43.91 44.62 46.82 49.71 45.86 47.24 47.58 50.52 50.53 51.11 51.90 51.60 51.88 51.96 52.86 53.68 53.23 53.04 53.22 54.36 54.71 54.49 55.40 53.82 51.86 51.26 53.16 52.07 51.23 50.48 49.30 47.04 47.28 45.86 45.24 46.12 44.76 43.97 43.58 43.11
51.22 48.87 46.69 45.55 44.19 38.62 45.30 43.96 46.67 45.79 46.58 43.19 42.63 43.02 44.03 45.03 48.20 46.07 44.56 46.07 48.49 50.02 50.32 50.53 51.65 50.58 50.14 50.52 49.94 50.49 52.40 52.30 53.04 55.41 57.03 55.87 53.66 53.48 53.71 52.40 51.17 52.25 52.25 50.67 49.15 48.10 47.83 47.08 45.24 46.41 46.18 45.41 44.85 44.53
42.57 40.05 41.75 35.86 45.27 43.52 44.12 44.84 45.46 43.84 42.80 44.03 43.69 43.60 44.63 47.57 43.95 43.96 44.36 47.20 50.16 51.03 52.34 52.47 52.53 52.72 51.16 50.93 51.47 52.87 54.48 53.72 52.61 53.52 55.19 56.87 55.40 51.65 50.60 51.73 52.74 54.03 50.63 49.66 47.94 48.48 47.95 47.34 45.54 46.68 46.63 46.51 45.92 45.44
36.15 41.66 38.87 43.71 43.00 43.77 43.38 42.96 43.27 43.14 43.63 43.87 44.79 46.36 47.29 45.25 44.10 44.67 47.19 48.61 49.98 52.35 52.23 51.45 51.80 52.50 52.77 53.59 51.65 51.11 52.59 56.27 55.59 53.09 53.52 56.12 54.93 53.59 52.25 50.90 50.44 51.42 51.33 51.36 50.18 48.72 47.81 48.42 47.30 47.03 46.70 45.73 43.20 45.78
37.32 41.11 44.96 46.79 46.49 47.33 43.99 46.79 47.08 44.50 43.91 44.28 45.98 46.28 46.70 44.54 44.90 47.33 49.09 50.45 51.92 52.74 54.24 54.56 54.82 53.34 52.69 53.40 54.00 53.99 54.83 56.14 56.58 55.82 56.32 57.20 56.83 56.56 55.35 52.89 51.06 51.82 50.12 51.33 50.66 49.61 48.46 47.99 47.51 47.36 46.10 44.53 44.61 45.33
42.68 43.13 41.77 45.42 45.25 46.87 44.29 44.81 44.96 44.16 43.18 45.18 45.04 44.53 44.61 44.55 42.99 48.00 50.43 54.33 54.85 55.70 55.50 56.27 55.25 54.22 53.77 53.54 54.54 54.23 53.98 55.84 55.33 55.51 54.54 53.85 53.89 54.58 57.06 53.48 52.84 45.37 51.78 52.06 51.22 50.60 49.73 48.80 48.00 47.11 45.88 44.46 44.64 46.30
43.53 47.42 46.58 43.48 45.43 46.38 46.54 45.14 44.05 44.63 46.62 46.12 44.75 46.71 45.69 50.27 53.03 52.63 53.30 54.70 54.86 56.10 55.28 53.98 54.36 54.84 53.66 53.66 53.81 53.46 53.26 53.22 52.15 48.99 47.55 47.46 49.43 49.75 51.18 50.40 49.70 49.66 50.14 49.25 45.08 47.74 49.78 49.28 48.49 48.14 47.13 45.92 46.11 46.28
42.82 47.03 42.91 44.92 44.03 45.83 46.97 49.75 48.82 49.92 49.79 50.86 51.58 48.88 50.11 50.92 53.92 55.19 53.83 53.33 52.90 53.36 53.40 51.53 50.06 50.64 50.96 51.11 47.12 50.26 52.15 51.87 51.65 50.06 47.80 46.79 47.36 50.27 51.75 51.59 50.66 49.59 49.74 49.22 48.56 47.38 44.82 46.70 44.62 45.80 45.39 44.99 44.28 44.65
45.25 46.43 44.53 45.27 43.60 48.79 49.69 50.93 51.83 52.67 52.80 51.71 51.78 49.48 49.13 51.49 54.44 52.33 51.01 50.41 50.36 50.98 50.77 49.16 49.44 50.12 48.44 49.12 48.92 48.89 48.76 51.72 52.94 52.72 53.85 53.21 52.40 52.14 51.02 50.36 50.16 50.91 50.72 50.53 49.72 48.39 46.60 45.79 44.70 44.40 44.65 44.36 44.70 44.12
43.37 43.83 44.35 43.12 44.71 49.29 51.26 49.12 49.38 50.30 51.14 50.72 50.37 50.67 50.89 51.19 48.55 49.24 52.31 50.67 49.65 48.82 48.52 48.45 47.25 47.39 49.08 49.22 51.58 51.20 46.39 51.36 51.19 49.85 50.58 50.14 51.90 51.67 51.04 50.34 50.17 50.50 49.76 48.18 47.57 45.79 45.59 45.04 44.71 44.70 44.62 45.01 45.16 45.35
44.28 45.22 44.90 44.67 44.77 46.66 49.39 50.41 50.05 49.65 49.97 49.16 48.75 50.02 49.92 48.37 46.30 49.51 51.74 51.07 49.37 48.49 48.23 48.30 48.51 48.37 50.17 49.41 49.86 50.15 48.22 51.08 49.25 43.21 40.91 40.46 40.34 45.53 49.71 49.64 50.34 51.35 50.46 47.56 46.28 45.72 45.85 45.55 45.23 45.40 45.33 45.39 45.46 45.50

GFSWCAN_sfc_wetblb_111.txt.gz
Wetbulb
54.79 54.12 53.34 53.05 52.70 52.63 53.11 53.83 54.12 54.44 55.11 54.94 55.06 54.99 56.15 56.47 55.84 54.08 50.22 49.62 46.51 45.09 48.00 53.82 54.52 50.80 49.18 45.48 42.04 44.20 45.17 44.48 40.51 38.91 39.64 38.46 37.38 39.42 36.83 39.50 41.06 40.46 37.29 36.08 34.83 32.02 32.18 48.98 49.47 44.39 47.38 52.45 55.28 54.56
54.55 53.82 52.84 52.81 52.91 52.49 53.40 53.59 53.93 54.63 54.93 55.38 55.20 55.36 56.20 56.42 55.37 55.15 48.22 49.29 49.28 44.50 46.72 54.52 57.19 57.89 55.64 52.87 47.41 45.09 46.12 44.31 44.83 41.53 40.72 41.30 38.92 39.40 36.47 35.67 43.22 40.83 42.38 40.43 41.49 39.87 45.08 48.09 48.54 51.01 53.52 54.65 55.10 56.75
54.27 53.85 53.35 52.94 52.77 52.83 53.67 53.23 53.50 54.59 55.23 55.31 55.36 55.56 56.12 56.16 55.17 54.99 49.51 47.09 47.34 48.08 50.31 47.74 51.66 52.71 54.75 53.09 51.86 46.45 45.12 48.83 45.39 45.98 43.38 41.91 39.56 40.67 36.93 38.39 40.87 42.91 46.10 42.91 42.53 44.40 47.66 50.35 51.47 52.75 54.68 54.08 56.04 57.80
54.12 53.83 53.42 52.84 52.80 53.29 53.08 53.03 53.75 54.73 55.09 55.13 55.44 55.82 56.28 55.37 54.97 55.34 50.61 47.61 45.86 45.64 44.15 46.39 55.88 53.72 54.21 54.09 52.16 49.66 50.71 49.33 47.50 45.22 41.70 39.47 39.98 41.73 39.02 41.60 42.04 44.76 45.07 43.31 42.85 45.94 49.17 51.31 50.68 51.26 52.96 55.08 56.72 58.46
52.28 53.84 53.44 52.66 52.90 53.19 52.62 52.87 53.79 54.45 54.75 55.03 55.39 55.72 55.33 55.01 54.77 54.78 52.31 50.50 48.51 45.03 43.11 45.12 50.46 54.60 54.64 54.39 53.24 50.51 50.15 48.33 45.54 43.17 40.85 40.41 42.12 42.65 39.65 40.13 40.48 44.40 41.75 42.21 41.33 46.74 46.32 48.42 49.95 52.45 52.55 52.90 54.46 55.14
51.36 52.98 52.81 52.14 52.36 53.24 52.52 52.85 53.98 54.78 54.67 55.11 55.25 54.22 54.32 54.50 54.39 47.34 43.47 48.22 49.85 49.03 45.32 43.78 50.39 52.75 52.80 52.65 49.73 49.00 47.96 46.59 45.27 44.38 42.49 43.07 45.56 41.87 38.54 36.31 42.55 44.08 45.01 46.59 47.39 48.66 48.55 50.28 51.48 52.64 52.50 51.98 53.26 55.54
51.43 52.91 52.81 52.18 52.60 53.07 52.47 52.69 53.90 54.80 55.05 55.09 54.10 53.83 53.98 54.15 49.23 44.65 44.21 47.82 48.74 47.23 46.39 44.41 45.12 51.11 53.33 49.59 48.82 47.85 47.09 46.54 45.98 43.67 42.99 44.36 43.55 41.76 38.39 38.93 45.58 46.56 47.90 49.33 50.29 50.93 48.73 50.10 49.20 52.01 53.49 53.58 53.36 53.67
51.72 53.08 52.52 52.42 52.85 52.69 52.11 52.53 53.49 54.69 54.95 54.75 54.06 53.98 54.19 53.13 49.48 44.64 47.27 51.00 48.16 44.62 49.62 43.46 43.14 47.44 50.61 45.56 45.44 46.91 45.09 44.91 45.40 44.17 44.87 44.33 44.90 42.07 38.32 41.95 43.79 47.80 49.30 49.85 50.02 49.77 49.87 49.77 50.48 51.16 52.57 52.93 52.14 52.88
52.36 52.53 52.00 52.28 52.45 52.01 51.74 51.76 51.98 52.66 53.92 53.92 54.11 53.86 49.08 46.04 43.00 45.08 55.18 53.17 48.93 49.30 42.51 40.87 38.66 42.66 51.87 46.73 46.28 46.79 45.18 41.92 44.84 43.42 43.03 45.28 41.62 40.36 43.93 44.84 48.21 48.91 48.96 49.38 49.90 50.55 50.17 49.86 50.03 50.09 50.72 51.49 50.61 50.21
52.17 51.28 51.33 51.84 52.57 51.78 51.41 51.37 51.22 51.26 51.46 52.71 51.45 45.43 41.04 45.66 53.29 55.75 50.94 48.77 47.13 46.14 46.89 44.01 47.01 44.36 50.44 47.75 45.59 45.59 44.80 42.65 41.41 43.75 44.73 42.36 41.21 44.80 46.49 48.20 50.78 49.51 49.75 50.02 48.42 46.70 47.72 47.88 49.01 48.96 49.97 51.55 51.17 50.24
50.99 51.19 51.65 52.31 52.10 51.47 51.39 51.45 50.74 50.75 51.86 49.55 45.71 44.33 49.23 54.77 49.03 47.35 44.66 43.11 45.25 41.87 42.51 46.11 46.52 43.75 49.76 47.55 45.74 47.82 43.61 42.49 39.54 41.42 42.20 39.94 39.08 45.12 50.32 49.45 51.09 50.62 50.65 50.83 52.07 51.25 51.11 51.29 49.16 48.64 49.63 51.52 52.13 51.22
50.66 51.02 51.55 52.31 52.33 51.39 51.41 51.06 50.30 49.58 49.90 49.26 48.90 50.17 51.37 49.28 45.15 41.53 40.93 42.55 42.46 40.14 42.70 43.45 44.94 46.26 49.08 51.36 48.87 48.82 44.39 45.32 40.10 45.46 42.79 36.81 43.80 47.07 49.94 51.26 51.87 51.09 51.64 52.30 51.89 51.43 51.43 51.29 50.73 50.19 50.30 50.51 51.51 50.29
50.55 51.05 51.19 52.07 52.10 52.05 51.45 50.81 50.08 50.21 50.71 51.38 50.56 48.75 44.95 43.23 34.75 37.49 36.01 38.70 38.47 44.38 43.87 44.70 44.80 46.67 47.70 48.36 46.17 46.39 43.51 41.70 46.29 41.42 40.06 41.00 44.08 48.11 49.66 51.48 52.32 52.03 52.84 53.15 53.06 52.36 51.19 49.93 50.80 51.25 49.90 50.29 50.48 49.34
50.22 50.69 50.80 51.62 51.98 51.75 51.55 50.71 50.11 50.60 49.82 47.45 46.06 37.36 39.61 37.15 39.52 39.92 40.45 41.15 44.22 45.21 46.77 45.07 45.63 44.30 46.25 44.65 45.22 43.28 43.84 44.46 40.00 36.69 39.73 44.15 45.36 47.91 50.17 52.13 52.94 51.91 51.93 52.36 52.23 50.86 50.36 50.56 50.15 50.90 51.31 50.68 49.39 48.71
50.18 50.51 50.89 51.94 52.24 51.96 51.55 50.86 50.86 50.87 49.28 46.47 46.48 38.40 40.92 42.90 43.72 45.13 46.57 47.03 48.17 49.07 46.68 44.71 47.35 46.91 45.16 43.55 44.58 43.61 42.36 40.06 40.69 40.64 44.80 44.98 46.73 49.95 50.33 51.02 51.70 51.52 51.20 50.56 50.39 50.21 50.21 50.41 50.26 48.62 48.49 48.13 47.78 46.99
50.68 50.61 50.37 51.83 52.06 52.09 51.11 50.40 50.13 50.31 48.08 46.60 45.83 42.94 44.10 42.30 42.91 44.54 47.09 48.75 50.72 49.23 49.73 49.38 45.94 43.63 42.78 43.71 42.99 41.07 40.59 39.54 41.97 44.08 44.96 45.69 48.26 50.38 50.47 50.95 51.24 50.88 50.63 50.28 50.00 50.42 50.29 49.96 49.32 48.05 46.82 47.43 47.39 47.32
50.60 49.02 51.77 51.54 52.09 51.46 50.52 48.55 48.49 46.94 46.58 45.48 43.11 44.53 44.38 43.76 42.90 44.26 46.55 49.68 51.96 49.37 45.78 47.84 43.55 42.87 45.34 41.41 40.25 43.33 40.88 41.12 45.39 49.50 50.57 49.86 49.94 50.90 50.50 50.41 50.30 50.14 49.84 49.60 49.96 49.49 49.33 48.71 47.66 47.13 45.47 45.45 46.32 46.13
48.92 51.03 51.72 51.36 50.36 50.20 48.25 48.70 47.36 45.63 43.51 43.75 40.06 41.76 44.85 45.83 44.99 46.34 49.11 50.99 50.12 49.00 47.48 46.53 47.41 42.10 40.91 40.86 41.04 43.64 45.50 46.16 49.27 50.60 50.85 49.93 50.39 51.60 53.38 50.43 50.39 50.44 49.89 49.87 50.42 48.38 47.68 47.02 46.33 46.00 44.78 44.46 43.96 43.75
50.64 51.12 51.67 51.37 50.55 48.36 45.23 46.29 47.73 44.34 44.22 43.12 44.22 44.24 44.66 45.96 47.44 49.33 50.35 52.08 51.82 52.61 50.08 46.64 43.82 41.92 42.50 44.18 44.72 46.09 47.05 47.23 48.26 49.72 50.78 51.56 51.66 52.98 51.17 50.02 49.74 49.47 49.98 48.86 48.51 48.58 48.59 48.30 47.84 45.44 46.08 45.15 44.80 43.31
50.98 50.81 51.24 51.56 50.72 47.48 45.36 45.39 48.99 44.07 42.57 44.22 46.19 45.60 45.54 45.19 48.14 49.05 49.75 50.89 50.52 48.54 45.59 42.89 43.66 44.25 44.48 46.34 48.19 47.78 47.43 49.93 50.06 49.87 50.76 53.47 52.79 50.98 50.35 50.91 50.82 49.42 49.47 48.80 49.51 47.26 47.16 45.17 43.70 44.52 45.71 44.53 43.52 42.96
50.25 50.41 50.84 50.30 48.47 47.70 46.28 45.88 44.64 45.22 45.05 43.39 46.96 47.74 47.24 48.27 48.43 49.00 47.05 49.42 45.92 45.61 43.89 45.12 46.37 46.99 47.31 48.59 49.31 49.19 49.10 50.86 50.85 50.37 50.61 51.23 52.93 51.44 50.16 49.71 49.98 50.85 49.53 49.07 49.45 48.21 47.06 47.01 46.03 45.22 45.22 44.33 44.24 44.51
49.98 51.45 49.24 49.59 46.94 47.14 46.26 47.92 45.43 46.91 45.29 45.13 44.61 45.26 44.29 44.12 45.58 45.74 49.14 46.35 45.68 46.53 46.98 47.32 48.94 49.58 47.90 49.93 50.69 51.49 52.21 51.43 51.26 50.83 48.51 51.29 52.41 52.42 50.74 50.65 50.67 49.91 50.25 50.84 50.41 48.37 47.89 46.62 46.61 46.61 45.97 44.99 43.64 43.99
50.61 50.21 49.12 47.89 44.74 42.70 41.41 45.68 42.78 43.87 41.19 42.78 46.38 42.46 42.57 43.92 45.36 48.80 44.75 45.89 46.97 49.13 49.86 48.65 48.64 48.93 49.13 50.94 50.96 51.65 54.08 52.92 51.10 50.74 50.68 51.53 52.80 53.64 52.50 51.42 52.74 51.06 49.05 49.37 50.62 50.46 48.60 44.21 44.51 46.68 46.79 43.88 42.41 41.45
50.70 48.06 45.93 45.03 43.56 38.99 43.82 42.53 44.42 44.11 44.53 42.84 41.65 42.10 43.19 43.58 45.93 44.28 43.13 44.59 46.39 48.43 49.02 49.38 49.76 48.44 48.09 48.57 49.08 50.23 51.71 51.14 50.95 51.38 52.33 53.07 52.66 52.77 53.69 53.23 53.06 53.18 53.10 51.22 48.67 48.41 48.80 46.37 44.24 43.83 44.36 43.72 43.81 42.02
42.12 40.76 42.80 36.14 45.41 43.40 41.86 43.57 44.14 42.88 41.72 42.88 42.54 42.02 42.95 45.46 42.69 42.35 42.11 44.79 47.47 48.94 49.43 50.00 50.15 49.24 47.99 47.95 48.41 49.50 50.06 50.95 50.30 49.93 51.73 54.70 53.30 52.50 52.44 52.37 52.23 51.94 52.16 49.21 48.61 48.47 46.06 45.81 45.78 45.24 44.88 44.81 44.55 43.68
35.97 40.54 38.94 41.84 41.46 42.01 43.04 42.20 43.46 41.98 42.36 42.24 43.12 44.61 45.48 43.52 42.50 42.01 46.28 49.37 48.11 49.36 50.06 50.52 51.63 49.94 51.31 52.16 49.80 50.23 51.51 53.27 52.13 50.88 51.64 53.50 53.37 52.36 51.70 50.27 48.98 49.08 50.89 51.79 49.97 48.35 46.93 46.65 46.17 45.75 45.72 45.11 42.12 44.78
36.19 39.05 42.07 44.74 45.26 46.88 43.00 45.38 46.43 43.06 42.45 42.16 43.91 45.33 45.14 43.58 44.35 46.53 48.21 49.14 49.85 51.29 52.56 52.70 52.57 50.94 50.49 51.91 51.68 52.33 53.68 54.71 54.57 54.93 56.18 55.72 56.16 55.62 54.71 53.01 52.24 53.51 52.07 51.58 51.07 50.44 48.78 47.97 47.14 46.77 46.50 46.23 46.23 46.11
41.63 42.36 40.89 45.41 43.56 44.93 43.30 43.04 42.56 42.87 42.95 44.29 43.82 43.80 44.33 43.75 42.18 46.84 47.97 50.69 52.70 54.83 55.71 54.91 53.35 52.47 51.66 51.85 52.66 52.63 52.73 53.28 53.99 54.09 54.24 52.25 52.77 54.88 56.28 55.80 55.05 46.15 51.19 52.75 51.94 52.06 50.63 49.56 48.02 47.56 46.44 45.12 44.75 43.84
41.67 45.99 45.32 43.07 44.88 46.05 45.32 44.07 43.12 45.10 45.42 44.50 43.39 43.88 45.23 48.26 52.24 52.89 53.92 54.30 53.39 53.34 52.75 49.13 49.10 49.68 49.49 48.28 48.90 49.94 51.21 52.32 52.33 50.70 48.44 48.44 50.03 50.01 48.90 49.26 47.16 48.11 49.92 48.52 41.86 46.80 48.60 49.26 48.39 47.72 47.50 46.43 45.89 44.82
41.69 43.37 41.48 42.22 43.70 44.06 46.69 49.46 48.96 49.88 49.77 50.85 50.62 49.78 50.10 51.14 52.84 53.97 52.16 49.64 48.91 48.92 49.55 47.06 47.26 46.90 47.25 48.35 47.80 48.12 49.99 51.38 50.60 49.67 47.63 45.67 45.43 47.37 49.04 50.62 50.97 51.09 51.70 51.55 50.42 48.85 45.63 48.31 46.56 47.72 45.79 44.63 43.88 43.50
43.82 42.57 41.10 42.04 44.29 48.27 49.34 51.32 52.27 52.56 52.22 51.12 51.11 49.26 48.40 51.08 52.71 50.77 48.89 48.49 48.25 47.95 47.27 46.83 46.97 47.18 46.89 46.89 46.74 48.90 49.17 50.47 52.45 52.30 53.07 52.30 52.69 52.37 51.99 52.84 51.55 50.32 51.28 51.74 50.87 49.77 48.09 47.14 47.34 47.46 46.59 45.02 43.86 43.04
40.54 40.31 40.12 40.82 43.93 49.31 51.03 50.42 50.14 49.71 50.68 50.62 50.05 50.68 50.82 50.22 46.27 47.13 49.47 48.91 47.98 47.11 45.90 45.86 45.99 46.45 47.46 47.72 49.65 50.26 45.36 48.53 49.62 47.92 48.09 51.31 52.92 53.48 52.59 48.32 47.94 49.31 49.83 49.79 49.17 49.30 49.15 48.28 46.15 46.36 46.39 43.80 43.46 43.33
41.04 41.47 42.04 42.30 44.12 46.99 48.88 49.08 47.34 48.81 49.22 48.55 49.03 48.96 47.95 48.30 44.60 47.23 49.26 48.32 47.06 46.59 46.68 46.50 46.76 47.22 49.80 48.69 50.07 50.41 47.93 49.32 45.12 41.40 41.62 40.40 42.13 46.00 48.18 47.81 48.02 48.28 47.93 46.16 45.47 45.57 45.64 45.14 44.23 43.32 43.14 43.08 43.35 43.49

GFSWCAN_sfc_wetblb_114.txt.gz
Wetbulb
55.01 55.15 54.68 53.78 52.89 52.69 52.31 52.77 53.80 53.92 54.54 54.98 55.52 55.12 55.02 56.03 56.38 53.59 51.06 50.40 47.93 42.65 44.28 50.49 53.05 48.51 48.20 44.70 41.98 42.65 44.21 43.41 39.63 38.37 38.18 37.80 36.27 39.06 36.00 38.52 38.99 37.80 36.16 35.08 34.66 32.71 32.51 49.22 50.21 46.11 48.43 54.03 55.50 56.18
54.36 54.97 54.73 53.91 53.29 52.96 52.27 52.96 53.80 53.84 54.39 55.19 55.49 55.34 55.46 56.20 56.19 55.21 50.08 48.65 49.17 44.49 43.88 50.09 52.61 54.88 55.12 53.10 47.73 44.23 43.66 42.77 42.73 39.85 39.76 40.19 38.44 38.35 35.26 35.27 41.39 38.96 40.83 38.62 39.03 38.26 44.48 47.17 48.81 51.90 53.56 54.34 54.82 55.70
52.59 53.72 54.43 54.20 53.65 53.20 53.03 53.62 53.25 53.62 54.45 55.25 55.37 55.47 55.81 56.11 56.11 54.70 50.81 47.21 45.52 43.41 46.23 47.38 48.95 53.87 55.02 55.97 54.38 44.23 45.59 47.09 44.28 44.65 42.69 41.61 39.18 39.58 36.31 37.58 39.80 42.61 45.01 42.40 41.83 44.65 47.28 49.85 51.70 54.08 56.56 55.65 56.73 56.95
50.77 51.75 53.50 54.12 53.68 53.08 53.11 53.52 52.90 53.37 54.41 54.66 55.16 55.45 55.83 56.17 55.59 55.14 51.78 50.24 45.52 43.51 42.11 45.56 52.91 50.48 54.17 51.76 52.66 51.38 48.31 47.07 45.62 43.76 40.67 39.18 39.12 41.15 38.37 40.20 40.95 43.74 44.75 42.32 41.92 45.81 49.20 50.72 52.44 52.21 54.41 56.32 58.12 57.03
49.65 50.43 51.40 53.48 53.42 52.75 52.88 53.50 53.02 53.29 54.84 54.92 55.25 55.59 55.37 55.53 54.70 54.21 53.40 52.33 49.10 43.60 41.26 43.31 48.44 49.43 53.41 54.39 53.80 50.04 49.10 46.36 44.05 42.25 40.11 39.50 40.17 41.24 38.31 39.32 39.37 43.48 43.33 42.29 41.10 47.06 46.15 48.07 52.00 54.89 55.28 55.84 57.94 57.72
49.69 50.39 51.22 52.58 53.08 52.66 52.80 53.36 52.59 53.46 54.91 54.99 55.19 55.04 54.23 54.39 54.48 49.43 43.28 48.18 51.47 47.61 43.06 40.87 47.28 49.21 53.25 51.79 50.45 49.59 47.38 45.11 44.27 43.38 41.09 40.76 43.90 41.95 38.24 36.61 41.96 43.44 44.29 46.48 46.51 48.44 48.01 50.14 51.95 54.63 54.16 55.01 56.43 57.08
50.78 50.72 51.37 52.63 53.16 52.55 53.02 52.97 52.47 53.63 54.89 55.09 54.99 53.91 53.76 53.59 50.94 45.10 43.30 46.46 50.51 48.29 44.28 43.04 43.90 50.36 51.95 48.76 48.16 48.17 46.36 44.80 45.52 42.90 42.50 43.24 42.45 41.19 38.04 37.44 45.06 45.87 47.02 47.07 49.27 49.87 48.55 49.62 49.24 52.70 53.94 54.57 55.92 57.94
51.06 51.29 51.60 52.94 52.61 52.37 52.92 52.16 52.66 53.05 54.52 54.84 54.34 53.91 53.73 53.54 51.22 47.17 49.30 51.07 48.88 44.29 48.24 43.54 42.48 45.06 50.36 44.61 46.39 47.26 45.94 44.04 44.24 43.39 44.04 43.00 43.32 40.48 38.00 42.17 43.34 47.29 49.48 49.29 49.58 49.77 50.07 49.59 50.75 51.59 52.82 54.24 55.23 55.71
51.21 51.63 52.31 52.58 52.21 52.55 52.37 51.87 51.81 52.18 52.25 53.59 53.94 53.84 50.57 47.77 43.00 44.12 54.02 53.47 48.47 47.53 42.84 41.01 38.55 40.01 50.34 45.21 45.53 46.87 46.11 43.46 43.90 42.64 43.14 44.59 40.37 40.04 43.29 43.74 44.70 48.61 49.48 49.31 49.34 49.19 49.55 49.74 49.91 50.51 52.05 53.17 52.76 51.73
51.55 52.03 52.30 51.60 51.75 52.53 52.13 51.71 51.67 51.48 51.40 52.12 51.90 45.98 41.26 44.38 51.87 53.25 49.64 45.79 44.17 46.05 46.24 43.44 46.11 43.30 48.69 46.20 44.60 44.56 44.00 41.45 40.31 42.56 44.37 42.33 41.03 44.90 45.98 46.82 47.49 49.61 49.45 49.50 48.15 46.90 47.39 47.55 49.16 49.64 51.42 52.49 53.04 51.07
52.14 51.60 51.19 51.38 51.86 52.42 51.56 51.54 51.53 50.70 51.62 49.93 46.12 43.98 48.42 53.29 48.88 47.29 43.76 43.57 43.91 41.19 41.62 44.57 46.47 42.50 47.88 46.69 45.22 46.98 41.83 41.50 38.95 41.38 41.89 39.18 38.71 42.86 48.38 48.42 48.70 49.58 49.64 50.37 51.99 51.58 51.33 51.12 48.93 49.12 50.13 51.30 51.43 51.20
50.63 50.81 51.06 51.46 52.31 52.23 51.37 51.14 50.68 49.18 49.89 48.72 48.65 50.40 50.76 48.65 44.78 42.10 40.63 41.64 41.60 39.12 41.15 41.82 44.42 45.09 47.43 50.35 48.10 47.70 43.46 44.00 38.38 44.94 42.11 37.86 43.24 45.58 46.88 50.18 50.39 49.98 49.90 50.70 51.50 51.14 50.58 50.82 50.64 50.65 50.63 50.31 50.68 50.38
50.32 50.61 50.99 51.33 52.11 52.26 51.90 51.20 50.45 50.11 50.47 50.75 49.20 48.91 46.60 44.07 37.19 37.53 36.14 38.36 38.23 43.46 43.58 44.33 43.67 45.70 46.74 48.57 46.65 46.23 42.68 41.09 45.61 41.20 39.78 41.98 44.22 46.61 47.82 49.69 50.53 51.18 51.20 51.83 51.89 51.89 51.67 50.49 50.64 51.16 50.14 50.60 50.32 50.19
49.79 50.25 50.78 50.94 51.74 52.11 51.82 51.03 50.28 50.28 49.36 46.49 46.11 37.48 39.57 37.77 39.25 39.73 39.50 40.38 43.05 44.38 45.61 43.33 44.27 43.22 44.06 43.65 45.77 43.44 45.02 45.47 40.25 36.32 39.38 45.09 46.73 47.20 48.72 50.03 51.03 51.15 51.50 52.21 51.95 51.34 50.38 50.04 50.02 50.80 51.19 50.87 50.78 50.12
49.85 50.18 50.62 50.59 51.72 52.29 51.80 51.02 50.71 50.74 48.84 46.25 45.39 38.08 41.34 42.59 43.06 44.39 45.49 44.85 46.59 46.96 45.80 46.07 45.71 44.88 42.38 42.00 43.62 43.11 41.29 39.18 39.94 40.14 43.05 44.64 45.79 46.44 47.66 50.07 51.37 51.37 50.80 50.74 50.05 49.80 49.70 50.08 50.19 49.15 49.54 50.33 51.01 49.05
50.28 50.15 49.64 51.35 52.20 51.97 51.13 50.23 49.92 50.23 48.17 46.56 45.79 43.41 43.08 42.14 41.65 43.55 44.32 44.92 49.17 47.68 48.00 46.25 43.91 41.12 40.89 41.06 41.55 40.53 40.21 39.24 41.96 44.70 45.69 46.24 45.86 46.98 48.40 50.33 51.71 51.86 50.53 49.92 49.61 49.78 49.85 49.82 49.04 48.35 47.74 48.09 48.52 48.90
50.10 48.52 51.37 51.63 51.83 51.59 50.52 48.48 48.71 46.71 46.22 44.99 43.27 44.31 43.32 42.27 41.60 42.34 44.40 46.15 49.34 46.83 44.20 45.24 40.81 40.97 42.92 40.44 40.52 43.15 41.09 42.83 44.86 47.41 49.84 49.75 49.85 48.56 49.46 50.35 50.36 50.45 49.43 48.73 48.37 49.20 49.10 48.39 47.61 47.82 45.99 46.09 47.26 47.84
48.66 50.92 51.78 51.71 50.88 50.01 48.16 48.49 47.14 45.80 43.88 44.85 40.75 42.44 42.21 43.40 43.12 43.75 46.22 48.63 47.39 46.49 46.19 45.94 48.38 43.43 41.50 40.98 41.64 44.19 45.62 47.39 47.72 48.76 50.05 50.32 50.23 49.56 50.76 50.17 50.26 50.21 48.91 49.07 49.20 48.25 47.66 47.69 47.91 47.99 47.79 46.24 45.99 45.74
50.27 51.22 51.62 51.35 50.31 47.28 45.27 45.91 47.07 43.51 44.68 43.24 43.49 43.41 42.89 43.36 44.56 45.22 47.12 49.61 50.24 51.14 49.36 45.37 44.06 43.53 43.39 44.86 45.13 46.97 47.59 47.43 48.03 49.38 50.41 50.72 50.01 50.36 50.91 51.56 51.09 48.91 48.95 47.71 47.41 47.91 48.57 49.23 49.46 46.82 46.97 46.74 46.76 45.78
50.73 51.07 51.72 51.63 50.98 47.77 45.46 44.55 47.68 43.68 42.00 43.87 45.44 45.41 43.64 43.81 45.88 47.65 48.75 50.90 50.23 48.79 46.11 44.83 43.97 45.25 45.46 46.73 47.73 48.11 47.55 48.94 49.82 49.77 50.20 50.96 50.81 50.33 50.35 50.70 49.60 48.74 48.57 47.93 47.06 45.70 45.63 44.75 45.16 47.10 47.59 47.76 46.21 45.14
50.15 50.39 51.21 50.55 48.44 47.68 46.36 45.62 43.21 44.45 43.41 42.16 46.18 45.70 45.07 47.35 48.81 48.65 48.58 49.98 47.44 46.78 43.38 44.10 45.23 46.97 47.24 47.76 48.06 48.04 47.63 49.12 49.89 50.67 49.92 50.38 52.30 51.60 51.03 50.20 49.52 49.30 48.44 48.17 47.38 46.75 47.40 48.59 47.24 47.54 46.82 46.73 47.08 47.30
49.37 51.41 49.22 49.59 47.08 46.82 45.13 46.92 45.73 46.64 42.77 43.89 43.67 45.48 44.17 44.39 45.51 46.83 49.16 45.70 45.60 45.77 46.09 47.59 48.94 49.87 47.57 48.97 48.55 48.77 49.70 49.14 50.04 50.18 47.12 50.27 51.62 50.94 50.69 49.82 49.77 48.75 48.70 49.38 49.56 48.25 49.54 49.65 47.65 47.39 47.70 47.15 45.14 45.71
50.58 49.81 48.74 47.51 44.69 42.59 41.23 45.31 43.25 43.12 40.56 41.84 45.42 42.79 42.35 43.25 44.54 48.13 44.07 45.15 46.23 48.01 47.63 47.48 48.02 48.70 48.42 49.06 49.77 51.80 50.96 50.98 50.75 51.47 50.94 51.50 52.94 53.64 51.52 50.61 50.85 50.41 49.15 49.43 52.16 50.90 50.32 46.10 45.71 47.70 48.15 47.17 46.00 45.50
50.66 47.61 45.37 44.38 43.36 39.80 43.48 41.05 43.08 42.78 43.35 42.08 40.73 41.17 42.82 43.39 45.31 43.75 42.21 43.61 46.03 48.38 49.14 49.34 49.25 48.57 47.82 47.77 48.40 49.03 49.83 51.96 51.35 51.65 51.91 51.30 51.52 52.38 52.43 52.78 52.70 52.48 52.64 52.32 51.28 51.25 49.09 48.59 45.86 47.52 46.94 46.45 46.33 46.01
41.86 41.04 42.73 36.95 45.00 41.98 40.40 41.69 42.77 41.43 41.31 43.45 42.55 41.80 42.69 45.26 43.48 42.31 42.07 44.15 46.40 48.65 49.29 50.14 49.85 49.12 47.73 47.88 48.23 48.49 49.87 51.10 50.29 50.03 50.88 52.83 52.66 52.24 52.49 53.51 53.40 53.49 52.35 50.10 49.26 50.24 49.45 48.76 47.90 47.04 47.01 47.21 46.28 45.74
36.00 39.83 38.31 42.15 41.68 41.16 43.52 42.51 43.71 42.98 41.70 42.25 42.84 44.49 45.20 43.98 42.17 41.52 47.00 49.02 48.90 48.42 49.65 51.02 50.89 50.06 49.45 50.06 50.20 49.92 50.49 51.06 51.23 50.42 50.80 53.38 53.79 53.10 52.12 51.32 51.08 51.60 53.14 53.53 51.58 50.55 50.18 49.44 47.81 46.99 46.51 45.76 42.61 46.41
35.84 37.79 40.92 43.65 43.76 45.95 42.68 43.91 45.75 43.83 41.95 42.82 43.86 44.99 45.73 43.18 43.17 45.79 48.77 48.59 48.93 51.20 53.46 53.93 52.51 52.00 51.02 50.78 51.24 52.01 51.93 52.34 52.08 52.35 54.44 53.67 54.42 55.55 54.52 52.74 51.76 53.48 53.18 53.18 52.59 52.25 50.65 49.86 48.62 48.13 47.96 47.63 47.03 47.21
40.34 41.03 39.49 43.43 42.90 43.98 42.79 42.45 41.49 41.93 42.74 43.64 43.49 43.77 44.08 43.63 42.11 47.62 48.09 50.16 51.01 52.80 53.94 54.89 52.97 50.53 50.50 50.46 51.05 51.77 52.52 52.35 53.33 52.89 52.91 52.88 53.15 54.22 55.67 56.26 56.51 46.65 53.35 53.86 53.08 53.18 52.65 51.33 50.20 49.17 48.56 47.65 47.22 47.64
40.58 43.99 44.61 42.74 44.50 45.53 45.53 43.00 43.04 45.24 45.38 44.04 43.13 43.23 44.41 47.80 51.53 52.38 53.32 53.62 52.95 52.33 50.11 49.42 49.57 48.38 48.89 49.34 49.87 50.80 51.79 52.51 52.31 50.97 50.80 50.23 52.04 52.64 51.34 53.25 53.75 53.32 51.97 48.08 42.85 49.39 52.63 52.13 50.59 49.47 49.88 48.23 47.28 47.40
41.41 45.00 43.32 43.11 42.97 42.01 46.04 48.48 48.36 49.71 49.80 50.28 49.39 49.06 49.79 49.89 52.01 51.84 49.86 48.44 48.04 47.73 47.19 46.71 46.80 46.88 46.71 48.53 49.26 49.76 50.41 51.30 51.44 52.45 50.56 49.48 49.02 48.57 49.14 49.12 48.96 49.60 50.28 49.40 48.42 47.83 45.13 48.84 46.53 48.17 47.11 46.05 45.72 45.27
43.72 42.05 41.59 43.42 44.75 47.27 48.72 51.22 52.02 51.84 51.78 50.12 50.93 49.05 48.82 50.82 51.44 50.27 48.39 48.54 48.45 47.86 47.17 46.69 47.02 46.62 46.77 46.97 47.51 47.76 47.31 49.37 51.10 51.90 51.14 50.70 51.76 51.81 51.19 50.92 51.35 51.27 51.18 50.93 51.27 51.41 50.05 50.50 50.55 49.64 48.65 47.45 46.18 44.63
39.29 40.08 40.05 40.58 44.79 49.93 51.37 50.31 49.82 49.00 50.29 49.95 49.29 50.77 50.78 49.88 46.32 46.76 48.00 48.02 47.36 46.47 45.55 46.28 46.84 47.00 47.59 48.18 48.87 48.39 43.77 48.13 48.58 48.57 49.59 49.41 51.27 54.39 53.56 50.70 50.82 51.01 51.22 50.55 50.21 49.98 50.12 49.41 48.81 48.73 48.52 49.07 48.64 46.09
39.96 39.83 41.40 43.55 45.87 46.71 49.30 47.99 47.01 48.25 48.99 48.54 49.13 49.46 48.83 47.70 44.41 47.10 48.90 48.30 47.84 47.38 47.24 47.37 47.53 48.28 49.92 50.91 51.31 51.01 47.59 48.99 46.41 42.34 40.91 39.62 42.02 46.09 48.69 48.78 49.89 50.83 50.61 49.87 49.42 49.43 48.74 48.29 47.45 47.37 46.84 46.57 46.63 46.16

GFSWCAN_sfc_wetblb_117.txt.gz
Wetbulb
53.31 54.46 55.33 55.27 54.34 53.39 52.80 52.29 52.75 53.82 53.78 54.38 55.33 55.76 55.43 55.37 55.92 54.56 52.34 52.96 49.94 45.90 48.49 51.08 54.52 51.88 51.33 49.80 47.16 48.10 49.25 48.41 48.66 47.55 46.48 46.23 45.87 47.24 44.90 46.14 46.83 46.45 45.53 45.60 44.40 43.06 40.04 52.01 52.48 49.70 53.05 56.75 58.83 60.84
50.94 52.53 53.52 54.79 54.61 53.91 53.64 52.98 53.35 53.68 53.54 54.33 55.33 55.76 55.72 55.82 55.94 55.49 50.78 51.55 53.05 48.49 49.19 51.14 52.57 53.24 55.57 55.49 52.83 51.00 49.69 50.43 51.44 48.07 47.97 48.18 46.39 46.16 45.43 44.27 48.36 46.59 48.99 48.90 47.85 48.02 51.76 53.74 53.83 56.48 56.76 58.09 58.95 60.46
50.12 50.71 51.87 53.18 54.55 53.94 53.67 53.21 53.58 53.17 53.18 53.95 54.95 55.56 55.82 55.97 56.14 55.57 52.44 50.79 50.09 46.59 48.40 49.01 50.55 55.05 55.74 55.09 56.73 49.49 51.05 52.45 51.32 53.44 50.98 50.61 48.32 48.82 45.62 46.76 48.29 49.84 51.14 50.67 48.70 51.31 52.86 54.35 56.25 56.33 59.11 59.29 61.04 61.96
49.83 49.93 50.27 51.56 52.98 54.00 53.51 53.25 53.52 53.27 53.02 54.42 55.31 55.49 55.63 55.93 56.16 55.93 52.51 53.02 50.44 48.25 44.53 49.85 55.64 54.49 58.28 57.74 56.77 56.06 52.85 53.26 52.52 52.07 50.91 50.43 49.35 49.70 48.88 48.76 49.73 51.58 51.50 50.80 49.44 52.29 54.36 55.39 56.10 56.69 58.77 60.64 60.11 61.17
50.50 50.01 50.05 50.33 51.58 53.39 53.43 53.07 53.46 53.60 53.10 54.40 55.37 55.37 55.61 55.43 55.05 54.95 54.53 52.52 52.01 48.22 43.97 46.21 51.34 54.40 55.27 55.42 55.60 56.18 54.12 52.98 52.12 50.16 50.28 49.34 49.68 49.77 48.59 49.36 49.75 52.19 52.67 50.78 49.36 55.88 56.11 56.67 57.11 58.86 60.41 60.73 60.65 60.20
51.18 50.91 50.56 50.26 51.10 52.51 53.31 53.00 53.24 53.09 53.11 54.50 55.35 55.51 55.03 54.36 54.24 52.27 47.01 53.12 53.76 52.38 46.02 44.15 52.72 52.87 55.43 55.24 54.76 52.86 52.83 52.61 52.00 51.26 49.98 49.28 50.54 51.96 48.63 48.07 52.24 53.58 54.20 55.97 54.66 56.67 55.64 57.80 58.20 57.74 59.86 61.27 61.34 61.41
51.01 51.21 51.09 50.77 51.44 52.76 53.28 52.83 53.24 52.76 53.59 54.87 55.19 54.63 53.81 53.51 53.03 48.11 47.28 49.27 52.34 52.10 46.03 45.31 47.93 54.07 53.95 52.86 52.32 51.70 52.44 50.70 51.96 50.61 51.35 52.08 50.96 51.15 49.73 48.01 53.85 53.64 54.29 53.64 54.77 56.37 54.15 56.64 56.95 58.52 59.14 61.12 60.26 62.41
50.91 51.32 51.23 51.47 51.89 53.30 52.66 53.02 52.43 52.66 52.94 54.18 54.51 54.06 53.62 53.52 52.81 50.62 53.44 51.51 51.56 49.68 48.09 46.52 47.46 49.50 55.09 50.55 50.52 52.74 51.26 51.24 49.46 50.19 50.46 51.21 49.23 49.87 47.59 52.07 52.90 53.77 54.86 54.14 55.44 56.74 57.31 58.52 58.55 58.09 58.70 61.12 61.04 60.87
51.48 51.44 51.48 51.79 52.78 52.65 52.40 52.55 51.84 51.75 52.08 52.33 53.92 53.90 51.95 51.39 48.77 48.89 53.18 53.17 51.95 48.25 46.35 46.52 44.42 45.41 54.46 51.64 51.49 51.00 52.41 48.69 50.85 49.96 49.94 50.96 48.73 49.21 52.43 54.57 52.36 54.74 55.79 56.28 56.39 55.47 56.09 56.68 57.51 57.43 58.30 59.65 60.15 60.45
51.74 51.67 51.67 52.56 52.21 52.04 52.46 52.06 51.79 51.67 51.28 51.50 52.05 48.98 47.02 48.36 51.33 54.23 51.35 46.87 46.57 47.66 49.22 47.02 50.24 46.77 53.13 52.01 50.12 50.03 50.61 49.14 46.04 49.06 49.72 48.38 48.45 53.81 54.94 55.90 57.07 56.93 56.83 56.35 54.24 52.69 54.35 55.41 56.37 56.84 57.61 59.23 60.09 60.19
52.17 52.08 52.27 51.95 51.49 51.62 52.53 51.80 51.66 51.04 51.22 50.20 47.91 46.16 52.19 53.27 52.49 50.34 47.32 45.16 45.08 44.65 47.64 48.80 49.26 46.92 53.08 51.14 50.05 51.34 48.17 48.57 44.67 47.08 46.89 46.28 45.04 50.98 56.52 56.26 57.15 56.21 56.99 57.51 59.13 58.20 57.36 57.68 56.94 57.08 57.79 58.81 59.40 59.91
51.16 51.12 51.21 51.23 51.51 52.31 52.12 51.26 50.94 50.24 49.99 49.05 49.24 51.49 52.15 51.92 48.14 44.58 44.77 45.24 44.58 43.06 46.55 45.83 48.20 49.60 51.33 55.43 52.17 51.54 48.49 48.95 43.91 49.61 46.93 45.79 48.47 54.52 55.57 56.51 57.69 56.28 56.41 56.82 57.91 57.78 57.78 58.03 58.14 58.12 58.32 58.33 58.62 59.64
50.45 50.49 50.91 51.29 51.37 52.25 52.26 51.13 50.79 50.42 50.27 50.98 48.76 48.29 47.77 46.33 39.00 40.77 39.00 41.99 42.70 47.35 48.00 47.61 46.97 50.40 52.52 53.97 50.89 49.74 45.22 45.48 50.19 46.15 45.77 47.73 53.09 54.79 56.03 55.22 56.68 57.16 56.85 57.51 57.02 57.74 57.45 57.79 58.17 58.27 58.08 58.70 57.96 56.81
49.64 50.19 50.60 50.86 51.13 52.17 52.04 51.51 50.66 50.19 49.16 46.34 45.67 37.30 42.70 40.69 42.49 43.47 43.87 45.21 47.99 48.77 49.75 48.39 49.23 49.17 50.12 49.47 50.21 45.23 46.91 47.65 42.51 41.66 43.19 50.41 55.79 57.73 56.85 55.78 55.76 55.70 56.32 56.56 56.84 56.81 56.45 56.15 56.22 57.73 58.21 57.72 56.72 55.85
49.66 49.91 50.26 50.46 50.91 51.95 52.06 51.48 50.78 50.77 48.86 45.82 46.43 39.54 41.88 46.02 46.37 47.62 48.47 48.39 51.14 52.45 50.14 49.92 49.65 50.08 48.33 47.05 48.32 46.66 44.14 41.92 43.45 43.36 48.68 53.30 56.38 54.82 54.62 54.82 55.54 56.75 57.22 57.34 57.37 56.79 56.96 56.69 56.29 56.35 57.04 57.21 57.54 56.21
50.18 49.83 49.49 50.81 51.53 52.03 51.35 50.58 50.35 50.55 48.71 46.54 46.34 44.04 46.47 45.68 45.89 47.06 48.16 48.76 53.08 52.40 51.86 51.67 48.44 46.74 45.88 46.88 44.70 44.24 43.17 42.25 46.06 49.70 52.92 53.67 55.91 55.91 54.23 55.14 56.67 58.11 57.99 58.10 57.67 57.49 56.96 56.32 56.17 56.16 56.33 56.58 56.03 54.65
50.10 48.43 51.28 51.59 51.95 51.73 50.66 49.14 48.87 47.08 46.26 45.31 44.42 47.96 46.86 46.14 45.42 47.04 48.57 49.70 53.93 51.89 49.29 49.85 44.46 43.49 47.66 44.80 43.81 47.40 45.04 48.14 52.15 51.59 55.58 55.87 56.00 56.75 56.73 55.59 56.47 57.69 57.92 57.77 57.47 57.30 57.13 57.13 56.28 54.63 53.96 54.76 55.36 55.23
48.66 51.23 51.96 51.67 51.12 50.01 49.00 48.77 47.28 46.33 43.92 46.01 44.28 46.11 46.85 47.70 46.42 48.52 49.37 52.29 52.28 52.06 51.84 47.81 50.15 45.12 43.45 41.49 44.20 48.97 51.30 52.76 53.40 53.87 54.97 56.49 57.17 57.04 56.22 57.06 57.59 57.80 57.65 57.06 56.94 56.54 55.48 54.34 54.16 54.40 55.05 54.75 54.50 54.28
50.25 51.52 51.86 51.59 50.59 47.95 46.07 46.79 47.62 43.17 45.13 46.77 46.89 47.19 47.29 47.61 48.84 49.43 51.14 52.52 53.95 54.60 52.34 50.72 46.63 44.12 45.18 49.90 50.55 51.59 52.78 53.60 54.53 55.77 56.47 57.26 57.28 56.53 56.33 57.08 57.29 57.00 56.76 56.24 55.44 54.78 55.04 55.62 55.96 55.42 54.34 53.78 53.68 53.76
50.64 51.09 51.79 51.57 51.20 48.41 45.71 46.07 49.71 46.14 44.49 46.67 47.98 47.13 47.76 48.07 50.02 50.63 49.81 51.96 51.67 50.83 48.50 46.56 48.02 49.59 49.90 52.34 53.08 52.47 53.09 55.04 54.07 54.76 55.96 57.35 56.64 55.87 56.34 56.58 56.97 56.23 55.09 54.90 55.21 51.44 54.68 54.50 54.67 53.81 53.79 54.58 53.80 52.81
49.68 50.71 51.55 50.89 48.88 48.14 46.52 46.05 45.93 46.76 46.99 45.72 47.74 47.38 47.94 48.42 49.39 51.06 49.46 51.37 49.39 49.12 47.88 50.59 50.81 51.52 53.91 54.54 53.73 53.63 52.92 53.50 54.10 54.93 55.21 56.48 57.52 56.80 56.09 56.26 55.78 55.07 54.28 53.54 53.40 52.61 50.92 53.88 53.95 54.23 53.30 52.89 53.74 53.84
49.65 51.32 49.57 49.71 47.05 47.14 45.81 47.66 46.30 47.96 46.00 46.42 46.27 47.63 47.67 47.67 48.08 49.70 51.33 49.38 48.86 49.97 50.81 51.19 52.06 53.09 52.52 52.40 53.44 54.68 54.89 55.32 55.26 54.87 48.86 51.77 56.85 56.18 55.54 55.25 54.06 54.22 54.79 55.02 54.84 53.89 54.37 55.13 54.30 54.10 53.72 52.65 49.63 51.09
50.75 50.16 48.51 47.88 44.58 42.41 41.60 48.18 44.62 46.58 43.74 45.15 46.72 45.75 46.34 47.55 48.88 51.96 49.14 49.95 50.95 52.70 53.06 53.01 53.67 54.59 53.92 55.16 55.09 55.64 55.55 55.06 54.98 55.91 57.01 57.77 59.01 58.48 55.89 55.74 56.03 55.90 55.12 55.65 56.24 55.67 55.18 50.36 49.85 52.22 50.76 48.71 48.49 49.47
50.42 47.33 45.10 43.87 43.46 40.81 45.93 44.36 46.25 45.30 46.24 45.65 44.93 43.87 46.24 47.46 50.59 49.38 47.42 48.74 51.86 54.18 54.58 54.85 54.63 54.98 55.57 54.84 54.20 55.92 56.15 56.08 56.85 57.23 56.92 56.54 56.66 57.17 57.40 56.88 57.08 57.70 58.19 57.93 56.72 56.12 54.91 52.61 46.87 50.72 50.64 49.39 49.52 49.62
41.50 41.72 42.91 38.23 45.40 42.29 41.87 42.75 43.86 44.26 42.93 44.73 44.20 45.61 47.32 48.92 46.39 45.67 46.22 50.20 51.96 53.70 54.52 54.94 53.74 53.38 53.64 54.90 55.88 56.27 56.05 55.99 55.70 55.39 57.44 57.38 57.08 57.09 57.09 57.67 57.99 57.79 57.88 56.24 55.56 56.06 55.11 54.72 52.33 51.45 51.69 52.54 51.63 50.93
37.32 41.56 39.49 42.63 43.74 42.94 43.34 42.26 43.80 44.02 44.29 43.86 45.23 47.81 49.23 47.85 44.94 44.75 47.76 50.38 51.03 51.98 54.12 52.89 51.52 51.16 52.87 54.98 55.19 56.70 57.02 57.13 57.20 56.20 58.00 58.11 57.99 57.11 55.85 55.86 55.71 56.61 57.57 57.35 57.06 54.85 53.30 52.69 52.42 51.67 49.81 48.88 45.13 52.06
36.46 39.65 43.68 46.24 44.86 45.68 44.88 45.96 46.93 45.79 44.06 44.25 46.33 46.42 46.55 43.09 43.14 46.99 50.32 53.19 53.81 55.41 56.02 55.21 54.71 52.46 52.49 53.65 55.33 56.51 57.65 57.65 56.96 57.22 58.97 59.10 59.33 59.54 58.78 57.50 57.01 59.39 58.67 57.40 57.21 56.08 53.88 52.09 52.57 51.79 51.04 51.00 53.21 53.15
42.28 43.38 40.90 45.16 44.79 46.77 43.83 44.90 44.37 44.45 45.55 47.75 46.65 45.30 44.11 44.31 45.52 51.32 53.41 55.04 55.29 55.66 55.95 54.86 55.12 53.41 53.52 54.26 54.89 56.26 57.99 58.14 58.18 58.11 57.48 57.03 57.65 59.08 59.30 58.82 59.40 48.39 58.02 57.91 56.75 56.66 55.44 55.08 53.97 52.49 51.04 52.27 52.90 52.82
42.36 44.96 44.84 43.31 45.16 46.10 46.41 45.70 46.08 47.65 49.20 48.45 47.14 46.70 47.80 50.75 53.18 52.09 52.81 54.68 54.62 54.75 52.21 51.95 52.80 53.36 55.29 56.35 56.17 56.53 57.86 58.27 57.45 55.40 54.78 55.43 56.82 56.60 57.18 59.16 58.12 58.20 57.72 55.35 46.67 51.25 54.70 54.40 54.12 53.31 52.19 52.06 52.48 51.62
42.99 45.94 44.37 44.57 43.10 42.66 46.19 49.48 49.75 50.83 51.42 51.95 52.17 51.16 51.92 53.22 54.75 54.64 52.66 52.62 51.70 51.29 51.32 51.56 51.85 52.94 53.29 52.60 52.17 53.58 55.03 55.87 56.46 56.37 54.80 52.95 52.83 53.55 54.72 53.55 53.96 55.19 55.36 54.97 54.47 53.19 43.34 51.18 48.50 51.31 49.42 48.70 49.61 47.90
45.78 45.78 44.10 45.37 44.84 47.39 49.05 51.03 52.33 52.53 52.47 51.54 51.89 50.24 50.65 53.15 55.06 53.98 52.44 52.68 52.25 52.34 52.10 51.53 51.61 52.46 52.34 51.99 50.98 52.08 51.46 53.78 54.83 54.72 55.72 55.40 54.73 55.19 54.65 54.63 55.10 55.11 54.61 54.14 53.81 53.38 52.28 52.01 51.84 50.84 49.91 47.35 46.89 47.28
44.42 43.58 43.72 42.96 45.44 49.47 51.38 50.25 49.56 49.37 50.78 49.85 49.29 50.94 52.12 52.21 49.38 51.36 53.03 53.59 52.88 52.11 48.12 52.06 52.60 52.32 53.82 54.09 54.01 53.27 45.64 54.10 53.76 52.71 52.36 53.06 54.07 56.82 56.57 55.54 55.47 55.10 54.70 54.48 54.83 54.43 53.37 53.26 52.94 52.69 50.65 50.36 49.10 48.77
44.30 43.99 45.67 45.16 44.39 45.36 48.72 48.14 47.30 48.23 49.22 48.90 49.98 50.72 51.85 51.02 47.65 52.49 54.57 54.37 54.10 53.46 53.18 53.48 53.87 54.21 54.29 54.32 54.05 54.95 50.24 55.04 50.02 40.58 40.00 41.65 41.19 47.49 55.06 55.87 56.30 56.23 55.09 54.72 54.40 54.06 53.50 53.02 52.53 52.20 50.59 49.42 49.40 51.27